<?xml version="1.0" encoding="UTF-8" standalone="no" ?>
<gpx xmlns="http://www.topografix.com/GPX/1/1" xmlns:xsi="http://www.w3.org/2001/XMLSchema-instance" xsi:schemaLocation="http://www.topografix.com/GPX/1/1 http://www.topografix.com/GPX/1/1/gpx.xsd" version="1.1" creator="VisuGPX - https://www.visugpx.com">
  <metadata>
    <name>Brunehaut</name>
    <desc><![CDATA[Autour de Wez-Velvain]]></desc>
  </metadata>
  <trk>
    <name><![CDATA[Brunehaut]]></name>
    <trkseg>
      <trkpt lat="50.5534" lon="3.39014">
        <ele>35.730186</ele>
        <time>2021-09-28T08:42:52Z</time>
      </trkpt>
      <trkpt lat="50.55344" lon="3.39004">
        <ele>35.723206</ele>
        <time>2021-09-28T08:42:54Z</time>
      </trkpt>
      <trkpt lat="50.55347" lon="3.38995">
        <ele>35.668106</ele>
        <time>2021-09-28T08:42:56Z</time>
      </trkpt>
      <trkpt lat="50.55351" lon="3.38987">
        <ele>35.635075</ele>
        <time>2021-09-28T08:42:58Z</time>
      </trkpt>
      <trkpt lat="50.55354" lon="3.38981">
        <ele>35.608234</ele>
        <time>2021-09-28T08:43:00Z</time>
      </trkpt>
      <trkpt lat="50.55357" lon="3.38975">
        <ele>35.620621</ele>
        <time>2021-09-28T08:43:02Z</time>
      </trkpt>
      <trkpt lat="50.5536" lon="3.38968">
        <ele>35.619247</ele>
        <time>2021-09-28T08:43:04Z</time>
      </trkpt>
      <trkpt lat="50.55363" lon="3.3896">
        <ele>35.591133</ele>
        <time>2021-09-28T08:43:06Z</time>
      </trkpt>
      <trkpt lat="50.55367" lon="3.38951">
        <ele>35.64069</ele>
        <time>2021-09-28T08:43:08Z</time>
      </trkpt>
      <trkpt lat="50.55371" lon="3.38943">
        <ele>35.604122</ele>
        <time>2021-09-28T08:43:10Z</time>
      </trkpt>
      <trkpt lat="50.55375" lon="3.38935">
        <ele>35.655602</ele>
        <time>2021-09-28T08:43:12Z</time>
      </trkpt>
      <trkpt lat="50.5538" lon="3.38925">
        <ele>35.672886</ele>
        <time>2021-09-28T08:43:14Z</time>
      </trkpt>
      <trkpt lat="50.55384" lon="3.38916">
        <ele>35.738583</ele>
        <time>2021-09-28T08:43:16Z</time>
      </trkpt>
      <trkpt lat="50.55389" lon="3.38906">
        <ele>35.757164</ele>
        <time>2021-09-28T08:43:18Z</time>
      </trkpt>
      <trkpt lat="50.55394" lon="3.38896">
        <ele>35.870731</ele>
        <time>2021-09-28T08:43:20Z</time>
      </trkpt>
      <trkpt lat="50.55398" lon="3.38886">
        <ele>35.952747</ele>
        <time>2021-09-28T08:43:22Z</time>
      </trkpt>
      <trkpt lat="50.55404" lon="3.38875">
        <ele>36.066509</ele>
        <time>2021-09-28T08:43:24Z</time>
      </trkpt>
      <trkpt lat="50.55409" lon="3.38864">
        <ele>36.17392</ele>
        <time>2021-09-28T08:43:26Z</time>
      </trkpt>
      <trkpt lat="50.55414" lon="3.38853">
        <ele>36.285999</ele>
        <time>2021-09-28T08:43:28Z</time>
      </trkpt>
      <trkpt lat="50.55419" lon="3.38842">
        <ele>36.360332</ele>
        <time>2021-09-28T08:43:30Z</time>
      </trkpt>
      <trkpt lat="50.55424" lon="3.38831">
        <ele>36.529736</ele>
        <time>2021-09-28T08:43:32Z</time>
      </trkpt>
      <trkpt lat="50.55429" lon="3.3882">
        <ele>36.666439</ele>
        <time>2021-09-28T08:43:34Z</time>
      </trkpt>
      <trkpt lat="50.55434" lon="3.38809">
        <ele>36.841179</ele>
        <time>2021-09-28T08:43:36Z</time>
      </trkpt>
      <trkpt lat="50.55439" lon="3.38798">
        <ele>36.997078</ele>
        <time>2021-09-28T08:43:38Z</time>
      </trkpt>
      <trkpt lat="50.55445" lon="3.38787">
        <ele>37.238358</ele>
        <time>2021-09-28T08:43:40Z</time>
      </trkpt>
      <trkpt lat="50.5545" lon="3.38776">
        <ele>37.410892</ele>
        <time>2021-09-28T08:43:42Z</time>
      </trkpt>
      <trkpt lat="50.55455" lon="3.38764">
        <ele>37.489361</ele>
        <time>2021-09-28T08:43:44Z</time>
      </trkpt>
      <trkpt lat="50.55461" lon="3.38752">
        <ele>37.691689</ele>
        <time>2021-09-28T08:43:46Z</time>
      </trkpt>
      <trkpt lat="50.55466" lon="3.38738">
        <ele>37.875484</ele>
        <time>2021-09-28T08:43:48Z</time>
      </trkpt>
      <trkpt lat="50.55472" lon="3.38724">
        <ele>38.055153</ele>
        <time>2021-09-28T08:43:50Z</time>
      </trkpt>
      <trkpt lat="50.55477" lon="3.38712">
        <ele>38.216564</ele>
        <time>2021-09-28T08:43:52Z</time>
      </trkpt>
      <trkpt lat="50.55481" lon="3.38699">
        <ele>38.423088</ele>
        <time>2021-09-28T08:43:54Z</time>
      </trkpt>
      <trkpt lat="50.55486" lon="3.38687">
        <ele>38.596695</ele>
        <time>2021-09-28T08:43:56Z</time>
      </trkpt>
      <trkpt lat="50.55491" lon="3.38676">
        <ele>38.776829</ele>
        <time>2021-09-28T08:43:58Z</time>
      </trkpt>
      <trkpt lat="50.55495" lon="3.38664">
        <ele>38.963352</ele>
        <time>2021-09-28T08:44:00Z</time>
      </trkpt>
      <trkpt lat="50.55499" lon="3.38653">
        <ele>39.14098</ele>
        <time>2021-09-28T08:44:02Z</time>
      </trkpt>
      <trkpt lat="50.55504" lon="3.38641">
        <ele>39.227718</ele>
        <time>2021-09-28T08:44:04Z</time>
      </trkpt>
      <trkpt lat="50.55508" lon="3.3863">
        <ele>39.397987</ele>
        <time>2021-09-28T08:44:06Z</time>
      </trkpt>
      <trkpt lat="50.55512" lon="3.38619">
        <ele>39.579044</ele>
        <time>2021-09-28T08:44:08Z</time>
      </trkpt>
      <trkpt lat="50.55517" lon="3.38608">
        <ele>39.778557</ele>
        <time>2021-09-28T08:44:10Z</time>
      </trkpt>
      <trkpt lat="50.55521" lon="3.38596">
        <ele>39.955387</ele>
        <time>2021-09-28T08:44:12Z</time>
      </trkpt>
      <trkpt lat="50.55525" lon="3.38585">
        <ele>40.143764</ele>
        <time>2021-09-28T08:44:14Z</time>
      </trkpt>
      <trkpt lat="50.5553" lon="3.38574">
        <ele>40.325188</ele>
        <time>2021-09-28T08:44:16Z</time>
      </trkpt>
      <trkpt lat="50.55534" lon="3.38563">
        <ele>40.417942</ele>
        <time>2021-09-28T08:44:18Z</time>
      </trkpt>
      <trkpt lat="50.55539" lon="3.38552">
        <ele>40.579441</ele>
        <time>2021-09-28T08:44:20Z</time>
      </trkpt>
      <trkpt lat="50.55543" lon="3.38541">
        <ele>40.773911</ele>
        <time>2021-09-28T08:44:22Z</time>
      </trkpt>
      <trkpt lat="50.55547" lon="3.3853">
        <ele>40.929745</ele>
        <time>2021-09-28T08:44:24Z</time>
      </trkpt>
      <trkpt lat="50.55552" lon="3.38518">
        <ele>41.1623</ele>
        <time>2021-09-28T08:44:26Z</time>
      </trkpt>
      <trkpt lat="50.55556" lon="3.38507">
        <ele>41.28455</ele>
        <time>2021-09-28T08:44:28Z</time>
      </trkpt>
      <trkpt lat="50.55561" lon="3.38496">
        <ele>41.38134</ele>
        <time>2021-09-28T08:44:30Z</time>
      </trkpt>
      <trkpt lat="50.55565" lon="3.38484">
        <ele>41.544533</ele>
        <time>2021-09-28T08:44:32Z</time>
      </trkpt>
      <trkpt lat="50.5557" lon="3.38473">
        <ele>41.754322</ele>
        <time>2021-09-28T08:44:34Z</time>
      </trkpt>
      <trkpt lat="50.55574" lon="3.38462">
        <ele>41.803902</ele>
        <time>2021-09-28T08:44:36Z</time>
      </trkpt>
      <trkpt lat="50.55579" lon="3.38451">
        <ele>41.93021</ele>
        <time>2021-09-28T08:44:38Z</time>
      </trkpt>
      <trkpt lat="50.55583" lon="3.3844">
        <ele>42.057823</ele>
        <time>2021-09-28T08:44:40Z</time>
      </trkpt>
      <trkpt lat="50.55588" lon="3.38428">
        <ele>42.233429</ele>
        <time>2021-09-28T08:44:42Z</time>
      </trkpt>
      <trkpt lat="50.55593" lon="3.38417">
        <ele>42.383583</ele>
        <time>2021-09-28T08:44:44Z</time>
      </trkpt>
      <trkpt lat="50.55597" lon="3.38406">
        <ele>42.520947</ele>
        <time>2021-09-28T08:44:46Z</time>
      </trkpt>
      <trkpt lat="50.55602" lon="3.38396">
        <ele>42.680035</ele>
        <time>2021-09-28T08:44:48Z</time>
      </trkpt>
      <trkpt lat="50.55607" lon="3.38385">
        <ele>42.8452</ele>
        <time>2021-09-28T08:44:50Z</time>
      </trkpt>
      <trkpt lat="50.55612" lon="3.38374">
        <ele>42.9832</ele>
        <time>2021-09-28T08:44:52Z</time>
      </trkpt>
      <trkpt lat="50.55617" lon="3.38365">
        <ele>43.129837</ele>
        <time>2021-09-28T08:44:54Z</time>
      </trkpt>
      <trkpt lat="50.55622" lon="3.38356">
        <ele>43.268276</ele>
        <time>2021-09-28T08:44:56Z</time>
      </trkpt>
      <trkpt lat="50.55627" lon="3.38346">
        <ele>43.325623</ele>
        <time>2021-09-28T08:44:58Z</time>
      </trkpt>
      <trkpt lat="50.55632" lon="3.38336">
        <ele>43.470169</ele>
        <time>2021-09-28T08:45:00Z</time>
      </trkpt>
      <trkpt lat="50.55638" lon="3.38326">
        <ele>43.597195</ele>
        <time>2021-09-28T08:45:02Z</time>
      </trkpt>
      <trkpt lat="50.55644" lon="3.38316">
        <ele>43.700783</ele>
        <time>2021-09-28T08:45:04Z</time>
      </trkpt>
      <trkpt lat="50.55649" lon="3.38305">
        <ele>43.880558</ele>
        <time>2021-09-28T08:45:06Z</time>
      </trkpt>
      <trkpt lat="50.55654" lon="3.38295">
        <ele>44.011524</ele>
        <time>2021-09-28T08:45:08Z</time>
      </trkpt>
      <trkpt lat="50.5566" lon="3.38285">
        <ele>44.1721</ele>
        <time>2021-09-28T08:45:10Z</time>
      </trkpt>
      <trkpt lat="50.55665" lon="3.38275">
        <ele>44.281818</ele>
        <time>2021-09-28T08:45:12Z</time>
      </trkpt>
      <trkpt lat="50.5567" lon="3.38266">
        <ele>44.418301</ele>
        <time>2021-09-28T08:45:14Z</time>
      </trkpt>
      <trkpt lat="50.55675" lon="3.38257">
        <ele>44.554638</ele>
        <time>2021-09-28T08:45:16Z</time>
      </trkpt>
      <trkpt lat="50.55679" lon="3.38249">
        <ele>44.722023</ele>
        <time>2021-09-28T08:45:18Z</time>
      </trkpt>
      <trkpt lat="50.55684" lon="3.3824">
        <ele>44.949039</ele>
        <time>2021-09-28T08:45:20Z</time>
      </trkpt>
      <trkpt lat="50.55688" lon="3.38231">
        <ele>45.221825</ele>
        <time>2021-09-28T08:45:22Z</time>
      </trkpt>
      <trkpt lat="50.55693" lon="3.38223">
        <ele>45.48431</ele>
        <time>2021-09-28T08:45:24Z</time>
      </trkpt>
      <trkpt lat="50.55698" lon="3.38215">
        <ele>45.773666</ele>
        <time>2021-09-28T08:45:26Z</time>
      </trkpt>
      <trkpt lat="50.55703" lon="3.38206">
        <ele>45.890778</ele>
        <time>2021-09-28T08:45:28Z</time>
      </trkpt>
      <trkpt lat="50.55708" lon="3.38197">
        <ele>46.139854</ele>
        <time>2021-09-28T08:45:30Z</time>
      </trkpt>
      <trkpt lat="50.55713" lon="3.38189">
        <ele>46.427162</ele>
        <time>2021-09-28T08:45:32Z</time>
      </trkpt>
      <trkpt lat="50.55718" lon="3.3818">
        <ele>47.290382</ele>
        <time>2021-09-28T08:45:34Z</time>
      </trkpt>
      <trkpt lat="50.55722" lon="3.3817">
        <ele>47.633766</ele>
        <time>2021-09-28T08:45:36Z</time>
      </trkpt>
      <trkpt lat="50.55728" lon="3.38161">
        <ele>47.929619</ele>
        <time>2021-09-28T08:45:38Z</time>
      </trkpt>
      <trkpt lat="50.55731" lon="3.38156">
        <ele>48.134254</ele>
        <time>2021-09-28T08:45:39Z</time>
      </trkpt>
      <trkpt lat="50.55736" lon="3.38146">
        <ele>48.497356</ele>
        <time>2021-09-28T08:45:41Z</time>
      </trkpt>
      <trkpt lat="50.55742" lon="3.38135">
        <ele>48.684608</ele>
        <time>2021-09-28T08:45:43Z</time>
      </trkpt>
      <trkpt lat="50.55748" lon="3.38124">
        <ele>49.079872</ele>
        <time>2021-09-28T08:45:45Z</time>
      </trkpt>
      <trkpt lat="50.55754" lon="3.38113">
        <ele>49.540596</ele>
        <time>2021-09-28T08:45:47Z</time>
      </trkpt>
      <trkpt lat="50.55761" lon="3.38101">
        <ele>49.916859</ele>
        <time>2021-09-28T08:45:49Z</time>
      </trkpt>
      <trkpt lat="50.55767" lon="3.3809">
        <ele>50.264271</ele>
        <time>2021-09-28T08:45:51Z</time>
      </trkpt>
      <trkpt lat="50.55774" lon="3.38077">
        <ele>50.694489</ele>
        <time>2021-09-28T08:45:53Z</time>
      </trkpt>
      <trkpt lat="50.5578" lon="3.38065">
        <ele>51.076733</ele>
        <time>2021-09-28T08:45:55Z</time>
      </trkpt>
      <trkpt lat="50.55787" lon="3.38053">
        <ele>51.294014</ele>
        <time>2021-09-28T08:45:57Z</time>
      </trkpt>
      <trkpt lat="50.55793" lon="3.38041">
        <ele>51.646404</ele>
        <time>2021-09-28T08:45:59Z</time>
      </trkpt>
      <trkpt lat="50.55799" lon="3.38028">
        <ele>51.966866</ele>
        <time>2021-09-28T08:46:01Z</time>
      </trkpt>
      <trkpt lat="50.55805" lon="3.38016">
        <ele>52.289722</ele>
        <time>2021-09-28T08:46:03Z</time>
      </trkpt>
      <trkpt lat="50.55811" lon="3.38003">
        <ele>52.613029</ele>
        <time>2021-09-28T08:46:05Z</time>
      </trkpt>
      <trkpt lat="50.55817" lon="3.3799">
        <ele>52.879791</ele>
        <time>2021-09-28T08:46:07Z</time>
      </trkpt>
      <trkpt lat="50.55822" lon="3.37977">
        <ele>53.107307</ele>
        <time>2021-09-28T08:46:09Z</time>
      </trkpt>
      <trkpt lat="50.55827" lon="3.37964">
        <ele>53.339581</ele>
        <time>2021-09-28T08:46:11Z</time>
      </trkpt>
      <trkpt lat="50.55833" lon="3.37951">
        <ele>53.57502</ele>
        <time>2021-09-28T08:46:13Z</time>
      </trkpt>
      <trkpt lat="50.55838" lon="3.37938">
        <ele>53.163063</ele>
        <time>2021-09-28T08:46:15Z</time>
      </trkpt>
      <trkpt lat="50.55844" lon="3.37926">
        <ele>53.286888</ele>
        <time>2021-09-28T08:46:17Z</time>
      </trkpt>
      <trkpt lat="50.5585" lon="3.37913">
        <ele>53.4482</ele>
        <time>2021-09-28T08:46:19Z</time>
      </trkpt>
      <trkpt lat="50.55855" lon="3.37899">
        <ele>53.578766</ele>
        <time>2021-09-28T08:46:21Z</time>
      </trkpt>
      <trkpt lat="50.55861" lon="3.37887">
        <ele>53.652306</ele>
        <time>2021-09-28T08:46:23Z</time>
      </trkpt>
      <trkpt lat="50.55867" lon="3.37874">
        <ele>53.748383</ele>
        <time>2021-09-28T08:46:25Z</time>
      </trkpt>
      <trkpt lat="50.55873" lon="3.37862">
        <ele>53.831696</ele>
        <time>2021-09-28T08:46:27Z</time>
      </trkpt>
      <trkpt lat="50.55879" lon="3.37851">
        <ele>53.879803</ele>
        <time>2021-09-28T08:46:29Z</time>
      </trkpt>
      <trkpt lat="50.55885" lon="3.3784">
        <ele>53.88092</ele>
        <time>2021-09-28T08:46:31Z</time>
      </trkpt>
      <trkpt lat="50.55892" lon="3.3783">
        <ele>53.969948</ele>
        <time>2021-09-28T08:46:33Z</time>
      </trkpt>
      <trkpt lat="50.55899" lon="3.37821">
        <ele>54.03614</ele>
        <time>2021-09-28T08:46:35Z</time>
      </trkpt>
      <trkpt lat="50.55906" lon="3.37812">
        <ele>54.081635</ele>
        <time>2021-09-28T08:46:37Z</time>
      </trkpt>
      <trkpt lat="50.55913" lon="3.37803">
        <ele>54.091473</ele>
        <time>2021-09-28T08:46:39Z</time>
      </trkpt>
      <trkpt lat="50.5592" lon="3.37794">
        <ele>54.141132</ele>
        <time>2021-09-28T08:46:41Z</time>
      </trkpt>
      <trkpt lat="50.55927" lon="3.37786">
        <ele>54.165955</ele>
        <time>2021-09-28T08:46:43Z</time>
      </trkpt>
      <trkpt lat="50.55933" lon="3.37778">
        <ele>54.225689</ele>
        <time>2021-09-28T08:46:45Z</time>
      </trkpt>
      <trkpt lat="50.5594" lon="3.37769">
        <ele>54.224945</ele>
        <time>2021-09-28T08:46:47Z</time>
      </trkpt>
      <trkpt lat="50.55947" lon="3.37761">
        <ele>54.198059</ele>
        <time>2021-09-28T08:46:49Z</time>
      </trkpt>
      <trkpt lat="50.55954" lon="3.37753">
        <ele>54.249714</ele>
        <time>2021-09-28T08:46:51Z</time>
      </trkpt>
      <trkpt lat="50.5596" lon="3.37746">
        <ele>54.365547</ele>
        <time>2021-09-28T08:46:53Z</time>
      </trkpt>
      <trkpt lat="50.55967" lon="3.37738">
        <ele>54.392723</ele>
        <time>2021-09-28T08:46:55Z</time>
      </trkpt>
      <trkpt lat="50.55973" lon="3.37731">
        <ele>54.496136</ele>
        <time>2021-09-28T08:46:57Z</time>
      </trkpt>
      <trkpt lat="50.5598" lon="3.37723">
        <ele>54.56023</ele>
        <time>2021-09-28T08:46:59Z</time>
      </trkpt>
      <trkpt lat="50.55985" lon="3.37717">
        <ele>54.705273</ele>
        <time>2021-09-28T08:47:01Z</time>
      </trkpt>
      <trkpt lat="50.5599" lon="3.3771">
        <ele>54.76112</ele>
        <time>2021-09-28T08:47:03Z</time>
      </trkpt>
      <trkpt lat="50.55996" lon="3.37704">
        <ele>54.852142</ele>
        <time>2021-09-28T08:47:05Z</time>
      </trkpt>
      <trkpt lat="50.56001" lon="3.37697">
        <ele>55.021156</ele>
        <time>2021-09-28T08:47:07Z</time>
      </trkpt>
      <trkpt lat="50.56007" lon="3.3769">
        <ele>55.173431</ele>
        <time>2021-09-28T08:47:09Z</time>
      </trkpt>
      <trkpt lat="50.56013" lon="3.37683">
        <ele>55.355309</ele>
        <time>2021-09-28T08:47:11Z</time>
      </trkpt>
      <trkpt lat="50.56019" lon="3.37677">
        <ele>55.621056</ele>
        <time>2021-09-28T08:47:13Z</time>
      </trkpt>
      <trkpt lat="50.56025" lon="3.3767">
        <ele>55.707947</ele>
        <time>2021-09-28T08:47:15Z</time>
      </trkpt>
      <trkpt lat="50.5603" lon="3.37663">
        <ele>55.919838</ele>
        <time>2021-09-28T08:47:17Z</time>
      </trkpt>
      <trkpt lat="50.56036" lon="3.37657">
        <ele>56.077446</ele>
        <time>2021-09-28T08:47:19Z</time>
      </trkpt>
      <trkpt lat="50.56041" lon="3.3765">
        <ele>56.311726</ele>
        <time>2021-09-28T08:47:21Z</time>
      </trkpt>
      <trkpt lat="50.56047" lon="3.37644">
        <ele>56.554455</ele>
        <time>2021-09-28T08:47:23Z</time>
      </trkpt>
      <trkpt lat="50.56052" lon="3.37637">
        <ele>56.779594</ele>
        <time>2021-09-28T08:47:25Z</time>
      </trkpt>
      <trkpt lat="50.56058" lon="3.37631">
        <ele>56.998829</ele>
        <time>2021-09-28T08:47:27Z</time>
      </trkpt>
      <trkpt lat="50.56064" lon="3.37624">
        <ele>57.280205</ele>
        <time>2021-09-28T08:47:29Z</time>
      </trkpt>
      <trkpt lat="50.5607" lon="3.37617">
        <ele>57.396057</ele>
        <time>2021-09-28T08:47:31Z</time>
      </trkpt>
      <trkpt lat="50.56075" lon="3.3761">
        <ele>57.683277</ele>
        <time>2021-09-28T08:47:33Z</time>
      </trkpt>
      <trkpt lat="50.56081" lon="3.37604">
        <ele>57.910316</ele>
        <time>2021-09-28T08:47:35Z</time>
      </trkpt>
      <trkpt lat="50.56086" lon="3.37597">
        <ele>58.208263</ele>
        <time>2021-09-28T08:47:37Z</time>
      </trkpt>
      <trkpt lat="50.56092" lon="3.3759">
        <ele>58.510307</ele>
        <time>2021-09-28T08:47:39Z</time>
      </trkpt>
      <trkpt lat="50.56097" lon="3.37583">
        <ele>58.853828</ele>
        <time>2021-09-28T08:47:41Z</time>
      </trkpt>
      <trkpt lat="50.56103" lon="3.37576">
        <ele>59.137329</ele>
        <time>2021-09-28T08:47:43Z</time>
      </trkpt>
      <trkpt lat="50.56109" lon="3.37569">
        <ele>59.424957</ele>
        <time>2021-09-28T08:47:45Z</time>
      </trkpt>
      <trkpt lat="50.56115" lon="3.37562">
        <ele>59.736401</ele>
        <time>2021-09-28T08:47:47Z</time>
      </trkpt>
      <trkpt lat="50.5612" lon="3.37555">
        <ele>60.02467</ele>
        <time>2021-09-28T08:47:49Z</time>
      </trkpt>
      <trkpt lat="50.56126" lon="3.37548">
        <ele>60.32766</ele>
        <time>2021-09-28T08:47:51Z</time>
      </trkpt>
      <trkpt lat="50.56131" lon="3.37542">
        <ele>60.437359</ele>
        <time>2021-09-28T08:47:53Z</time>
      </trkpt>
      <trkpt lat="50.56136" lon="3.37536">
        <ele>60.668755</ele>
        <time>2021-09-28T08:47:55Z</time>
      </trkpt>
      <trkpt lat="50.56141" lon="3.3753">
        <ele>60.950237</ele>
        <time>2021-09-28T08:47:57Z</time>
      </trkpt>
      <trkpt lat="50.56146" lon="3.37525">
        <ele>61.245232</ele>
        <time>2021-09-28T08:47:59Z</time>
      </trkpt>
      <trkpt lat="50.56151" lon="3.37518">
        <ele>61.522316</ele>
        <time>2021-09-28T08:48:01Z</time>
      </trkpt>
      <trkpt lat="50.56156" lon="3.37511">
        <ele>61.783112</ele>
        <time>2021-09-28T08:48:03Z</time>
      </trkpt>
      <trkpt lat="50.56162" lon="3.37504">
        <ele>62.140503</ele>
        <time>2021-09-28T08:48:05Z</time>
      </trkpt>
      <trkpt lat="50.56167" lon="3.37496">
        <ele>62.459888</ele>
        <time>2021-09-28T08:48:07Z</time>
      </trkpt>
      <trkpt lat="50.56172" lon="3.37489">
        <ele>62.764423</ele>
        <time>2021-09-28T08:48:09Z</time>
      </trkpt>
      <trkpt lat="50.56177" lon="3.37482">
        <ele>62.998322</ele>
        <time>2021-09-28T08:48:11Z</time>
      </trkpt>
      <trkpt lat="50.56181" lon="3.37475">
        <ele>63.201191</ele>
        <time>2021-09-28T08:48:13Z</time>
      </trkpt>
      <trkpt lat="50.56186" lon="3.37467">
        <ele>63.474815</ele>
        <time>2021-09-28T08:48:15Z</time>
      </trkpt>
      <trkpt lat="50.56191" lon="3.3746">
        <ele>63.82024</ele>
        <time>2021-09-28T08:48:17Z</time>
      </trkpt>
      <trkpt lat="50.56195" lon="3.37453">
        <ele>64.110062</ele>
        <time>2021-09-28T08:48:19Z</time>
      </trkpt>
      <trkpt lat="50.562" lon="3.37445">
        <ele>64.391647</ele>
        <time>2021-09-28T08:48:21Z</time>
      </trkpt>
      <trkpt lat="50.56205" lon="3.37437">
        <ele>64.605919</ele>
        <time>2021-09-28T08:48:23Z</time>
      </trkpt>
      <trkpt lat="50.5621" lon="3.37428">
        <ele>64.897858</ele>
        <time>2021-09-28T08:48:25Z</time>
      </trkpt>
      <trkpt lat="50.56214" lon="3.37419">
        <ele>65.20842</ele>
        <time>2021-09-28T08:48:27Z</time>
      </trkpt>
      <trkpt lat="50.56219" lon="3.3741">
        <ele>65.455681</ele>
        <time>2021-09-28T08:48:29Z</time>
      </trkpt>
      <trkpt lat="50.56223" lon="3.37402">
        <ele>65.697937</ele>
        <time>2021-09-28T08:48:31Z</time>
      </trkpt>
      <trkpt lat="50.56227" lon="3.37393">
        <ele>65.83667</ele>
        <time>2021-09-28T08:48:33Z</time>
      </trkpt>
      <trkpt lat="50.56232" lon="3.37384">
        <ele>66.054153</ele>
        <time>2021-09-28T08:48:35Z</time>
      </trkpt>
      <trkpt lat="50.56237" lon="3.37373">
        <ele>66.333702</ele>
        <time>2021-09-28T08:48:37Z</time>
      </trkpt>
      <trkpt lat="50.56242" lon="3.37363">
        <ele>66.533859</ele>
        <time>2021-09-28T08:48:39Z</time>
      </trkpt>
      <trkpt lat="50.56248" lon="3.37352">
        <ele>66.740707</ele>
        <time>2021-09-28T08:48:41Z</time>
      </trkpt>
      <trkpt lat="50.56253" lon="3.37341">
        <ele>66.95594</ele>
        <time>2021-09-28T08:48:43Z</time>
      </trkpt>
      <trkpt lat="50.56259" lon="3.3733">
        <ele>67.127602</ele>
        <time>2021-09-28T08:48:45Z</time>
      </trkpt>
      <trkpt lat="50.56264" lon="3.37318">
        <ele>67.280846</ele>
        <time>2021-09-28T08:48:47Z</time>
      </trkpt>
      <trkpt lat="50.5627" lon="3.37308">
        <ele>67.35865</ele>
        <time>2021-09-28T08:48:49Z</time>
      </trkpt>
      <trkpt lat="50.56274" lon="3.37299">
        <ele>67.537643</ele>
        <time>2021-09-28T08:48:51Z</time>
      </trkpt>
      <trkpt lat="50.56279" lon="3.3729">
        <ele>67.766556</ele>
        <time>2021-09-28T08:48:53Z</time>
      </trkpt>
      <trkpt lat="50.56283" lon="3.37281">
        <ele>67.828682</ele>
        <time>2021-09-28T08:48:55Z</time>
      </trkpt>
      <trkpt lat="50.56289" lon="3.37272">
        <ele>67.939018</ele>
        <time>2021-09-28T08:48:57Z</time>
      </trkpt>
      <trkpt lat="50.56294" lon="3.37263">
        <ele>67.966789</ele>
        <time>2021-09-28T08:48:59Z</time>
      </trkpt>
      <trkpt lat="50.56302" lon="3.37254">
        <ele>68.069733</ele>
        <time>2021-09-28T08:49:01Z</time>
      </trkpt>
      <trkpt lat="50.5631" lon="3.37247">
        <ele>68.0718</ele>
        <time>2021-09-28T08:49:03Z</time>
      </trkpt>
      <trkpt lat="50.56319" lon="3.37242">
        <ele>68.147621</ele>
        <time>2021-09-28T08:49:05Z</time>
      </trkpt>
      <trkpt lat="50.56328" lon="3.37239">
        <ele>68.108269</ele>
        <time>2021-09-28T08:49:07Z</time>
      </trkpt>
      <trkpt lat="50.56338" lon="3.37238">
        <ele>68.108269</ele>
        <time>2021-09-28T08:49:09Z</time>
      </trkpt>
      <trkpt lat="50.56348" lon="3.37239">
        <ele>68.112076</ele>
        <time>2021-09-28T08:49:11Z</time>
      </trkpt>
      <trkpt lat="50.56359" lon="3.3724">
        <ele>68.103661</ele>
        <time>2021-09-28T08:49:13Z</time>
      </trkpt>
      <trkpt lat="50.56369" lon="3.37242">
        <ele>68.003769</ele>
        <time>2021-09-28T08:49:15Z</time>
      </trkpt>
      <trkpt lat="50.5638" lon="3.37244">
        <ele>67.92897</ele>
        <time>2021-09-28T08:49:17Z</time>
      </trkpt>
      <trkpt lat="50.56391" lon="3.37246">
        <ele>67.777802</ele>
        <time>2021-09-28T08:49:19Z</time>
      </trkpt>
      <trkpt lat="50.56401" lon="3.37248">
        <ele>67.623184</ele>
        <time>2021-09-28T08:49:21Z</time>
      </trkpt>
      <trkpt lat="50.56413" lon="3.3725">
        <ele>67.488251</ele>
        <time>2021-09-28T08:49:23Z</time>
      </trkpt>
      <trkpt lat="50.56423" lon="3.37252">
        <ele>67.424057</ele>
        <time>2021-09-28T08:49:25Z</time>
      </trkpt>
      <trkpt lat="50.5644" lon="3.37255">
        <ele>67.233925</ele>
        <time>2021-09-28T08:49:28Z</time>
      </trkpt>
      <trkpt lat="50.56451" lon="3.37257">
        <ele>66.979233</ele>
        <time>2021-09-28T08:49:30Z</time>
      </trkpt>
      <trkpt lat="50.56461" lon="3.37259">
        <ele>66.755844</ele>
        <time>2021-09-28T08:49:32Z</time>
      </trkpt>
      <trkpt lat="50.56472" lon="3.37261">
        <ele>66.447304</ele>
        <time>2021-09-28T08:49:34Z</time>
      </trkpt>
      <trkpt lat="50.56483" lon="3.37263">
        <ele>66.222305</ele>
        <time>2021-09-28T08:49:36Z</time>
      </trkpt>
      <trkpt lat="50.56493" lon="3.37265">
        <ele>65.965706</ele>
        <time>2021-09-28T08:49:38Z</time>
      </trkpt>
      <trkpt lat="50.56504" lon="3.37267">
        <ele>65.714005</ele>
        <time>2021-09-28T08:49:40Z</time>
      </trkpt>
      <trkpt lat="50.56515" lon="3.37269">
        <ele>65.380653</ele>
        <time>2021-09-28T08:49:42Z</time>
      </trkpt>
      <trkpt lat="50.56525" lon="3.37271">
        <ele>65.2239</ele>
        <time>2021-09-28T08:49:44Z</time>
      </trkpt>
      <trkpt lat="50.56535" lon="3.37273">
        <ele>64.978226</ele>
        <time>2021-09-28T08:49:46Z</time>
      </trkpt>
      <trkpt lat="50.56546" lon="3.37275">
        <ele>64.618828</ele>
        <time>2021-09-28T08:49:48Z</time>
      </trkpt>
      <trkpt lat="50.56556" lon="3.37278">
        <ele>64.281387</ele>
        <time>2021-09-28T08:49:50Z</time>
      </trkpt>
      <trkpt lat="50.56567" lon="3.3728">
        <ele>63.926857</ele>
        <time>2021-09-28T08:49:52Z</time>
      </trkpt>
      <trkpt lat="50.56578" lon="3.37281">
        <ele>63.610443</ele>
        <time>2021-09-28T08:49:54Z</time>
      </trkpt>
      <trkpt lat="50.56588" lon="3.37283">
        <ele>63.290672</ele>
        <time>2021-09-28T08:49:56Z</time>
      </trkpt>
      <trkpt lat="50.56598" lon="3.37285">
        <ele>62.992584</ele>
        <time>2021-09-28T08:49:58Z</time>
      </trkpt>
      <trkpt lat="50.56608" lon="3.37287">
        <ele>62.743378</ele>
        <time>2021-09-28T08:50:00Z</time>
      </trkpt>
      <trkpt lat="50.56618" lon="3.37289">
        <ele>62.476357</ele>
        <time>2021-09-28T08:50:02Z</time>
      </trkpt>
      <trkpt lat="50.56628" lon="3.37291">
        <ele>62.166908</ele>
        <time>2021-09-28T08:50:04Z</time>
      </trkpt>
      <trkpt lat="50.56638" lon="3.37293">
        <ele>61.877106</ele>
        <time>2021-09-28T08:50:06Z</time>
      </trkpt>
      <trkpt lat="50.56648" lon="3.37295">
        <ele>61.586082</ele>
        <time>2021-09-28T08:50:08Z</time>
      </trkpt>
      <trkpt lat="50.56657" lon="3.37297">
        <ele>61.343544</ele>
        <time>2021-09-28T08:50:10Z</time>
      </trkpt>
      <trkpt lat="50.56667" lon="3.37299">
        <ele>61.118034</ele>
        <time>2021-09-28T08:50:12Z</time>
      </trkpt>
      <trkpt lat="50.56676" lon="3.37302">
        <ele>60.987648</ele>
        <time>2021-09-28T08:50:14Z</time>
      </trkpt>
      <trkpt lat="50.56685" lon="3.37304">
        <ele>60.769794</ele>
        <time>2021-09-28T08:50:16Z</time>
      </trkpt>
      <trkpt lat="50.56694" lon="3.37307">
        <ele>60.519371</ele>
        <time>2021-09-28T08:50:18Z</time>
      </trkpt>
      <trkpt lat="50.56704" lon="3.3731">
        <ele>60.348389</ele>
        <time>2021-09-28T08:50:20Z</time>
      </trkpt>
      <trkpt lat="50.56713" lon="3.37314">
        <ele>60.137878</ele>
        <time>2021-09-28T08:50:22Z</time>
      </trkpt>
      <trkpt lat="50.56722" lon="3.37317">
        <ele>59.990715</ele>
        <time>2021-09-28T08:50:24Z</time>
      </trkpt>
      <trkpt lat="50.56731" lon="3.37321">
        <ele>59.743763</ele>
        <time>2021-09-28T08:50:26Z</time>
      </trkpt>
      <trkpt lat="50.5674" lon="3.37324">
        <ele>59.608295</ele>
        <time>2021-09-28T08:50:28Z</time>
      </trkpt>
      <trkpt lat="50.56749" lon="3.37328">
        <ele>59.367195</ele>
        <time>2021-09-28T08:50:30Z</time>
      </trkpt>
      <trkpt lat="50.56758" lon="3.37331">
        <ele>59.249245</ele>
        <time>2021-09-28T08:50:32Z</time>
      </trkpt>
      <trkpt lat="50.56768" lon="3.37334">
        <ele>58.972466</ele>
        <time>2021-09-28T08:50:34Z</time>
      </trkpt>
      <trkpt lat="50.56776" lon="3.37337">
        <ele>58.821411</ele>
        <time>2021-09-28T08:50:36Z</time>
      </trkpt>
      <trkpt lat="50.56784" lon="3.3734">
        <ele>58.586964</ele>
        <time>2021-09-28T08:50:38Z</time>
      </trkpt>
      <trkpt lat="50.56794" lon="3.37343">
        <ele>58.412621</ele>
        <time>2021-09-28T08:50:40Z</time>
      </trkpt>
      <trkpt lat="50.56803" lon="3.37345">
        <ele>58.188026</ele>
        <time>2021-09-28T08:50:42Z</time>
      </trkpt>
      <trkpt lat="50.56812" lon="3.37345">
        <ele>58.161865</ele>
        <time>2021-09-28T08:50:44Z</time>
      </trkpt>
      <trkpt lat="50.56822" lon="3.37344">
        <ele>58.008259</ele>
        <time>2021-09-28T08:50:46Z</time>
      </trkpt>
      <trkpt lat="50.56831" lon="3.37343">
        <ele>57.946747</ele>
        <time>2021-09-28T08:50:48Z</time>
      </trkpt>
      <trkpt lat="50.56841" lon="3.37341">
        <ele>57.854858</ele>
        <time>2021-09-28T08:50:50Z</time>
      </trkpt>
      <trkpt lat="50.56849" lon="3.37337">
        <ele>57.757774</ele>
        <time>2021-09-28T08:50:52Z</time>
      </trkpt>
      <trkpt lat="50.56858" lon="3.37333">
        <ele>57.656609</ele>
        <time>2021-09-28T08:50:54Z</time>
      </trkpt>
      <trkpt lat="50.56867" lon="3.37328">
        <ele>57.629711</ele>
        <time>2021-09-28T08:50:56Z</time>
      </trkpt>
      <trkpt lat="50.56876" lon="3.37323">
        <ele>57.576916</ele>
        <time>2021-09-28T08:50:58Z</time>
      </trkpt>
      <trkpt lat="50.56884" lon="3.37317">
        <ele>57.623566</ele>
        <time>2021-09-28T08:51:00Z</time>
      </trkpt>
      <trkpt lat="50.56893" lon="3.37311">
        <ele>57.620735</ele>
        <time>2021-09-28T08:51:02Z</time>
      </trkpt>
      <trkpt lat="50.56902" lon="3.37305">
        <ele>57.701653</ele>
        <time>2021-09-28T08:51:04Z</time>
      </trkpt>
      <trkpt lat="50.56912" lon="3.37299">
        <ele>57.734772</ele>
        <time>2021-09-28T08:51:06Z</time>
      </trkpt>
      <trkpt lat="50.56921" lon="3.37294">
        <ele>57.876942</ele>
        <time>2021-09-28T08:51:08Z</time>
      </trkpt>
      <trkpt lat="50.56929" lon="3.37288">
        <ele>57.971844</ele>
        <time>2021-09-28T08:51:10Z</time>
      </trkpt>
      <trkpt lat="50.56938" lon="3.37283">
        <ele>58.14798</ele>
        <time>2021-09-28T08:51:12Z</time>
      </trkpt>
      <trkpt lat="50.56947" lon="3.37278">
        <ele>58.28249</ele>
        <time>2021-09-28T08:51:14Z</time>
      </trkpt>
      <trkpt lat="50.56956" lon="3.37272">
        <ele>58.506145</ele>
        <time>2021-09-28T08:51:16Z</time>
      </trkpt>
      <trkpt lat="50.56965" lon="3.37267">
        <ele>58.665478</ele>
        <time>2021-09-28T08:51:18Z</time>
      </trkpt>
      <trkpt lat="50.56974" lon="3.37261">
        <ele>58.857246</ele>
        <time>2021-09-28T08:51:20Z</time>
      </trkpt>
      <trkpt lat="50.56982" lon="3.37255">
        <ele>59.072987</ele>
        <time>2021-09-28T08:51:22Z</time>
      </trkpt>
      <trkpt lat="50.56991" lon="3.3725">
        <ele>59.269093</ele>
        <time>2021-09-28T08:51:24Z</time>
      </trkpt>
      <trkpt lat="50.57" lon="3.37245">
        <ele>59.38216</ele>
        <time>2021-09-28T08:51:26Z</time>
      </trkpt>
      <trkpt lat="50.57008" lon="3.3724">
        <ele>59.475273</ele>
        <time>2021-09-28T08:51:28Z</time>
      </trkpt>
      <trkpt lat="50.57016" lon="3.37234">
        <ele>59.61338</ele>
        <time>2021-09-28T08:51:30Z</time>
      </trkpt>
      <trkpt lat="50.57024" lon="3.37229">
        <ele>59.723053</ele>
        <time>2021-09-28T08:51:32Z</time>
      </trkpt>
      <trkpt lat="50.57033" lon="3.37224">
        <ele>59.856274</ele>
        <time>2021-09-28T08:51:34Z</time>
      </trkpt>
      <trkpt lat="50.57042" lon="3.37219">
        <ele>60.028339</ele>
        <time>2021-09-28T08:51:36Z</time>
      </trkpt>
      <trkpt lat="50.57048" lon="3.37215">
        <ele>60.160778</ele>
        <time>2021-09-28T08:51:38Z</time>
      </trkpt>
      <trkpt lat="50.57055" lon="3.37212">
        <ele>60.265846</ele>
        <time>2021-09-28T08:51:40Z</time>
      </trkpt>
      <trkpt lat="50.57062" lon="3.37208">
        <ele>60.282402</ele>
        <time>2021-09-28T08:51:42Z</time>
      </trkpt>
      <trkpt lat="50.57068" lon="3.37205">
        <ele>60.289886</ele>
        <time>2021-09-28T08:51:44Z</time>
      </trkpt>
      <trkpt lat="50.57074" lon="3.37201">
        <ele>60.319618</ele>
        <time>2021-09-28T08:51:46Z</time>
      </trkpt>
      <trkpt lat="50.57078" lon="3.37199">
        <ele>60.27467</ele>
        <time>2021-09-28T08:51:48Z</time>
      </trkpt>
      <trkpt lat="50.57085" lon="3.37194">
        <ele>59.765541</ele>
        <time>2021-09-28T08:52:23Z</time>
      </trkpt>
      <trkpt lat="50.57093" lon="3.37189">
        <ele>59.747704</ele>
        <time>2021-09-28T08:52:25Z</time>
      </trkpt>
      <trkpt lat="50.571" lon="3.37185">
        <ele>59.762413</ele>
        <time>2021-09-28T08:52:27Z</time>
      </trkpt>
      <trkpt lat="50.57107" lon="3.3718">
        <ele>59.764484</ele>
        <time>2021-09-28T08:52:29Z</time>
      </trkpt>
      <trkpt lat="50.57114" lon="3.37176">
        <ele>59.724571</ele>
        <time>2021-09-28T08:52:31Z</time>
      </trkpt>
      <trkpt lat="50.57122" lon="3.37172">
        <ele>59.660423</ele>
        <time>2021-09-28T08:52:33Z</time>
      </trkpt>
      <trkpt lat="50.5713" lon="3.37167">
        <ele>59.626854</ele>
        <time>2021-09-28T08:52:35Z</time>
      </trkpt>
      <trkpt lat="50.57138" lon="3.37162">
        <ele>59.595818</ele>
        <time>2021-09-28T08:52:37Z</time>
      </trkpt>
      <trkpt lat="50.57147" lon="3.37157">
        <ele>59.595818</ele>
        <time>2021-09-28T08:52:39Z</time>
      </trkpt>
      <trkpt lat="50.57156" lon="3.37151">
        <ele>59.543495</ele>
        <time>2021-09-28T08:52:41Z</time>
      </trkpt>
      <trkpt lat="50.57165" lon="3.37145">
        <ele>59.512463</ele>
        <time>2021-09-28T08:52:43Z</time>
      </trkpt>
      <trkpt lat="50.57175" lon="3.37139">
        <ele>59.502758</ele>
        <time>2021-09-28T08:52:45Z</time>
      </trkpt>
      <trkpt lat="50.57185" lon="3.37133">
        <ele>59.4828</ele>
        <time>2021-09-28T08:52:47Z</time>
      </trkpt>
      <trkpt lat="50.57195" lon="3.37127">
        <ele>59.468498</ele>
        <time>2021-09-28T08:52:49Z</time>
      </trkpt>
      <trkpt lat="50.57205" lon="3.3712">
        <ele>59.382221</ele>
        <time>2021-09-28T08:52:51Z</time>
      </trkpt>
      <trkpt lat="50.57215" lon="3.37113">
        <ele>59.328541</ele>
        <time>2021-09-28T08:52:53Z</time>
      </trkpt>
      <trkpt lat="50.57225" lon="3.37107">
        <ele>59.289227</ele>
        <time>2021-09-28T08:52:55Z</time>
      </trkpt>
      <trkpt lat="50.57237" lon="3.37101">
        <ele>59.221321</ele>
        <time>2021-09-28T08:52:57Z</time>
      </trkpt>
      <trkpt lat="50.57247" lon="3.37094">
        <ele>59.093029</ele>
        <time>2021-09-28T08:52:59Z</time>
      </trkpt>
      <trkpt lat="50.57258" lon="3.37087">
        <ele>59.041485</ele>
        <time>2021-09-28T08:53:01Z</time>
      </trkpt>
      <trkpt lat="50.57268" lon="3.3708">
        <ele>58.919403</ele>
        <time>2021-09-28T08:53:03Z</time>
      </trkpt>
      <trkpt lat="50.57279" lon="3.37074">
        <ele>58.831043</ele>
        <time>2021-09-28T08:53:05Z</time>
      </trkpt>
      <trkpt lat="50.5729" lon="3.37067">
        <ele>58.729668</ele>
        <time>2021-09-28T08:53:07Z</time>
      </trkpt>
      <trkpt lat="50.57301" lon="3.37059">
        <ele>58.52494</ele>
        <time>2021-09-28T08:53:09Z</time>
      </trkpt>
      <trkpt lat="50.57313" lon="3.37052">
        <ele>58.419319</ele>
        <time>2021-09-28T08:53:11Z</time>
      </trkpt>
      <trkpt lat="50.57325" lon="3.37045">
        <ele>58.361305</ele>
        <time>2021-09-28T08:53:13Z</time>
      </trkpt>
      <trkpt lat="50.57337" lon="3.37037">
        <ele>58.255787</ele>
        <time>2021-09-28T08:53:15Z</time>
      </trkpt>
      <trkpt lat="50.57349" lon="3.37029">
        <ele>58.118694</ele>
        <time>2021-09-28T08:53:17Z</time>
      </trkpt>
      <trkpt lat="50.57362" lon="3.37021">
        <ele>57.946972</ele>
        <time>2021-09-28T08:53:19Z</time>
      </trkpt>
      <trkpt lat="50.57374" lon="3.37013">
        <ele>57.714924</ele>
        <time>2021-09-28T08:53:21Z</time>
      </trkpt>
      <trkpt lat="50.57386" lon="3.37005">
        <ele>57.580456</ele>
        <time>2021-09-28T08:53:23Z</time>
      </trkpt>
      <trkpt lat="50.57398" lon="3.36999">
        <ele>57.363213</ele>
        <time>2021-09-28T08:53:25Z</time>
      </trkpt>
      <trkpt lat="50.57409" lon="3.36992">
        <ele>57.185631</ele>
        <time>2021-09-28T08:53:27Z</time>
      </trkpt>
      <trkpt lat="50.57421" lon="3.36987">
        <ele>56.891151</ele>
        <time>2021-09-28T08:53:29Z</time>
      </trkpt>
      <trkpt lat="50.57432" lon="3.36982">
        <ele>56.576332</ele>
        <time>2021-09-28T08:53:31Z</time>
      </trkpt>
      <trkpt lat="50.57443" lon="3.36978">
        <ele>56.321087</ele>
        <time>2021-09-28T08:53:33Z</time>
      </trkpt>
      <trkpt lat="50.57455" lon="3.36976">
        <ele>56.029034</ele>
        <time>2021-09-28T08:53:35Z</time>
      </trkpt>
      <trkpt lat="50.57467" lon="3.36975">
        <ele>55.594673</ele>
        <time>2021-09-28T08:53:37Z</time>
      </trkpt>
      <trkpt lat="50.5748" lon="3.36974">
        <ele>55.37751</ele>
        <time>2021-09-28T08:53:39Z</time>
      </trkpt>
      <trkpt lat="50.57493" lon="3.36973">
        <ele>54.994896</ele>
        <time>2021-09-28T08:53:41Z</time>
      </trkpt>
      <trkpt lat="50.57505" lon="3.36972">
        <ele>54.446846</ele>
        <time>2021-09-28T08:53:43Z</time>
      </trkpt>
      <trkpt lat="50.57516" lon="3.36971">
        <ele>53.991657</ele>
        <time>2021-09-28T08:53:45Z</time>
      </trkpt>
      <trkpt lat="50.57526" lon="3.3697">
        <ele>53.470543</ele>
        <time>2021-09-28T08:53:47Z</time>
      </trkpt>
      <trkpt lat="50.57535" lon="3.36969">
        <ele>52.926655</ele>
        <time>2021-09-28T08:53:49Z</time>
      </trkpt>
      <trkpt lat="50.57541" lon="3.36968">
        <ele>52.376556</ele>
        <time>2021-09-28T08:53:51Z</time>
      </trkpt>
      <trkpt lat="50.57543" lon="3.36961">
        <ele>51.745781</ele>
        <time>2021-09-28T08:53:53Z</time>
      </trkpt>
      <trkpt lat="50.5754" lon="3.36953">
        <ele>51.450294</ele>
        <time>2021-09-28T08:53:55Z</time>
      </trkpt>
      <trkpt lat="50.57535" lon="3.36945">
        <ele>50.848656</ele>
        <time>2021-09-28T08:53:57Z</time>
      </trkpt>
      <trkpt lat="50.57529" lon="3.36939">
        <ele>50.32008</ele>
        <time>2021-09-28T08:53:59Z</time>
      </trkpt>
      <trkpt lat="50.57522" lon="3.36932">
        <ele>49.696705</ele>
        <time>2021-09-28T08:54:01Z</time>
      </trkpt>
      <trkpt lat="50.57515" lon="3.36926">
        <ele>49.184303</ele>
        <time>2021-09-28T08:54:03Z</time>
      </trkpt>
      <trkpt lat="50.57508" lon="3.36919">
        <ele>48.901043</ele>
        <time>2021-09-28T08:54:05Z</time>
      </trkpt>
      <trkpt lat="50.57501" lon="3.36912">
        <ele>48.406898</ele>
        <time>2021-09-28T08:54:07Z</time>
      </trkpt>
      <trkpt lat="50.57494" lon="3.36905">
        <ele>47.977684</ele>
        <time>2021-09-28T08:54:09Z</time>
      </trkpt>
      <trkpt lat="50.57488" lon="3.36899">
        <ele>47.658073</ele>
        <time>2021-09-28T08:54:11Z</time>
      </trkpt>
      <trkpt lat="50.57482" lon="3.36893">
        <ele>47.44886</ele>
        <time>2021-09-28T08:54:13Z</time>
      </trkpt>
      <trkpt lat="50.57475" lon="3.36886">
        <ele>47.156097</ele>
        <time>2021-09-28T08:54:15Z</time>
      </trkpt>
      <trkpt lat="50.57468" lon="3.3688">
        <ele>46.916283</ele>
        <time>2021-09-28T08:54:17Z</time>
      </trkpt>
      <trkpt lat="50.57462" lon="3.36874">
        <ele>46.707741</ele>
        <time>2021-09-28T08:54:19Z</time>
      </trkpt>
      <trkpt lat="50.57455" lon="3.36867">
        <ele>46.573372</ele>
        <time>2021-09-28T08:54:21Z</time>
      </trkpt>
      <trkpt lat="50.57449" lon="3.36862">
        <ele>46.407372</ele>
        <time>2021-09-28T08:54:23Z</time>
      </trkpt>
      <trkpt lat="50.57442" lon="3.36856">
        <ele>46.401173</ele>
        <time>2021-09-28T08:54:25Z</time>
      </trkpt>
      <trkpt lat="50.57436" lon="3.3685">
        <ele>46.307732</ele>
        <time>2021-09-28T08:54:27Z</time>
      </trkpt>
      <trkpt lat="50.5743" lon="3.36843">
        <ele>46.305855</ele>
        <time>2021-09-28T08:54:29Z</time>
      </trkpt>
      <trkpt lat="50.57424" lon="3.36836">
        <ele>46.366428</ele>
        <time>2021-09-28T08:54:31Z</time>
      </trkpt>
      <trkpt lat="50.57417" lon="3.36828">
        <ele>46.486427</ele>
        <time>2021-09-28T08:54:33Z</time>
      </trkpt>
      <trkpt lat="50.57412" lon="3.3682">
        <ele>46.707584</ele>
        <time>2021-09-28T08:54:35Z</time>
      </trkpt>
      <trkpt lat="50.57407" lon="3.36812">
        <ele>46.80381</ele>
        <time>2021-09-28T08:54:37Z</time>
      </trkpt>
      <trkpt lat="50.57401" lon="3.36803">
        <ele>46.950558</ele>
        <time>2021-09-28T08:54:39Z</time>
      </trkpt>
      <trkpt lat="50.57396" lon="3.36794">
        <ele>47.08744</ele>
        <time>2021-09-28T08:54:41Z</time>
      </trkpt>
      <trkpt lat="50.57391" lon="3.36785">
        <ele>47.331326</ele>
        <time>2021-09-28T08:54:43Z</time>
      </trkpt>
      <trkpt lat="50.57386" lon="3.36775">
        <ele>47.43261</ele>
        <time>2021-09-28T08:54:45Z</time>
      </trkpt>
      <trkpt lat="50.5738" lon="3.36766">
        <ele>47.544163</ele>
        <time>2021-09-28T08:54:47Z</time>
      </trkpt>
      <trkpt lat="50.57375" lon="3.36757">
        <ele>47.705387</ele>
        <time>2021-09-28T08:54:49Z</time>
      </trkpt>
      <trkpt lat="50.5737" lon="3.36748">
        <ele>47.927269</ele>
        <time>2021-09-28T08:54:51Z</time>
      </trkpt>
      <trkpt lat="50.57365" lon="3.36738">
        <ele>48.060055</ele>
        <time>2021-09-28T08:54:53Z</time>
      </trkpt>
      <trkpt lat="50.5736" lon="3.36728">
        <ele>48.20121</ele>
        <time>2021-09-28T08:54:55Z</time>
      </trkpt>
      <trkpt lat="50.57356" lon="3.36718">
        <ele>48.372787</ele>
        <time>2021-09-28T08:54:57Z</time>
      </trkpt>
      <trkpt lat="50.57351" lon="3.36709">
        <ele>48.505089</ele>
        <time>2021-09-28T08:54:59Z</time>
      </trkpt>
      <trkpt lat="50.57346" lon="3.36699">
        <ele>48.628864</ele>
        <time>2021-09-28T08:55:01Z</time>
      </trkpt>
      <trkpt lat="50.57341" lon="3.3669">
        <ele>48.705349</ele>
        <time>2021-09-28T08:55:03Z</time>
      </trkpt>
      <trkpt lat="50.57337" lon="3.3668">
        <ele>48.780293</ele>
        <time>2021-09-28T08:55:05Z</time>
      </trkpt>
      <trkpt lat="50.57332" lon="3.3667">
        <ele>48.975288</ele>
        <time>2021-09-28T08:55:07Z</time>
      </trkpt>
      <trkpt lat="50.57328" lon="3.36661">
        <ele>49.128273</ele>
        <time>2021-09-28T08:55:09Z</time>
      </trkpt>
      <trkpt lat="50.57324" lon="3.36652">
        <ele>49.270714</ele>
        <time>2021-09-28T08:55:11Z</time>
      </trkpt>
      <trkpt lat="50.57319" lon="3.36642">
        <ele>48.91906</ele>
        <time>2021-09-28T08:55:13Z</time>
      </trkpt>
      <trkpt lat="50.57314" lon="3.36632">
        <ele>49.055382</ele>
        <time>2021-09-28T08:55:15Z</time>
      </trkpt>
      <trkpt lat="50.57309" lon="3.36622">
        <ele>49.213863</ele>
        <time>2021-09-28T08:55:17Z</time>
      </trkpt>
      <trkpt lat="50.57304" lon="3.36612">
        <ele>49.41729</ele>
        <time>2021-09-28T08:55:19Z</time>
      </trkpt>
      <trkpt lat="50.573" lon="3.36602">
        <ele>49.591873</ele>
        <time>2021-09-28T08:55:21Z</time>
      </trkpt>
      <trkpt lat="50.57295" lon="3.36593">
        <ele>49.747787</ele>
        <time>2021-09-28T08:55:23Z</time>
      </trkpt>
      <trkpt lat="50.57291" lon="3.36583">
        <ele>49.787075</ele>
        <time>2021-09-28T08:55:25Z</time>
      </trkpt>
      <trkpt lat="50.57286" lon="3.36574">
        <ele>49.913193</ele>
        <time>2021-09-28T08:55:27Z</time>
      </trkpt>
      <trkpt lat="50.57282" lon="3.36563">
        <ele>50.028996</ele>
        <time>2021-09-28T08:55:29Z</time>
      </trkpt>
      <trkpt lat="50.57278" lon="3.36554">
        <ele>50.16132</ele>
        <time>2021-09-28T08:55:31Z</time>
      </trkpt>
      <trkpt lat="50.57281" lon="3.36545">
        <ele>50.272243</ele>
        <time>2021-09-28T08:55:33Z</time>
      </trkpt>
      <trkpt lat="50.57288" lon="3.36542">
        <ele>50.403366</ele>
        <time>2021-09-28T08:55:35Z</time>
      </trkpt>
      <trkpt lat="50.57296" lon="3.36539">
        <ele>50.508583</ele>
        <time>2021-09-28T08:55:37Z</time>
      </trkpt>
      <trkpt lat="50.57304" lon="3.36537">
        <ele>50.607121</ele>
        <time>2021-09-28T08:55:39Z</time>
      </trkpt>
      <trkpt lat="50.57311" lon="3.36535">
        <ele>50.747726</ele>
        <time>2021-09-28T08:55:41Z</time>
      </trkpt>
      <trkpt lat="50.57319" lon="3.36532">
        <ele>50.901974</ele>
        <time>2021-09-28T08:55:43Z</time>
      </trkpt>
      <trkpt lat="50.57327" lon="3.36529">
        <ele>51.028099</ele>
        <time>2021-09-28T08:55:45Z</time>
      </trkpt>
      <trkpt lat="50.57335" lon="3.36526">
        <ele>51.172318</ele>
        <time>2021-09-28T08:55:47Z</time>
      </trkpt>
      <trkpt lat="50.57344" lon="3.36523">
        <ele>51.268707</ele>
        <time>2021-09-28T08:55:49Z</time>
      </trkpt>
      <trkpt lat="50.57352" lon="3.3652">
        <ele>51.368736</ele>
        <time>2021-09-28T08:55:51Z</time>
      </trkpt>
      <trkpt lat="50.57361" lon="3.36518">
        <ele>51.501068</ele>
        <time>2021-09-28T08:55:53Z</time>
      </trkpt>
      <trkpt lat="50.5737" lon="3.36515">
        <ele>52.170483</ele>
        <time>2021-09-28T08:55:55Z</time>
      </trkpt>
      <trkpt lat="50.57379" lon="3.36511">
        <ele>52.278008</ele>
        <time>2021-09-28T08:55:57Z</time>
      </trkpt>
      <trkpt lat="50.57389" lon="3.36508">
        <ele>52.32423</ele>
        <time>2021-09-28T08:55:59Z</time>
      </trkpt>
      <trkpt lat="50.57399" lon="3.36505">
        <ele>52.336098</ele>
        <time>2021-09-28T08:56:01Z</time>
      </trkpt>
      <trkpt lat="50.57409" lon="3.36502">
        <ele>52.413105</ele>
        <time>2021-09-28T08:56:03Z</time>
      </trkpt>
      <trkpt lat="50.57419" lon="3.36498">
        <ele>52.451393</ele>
        <time>2021-09-28T08:56:05Z</time>
      </trkpt>
      <trkpt lat="50.57429" lon="3.36494">
        <ele>52.521698</ele>
        <time>2021-09-28T08:56:07Z</time>
      </trkpt>
      <trkpt lat="50.5744" lon="3.3649">
        <ele>52.601585</ele>
        <time>2021-09-28T08:56:09Z</time>
      </trkpt>
      <trkpt lat="50.5745" lon="3.36487">
        <ele>52.601692</ele>
        <time>2021-09-28T08:56:11Z</time>
      </trkpt>
      <trkpt lat="50.57463" lon="3.36483">
        <ele>52.58308</ele>
        <time>2021-09-28T08:56:13Z</time>
      </trkpt>
      <trkpt lat="50.57475" lon="3.36479">
        <ele>52.575554</ele>
        <time>2021-09-28T08:56:15Z</time>
      </trkpt>
      <trkpt lat="50.57487" lon="3.36475">
        <ele>52.539604</ele>
        <time>2021-09-28T08:56:17Z</time>
      </trkpt>
      <trkpt lat="50.57498" lon="3.36471">
        <ele>52.50877</ele>
        <time>2021-09-28T08:56:19Z</time>
      </trkpt>
      <trkpt lat="50.5751" lon="3.36468">
        <ele>52.441109</ele>
        <time>2021-09-28T08:56:21Z</time>
      </trkpt>
      <trkpt lat="50.57521" lon="3.36468">
        <ele>51.840069</ele>
        <time>2021-09-28T08:56:23Z</time>
      </trkpt>
      <trkpt lat="50.57533" lon="3.36469">
        <ele>51.751881</ele>
        <time>2021-09-28T08:56:25Z</time>
      </trkpt>
      <trkpt lat="50.57544" lon="3.36471">
        <ele>51.468628</ele>
        <time>2021-09-28T08:56:27Z</time>
      </trkpt>
      <trkpt lat="50.57554" lon="3.36473">
        <ele>51.452667</ele>
        <time>2021-09-28T08:56:29Z</time>
      </trkpt>
      <trkpt lat="50.57563" lon="3.36472">
        <ele>51.347618</ele>
        <time>2021-09-28T08:56:31Z</time>
      </trkpt>
      <trkpt lat="50.57573" lon="3.3647">
        <ele>51.184219</ele>
        <time>2021-09-28T08:56:33Z</time>
      </trkpt>
      <trkpt lat="50.57584" lon="3.36464">
        <ele>51.04232</ele>
        <time>2021-09-28T08:56:35Z</time>
      </trkpt>
      <trkpt lat="50.57594" lon="3.36457">
        <ele>50.803833</ele>
        <time>2021-09-28T08:56:37Z</time>
      </trkpt>
      <trkpt lat="50.57605" lon="3.36451">
        <ele>50.530918</ele>
        <time>2021-09-28T08:56:39Z</time>
      </trkpt>
      <trkpt lat="50.57615" lon="3.36446">
        <ele>50.292137</ele>
        <time>2021-09-28T08:56:41Z</time>
      </trkpt>
      <trkpt lat="50.57623" lon="3.36442">
        <ele>50.151543</ele>
        <time>2021-09-28T08:56:43Z</time>
      </trkpt>
      <trkpt lat="50.5763" lon="3.36441">
        <ele>49.881767</ele>
        <time>2021-09-28T08:56:45Z</time>
      </trkpt>
      <trkpt lat="50.57636" lon="3.36437">
        <ele>49.546837</ele>
        <time>2021-09-28T08:56:47Z</time>
      </trkpt>
      <trkpt lat="50.5764" lon="3.36427">
        <ele>49.211945</ele>
        <time>2021-09-28T08:56:49Z</time>
      </trkpt>
      <trkpt lat="50.5764" lon="3.36413">
        <ele>48.790222</ele>
        <time>2021-09-28T08:56:51Z</time>
      </trkpt>
      <trkpt lat="50.57637" lon="3.36397">
        <ele>48.493538</ele>
        <time>2021-09-28T08:56:53Z</time>
      </trkpt>
      <trkpt lat="50.57635" lon="3.3638">
        <ele>48.195881</ele>
        <time>2021-09-28T08:56:55Z</time>
      </trkpt>
      <trkpt lat="50.57632" lon="3.36364">
        <ele>48.063354</ele>
        <time>2021-09-28T08:56:57Z</time>
      </trkpt>
      <trkpt lat="50.57629" lon="3.36347">
        <ele>47.678162</ele>
        <time>2021-09-28T08:56:59Z</time>
      </trkpt>
      <trkpt lat="50.57626" lon="3.3633">
        <ele>47.337471</ele>
        <time>2021-09-28T08:57:01Z</time>
      </trkpt>
      <trkpt lat="50.57623" lon="3.36314">
        <ele>47.022877</ele>
        <time>2021-09-28T08:57:03Z</time>
      </trkpt>
      <trkpt lat="50.5762" lon="3.36299">
        <ele>47.195763</ele>
        <time>2021-09-28T08:57:05Z</time>
      </trkpt>
      <trkpt lat="50.57618" lon="3.36286">
        <ele>46.884544</ele>
        <time>2021-09-28T08:57:07Z</time>
      </trkpt>
      <trkpt lat="50.57622" lon="3.36272">
        <ele>46.611656</ele>
        <time>2021-09-28T08:57:09Z</time>
      </trkpt>
      <trkpt lat="50.57631" lon="3.36264">
        <ele>46.245251</ele>
        <time>2021-09-28T08:57:11Z</time>
      </trkpt>
      <trkpt lat="50.5764" lon="3.36256">
        <ele>45.867237</ele>
        <time>2021-09-28T08:57:13Z</time>
      </trkpt>
      <trkpt lat="50.5765" lon="3.36247">
        <ele>45.714317</ele>
        <time>2021-09-28T08:57:15Z</time>
      </trkpt>
      <trkpt lat="50.57659" lon="3.36238">
        <ele>45.338543</ele>
        <time>2021-09-28T08:57:17Z</time>
      </trkpt>
      <trkpt lat="50.57669" lon="3.36229">
        <ele>44.967876</ele>
        <time>2021-09-28T08:57:19Z</time>
      </trkpt>
      <trkpt lat="50.57679" lon="3.36222">
        <ele>44.632923</ele>
        <time>2021-09-28T08:57:21Z</time>
      </trkpt>
      <trkpt lat="50.57689" lon="3.36214">
        <ele>44.220654</ele>
        <time>2021-09-28T08:57:23Z</time>
      </trkpt>
      <trkpt lat="50.57699" lon="3.36208">
        <ele>43.90086</ele>
        <time>2021-09-28T08:57:25Z</time>
      </trkpt>
      <trkpt lat="50.5771" lon="3.36204">
        <ele>43.546471</ele>
        <time>2021-09-28T08:57:27Z</time>
      </trkpt>
      <trkpt lat="50.57721" lon="3.36198">
        <ele>43.249275</ele>
        <time>2021-09-28T08:57:29Z</time>
      </trkpt>
      <trkpt lat="50.57732" lon="3.36193">
        <ele>42.95797</ele>
        <time>2021-09-28T08:57:31Z</time>
      </trkpt>
      <trkpt lat="50.57744" lon="3.36188">
        <ele>42.696358</ele>
        <time>2021-09-28T08:57:33Z</time>
      </trkpt>
      <trkpt lat="50.57755" lon="3.36182">
        <ele>42.247749</ele>
        <time>2021-09-28T08:57:35Z</time>
      </trkpt>
      <trkpt lat="50.57766" lon="3.36176">
        <ele>41.953117</ele>
        <time>2021-09-28T08:57:37Z</time>
      </trkpt>
      <trkpt lat="50.57775" lon="3.3617">
        <ele>41.548454</ele>
        <time>2021-09-28T08:57:39Z</time>
      </trkpt>
      <trkpt lat="50.57784" lon="3.36163">
        <ele>41.451313</ele>
        <time>2021-09-28T08:57:41Z</time>
      </trkpt>
      <trkpt lat="50.57792" lon="3.36156">
        <ele>41.073555</ele>
        <time>2021-09-28T08:57:43Z</time>
      </trkpt>
      <trkpt lat="50.57799" lon="3.36149">
        <ele>40.715919</ele>
        <time>2021-09-28T08:57:45Z</time>
      </trkpt>
      <trkpt lat="50.57801" lon="3.36138">
        <ele>40.352383</ele>
        <time>2021-09-28T08:57:47Z</time>
      </trkpt>
      <trkpt lat="50.57801" lon="3.36125">
        <ele>39.941109</ele>
        <time>2021-09-28T08:57:49Z</time>
      </trkpt>
      <trkpt lat="50.578" lon="3.36109">
        <ele>39.511684</ele>
        <time>2021-09-28T08:57:51Z</time>
      </trkpt>
      <trkpt lat="50.57798" lon="3.36093">
        <ele>39.139931</ele>
        <time>2021-09-28T08:57:53Z</time>
      </trkpt>
      <trkpt lat="50.57797" lon="3.36077">
        <ele>38.795601</ele>
        <time>2021-09-28T08:57:55Z</time>
      </trkpt>
      <trkpt lat="50.57796" lon="3.36061">
        <ele>38.634518</ele>
        <time>2021-09-28T08:57:57Z</time>
      </trkpt>
      <trkpt lat="50.57795" lon="3.36046">
        <ele>38.267872</ele>
        <time>2021-09-28T08:57:59Z</time>
      </trkpt>
      <trkpt lat="50.57795" lon="3.36029">
        <ele>37.981289</ele>
        <time>2021-09-28T08:58:01Z</time>
      </trkpt>
      <trkpt lat="50.57794" lon="3.36014">
        <ele>37.631111</ele>
        <time>2021-09-28T08:58:03Z</time>
      </trkpt>
      <trkpt lat="50.57793" lon="3.35998">
        <ele>37.365463</ele>
        <time>2021-09-28T08:58:05Z</time>
      </trkpt>
      <trkpt lat="50.57793" lon="3.35982">
        <ele>37.03899</ele>
        <time>2021-09-28T08:58:07Z</time>
      </trkpt>
      <trkpt lat="50.57792" lon="3.35967">
        <ele>36.741634</ele>
        <time>2021-09-28T08:58:09Z</time>
      </trkpt>
      <trkpt lat="50.57791" lon="3.35951">
        <ele>36.441029</ele>
        <time>2021-09-28T08:58:11Z</time>
      </trkpt>
      <trkpt lat="50.57787" lon="3.35937">
        <ele>36.335724</ele>
        <time>2021-09-28T08:58:13Z</time>
      </trkpt>
      <trkpt lat="50.57782" lon="3.35925">
        <ele>36.039848</ele>
        <time>2021-09-28T08:58:15Z</time>
      </trkpt>
      <trkpt lat="50.57775" lon="3.35914">
        <ele>35.787956</ele>
        <time>2021-09-28T08:58:17Z</time>
      </trkpt>
      <trkpt lat="50.57768" lon="3.35905">
        <ele>35.607826</ele>
        <time>2021-09-28T08:58:19Z</time>
      </trkpt>
      <trkpt lat="50.5776" lon="3.35895">
        <ele>35.377846</ele>
        <time>2021-09-28T08:58:21Z</time>
      </trkpt>
      <trkpt lat="50.57753" lon="3.35886">
        <ele>35.191978</ele>
        <time>2021-09-28T08:58:23Z</time>
      </trkpt>
      <trkpt lat="50.57746" lon="3.35877">
        <ele>35.130035</ele>
        <time>2021-09-28T08:58:25Z</time>
      </trkpt>
      <trkpt lat="50.57739" lon="3.35868">
        <ele>34.987827</ele>
        <time>2021-09-28T08:58:27Z</time>
      </trkpt>
      <trkpt lat="50.57732" lon="3.3586">
        <ele>34.874775</ele>
        <time>2021-09-28T08:58:29Z</time>
      </trkpt>
      <trkpt lat="50.57726" lon="3.35854">
        <ele>34.798759</ele>
        <time>2021-09-28T08:58:31Z</time>
      </trkpt>
      <trkpt lat="50.57718" lon="3.3585">
        <ele>34.794628</ele>
        <time>2021-09-28T08:58:33Z</time>
      </trkpt>
      <trkpt lat="50.5771" lon="3.35849">
        <ele>34.739056</ele>
        <time>2021-09-28T08:58:35Z</time>
      </trkpt>
      <trkpt lat="50.57702" lon="3.35849">
        <ele>34.696671</ele>
        <time>2021-09-28T08:58:37Z</time>
      </trkpt>
      <trkpt lat="50.57694" lon="3.3585">
        <ele>34.65538</ele>
        <time>2021-09-28T08:58:39Z</time>
      </trkpt>
      <trkpt lat="50.57686" lon="3.35851">
        <ele>34.635056</ele>
        <time>2021-09-28T08:58:41Z</time>
      </trkpt>
      <trkpt lat="50.57678" lon="3.35851">
        <ele>34.647774</ele>
        <time>2021-09-28T08:58:43Z</time>
      </trkpt>
      <trkpt lat="50.57669" lon="3.35853">
        <ele>34.665268</ele>
        <time>2021-09-28T08:58:45Z</time>
      </trkpt>
      <trkpt lat="50.5766" lon="3.35851">
        <ele>34.705872</ele>
        <time>2021-09-28T08:58:47Z</time>
      </trkpt>
      <trkpt lat="50.57652" lon="3.35846">
        <ele>34.77317</ele>
        <time>2021-09-28T08:58:49Z</time>
      </trkpt>
      <trkpt lat="50.57645" lon="3.35837">
        <ele>34.79557</ele>
        <time>2021-09-28T08:58:51Z</time>
      </trkpt>
      <trkpt lat="50.57641" lon="3.35824">
        <ele>34.843422</ele>
        <time>2021-09-28T08:58:53Z</time>
      </trkpt>
      <trkpt lat="50.57637" lon="3.35811">
        <ele>34.878517</ele>
        <time>2021-09-28T08:58:55Z</time>
      </trkpt>
      <trkpt lat="50.57634" lon="3.35798">
        <ele>35.024544</ele>
        <time>2021-09-28T08:58:57Z</time>
      </trkpt>
      <trkpt lat="50.57631" lon="3.35784">
        <ele>35.100929</ele>
        <time>2021-09-28T08:58:59Z</time>
      </trkpt>
      <trkpt lat="50.57628" lon="3.35771">
        <ele>35.194832</ele>
        <time>2021-09-28T08:59:01Z</time>
      </trkpt>
      <trkpt lat="50.57625" lon="3.35758">
        <ele>35.326225</ele>
        <time>2021-09-28T08:59:03Z</time>
      </trkpt>
      <trkpt lat="50.57622" lon="3.35744">
        <ele>35.454327</ele>
        <time>2021-09-28T08:59:05Z</time>
      </trkpt>
      <trkpt lat="50.5762" lon="3.35732">
        <ele>35.541893</ele>
        <time>2021-09-28T08:59:07Z</time>
      </trkpt>
      <trkpt lat="50.57617" lon="3.35719">
        <ele>35.65258</ele>
        <time>2021-09-28T08:59:09Z</time>
      </trkpt>
      <trkpt lat="50.57614" lon="3.35706">
        <ele>35.691811</ele>
        <time>2021-09-28T08:59:11Z</time>
      </trkpt>
      <trkpt lat="50.57612" lon="3.35694">
        <ele>35.759758</ele>
        <time>2021-09-28T08:59:13Z</time>
      </trkpt>
      <trkpt lat="50.57608" lon="3.35681">
        <ele>35.850227</ele>
        <time>2021-09-28T08:59:15Z</time>
      </trkpt>
      <trkpt lat="50.57606" lon="3.35669">
        <ele>35.91848</ele>
        <time>2021-09-28T08:59:17Z</time>
      </trkpt>
      <trkpt lat="50.57603" lon="3.35656">
        <ele>36.017639</ele>
        <time>2021-09-28T08:59:19Z</time>
      </trkpt>
      <trkpt lat="50.57601" lon="3.35643">
        <ele>36.158039</ele>
        <time>2021-09-28T08:59:21Z</time>
      </trkpt>
      <trkpt lat="50.57599" lon="3.3563">
        <ele>36.238056</ele>
        <time>2021-09-28T08:59:23Z</time>
      </trkpt>
      <trkpt lat="50.57596" lon="3.35617">
        <ele>36.320648</ele>
        <time>2021-09-28T08:59:25Z</time>
      </trkpt>
      <trkpt lat="50.57594" lon="3.35604">
        <ele>36.490845</ele>
        <time>2021-09-28T08:59:27Z</time>
      </trkpt>
      <trkpt lat="50.57592" lon="3.35591">
        <ele>36.514118</ele>
        <time>2021-09-28T08:59:29Z</time>
      </trkpt>
      <trkpt lat="50.57589" lon="3.35578">
        <ele>36.557423</ele>
        <time>2021-09-28T08:59:31Z</time>
      </trkpt>
      <trkpt lat="50.57587" lon="3.35565">
        <ele>36.687061</ele>
        <time>2021-09-28T08:59:33Z</time>
      </trkpt>
      <trkpt lat="50.57585" lon="3.35552">
        <ele>36.802456</ele>
        <time>2021-09-28T08:59:35Z</time>
      </trkpt>
      <trkpt lat="50.57583" lon="3.35539">
        <ele>36.945702</ele>
        <time>2021-09-28T08:59:37Z</time>
      </trkpt>
      <trkpt lat="50.57581" lon="3.35527">
        <ele>36.982098</ele>
        <time>2021-09-28T08:59:39Z</time>
      </trkpt>
      <trkpt lat="50.57579" lon="3.35513">
        <ele>37.046494</ele>
        <time>2021-09-28T08:59:41Z</time>
      </trkpt>
      <trkpt lat="50.57577" lon="3.35501">
        <ele>37.145309</ele>
        <time>2021-09-28T08:59:43Z</time>
      </trkpt>
      <trkpt lat="50.57575" lon="3.35488">
        <ele>37.275928</ele>
        <time>2021-09-28T08:59:45Z</time>
      </trkpt>
      <trkpt lat="50.57573" lon="3.35475">
        <ele>37.379913</ele>
        <time>2021-09-28T08:59:47Z</time>
      </trkpt>
      <trkpt lat="50.57571" lon="3.35461">
        <ele>37.492199</ele>
        <time>2021-09-28T08:59:49Z</time>
      </trkpt>
      <trkpt lat="50.5757" lon="3.35449">
        <ele>37.629021</ele>
        <time>2021-09-28T08:59:51Z</time>
      </trkpt>
      <trkpt lat="50.57568" lon="3.35436">
        <ele>37.689457</ele>
        <time>2021-09-28T08:59:53Z</time>
      </trkpt>
      <trkpt lat="50.57566" lon="3.35424">
        <ele>37.836891</ele>
        <time>2021-09-28T08:59:55Z</time>
      </trkpt>
      <trkpt lat="50.57565" lon="3.35413">
        <ele>37.946522</ele>
        <time>2021-09-28T08:59:57Z</time>
      </trkpt>
      <trkpt lat="50.57563" lon="3.35401">
        <ele>38.052254</ele>
        <time>2021-09-28T08:59:59Z</time>
      </trkpt>
      <trkpt lat="50.5756" lon="3.35388">
        <ele>38.140984</ele>
        <time>2021-09-28T09:00:01Z</time>
      </trkpt>
      <trkpt lat="50.57558" lon="3.35375">
        <ele>38.213219</ele>
        <time>2021-09-28T09:00:03Z</time>
      </trkpt>
      <trkpt lat="50.57555" lon="3.35361">
        <ele>38.320534</ele>
        <time>2021-09-28T09:00:05Z</time>
      </trkpt>
      <trkpt lat="50.57554" lon="3.35348">
        <ele>38.459084</ele>
        <time>2021-09-28T09:00:07Z</time>
      </trkpt>
      <trkpt lat="50.57551" lon="3.35333">
        <ele>38.555695</ele>
        <time>2021-09-28T09:00:09Z</time>
      </trkpt>
      <trkpt lat="50.57549" lon="3.35318">
        <ele>38.607994</ele>
        <time>2021-09-28T09:00:11Z</time>
      </trkpt>
      <trkpt lat="50.57546" lon="3.35303">
        <ele>38.648735</ele>
        <time>2021-09-28T09:00:13Z</time>
      </trkpt>
      <trkpt lat="50.57543" lon="3.35288">
        <ele>38.763611</ele>
        <time>2021-09-28T09:00:15Z</time>
      </trkpt>
      <trkpt lat="50.57541" lon="3.35274">
        <ele>38.816517</ele>
        <time>2021-09-28T09:00:17Z</time>
      </trkpt>
      <trkpt lat="50.57539" lon="3.3526">
        <ele>38.879784</ele>
        <time>2021-09-28T09:00:19Z</time>
      </trkpt>
      <trkpt lat="50.57538" lon="3.35246">
        <ele>38.925072</ele>
        <time>2021-09-28T09:00:21Z</time>
      </trkpt>
      <trkpt lat="50.57536" lon="3.35232">
        <ele>38.998123</ele>
        <time>2021-09-28T09:00:23Z</time>
      </trkpt>
      <trkpt lat="50.57533" lon="3.35217">
        <ele>39.036873</ele>
        <time>2021-09-28T09:00:25Z</time>
      </trkpt>
      <trkpt lat="50.57531" lon="3.35201">
        <ele>39.049057</ele>
        <time>2021-09-28T09:00:27Z</time>
      </trkpt>
      <trkpt lat="50.57529" lon="3.35185">
        <ele>39.01516</ele>
        <time>2021-09-28T09:00:29Z</time>
      </trkpt>
      <trkpt lat="50.57526" lon="3.35168">
        <ele>39.015118</ele>
        <time>2021-09-28T09:00:31Z</time>
      </trkpt>
      <trkpt lat="50.57523" lon="3.35151">
        <ele>38.949471</ele>
        <time>2021-09-28T09:00:33Z</time>
      </trkpt>
      <trkpt lat="50.57521" lon="3.35135">
        <ele>38.929695</ele>
        <time>2021-09-28T09:00:35Z</time>
      </trkpt>
      <trkpt lat="50.57518" lon="3.35119">
        <ele>38.863087</ele>
        <time>2021-09-28T09:00:37Z</time>
      </trkpt>
      <trkpt lat="50.57514" lon="3.35104">
        <ele>38.781364</ele>
        <time>2021-09-28T09:00:39Z</time>
      </trkpt>
      <trkpt lat="50.57511" lon="3.35097">
        <ele>38.758644</ele>
        <time>2021-09-28T09:00:40Z</time>
      </trkpt>
      <trkpt lat="50.57504" lon="3.35085">
        <ele>38.682053</ele>
        <time>2021-09-28T09:00:42Z</time>
      </trkpt>
      <trkpt lat="50.57497" lon="3.35075">
        <ele>38.665146</ele>
        <time>2021-09-28T09:00:44Z</time>
      </trkpt>
      <trkpt lat="50.57489" lon="3.35067">
        <ele>38.609459</ele>
        <time>2021-09-28T09:00:46Z</time>
      </trkpt>
      <trkpt lat="50.5748" lon="3.35059">
        <ele>38.510818</ele>
        <time>2021-09-28T09:00:48Z</time>
      </trkpt>
      <trkpt lat="50.57472" lon="3.35051">
        <ele>38.422085</ele>
        <time>2021-09-28T09:00:50Z</time>
      </trkpt>
      <trkpt lat="50.57464" lon="3.35043">
        <ele>38.338799</ele>
        <time>2021-09-28T09:00:52Z</time>
      </trkpt>
      <trkpt lat="50.57455" lon="3.35036">
        <ele>38.293369</ele>
        <time>2021-09-28T09:00:54Z</time>
      </trkpt>
      <trkpt lat="50.57447" lon="3.35028">
        <ele>38.230038</ele>
        <time>2021-09-28T09:00:56Z</time>
      </trkpt>
      <trkpt lat="50.57439" lon="3.3502">
        <ele>38.226677</ele>
        <time>2021-09-28T09:00:58Z</time>
      </trkpt>
      <trkpt lat="50.57431" lon="3.35012">
        <ele>38.201221</ele>
        <time>2021-09-28T09:01:00Z</time>
      </trkpt>
      <trkpt lat="50.57423" lon="3.35004">
        <ele>38.129642</ele>
        <time>2021-09-28T09:01:02Z</time>
      </trkpt>
      <trkpt lat="50.57416" lon="3.34995">
        <ele>38.086327</ele>
        <time>2021-09-28T09:01:04Z</time>
      </trkpt>
      <trkpt lat="50.57408" lon="3.34987">
        <ele>38.06789</ele>
        <time>2021-09-28T09:01:06Z</time>
      </trkpt>
      <trkpt lat="50.57401" lon="3.34977">
        <ele>38.038216</ele>
        <time>2021-09-28T09:01:08Z</time>
      </trkpt>
      <trkpt lat="50.57393" lon="3.34967">
        <ele>38.026562</ele>
        <time>2021-09-28T09:01:10Z</time>
      </trkpt>
      <trkpt lat="50.57386" lon="3.34959">
        <ele>38.051674</ele>
        <time>2021-09-28T09:01:12Z</time>
      </trkpt>
      <trkpt lat="50.57378" lon="3.3495">
        <ele>38.049606</ele>
        <time>2021-09-28T09:01:14Z</time>
      </trkpt>
      <trkpt lat="50.57371" lon="3.34941">
        <ele>38.08363</ele>
        <time>2021-09-28T09:01:16Z</time>
      </trkpt>
      <trkpt lat="50.57364" lon="3.34932">
        <ele>38.126865</ele>
        <time>2021-09-28T09:01:18Z</time>
      </trkpt>
      <trkpt lat="50.57359" lon="3.34921">
        <ele>38.192944</ele>
        <time>2021-09-28T09:01:20Z</time>
      </trkpt>
      <trkpt lat="50.57356" lon="3.34909">
        <ele>38.267658</ele>
        <time>2021-09-28T09:01:22Z</time>
      </trkpt>
      <trkpt lat="50.5735" lon="3.349">
        <ele>38.32592</ele>
        <time>2021-09-28T09:01:24Z</time>
      </trkpt>
      <trkpt lat="50.57342" lon="3.34899">
        <ele>38.36591</ele>
        <time>2021-09-28T09:01:26Z</time>
      </trkpt>
      <trkpt lat="50.57333" lon="3.34902">
        <ele>38.417538</ele>
        <time>2021-09-28T09:01:28Z</time>
      </trkpt>
      <trkpt lat="50.57323" lon="3.34904">
        <ele>38.452332</ele>
        <time>2021-09-28T09:01:30Z</time>
      </trkpt>
      <trkpt lat="50.57313" lon="3.34901">
        <ele>38.442009</ele>
        <time>2021-09-28T09:01:32Z</time>
      </trkpt>
      <trkpt lat="50.57303" lon="3.34898">
        <ele>38.462246</ele>
        <time>2021-09-28T09:01:34Z</time>
      </trkpt>
      <trkpt lat="50.57293" lon="3.34895">
        <ele>38.536591</ele>
        <time>2021-09-28T09:01:36Z</time>
      </trkpt>
      <trkpt lat="50.57285" lon="3.34894">
        <ele>38.5462</ele>
        <time>2021-09-28T09:01:38Z</time>
      </trkpt>
      <trkpt lat="50.57276" lon="3.34891">
        <ele>38.601967</ele>
        <time>2021-09-28T09:01:40Z</time>
      </trkpt>
      <trkpt lat="50.57268" lon="3.34888">
        <ele>38.60931</ele>
        <time>2021-09-28T09:01:42Z</time>
      </trkpt>
      <trkpt lat="50.57259" lon="3.34885">
        <ele>38.716698</ele>
        <time>2021-09-28T09:01:44Z</time>
      </trkpt>
      <trkpt lat="50.57251" lon="3.34881">
        <ele>38.786057</ele>
        <time>2021-09-28T09:01:46Z</time>
      </trkpt>
      <trkpt lat="50.57243" lon="3.34878">
        <ele>38.85215</ele>
        <time>2021-09-28T09:01:48Z</time>
      </trkpt>
      <trkpt lat="50.57235" lon="3.34875">
        <ele>38.926369</ele>
        <time>2021-09-28T09:01:50Z</time>
      </trkpt>
      <trkpt lat="50.57226" lon="3.34872">
        <ele>39.020634</ele>
        <time>2021-09-28T09:01:52Z</time>
      </trkpt>
      <trkpt lat="50.57217" lon="3.34869">
        <ele>39.064003</ele>
        <time>2021-09-28T09:01:54Z</time>
      </trkpt>
      <trkpt lat="50.57209" lon="3.34866">
        <ele>39.152729</ele>
        <time>2021-09-28T09:01:56Z</time>
      </trkpt>
      <trkpt lat="50.572" lon="3.34862">
        <ele>39.255062</ele>
        <time>2021-09-28T09:01:58Z</time>
      </trkpt>
      <trkpt lat="50.57192" lon="3.34859">
        <ele>39.34333</ele>
        <time>2021-09-28T09:02:00Z</time>
      </trkpt>
      <trkpt lat="50.57184" lon="3.34857">
        <ele>39.446602</ele>
        <time>2021-09-28T09:02:02Z</time>
      </trkpt>
      <trkpt lat="50.57176" lon="3.34853">
        <ele>39.533783</ele>
        <time>2021-09-28T09:02:04Z</time>
      </trkpt>
      <trkpt lat="50.57168" lon="3.3485">
        <ele>39.56432</ele>
        <time>2021-09-28T09:02:06Z</time>
      </trkpt>
      <trkpt lat="50.5716" lon="3.34848">
        <ele>39.71991</ele>
        <time>2021-09-28T09:02:08Z</time>
      </trkpt>
      <trkpt lat="50.57152" lon="3.34847">
        <ele>39.759151</ele>
        <time>2021-09-28T09:02:10Z</time>
      </trkpt>
      <trkpt lat="50.57144" lon="3.34845">
        <ele>39.896034</ele>
        <time>2021-09-28T09:02:12Z</time>
      </trkpt>
      <trkpt lat="50.57136" lon="3.34844">
        <ele>40.069534</ele>
        <time>2021-09-28T09:02:14Z</time>
      </trkpt>
      <trkpt lat="50.57128" lon="3.34842">
        <ele>40.26226</ele>
        <time>2021-09-28T09:02:16Z</time>
      </trkpt>
      <trkpt lat="50.57121" lon="3.34842">
        <ele>40.309769</ele>
        <time>2021-09-28T09:02:18Z</time>
      </trkpt>
      <trkpt lat="50.57112" lon="3.34841">
        <ele>40.43771</ele>
        <time>2021-09-28T09:02:20Z</time>
      </trkpt>
      <trkpt lat="50.57104" lon="3.34839">
        <ele>40.594051</ele>
        <time>2021-09-28T09:02:22Z</time>
      </trkpt>
      <trkpt lat="50.57096" lon="3.34838">
        <ele>40.746208</ele>
        <time>2021-09-28T09:02:24Z</time>
      </trkpt>
      <trkpt lat="50.57089" lon="3.34837">
        <ele>40.875866</ele>
        <time>2021-09-28T09:02:26Z</time>
      </trkpt>
      <trkpt lat="50.57082" lon="3.34838">
        <ele>41.038681</ele>
        <time>2021-09-28T09:02:28Z</time>
      </trkpt>
      <trkpt lat="50.57077" lon="3.34844">
        <ele>41.186157</ele>
        <time>2021-09-28T09:02:30Z</time>
      </trkpt>
      <trkpt lat="50.57071" lon="3.34849">
        <ele>41.308144</ele>
        <time>2021-09-28T09:02:32Z</time>
      </trkpt>
      <trkpt lat="50.57065" lon="3.34856">
        <ele>41.454132</ele>
        <time>2021-09-28T09:02:34Z</time>
      </trkpt>
      <trkpt lat="50.5706" lon="3.34863">
        <ele>41.532635</ele>
        <time>2021-09-28T09:02:36Z</time>
      </trkpt>
      <trkpt lat="50.57057" lon="3.34873">
        <ele>41.671131</ele>
        <time>2021-09-28T09:02:38Z</time>
      </trkpt>
      <trkpt lat="50.57055" lon="3.34885">
        <ele>41.793995</ele>
        <time>2021-09-28T09:02:40Z</time>
      </trkpt>
      <trkpt lat="50.57052" lon="3.34897">
        <ele>41.869587</ele>
        <time>2021-09-28T09:02:42Z</time>
      </trkpt>
      <trkpt lat="50.57049" lon="3.3491">
        <ele>41.970123</ele>
        <time>2021-09-28T09:02:44Z</time>
      </trkpt>
      <trkpt lat="50.57045" lon="3.34923">
        <ele>42.05603</ele>
        <time>2021-09-28T09:02:46Z</time>
      </trkpt>
      <trkpt lat="50.57042" lon="3.34936">
        <ele>42.142792</ele>
        <time>2021-09-28T09:02:48Z</time>
      </trkpt>
      <trkpt lat="50.57039" lon="3.3495">
        <ele>42.198853</ele>
        <time>2021-09-28T09:02:50Z</time>
      </trkpt>
      <trkpt lat="50.57035" lon="3.34964">
        <ele>42.265617</ele>
        <time>2021-09-28T09:02:52Z</time>
      </trkpt>
      <trkpt lat="50.57032" lon="3.3498">
        <ele>42.320984</ele>
        <time>2021-09-28T09:02:54Z</time>
      </trkpt>
      <trkpt lat="50.5703" lon="3.34997">
        <ele>42.335442</ele>
        <time>2021-09-28T09:02:56Z</time>
      </trkpt>
      <trkpt lat="50.5703" lon="3.35013">
        <ele>42.353821</ele>
        <time>2021-09-28T09:02:58Z</time>
      </trkpt>
      <trkpt lat="50.57029" lon="3.35029">
        <ele>42.312511</ele>
        <time>2021-09-28T09:03:00Z</time>
      </trkpt>
      <trkpt lat="50.5703" lon="3.35046">
        <ele>42.333641</ele>
        <time>2021-09-28T09:03:02Z</time>
      </trkpt>
      <trkpt lat="50.57032" lon="3.35061">
        <ele>42.300529</ele>
        <time>2021-09-28T09:03:04Z</time>
      </trkpt>
      <trkpt lat="50.57036" lon="3.35075">
        <ele>42.259216</ele>
        <time>2021-09-28T09:03:06Z</time>
      </trkpt>
      <trkpt lat="50.5704" lon="3.35089">
        <ele>42.21846</ele>
        <time>2021-09-28T09:03:08Z</time>
      </trkpt>
      <trkpt lat="50.57045" lon="3.351">
        <ele>42.080063</ele>
        <time>2021-09-28T09:03:10Z</time>
      </trkpt>
      <trkpt lat="50.57048" lon="3.35113">
        <ele>41.953667</ele>
        <time>2021-09-28T09:03:12Z</time>
      </trkpt>
      <trkpt lat="50.5705" lon="3.35126">
        <ele>41.816856</ele>
        <time>2021-09-28T09:03:14Z</time>
      </trkpt>
      <trkpt lat="50.5705" lon="3.3514">
        <ele>41.744457</ele>
        <time>2021-09-28T09:03:16Z</time>
      </trkpt>
      <trkpt lat="50.57047" lon="3.35152">
        <ele>41.599983</ele>
        <time>2021-09-28T09:03:18Z</time>
      </trkpt>
      <trkpt lat="50.57046" lon="3.35159">
        <ele>41.440914</ele>
        <time>2021-09-28T09:03:20Z</time>
      </trkpt>
      <trkpt lat="50.5704" lon="3.35167">
        <ele>41.286976</ele>
        <time>2021-09-28T09:03:22Z</time>
      </trkpt>
      <trkpt lat="50.57035" lon="3.35176">
        <ele>41.156361</ele>
        <time>2021-09-28T09:03:24Z</time>
      </trkpt>
      <trkpt lat="50.57029" lon="3.35185">
        <ele>41.125374</ele>
        <time>2021-09-28T09:03:26Z</time>
      </trkpt>
      <trkpt lat="50.57023" lon="3.35193">
        <ele>41.025581</ele>
        <time>2021-09-28T09:03:28Z</time>
      </trkpt>
      <trkpt lat="50.57016" lon="3.352">
        <ele>40.93882</ele>
        <time>2021-09-28T09:03:30Z</time>
      </trkpt>
      <trkpt lat="50.57008" lon="3.35206">
        <ele>40.859829</ele>
        <time>2021-09-28T09:03:32Z</time>
      </trkpt>
      <trkpt lat="50.57" lon="3.3521">
        <ele>40.790199</ele>
        <time>2021-09-28T09:03:34Z</time>
      </trkpt>
      <trkpt lat="50.56993" lon="3.35214">
        <ele>40.768997</ele>
        <time>2021-09-28T09:03:36Z</time>
      </trkpt>
      <trkpt lat="50.56986" lon="3.35219">
        <ele>40.73975</ele>
        <time>2021-09-28T09:03:38Z</time>
      </trkpt>
      <trkpt lat="50.56974" lon="3.35223">
        <ele>40.756588</ele>
        <time>2021-09-28T09:03:41Z</time>
      </trkpt>
      <trkpt lat="50.56966" lon="3.35226">
        <ele>40.802162</ele>
        <time>2021-09-28T09:03:43Z</time>
      </trkpt>
      <trkpt lat="50.56959" lon="3.35229">
        <ele>40.902081</ele>
        <time>2021-09-28T09:03:45Z</time>
      </trkpt>
      <trkpt lat="50.56952" lon="3.35232">
        <ele>40.986782</ele>
        <time>2021-09-28T09:03:47Z</time>
      </trkpt>
      <trkpt lat="50.56944" lon="3.35235">
        <ele>41.065529</ele>
        <time>2021-09-28T09:03:49Z</time>
      </trkpt>
      <trkpt lat="50.56937" lon="3.35238">
        <ele>41.166893</ele>
        <time>2021-09-28T09:03:51Z</time>
      </trkpt>
      <trkpt lat="50.5693" lon="3.35241">
        <ele>41.350914</ele>
        <time>2021-09-28T09:03:53Z</time>
      </trkpt>
      <trkpt lat="50.56923" lon="3.35245">
        <ele>41.403324</ele>
        <time>2021-09-28T09:03:55Z</time>
      </trkpt>
      <trkpt lat="50.56915" lon="3.35248">
        <ele>41.570152</ele>
        <time>2021-09-28T09:03:57Z</time>
      </trkpt>
      <trkpt lat="50.56908" lon="3.35251">
        <ele>41.723488</ele>
        <time>2021-09-28T09:03:59Z</time>
      </trkpt>
      <trkpt lat="50.56901" lon="3.35254">
        <ele>41.900436</ele>
        <time>2021-09-28T09:04:01Z</time>
      </trkpt>
      <trkpt lat="50.56894" lon="3.35257">
        <ele>42.038841</ele>
        <time>2021-09-28T09:04:03Z</time>
      </trkpt>
      <trkpt lat="50.56888" lon="3.35259">
        <ele>42.213917</ele>
        <time>2021-09-28T09:04:05Z</time>
      </trkpt>
      <trkpt lat="50.56883" lon="3.35261">
        <ele>42.294483</ele>
        <time>2021-09-28T09:04:07Z</time>
      </trkpt>
      <trkpt lat="50.56875" lon="3.35264">
        <ele>42.469566</ele>
        <time>2021-09-28T09:04:09Z</time>
      </trkpt>
      <trkpt lat="50.56868" lon="3.35267">
        <ele>42.612415</ele>
        <time>2021-09-28T09:04:11Z</time>
      </trkpt>
      <trkpt lat="50.5686" lon="3.35269">
        <ele>42.715706</ele>
        <time>2021-09-28T09:04:13Z</time>
      </trkpt>
      <trkpt lat="50.56854" lon="3.35271">
        <ele>42.848824</ele>
        <time>2021-09-28T09:04:15Z</time>
      </trkpt>
      <trkpt lat="50.56847" lon="3.35273">
        <ele>43.023537</ele>
        <time>2021-09-28T09:04:17Z</time>
      </trkpt>
      <trkpt lat="50.56841" lon="3.35273">
        <ele>43.131397</ele>
        <time>2021-09-28T09:04:19Z</time>
      </trkpt>
      <trkpt lat="50.56835" lon="3.35274">
        <ele>43.209908</ele>
        <time>2021-09-28T09:04:21Z</time>
      </trkpt>
      <trkpt lat="50.5683" lon="3.35275">
        <ele>43.316109</ele>
        <time>2021-09-28T09:04:23Z</time>
      </trkpt>
      <trkpt lat="50.56824" lon="3.35275">
        <ele>43.382298</ele>
        <time>2021-09-28T09:04:25Z</time>
      </trkpt>
      <trkpt lat="50.56818" lon="3.35276">
        <ele>43.428295</ele>
        <time>2021-09-28T09:04:27Z</time>
      </trkpt>
      <trkpt lat="50.56815" lon="3.35275">
        <ele>43.4995</ele>
        <time>2021-09-28T09:04:29Z</time>
      </trkpt>
      <trkpt lat="50.56805" lon="3.35278">
        <ele>42.263794</ele>
        <time>2021-09-28T09:06:14Z</time>
      </trkpt>
      <trkpt lat="50.56798" lon="3.3528">
        <ele>42.231953</ele>
        <time>2021-09-28T09:06:17Z</time>
      </trkpt>
      <trkpt lat="50.56791" lon="3.35281">
        <ele>42.239353</ele>
        <time>2021-09-28T09:06:19Z</time>
      </trkpt>
      <trkpt lat="50.56784" lon="3.35281">
        <ele>42.226616</ele>
        <time>2021-09-28T09:06:21Z</time>
      </trkpt>
      <trkpt lat="50.56778" lon="3.3528">
        <ele>42.225368</ele>
        <time>2021-09-28T09:06:23Z</time>
      </trkpt>
      <trkpt lat="50.5677" lon="3.3528">
        <ele>42.27961</ele>
        <time>2021-09-28T09:06:25Z</time>
      </trkpt>
      <trkpt lat="50.56764" lon="3.35281">
        <ele>42.31776</ele>
        <time>2021-09-28T09:06:27Z</time>
      </trkpt>
      <trkpt lat="50.56757" lon="3.3528">
        <ele>42.382393</ele>
        <time>2021-09-28T09:06:29Z</time>
      </trkpt>
      <trkpt lat="50.56751" lon="3.3528">
        <ele>42.429573</ele>
        <time>2021-09-28T09:06:31Z</time>
      </trkpt>
      <trkpt lat="50.56744" lon="3.3528">
        <ele>42.487244</ele>
        <time>2021-09-28T09:06:33Z</time>
      </trkpt>
      <trkpt lat="50.56736" lon="3.3528">
        <ele>42.570305</ele>
        <time>2021-09-28T09:06:35Z</time>
      </trkpt>
      <trkpt lat="50.5673" lon="3.35279">
        <ele>42.650528</ele>
        <time>2021-09-28T09:06:37Z</time>
      </trkpt>
      <trkpt lat="50.56723" lon="3.35279">
        <ele>42.778313</ele>
        <time>2021-09-28T09:06:39Z</time>
      </trkpt>
      <trkpt lat="50.56715" lon="3.35279">
        <ele>42.918808</ele>
        <time>2021-09-28T09:06:41Z</time>
      </trkpt>
      <trkpt lat="50.56708" lon="3.35278">
        <ele>42.982021</ele>
        <time>2021-09-28T09:06:43Z</time>
      </trkpt>
      <trkpt lat="50.56701" lon="3.35278">
        <ele>43.117043</ele>
        <time>2021-09-28T09:06:45Z</time>
      </trkpt>
      <trkpt lat="50.56694" lon="3.35278">
        <ele>43.274075</ele>
        <time>2021-09-28T09:06:47Z</time>
      </trkpt>
      <trkpt lat="50.56687" lon="3.35278">
        <ele>43.432808</ele>
        <time>2021-09-28T09:06:49Z</time>
      </trkpt>
      <trkpt lat="50.5668" lon="3.35279">
        <ele>43.571247</ele>
        <time>2021-09-28T09:06:51Z</time>
      </trkpt>
      <trkpt lat="50.56673" lon="3.35281">
        <ele>43.709267</ele>
        <time>2021-09-28T09:06:53Z</time>
      </trkpt>
      <trkpt lat="50.56666" lon="3.35283">
        <ele>43.812569</ele>
        <time>2021-09-28T09:06:55Z</time>
      </trkpt>
      <trkpt lat="50.56659" lon="3.35286">
        <ele>43.956684</ele>
        <time>2021-09-28T09:06:57Z</time>
      </trkpt>
      <trkpt lat="50.56652" lon="3.35289">
        <ele>44.107948</ele>
        <time>2021-09-28T09:06:59Z</time>
      </trkpt>
      <trkpt lat="50.56645" lon="3.35291">
        <ele>44.261707</ele>
        <time>2021-09-28T09:07:01Z</time>
      </trkpt>
      <trkpt lat="50.56638" lon="3.3529">
        <ele>44.406921</ele>
        <time>2021-09-28T09:07:03Z</time>
      </trkpt>
      <trkpt lat="50.56631" lon="3.35289">
        <ele>44.572559</ele>
        <time>2021-09-28T09:07:05Z</time>
      </trkpt>
      <trkpt lat="50.56624" lon="3.35286">
        <ele>44.703724</ele>
        <time>2021-09-28T09:07:07Z</time>
      </trkpt>
      <trkpt lat="50.56619" lon="3.35281">
        <ele>44.784016</ele>
        <time>2021-09-28T09:07:09Z</time>
      </trkpt>
      <trkpt lat="50.56613" lon="3.35275">
        <ele>44.922462</ele>
        <time>2021-09-28T09:07:11Z</time>
      </trkpt>
      <trkpt lat="50.56607" lon="3.35269">
        <ele>45.07893</ele>
        <time>2021-09-28T09:07:13Z</time>
      </trkpt>
      <trkpt lat="50.56601" lon="3.35262">
        <ele>45.209251</ele>
        <time>2021-09-28T09:07:15Z</time>
      </trkpt>
      <trkpt lat="50.56595" lon="3.35255">
        <ele>45.315903</ele>
        <time>2021-09-28T09:07:17Z</time>
      </trkpt>
      <trkpt lat="50.56588" lon="3.35247">
        <ele>45.456425</ele>
        <time>2021-09-28T09:07:19Z</time>
      </trkpt>
      <trkpt lat="50.56583" lon="3.35241">
        <ele>45.570438</ele>
        <time>2021-09-28T09:07:21Z</time>
      </trkpt>
      <trkpt lat="50.56577" lon="3.35234">
        <ele>45.659306</ele>
        <time>2021-09-28T09:07:23Z</time>
      </trkpt>
      <trkpt lat="50.5657" lon="3.35227">
        <ele>45.788567</ele>
        <time>2021-09-28T09:07:25Z</time>
      </trkpt>
      <trkpt lat="50.56565" lon="3.3522">
        <ele>45.900162</ele>
        <time>2021-09-28T09:07:27Z</time>
      </trkpt>
      <trkpt lat="50.56559" lon="3.35212">
        <ele>45.94976</ele>
        <time>2021-09-28T09:07:29Z</time>
      </trkpt>
      <trkpt lat="50.56554" lon="3.35204">
        <ele>46.018635</ele>
        <time>2021-09-28T09:07:31Z</time>
      </trkpt>
      <trkpt lat="50.56548" lon="3.35196">
        <ele>46.141106</ele>
        <time>2021-09-28T09:07:33Z</time>
      </trkpt>
      <trkpt lat="50.56542" lon="3.35188">
        <ele>46.223774</ele>
        <time>2021-09-28T09:07:35Z</time>
      </trkpt>
      <trkpt lat="50.56537" lon="3.3518">
        <ele>46.321083</ele>
        <time>2021-09-28T09:07:37Z</time>
      </trkpt>
      <trkpt lat="50.56531" lon="3.35172">
        <ele>46.417046</ele>
        <time>2021-09-28T09:07:39Z</time>
      </trkpt>
      <trkpt lat="50.56525" lon="3.35165">
        <ele>46.47036</ele>
        <time>2021-09-28T09:07:41Z</time>
      </trkpt>
      <trkpt lat="50.5652" lon="3.35157">
        <ele>46.557281</ele>
        <time>2021-09-28T09:07:43Z</time>
      </trkpt>
      <trkpt lat="50.56514" lon="3.35148">
        <ele>46.697826</ele>
        <time>2021-09-28T09:07:45Z</time>
      </trkpt>
      <trkpt lat="50.56509" lon="3.3514">
        <ele>46.827461</ele>
        <time>2021-09-28T09:07:47Z</time>
      </trkpt>
      <trkpt lat="50.56504" lon="3.3513">
        <ele>46.909233</ele>
        <time>2021-09-28T09:07:49Z</time>
      </trkpt>
      <trkpt lat="50.56499" lon="3.35121">
        <ele>46.99897</ele>
        <time>2021-09-28T09:07:51Z</time>
      </trkpt>
      <trkpt lat="50.56493" lon="3.35112">
        <ele>47.100636</ele>
        <time>2021-09-28T09:07:53Z</time>
      </trkpt>
      <trkpt lat="50.56489" lon="3.35103">
        <ele>47.150238</ele>
        <time>2021-09-28T09:07:55Z</time>
      </trkpt>
      <trkpt lat="50.56484" lon="3.35094">
        <ele>47.266273</ele>
        <time>2021-09-28T09:07:57Z</time>
      </trkpt>
      <trkpt lat="50.56479" lon="3.35084">
        <ele>47.37252</ele>
        <time>2021-09-28T09:07:59Z</time>
      </trkpt>
      <trkpt lat="50.56475" lon="3.35075">
        <ele>47.497528</ele>
        <time>2021-09-28T09:08:01Z</time>
      </trkpt>
      <trkpt lat="50.5647" lon="3.35066">
        <ele>47.609997</ele>
        <time>2021-09-28T09:08:03Z</time>
      </trkpt>
      <trkpt lat="50.56465" lon="3.35057">
        <ele>47.71151</ele>
        <time>2021-09-28T09:08:05Z</time>
      </trkpt>
      <trkpt lat="50.56461" lon="3.35049">
        <ele>47.773232</ele>
        <time>2021-09-28T09:08:07Z</time>
      </trkpt>
      <trkpt lat="50.56458" lon="3.3504">
        <ele>47.861637</ele>
        <time>2021-09-28T09:08:09Z</time>
      </trkpt>
      <trkpt lat="50.56453" lon="3.35031">
        <ele>47.915382</ele>
        <time>2021-09-28T09:08:11Z</time>
      </trkpt>
      <trkpt lat="50.56449" lon="3.35022">
        <ele>47.963188</ele>
        <time>2021-09-28T09:08:13Z</time>
      </trkpt>
      <trkpt lat="50.56445" lon="3.35013">
        <ele>48.035614</ele>
        <time>2021-09-28T09:08:15Z</time>
      </trkpt>
      <trkpt lat="50.56441" lon="3.35004">
        <ele>48.095184</ele>
        <time>2021-09-28T09:08:17Z</time>
      </trkpt>
      <trkpt lat="50.56437" lon="3.34995">
        <ele>48.193542</ele>
        <time>2021-09-28T09:08:19Z</time>
      </trkpt>
      <trkpt lat="50.56433" lon="3.34986">
        <ele>48.229847</ele>
        <time>2021-09-28T09:08:21Z</time>
      </trkpt>
      <trkpt lat="50.56429" lon="3.34978">
        <ele>48.262409</ele>
        <time>2021-09-28T09:08:23Z</time>
      </trkpt>
      <trkpt lat="50.56426" lon="3.34971">
        <ele>48.30777</ele>
        <time>2021-09-28T09:08:25Z</time>
      </trkpt>
      <trkpt lat="50.56421" lon="3.3497">
        <ele>48.307301</ele>
        <time>2021-09-28T09:08:27Z</time>
      </trkpt>
      <trkpt lat="50.56416" lon="3.34977">
        <ele>48.282501</ele>
        <time>2021-09-28T09:08:29Z</time>
      </trkpt>
      <trkpt lat="50.56412" lon="3.34987">
        <ele>48.303547</ele>
        <time>2021-09-28T09:08:31Z</time>
      </trkpt>
      <trkpt lat="50.56408" lon="3.34997">
        <ele>48.334557</ele>
        <time>2021-09-28T09:08:33Z</time>
      </trkpt>
      <trkpt lat="50.56405" lon="3.35008">
        <ele>48.341011</ele>
        <time>2021-09-28T09:08:35Z</time>
      </trkpt>
      <trkpt lat="50.56401" lon="3.35019">
        <ele>48.336876</ele>
        <time>2021-09-28T09:08:37Z</time>
      </trkpt>
      <trkpt lat="50.56398" lon="3.35029">
        <ele>48.313568</ele>
        <time>2021-09-28T09:08:39Z</time>
      </trkpt>
      <trkpt lat="50.56395" lon="3.35039">
        <ele>48.301167</ele>
        <time>2021-09-28T09:08:41Z</time>
      </trkpt>
      <trkpt lat="50.56391" lon="3.35049">
        <ele>48.275917</ele>
        <time>2021-09-28T09:08:43Z</time>
      </trkpt>
      <trkpt lat="50.56388" lon="3.35058">
        <ele>48.259987</ele>
        <time>2021-09-28T09:08:45Z</time>
      </trkpt>
      <trkpt lat="50.56384" lon="3.35068">
        <ele>48.249645</ele>
        <time>2021-09-28T09:08:47Z</time>
      </trkpt>
      <trkpt lat="50.56381" lon="3.35078">
        <ele>48.229431</ele>
        <time>2021-09-28T09:08:49Z</time>
      </trkpt>
      <trkpt lat="50.56377" lon="3.35087">
        <ele>48.254234</ele>
        <time>2021-09-28T09:08:51Z</time>
      </trkpt>
      <trkpt lat="50.56374" lon="3.35097">
        <ele>48.257599</ele>
        <time>2021-09-28T09:08:53Z</time>
      </trkpt>
      <trkpt lat="50.56369" lon="3.35112">
        <ele>48.269714</ele>
        <time>2021-09-28T09:08:56Z</time>
      </trkpt>
      <trkpt lat="50.56365" lon="3.35122">
        <ele>48.304855</ele>
        <time>2021-09-28T09:08:58Z</time>
      </trkpt>
      <trkpt lat="50.56362" lon="3.35131">
        <ele>48.291061</ele>
        <time>2021-09-28T09:09:00Z</time>
      </trkpt>
      <trkpt lat="50.56359" lon="3.35141">
        <ele>48.295197</ele>
        <time>2021-09-28T09:09:02Z</time>
      </trkpt>
      <trkpt lat="50.56356" lon="3.35152">
        <ele>48.3116</ele>
        <time>2021-09-28T09:09:04Z</time>
      </trkpt>
      <trkpt lat="50.56354" lon="3.35162">
        <ele>48.356613</ele>
        <time>2021-09-28T09:09:06Z</time>
      </trkpt>
      <trkpt lat="50.56353" lon="3.35173">
        <ele>48.375221</ele>
        <time>2021-09-28T09:09:08Z</time>
      </trkpt>
      <trkpt lat="50.56353" lon="3.35184">
        <ele>48.404625</ele>
        <time>2021-09-28T09:09:10Z</time>
      </trkpt>
      <trkpt lat="50.56354" lon="3.35195">
        <ele>48.445969</ele>
        <time>2021-09-28T09:09:12Z</time>
      </trkpt>
      <trkpt lat="50.56357" lon="3.35206">
        <ele>48.482803</ele>
        <time>2021-09-28T09:09:14Z</time>
      </trkpt>
      <trkpt lat="50.56359" lon="3.35217">
        <ele>48.458</ele>
        <time>2021-09-28T09:09:16Z</time>
      </trkpt>
      <trkpt lat="50.56362" lon="3.35229">
        <ele>48.464455</ele>
        <time>2021-09-28T09:09:18Z</time>
      </trkpt>
      <trkpt lat="50.56365" lon="3.3524">
        <ele>48.480995</ele>
        <time>2021-09-28T09:09:20Z</time>
      </trkpt>
      <trkpt lat="50.56368" lon="3.35251">
        <ele>48.506252</ele>
        <time>2021-09-28T09:09:22Z</time>
      </trkpt>
      <trkpt lat="50.5637" lon="3.35261">
        <ele>48.515888</ele>
        <time>2021-09-28T09:09:24Z</time>
      </trkpt>
      <trkpt lat="50.56373" lon="3.3527">
        <ele>48.509537</ele>
        <time>2021-09-28T09:09:26Z</time>
      </trkpt>
      <trkpt lat="50.56375" lon="3.3528">
        <ele>48.444004</ele>
        <time>2021-09-28T09:09:28Z</time>
      </trkpt>
      <trkpt lat="50.56377" lon="3.3529">
        <ele>48.444004</ele>
        <time>2021-09-28T09:09:30Z</time>
      </trkpt>
      <trkpt lat="50.56379" lon="3.353">
        <ele>48.414162</ele>
        <time>2021-09-28T09:09:32Z</time>
      </trkpt>
      <trkpt lat="50.56381" lon="3.35309">
        <ele>48.37833</ele>
        <time>2021-09-28T09:09:34Z</time>
      </trkpt>
      <trkpt lat="50.56382" lon="3.35319">
        <ele>48.311363</ele>
        <time>2021-09-28T09:09:36Z</time>
      </trkpt>
      <trkpt lat="50.56384" lon="3.35329">
        <ele>48.276222</ele>
        <time>2021-09-28T09:09:38Z</time>
      </trkpt>
      <trkpt lat="50.56385" lon="3.35339">
        <ele>48.23423</ele>
        <time>2021-09-28T09:09:40Z</time>
      </trkpt>
      <trkpt lat="50.56386" lon="3.3535">
        <ele>48.200855</ele>
        <time>2021-09-28T09:09:42Z</time>
      </trkpt>
      <trkpt lat="50.56387" lon="3.35361">
        <ele>48.155376</ele>
        <time>2021-09-28T09:09:44Z</time>
      </trkpt>
      <trkpt lat="50.56388" lon="3.35371">
        <ele>48.104691</ele>
        <time>2021-09-28T09:09:46Z</time>
      </trkpt>
      <trkpt lat="50.56388" lon="3.35382">
        <ele>48.078789</ele>
        <time>2021-09-28T09:09:48Z</time>
      </trkpt>
      <trkpt lat="50.56389" lon="3.35392">
        <ele>48.068455</ele>
        <time>2021-09-28T09:09:50Z</time>
      </trkpt>
      <trkpt lat="50.56389" lon="3.35403">
        <ele>48.012642</ele>
        <time>2021-09-28T09:09:52Z</time>
      </trkpt>
      <trkpt lat="50.56389" lon="3.35414">
        <ele>47.996101</ele>
        <time>2021-09-28T09:09:54Z</time>
      </trkpt>
      <trkpt lat="50.5639" lon="3.35424">
        <ele>47.987831</ele>
        <time>2021-09-28T09:09:56Z</time>
      </trkpt>
      <trkpt lat="50.5639" lon="3.35435">
        <ele>48.047783</ele>
        <time>2021-09-28T09:09:58Z</time>
      </trkpt>
      <trkpt lat="50.56391" lon="3.35445">
        <ele>48.084991</ele>
        <time>2021-09-28T09:10:00Z</time>
      </trkpt>
      <trkpt lat="50.56391" lon="3.35455">
        <ele>48.120136</ele>
        <time>2021-09-28T09:10:02Z</time>
      </trkpt>
      <trkpt lat="50.56392" lon="3.35466">
        <ele>48.175499</ele>
        <time>2021-09-28T09:10:04Z</time>
      </trkpt>
      <trkpt lat="50.56392" lon="3.35476">
        <ele>48.240433</ele>
        <time>2021-09-28T09:10:06Z</time>
      </trkpt>
      <trkpt lat="50.56392" lon="3.35487">
        <ele>48.312546</ele>
        <time>2021-09-28T09:10:08Z</time>
      </trkpt>
      <trkpt lat="50.56392" lon="3.35497">
        <ele>48.441368</ele>
        <time>2021-09-28T09:10:10Z</time>
      </trkpt>
      <trkpt lat="50.56389" lon="3.35505">
        <ele>48.534035</ele>
        <time>2021-09-28T09:10:12Z</time>
      </trkpt>
      <trkpt lat="50.56384" lon="3.35509">
        <ele>48.600189</ele>
        <time>2021-09-28T09:10:14Z</time>
      </trkpt>
      <trkpt lat="50.56377" lon="3.35508">
        <ele>49.254047</ele>
        <time>2021-09-28T09:10:16Z</time>
      </trkpt>
      <trkpt lat="50.5637" lon="3.35503">
        <ele>49.389374</ele>
        <time>2021-09-28T09:10:18Z</time>
      </trkpt>
      <trkpt lat="50.56363" lon="3.35498">
        <ele>49.587845</ele>
        <time>2021-09-28T09:10:20Z</time>
      </trkpt>
      <trkpt lat="50.56356" lon="3.35493">
        <ele>49.762024</ele>
        <time>2021-09-28T09:10:22Z</time>
      </trkpt>
      <trkpt lat="50.56349" lon="3.35488">
        <ele>49.939819</ele>
        <time>2021-09-28T09:10:24Z</time>
      </trkpt>
      <trkpt lat="50.56342" lon="3.35481">
        <ele>50.150612</ele>
        <time>2021-09-28T09:10:26Z</time>
      </trkpt>
      <trkpt lat="50.56335" lon="3.35474">
        <ele>50.328407</ele>
        <time>2021-09-28T09:10:28Z</time>
      </trkpt>
      <trkpt lat="50.56329" lon="3.35467">
        <ele>50.421444</ele>
        <time>2021-09-28T09:10:30Z</time>
      </trkpt>
      <trkpt lat="50.56323" lon="3.35461">
        <ele>50.616409</ele>
        <time>2021-09-28T09:10:32Z</time>
      </trkpt>
      <trkpt lat="50.56317" lon="3.35454">
        <ele>50.821091</ele>
        <time>2021-09-28T09:10:34Z</time>
      </trkpt>
      <trkpt lat="50.5631" lon="3.35446">
        <ele>51.023258</ele>
        <time>2021-09-28T09:10:36Z</time>
      </trkpt>
      <trkpt lat="50.56305" lon="3.35438">
        <ele>51.203991</ele>
        <time>2021-09-28T09:10:38Z</time>
      </trkpt>
      <trkpt lat="50.56298" lon="3.35429">
        <ele>51.307373</ele>
        <time>2021-09-28T09:10:40Z</time>
      </trkpt>
      <trkpt lat="50.56294" lon="3.3542">
        <ele>51.553436</ele>
        <time>2021-09-28T09:10:42Z</time>
      </trkpt>
      <trkpt lat="50.56289" lon="3.35411">
        <ele>51.62616</ele>
        <time>2021-09-28T09:10:44Z</time>
      </trkpt>
      <trkpt lat="50.56283" lon="3.35401">
        <ele>51.775036</ele>
        <time>2021-09-28T09:10:46Z</time>
      </trkpt>
      <trkpt lat="50.56278" lon="3.35391">
        <ele>51.92527</ele>
        <time>2021-09-28T09:10:48Z</time>
      </trkpt>
      <trkpt lat="50.56273" lon="3.3538">
        <ele>52.056358</ele>
        <time>2021-09-28T09:10:50Z</time>
      </trkpt>
      <trkpt lat="50.56269" lon="3.35369">
        <ele>52.205238</ele>
        <time>2021-09-28T09:10:52Z</time>
      </trkpt>
      <trkpt lat="50.56265" lon="3.35358">
        <ele>52.282024</ele>
        <time>2021-09-28T09:10:54Z</time>
      </trkpt>
      <trkpt lat="50.5626" lon="3.35347">
        <ele>52.452843</ele>
        <time>2021-09-28T09:10:56Z</time>
      </trkpt>
      <trkpt lat="50.56256" lon="3.35335">
        <ele>52.559326</ele>
        <time>2021-09-28T09:10:58Z</time>
      </trkpt>
      <trkpt lat="50.56251" lon="3.35323">
        <ele>52.14315</ele>
        <time>2021-09-28T09:11:00Z</time>
      </trkpt>
      <trkpt lat="50.56247" lon="3.35311">
        <ele>52.239052</ele>
        <time>2021-09-28T09:11:02Z</time>
      </trkpt>
      <trkpt lat="50.56242" lon="3.35299">
        <ele>52.29734</ele>
        <time>2021-09-28T09:11:04Z</time>
      </trkpt>
      <trkpt lat="50.56237" lon="3.35288">
        <ele>52.350578</ele>
        <time>2021-09-28T09:11:06Z</time>
      </trkpt>
      <trkpt lat="50.56231" lon="3.35278">
        <ele>52.437511</ele>
        <time>2021-09-28T09:11:08Z</time>
      </trkpt>
      <trkpt lat="50.56225" lon="3.35268">
        <ele>52.493427</ele>
        <time>2021-09-28T09:11:10Z</time>
      </trkpt>
      <trkpt lat="50.56219" lon="3.35258">
        <ele>52.57716</ele>
        <time>2021-09-28T09:11:12Z</time>
      </trkpt>
      <trkpt lat="50.56212" lon="3.35249">
        <ele>52.638592</ele>
        <time>2021-09-28T09:11:14Z</time>
      </trkpt>
      <trkpt lat="50.56205" lon="3.35241">
        <ele>52.666924</ele>
        <time>2021-09-28T09:11:16Z</time>
      </trkpt>
      <trkpt lat="50.56198" lon="3.35233">
        <ele>52.70755</ele>
        <time>2021-09-28T09:11:18Z</time>
      </trkpt>
      <trkpt lat="50.56191" lon="3.35225">
        <ele>52.73695</ele>
        <time>2021-09-28T09:11:20Z</time>
      </trkpt>
      <trkpt lat="50.56184" lon="3.35217">
        <ele>52.804314</ele>
        <time>2021-09-28T09:11:22Z</time>
      </trkpt>
      <trkpt lat="50.56177" lon="3.35209">
        <ele>52.833252</ele>
        <time>2021-09-28T09:11:24Z</time>
      </trkpt>
      <trkpt lat="50.5617" lon="3.35202">
        <ele>52.884308</ele>
        <time>2021-09-28T09:11:26Z</time>
      </trkpt>
      <trkpt lat="50.56164" lon="3.35194">
        <ele>52.935261</ele>
        <time>2021-09-28T09:11:28Z</time>
      </trkpt>
      <trkpt lat="50.56157" lon="3.35185">
        <ele>52.95594</ele>
        <time>2021-09-28T09:11:30Z</time>
      </trkpt>
      <trkpt lat="50.5615" lon="3.35178">
        <ele>52.95863</ele>
        <time>2021-09-28T09:11:32Z</time>
      </trkpt>
      <trkpt lat="50.56143" lon="3.3517">
        <ele>52.974346</ele>
        <time>2021-09-28T09:11:34Z</time>
      </trkpt>
      <trkpt lat="50.56136" lon="3.35162">
        <ele>52.964008</ele>
        <time>2021-09-28T09:11:36Z</time>
      </trkpt>
      <trkpt lat="50.56127" lon="3.35151">
        <ele>52.949097</ele>
        <time>2021-09-28T09:11:39Z</time>
      </trkpt>
      <trkpt lat="50.56121" lon="3.35144">
        <ele>52.928417</ele>
        <time>2021-09-28T09:11:41Z</time>
      </trkpt>
      <trkpt lat="50.56115" lon="3.35137">
        <ele>52.919525</ele>
        <time>2021-09-28T09:11:43Z</time>
      </trkpt>
      <trkpt lat="50.56108" lon="3.35131">
        <ele>52.874031</ele>
        <time>2021-09-28T09:11:45Z</time>
      </trkpt>
      <trkpt lat="50.56101" lon="3.35125">
        <ele>52.871967</ele>
        <time>2021-09-28T09:11:47Z</time>
      </trkpt>
      <trkpt lat="50.56094" lon="3.3512">
        <ele>52.848835</ele>
        <time>2021-09-28T09:11:49Z</time>
      </trkpt>
      <trkpt lat="50.56086" lon="3.35116">
        <ele>52.815666</ele>
        <time>2021-09-28T09:11:51Z</time>
      </trkpt>
      <trkpt lat="50.56079" lon="3.35113">
        <ele>52.783184</ele>
        <time>2021-09-28T09:11:53Z</time>
      </trkpt>
      <trkpt lat="50.56071" lon="3.35111">
        <ele>52.765617</ele>
        <time>2021-09-28T09:11:55Z</time>
      </trkpt>
      <trkpt lat="50.56064" lon="3.35109">
        <ele>52.723183</ele>
        <time>2021-09-28T09:11:57Z</time>
      </trkpt>
      <trkpt lat="50.56056" lon="3.35109">
        <ele>52.692768</ele>
        <time>2021-09-28T09:11:59Z</time>
      </trkpt>
      <trkpt lat="50.56048" lon="3.35107">
        <ele>52.652149</ele>
        <time>2021-09-28T09:12:01Z</time>
      </trkpt>
      <trkpt lat="50.5604" lon="3.35106">
        <ele>52.658348</ele>
        <time>2021-09-28T09:12:03Z</time>
      </trkpt>
      <trkpt lat="50.56032" lon="3.35105">
        <ele>52.617817</ele>
        <time>2021-09-28T09:12:05Z</time>
      </trkpt>
      <trkpt lat="50.56024" lon="3.35103">
        <ele>52.613678</ele>
        <time>2021-09-28T09:12:07Z</time>
      </trkpt>
      <trkpt lat="50.56016" lon="3.35101">
        <ele>52.586525</ele>
        <time>2021-09-28T09:12:09Z</time>
      </trkpt>
      <trkpt lat="50.56009" lon="3.351">
        <ele>52.58239</ele>
        <time>2021-09-28T09:12:11Z</time>
      </trkpt>
      <trkpt lat="50.56001" lon="3.35099">
        <ele>52.609661</ele>
        <time>2021-09-28T09:12:13Z</time>
      </trkpt>
      <trkpt lat="50.55993" lon="3.35098">
        <ele>52.59668</ele>
        <time>2021-09-28T09:12:15Z</time>
      </trkpt>
      <trkpt lat="50.55986" lon="3.35096">
        <ele>52.679405</ele>
        <time>2021-09-28T09:12:17Z</time>
      </trkpt>
      <trkpt lat="50.55978" lon="3.35094">
        <ele>52.760063</ele>
        <time>2021-09-28T09:12:19Z</time>
      </trkpt>
      <trkpt lat="50.5597" lon="3.35091">
        <ele>52.826244</ele>
        <time>2021-09-28T09:12:21Z</time>
      </trkpt>
      <trkpt lat="50.55962" lon="3.35087">
        <ele>52.900928</ele>
        <time>2021-09-28T09:12:23Z</time>
      </trkpt>
      <trkpt lat="50.55954" lon="3.35082">
        <ele>52.96711</ele>
        <time>2021-09-28T09:12:25Z</time>
      </trkpt>
      <trkpt lat="50.55948" lon="3.35076">
        <ele>53.014671</ele>
        <time>2021-09-28T09:12:27Z</time>
      </trkpt>
      <trkpt lat="50.55941" lon="3.35068">
        <ele>53.100914</ele>
        <time>2021-09-28T09:12:29Z</time>
      </trkpt>
      <trkpt lat="50.55936" lon="3.35061">
        <ele>53.136059</ele>
        <time>2021-09-28T09:12:31Z</time>
      </trkpt>
      <trkpt lat="50.55932" lon="3.35054">
        <ele>53.220428</ele>
        <time>2021-09-28T09:12:33Z</time>
      </trkpt>
      <trkpt lat="50.55928" lon="3.35046">
        <ele>53.267067</ele>
        <time>2021-09-28T09:12:35Z</time>
      </trkpt>
      <trkpt lat="50.55922" lon="3.35045">
        <ele>53.287487</ele>
        <time>2021-09-28T09:12:37Z</time>
      </trkpt>
      <trkpt lat="50.55919" lon="3.35052">
        <ele>53.336189</ele>
        <time>2021-09-28T09:12:39Z</time>
      </trkpt>
      <trkpt lat="50.55918" lon="3.35062">
        <ele>53.365376</ele>
        <time>2021-09-28T09:12:40Z</time>
      </trkpt>
      <trkpt lat="50.55917" lon="3.35074">
        <ele>53.417961</ele>
        <time>2021-09-28T09:12:43Z</time>
      </trkpt>
      <trkpt lat="50.55916" lon="3.35087">
        <ele>53.433453</ele>
        <time>2021-09-28T09:12:45Z</time>
      </trkpt>
      <trkpt lat="50.55914" lon="3.351">
        <ele>53.439018</ele>
        <time>2021-09-28T09:12:47Z</time>
      </trkpt>
      <trkpt lat="50.55913" lon="3.35113">
        <ele>53.438454</ele>
        <time>2021-09-28T09:12:49Z</time>
      </trkpt>
      <trkpt lat="50.55912" lon="3.35127">
        <ele>53.451557</ele>
        <time>2021-09-28T09:12:51Z</time>
      </trkpt>
      <trkpt lat="50.5591" lon="3.35141">
        <ele>53.443279</ele>
        <time>2021-09-28T09:12:53Z</time>
      </trkpt>
      <trkpt lat="50.55908" lon="3.35155">
        <ele>53.43087</ele>
        <time>2021-09-28T09:12:55Z</time>
      </trkpt>
      <trkpt lat="50.55907" lon="3.35169">
        <ele>53.472881</ele>
        <time>2021-09-28T09:12:57Z</time>
      </trkpt>
      <trkpt lat="50.55905" lon="3.35183">
        <ele>53.423241</ele>
        <time>2021-09-28T09:12:59Z</time>
      </trkpt>
      <trkpt lat="50.55904" lon="3.35196">
        <ele>53.423241</ele>
        <time>2021-09-28T09:13:01Z</time>
      </trkpt>
      <trkpt lat="50.55901" lon="3.35209">
        <ele>53.423241</ele>
        <time>2021-09-28T09:13:03Z</time>
      </trkpt>
      <trkpt lat="50.55899" lon="3.35221">
        <ele>53.430767</ele>
        <time>2021-09-28T09:13:05Z</time>
      </trkpt>
      <trkpt lat="50.55898" lon="3.35234">
        <ele>53.43697</ele>
        <time>2021-09-28T09:13:07Z</time>
      </trkpt>
      <trkpt lat="50.55896" lon="3.35247">
        <ele>53.5135</ele>
        <time>2021-09-28T09:13:09Z</time>
      </trkpt>
      <trkpt lat="50.55894" lon="3.35259">
        <ele>53.520317</ele>
        <time>2021-09-28T09:13:11Z</time>
      </trkpt>
      <trkpt lat="50.55892" lon="3.35271">
        <ele>53.569969</ele>
        <time>2021-09-28T09:13:13Z</time>
      </trkpt>
      <trkpt lat="50.55891" lon="3.35283">
        <ele>53.58073</ele>
        <time>2021-09-28T09:13:15Z</time>
      </trkpt>
      <trkpt lat="50.55889" lon="3.35296">
        <ele>53.643364</ele>
        <time>2021-09-28T09:13:17Z</time>
      </trkpt>
      <trkpt lat="50.55888" lon="3.35309">
        <ele>53.684731</ele>
        <time>2021-09-28T09:13:19Z</time>
      </trkpt>
      <trkpt lat="50.55887" lon="3.35321">
        <ele>53.784008</ele>
        <time>2021-09-28T09:13:21Z</time>
      </trkpt>
      <trkpt lat="50.55886" lon="3.35334">
        <ele>53.891499</ele>
        <time>2021-09-28T09:13:23Z</time>
      </trkpt>
      <trkpt lat="50.55885" lon="3.35346">
        <ele>53.962708</ele>
        <time>2021-09-28T09:13:25Z</time>
      </trkpt>
      <trkpt lat="50.55883" lon="3.35359">
        <ele>54.034138</ele>
        <time>2021-09-28T09:13:27Z</time>
      </trkpt>
      <trkpt lat="50.55882" lon="3.35372">
        <ele>54.108421</ele>
        <time>2021-09-28T09:13:29Z</time>
      </trkpt>
      <trkpt lat="50.55882" lon="3.35385">
        <ele>54.13958</ele>
        <time>2021-09-28T09:13:31Z</time>
      </trkpt>
      <trkpt lat="50.55881" lon="3.35398">
        <ele>54.227276</ele>
        <time>2021-09-28T09:13:33Z</time>
      </trkpt>
      <trkpt lat="50.5588" lon="3.35411">
        <ele>54.320171</ele>
        <time>2021-09-28T09:13:35Z</time>
      </trkpt>
      <trkpt lat="50.5588" lon="3.35424">
        <ele>54.365673</ele>
        <time>2021-09-28T09:13:37Z</time>
      </trkpt>
      <trkpt lat="50.55879" lon="3.35438">
        <ele>54.396706</ele>
        <time>2021-09-28T09:13:39Z</time>
      </trkpt>
      <trkpt lat="50.55879" lon="3.35451">
        <ele>54.450478</ele>
        <time>2021-09-28T09:13:41Z</time>
      </trkpt>
      <trkpt lat="50.55878" lon="3.35464">
        <ele>54.50425</ele>
        <time>2021-09-28T09:13:43Z</time>
      </trkpt>
      <trkpt lat="50.55879" lon="3.35477">
        <ele>54.537342</ele>
        <time>2021-09-28T09:13:45Z</time>
      </trkpt>
      <trkpt lat="50.55879" lon="3.35489">
        <ele>54.603527</ele>
        <time>2021-09-28T09:13:47Z</time>
      </trkpt>
      <trkpt lat="50.55879" lon="3.35501">
        <ele>54.671791</ele>
        <time>2021-09-28T09:13:49Z</time>
      </trkpt>
      <trkpt lat="50.55879" lon="3.35514">
        <ele>54.719368</ele>
        <time>2021-09-28T09:13:51Z</time>
      </trkpt>
      <trkpt lat="50.55879" lon="3.35526">
        <ele>54.742119</ele>
        <time>2021-09-28T09:13:53Z</time>
      </trkpt>
      <trkpt lat="50.55879" lon="3.35539">
        <ele>54.831062</ele>
        <time>2021-09-28T09:13:55Z</time>
      </trkpt>
      <trkpt lat="50.5588" lon="3.35551">
        <ele>54.888977</ele>
        <time>2021-09-28T09:13:57Z</time>
      </trkpt>
      <trkpt lat="50.5588" lon="3.35563">
        <ele>54.92207</ele>
        <time>2021-09-28T09:13:59Z</time>
      </trkpt>
      <trkpt lat="50.5588" lon="3.35575">
        <ele>55.006886</ele>
        <time>2021-09-28T09:14:01Z</time>
      </trkpt>
      <trkpt lat="50.5588" lon="3.35588">
        <ele>55.066872</ele>
        <time>2021-09-28T09:14:03Z</time>
      </trkpt>
      <trkpt lat="50.5588" lon="3.356">
        <ele>55.133068</ele>
        <time>2021-09-28T09:14:05Z</time>
      </trkpt>
      <trkpt lat="50.5588" lon="3.35613">
        <ele>55.222015</ele>
        <time>2021-09-28T09:14:07Z</time>
      </trkpt>
      <trkpt lat="50.5588" lon="3.35626">
        <ele>55.306831</ele>
        <time>2021-09-28T09:14:09Z</time>
      </trkpt>
      <trkpt lat="50.5588" lon="3.35638">
        <ele>55.352337</ele>
        <time>2021-09-28T09:14:11Z</time>
      </trkpt>
      <trkpt lat="50.5588" lon="3.35651">
        <ele>55.501282</ele>
        <time>2021-09-28T09:14:13Z</time>
      </trkpt>
      <trkpt lat="50.55881" lon="3.35663">
        <ele>55.631611</ele>
        <time>2021-09-28T09:14:15Z</time>
      </trkpt>
      <trkpt lat="50.55881" lon="3.35676">
        <ele>55.759865</ele>
        <time>2021-09-28T09:14:17Z</time>
      </trkpt>
      <trkpt lat="50.55881" lon="3.35688">
        <ele>55.900536</ele>
        <time>2021-09-28T09:14:19Z</time>
      </trkpt>
      <trkpt lat="50.55881" lon="3.357">
        <ele>56.132233</ele>
        <time>2021-09-28T09:14:21Z</time>
      </trkpt>
      <trkpt lat="50.55881" lon="3.35712">
        <ele>56.24601</ele>
        <time>2021-09-28T09:14:23Z</time>
      </trkpt>
      <trkpt lat="50.55882" lon="3.35723">
        <ele>56.452888</ele>
        <time>2021-09-28T09:14:25Z</time>
      </trkpt>
      <trkpt lat="50.55881" lon="3.35735">
        <ele>56.653557</ele>
        <time>2021-09-28T09:14:27Z</time>
      </trkpt>
      <trkpt lat="50.55881" lon="3.35747">
        <ele>56.827343</ele>
        <time>2021-09-28T09:14:29Z</time>
      </trkpt>
      <trkpt lat="50.55882" lon="3.35759">
        <ele>57.025963</ele>
        <time>2021-09-28T09:14:31Z</time>
      </trkpt>
      <trkpt lat="50.55882" lon="3.35771">
        <ele>57.253551</ele>
        <time>2021-09-28T09:14:33Z</time>
      </trkpt>
      <trkpt lat="50.55882" lon="3.35783">
        <ele>57.357002</ele>
        <time>2021-09-28T09:14:35Z</time>
      </trkpt>
      <trkpt lat="50.55882" lon="3.35795">
        <ele>57.621834</ele>
        <time>2021-09-28T09:14:37Z</time>
      </trkpt>
      <trkpt lat="50.55882" lon="3.35807">
        <ele>57.830799</ele>
        <time>2021-09-28T09:14:39Z</time>
      </trkpt>
      <trkpt lat="50.55882" lon="3.35819">
        <ele>58.077019</ele>
        <time>2021-09-28T09:14:41Z</time>
      </trkpt>
      <trkpt lat="50.55883" lon="3.35831">
        <ele>58.325317</ele>
        <time>2021-09-28T09:14:43Z</time>
      </trkpt>
      <trkpt lat="50.55883" lon="3.35843">
        <ele>58.434986</ele>
        <time>2021-09-28T09:14:45Z</time>
      </trkpt>
      <trkpt lat="50.55884" lon="3.35856">
        <ele>58.7164</ele>
        <time>2021-09-28T09:14:47Z</time>
      </trkpt>
      <trkpt lat="50.55884" lon="3.35868">
        <ele>58.970917</ele>
        <time>2021-09-28T09:14:49Z</time>
      </trkpt>
      <trkpt lat="50.55885" lon="3.3588">
        <ele>59.241997</ele>
        <time>2021-09-28T09:14:51Z</time>
      </trkpt>
      <trkpt lat="50.55885" lon="3.35891">
        <ele>59.542053</ele>
        <time>2021-09-28T09:14:53Z</time>
      </trkpt>
      <trkpt lat="50.55885" lon="3.35902">
        <ele>59.819359</ele>
        <time>2021-09-28T09:14:55Z</time>
      </trkpt>
      <trkpt lat="50.55885" lon="3.35913">
        <ele>60.135986</ele>
        <time>2021-09-28T09:14:57Z</time>
      </trkpt>
      <trkpt lat="50.55886" lon="3.35924">
        <ele>60.272575</ele>
        <time>2021-09-28T09:14:59Z</time>
      </trkpt>
      <trkpt lat="50.55887" lon="3.35936">
        <ele>60.59129</ele>
        <time>2021-09-28T09:15:01Z</time>
      </trkpt>
      <trkpt lat="50.55887" lon="3.35947">
        <ele>60.910011</ele>
        <time>2021-09-28T09:15:03Z</time>
      </trkpt>
      <trkpt lat="50.55888" lon="3.35958">
        <ele>61.148029</ele>
        <time>2021-09-28T09:15:05Z</time>
      </trkpt>
      <trkpt lat="50.55888" lon="3.3597">
        <ele>61.441925</ele>
        <time>2021-09-28T09:15:07Z</time>
      </trkpt>
      <trkpt lat="50.55888" lon="3.35981">
        <ele>61.696495</ele>
        <time>2021-09-28T09:15:09Z</time>
      </trkpt>
      <trkpt lat="50.55889" lon="3.35992">
        <ele>61.853802</ele>
        <time>2021-09-28T09:15:11Z</time>
      </trkpt>
      <trkpt lat="50.55889" lon="3.36003">
        <ele>62.178772</ele>
        <time>2021-09-28T09:15:13Z</time>
      </trkpt>
      <trkpt lat="50.5589" lon="3.36014">
        <ele>62.483051</ele>
        <time>2021-09-28T09:15:15Z</time>
      </trkpt>
      <trkpt lat="50.55891" lon="3.36025">
        <ele>62.748005</ele>
        <time>2021-09-28T09:15:17Z</time>
      </trkpt>
      <trkpt lat="50.55891" lon="3.36036">
        <ele>62.993202</ele>
        <time>2021-09-28T09:15:19Z</time>
      </trkpt>
      <trkpt lat="50.55892" lon="3.36047">
        <ele>63.09446</ele>
        <time>2021-09-28T09:15:21Z</time>
      </trkpt>
      <trkpt lat="50.55893" lon="3.36058">
        <ele>63.404961</ele>
        <time>2021-09-28T09:15:23Z</time>
      </trkpt>
      <trkpt lat="50.55893" lon="3.36068">
        <ele>63.721703</ele>
        <time>2021-09-28T09:15:25Z</time>
      </trkpt>
      <trkpt lat="50.55893" lon="3.36079">
        <ele>63.994972</ele>
        <time>2021-09-28T09:15:27Z</time>
      </trkpt>
      <trkpt lat="50.55894" lon="3.3609">
        <ele>64.27446</ele>
        <time>2021-09-28T09:15:29Z</time>
      </trkpt>
      <trkpt lat="50.55895" lon="3.36101">
        <ele>64.580864</ele>
        <time>2021-09-28T09:15:31Z</time>
      </trkpt>
      <trkpt lat="50.55895" lon="3.36112">
        <ele>64.700943</ele>
        <time>2021-09-28T09:15:33Z</time>
      </trkpt>
      <trkpt lat="50.55895" lon="3.36123">
        <ele>64.945236</ele>
        <time>2021-09-28T09:15:35Z</time>
      </trkpt>
      <trkpt lat="50.55895" lon="3.36134">
        <ele>65.212334</ele>
        <time>2021-09-28T09:15:37Z</time>
      </trkpt>
      <trkpt lat="50.55896" lon="3.36144">
        <ele>65.491867</ele>
        <time>2021-09-28T09:15:39Z</time>
      </trkpt>
      <trkpt lat="50.55896" lon="3.36156">
        <ele>65.698715</ele>
        <time>2021-09-28T09:15:41Z</time>
      </trkpt>
      <trkpt lat="50.55896" lon="3.36168">
        <ele>65.803452</ele>
        <time>2021-09-28T09:15:43Z</time>
      </trkpt>
      <trkpt lat="50.55896" lon="3.36179">
        <ele>65.997879</ele>
        <time>2021-09-28T09:15:45Z</time>
      </trkpt>
      <trkpt lat="50.55895" lon="3.36191">
        <ele>66.233932</ele>
        <time>2021-09-28T09:15:47Z</time>
      </trkpt>
      <trkpt lat="50.55894" lon="3.36202">
        <ele>66.527985</ele>
        <time>2021-09-28T09:15:49Z</time>
      </trkpt>
      <trkpt lat="50.55893" lon="3.36213">
        <ele>66.778549</ele>
        <time>2021-09-28T09:15:51Z</time>
      </trkpt>
      <trkpt lat="50.55891" lon="3.36224">
        <ele>66.929718</ele>
        <time>2021-09-28T09:15:53Z</time>
      </trkpt>
      <trkpt lat="50.55889" lon="3.36235">
        <ele>67.219643</ele>
        <time>2021-09-28T09:15:55Z</time>
      </trkpt>
      <trkpt lat="50.55886" lon="3.36246">
        <ele>67.453659</ele>
        <time>2021-09-28T09:15:57Z</time>
      </trkpt>
      <trkpt lat="50.55883" lon="3.36257">
        <ele>67.702187</ele>
        <time>2021-09-28T09:15:59Z</time>
      </trkpt>
      <trkpt lat="50.5588" lon="3.36267">
        <ele>67.96727</ele>
        <time>2021-09-28T09:16:01Z</time>
      </trkpt>
      <trkpt lat="50.55877" lon="3.36279">
        <ele>68.289398</ele>
        <time>2021-09-28T09:16:03Z</time>
      </trkpt>
      <trkpt lat="50.55875" lon="3.3629">
        <ele>68.517418</ele>
        <time>2021-09-28T09:16:05Z</time>
      </trkpt>
      <trkpt lat="50.55872" lon="3.36301">
        <ele>68.784607</ele>
        <time>2021-09-28T09:16:07Z</time>
      </trkpt>
      <trkpt lat="50.5587" lon="3.36312">
        <ele>69.014519</ele>
        <time>2021-09-28T09:16:09Z</time>
      </trkpt>
      <trkpt lat="50.55867" lon="3.36322">
        <ele>69.275497</ele>
        <time>2021-09-28T09:16:11Z</time>
      </trkpt>
      <trkpt lat="50.55864" lon="3.36333">
        <ele>69.534409</ele>
        <time>2021-09-28T09:16:13Z</time>
      </trkpt>
      <trkpt lat="50.55862" lon="3.36344">
        <ele>69.795418</ele>
        <time>2021-09-28T09:16:15Z</time>
      </trkpt>
      <trkpt lat="50.55859" lon="3.36355">
        <ele>70.446457</ele>
        <time>2021-09-28T09:16:17Z</time>
      </trkpt>
      <trkpt lat="50.55856" lon="3.36366">
        <ele>70.801193</ele>
        <time>2021-09-28T09:16:19Z</time>
      </trkpt>
      <trkpt lat="50.55853" lon="3.36376">
        <ele>71.163704</ele>
        <time>2021-09-28T09:16:21Z</time>
      </trkpt>
      <trkpt lat="50.5585" lon="3.36387">
        <ele>71.51812</ele>
        <time>2021-09-28T09:16:23Z</time>
      </trkpt>
      <trkpt lat="50.55848" lon="3.36398">
        <ele>71.899239</ele>
        <time>2021-09-28T09:16:25Z</time>
      </trkpt>
      <trkpt lat="50.55845" lon="3.36409">
        <ele>72.248337</ele>
        <time>2021-09-28T09:16:27Z</time>
      </trkpt>
      <trkpt lat="50.55842" lon="3.3642">
        <ele>72.404282</ele>
        <time>2021-09-28T09:16:29Z</time>
      </trkpt>
      <trkpt lat="50.55839" lon="3.36431">
        <ele>72.653961</ele>
        <time>2021-09-28T09:16:31Z</time>
      </trkpt>
      <trkpt lat="50.55836" lon="3.36442">
        <ele>72.855644</ele>
        <time>2021-09-28T09:16:33Z</time>
      </trkpt>
      <trkpt lat="50.55833" lon="3.36453">
        <ele>73.044174</ele>
        <time>2021-09-28T09:16:35Z</time>
      </trkpt>
      <trkpt lat="50.5583" lon="3.36464">
        <ele>73.20784</ele>
        <time>2021-09-28T09:16:37Z</time>
      </trkpt>
      <trkpt lat="50.55827" lon="3.36475">
        <ele>73.361153</ele>
        <time>2021-09-28T09:16:39Z</time>
      </trkpt>
      <trkpt lat="50.55824" lon="3.36485">
        <ele>73.419159</ele>
        <time>2021-09-28T09:16:41Z</time>
      </trkpt>
      <trkpt lat="50.55821" lon="3.36496">
        <ele>73.562119</ele>
        <time>2021-09-28T09:16:43Z</time>
      </trkpt>
      <trkpt lat="50.55818" lon="3.36506">
        <ele>73.673996</ele>
        <time>2021-09-28T09:16:45Z</time>
      </trkpt>
      <trkpt lat="50.55815" lon="3.36517">
        <ele>73.765152</ele>
        <time>2021-09-28T09:16:47Z</time>
      </trkpt>
      <trkpt lat="50.55811" lon="3.36527">
        <ele>73.754784</ele>
        <time>2021-09-28T09:16:49Z</time>
      </trkpt>
      <trkpt lat="50.55808" lon="3.36537">
        <ele>73.812805</ele>
        <time>2021-09-28T09:16:51Z</time>
      </trkpt>
      <trkpt lat="50.55805" lon="3.36547">
        <ele>73.860458</ele>
        <time>2021-09-28T09:16:53Z</time>
      </trkpt>
      <trkpt lat="50.55802" lon="3.36557">
        <ele>73.968201</ele>
        <time>2021-09-28T09:16:55Z</time>
      </trkpt>
      <trkpt lat="50.55799" lon="3.36568">
        <ele>73.997215</ele>
        <time>2021-09-28T09:16:57Z</time>
      </trkpt>
      <trkpt lat="50.55796" lon="3.36578">
        <ele>74.017929</ele>
        <time>2021-09-28T09:16:59Z</time>
      </trkpt>
      <trkpt lat="50.55793" lon="3.36588">
        <ele>73.49762</ele>
        <time>2021-09-28T09:17:01Z</time>
      </trkpt>
      <trkpt lat="50.5579" lon="3.36598">
        <ele>73.40712</ele>
        <time>2021-09-28T09:17:03Z</time>
      </trkpt>
      <trkpt lat="50.55787" lon="3.36609">
        <ele>73.341507</ele>
        <time>2021-09-28T09:17:05Z</time>
      </trkpt>
      <trkpt lat="50.55783" lon="3.36619">
        <ele>73.212891</ele>
        <time>2021-09-28T09:17:07Z</time>
      </trkpt>
      <trkpt lat="50.5578" lon="3.3663">
        <ele>73.121971</ele>
        <time>2021-09-28T09:17:09Z</time>
      </trkpt>
      <trkpt lat="50.55776" lon="3.36641">
        <ele>73.055038</ele>
        <time>2021-09-28T09:17:11Z</time>
      </trkpt>
      <trkpt lat="50.55774" lon="3.36647">
        <ele>73.011581</ele>
        <time>2021-09-28T09:17:12Z</time>
      </trkpt>
      <trkpt lat="50.55772" lon="3.36658">
        <ele>73.007568</ele>
        <time>2021-09-28T09:17:14Z</time>
      </trkpt>
      <trkpt lat="50.55771" lon="3.36671">
        <ele>73.031578</ele>
        <time>2021-09-28T09:17:16Z</time>
      </trkpt>
      <trkpt lat="50.55774" lon="3.36684">
        <ele>73.06826</ele>
        <time>2021-09-28T09:17:18Z</time>
      </trkpt>
      <trkpt lat="50.55779" lon="3.36694">
        <ele>73.064476</ele>
        <time>2021-09-28T09:17:20Z</time>
      </trkpt>
      <trkpt lat="50.55785" lon="3.36704">
        <ele>73.066628</ele>
        <time>2021-09-28T09:17:22Z</time>
      </trkpt>
      <trkpt lat="50.55791" lon="3.36712">
        <ele>73.04866</ele>
        <time>2021-09-28T09:17:24Z</time>
      </trkpt>
      <trkpt lat="50.55796" lon="3.36721">
        <ele>72.996864</ele>
        <time>2021-09-28T09:17:26Z</time>
      </trkpt>
      <trkpt lat="50.55802" lon="3.36729">
        <ele>72.920792</ele>
        <time>2021-09-28T09:17:28Z</time>
      </trkpt>
      <trkpt lat="50.55808" lon="3.36737">
        <ele>72.83799</ele>
        <time>2021-09-28T09:17:30Z</time>
      </trkpt>
      <trkpt lat="50.55813" lon="3.36745">
        <ele>72.746841</ele>
        <time>2021-09-28T09:17:32Z</time>
      </trkpt>
      <trkpt lat="50.55818" lon="3.36752">
        <ele>72.612206</ele>
        <time>2021-09-28T09:17:34Z</time>
      </trkpt>
      <trkpt lat="50.55824" lon="3.3676">
        <ele>72.535553</ele>
        <time>2021-09-28T09:17:36Z</time>
      </trkpt>
      <trkpt lat="50.55829" lon="3.36768">
        <ele>72.380753</ele>
        <time>2021-09-28T09:17:38Z</time>
      </trkpt>
      <trkpt lat="50.55835" lon="3.36776">
        <ele>72.173576</ele>
        <time>2021-09-28T09:17:40Z</time>
      </trkpt>
      <trkpt lat="50.5584" lon="3.36785">
        <ele>72.024971</ele>
        <time>2021-09-28T09:17:42Z</time>
      </trkpt>
      <trkpt lat="50.55846" lon="3.36793">
        <ele>71.811592</ele>
        <time>2021-09-28T09:17:44Z</time>
      </trkpt>
      <trkpt lat="50.55852" lon="3.36802">
        <ele>71.62883</ele>
        <time>2021-09-28T09:17:46Z</time>
      </trkpt>
      <trkpt lat="50.55857" lon="3.3681">
        <ele>71.514893</ele>
        <time>2021-09-28T09:17:48Z</time>
      </trkpt>
      <trkpt lat="50.55862" lon="3.36819">
        <ele>71.343063</ele>
        <time>2021-09-28T09:17:50Z</time>
      </trkpt>
      <trkpt lat="50.55867" lon="3.36826">
        <ele>71.073753</ele>
        <time>2021-09-28T09:17:52Z</time>
      </trkpt>
      <trkpt lat="50.55873" lon="3.36833">
        <ele>70.865829</ele>
        <time>2021-09-28T09:17:54Z</time>
      </trkpt>
      <trkpt lat="50.55877" lon="3.36838">
        <ele>70.650436</ele>
        <time>2021-09-28T09:17:56Z</time>
      </trkpt>
      <trkpt lat="50.55882" lon="3.36842">
        <ele>70.522011</ele>
        <time>2021-09-28T09:17:58Z</time>
      </trkpt>
      <trkpt lat="50.55887" lon="3.36845">
        <ele>70.220856</ele>
        <time>2021-09-28T09:18:00Z</time>
      </trkpt>
      <trkpt lat="50.55889" lon="3.36848">
        <ele>69.399429</ele>
        <time>2021-09-28T09:18:06Z</time>
      </trkpt>
      <trkpt lat="50.55891" lon="3.36849">
        <ele>68.514694</ele>
        <time>2021-09-28T09:18:18Z</time>
      </trkpt>
      <trkpt lat="50.55895" lon="3.36848">
        <ele>68.449585</ele>
        <time>2021-09-28T09:18:20Z</time>
      </trkpt>
      <trkpt lat="50.55899" lon="3.36844">
        <ele>68.455795</ele>
        <time>2021-09-28T09:18:22Z</time>
      </trkpt>
      <trkpt lat="50.55903" lon="3.3684">
        <ele>68.421539</ele>
        <time>2021-09-28T09:18:24Z</time>
      </trkpt>
      <trkpt lat="50.55904" lon="3.36837">
        <ele>68.453354</ele>
        <time>2021-09-28T09:18:26Z</time>
      </trkpt>
      <trkpt lat="50.55904" lon="3.36835">
        <ele>68.505592</ele>
        <time>2021-09-28T09:18:28Z</time>
      </trkpt>
      <trkpt lat="50.55902" lon="3.36837">
        <ele>68.911148</ele>
        <time>2021-09-28T09:18:40Z</time>
      </trkpt>
      <trkpt lat="50.55901" lon="3.36839">
        <ele>68.997749</ele>
        <time>2021-09-28T09:18:42Z</time>
      </trkpt>
      <trkpt lat="50.55899" lon="3.3684">
        <ele>69.723679</ele>
        <time>2021-09-28T09:19:43Z</time>
      </trkpt>
      <trkpt lat="50.55896" lon="3.36848">
        <ele>69.764771</ele>
        <time>2021-09-28T09:19:45Z</time>
      </trkpt>
      <trkpt lat="50.55894" lon="3.36853">
        <ele>69.791054</ele>
        <time>2021-09-28T09:19:47Z</time>
      </trkpt>
      <trkpt lat="50.55892" lon="3.36859">
        <ele>69.820053</ele>
        <time>2021-09-28T09:19:49Z</time>
      </trkpt>
      <trkpt lat="50.55889" lon="3.36863">
        <ele>69.887733</ele>
        <time>2021-09-28T09:19:51Z</time>
      </trkpt>
      <trkpt lat="50.55885" lon="3.36869">
        <ele>69.92482</ele>
        <time>2021-09-28T09:19:53Z</time>
      </trkpt>
      <trkpt lat="50.55882" lon="3.36875">
        <ele>69.953819</ele>
        <time>2021-09-28T09:19:55Z</time>
      </trkpt>
      <trkpt lat="50.55877" lon="3.36881">
        <ele>70.000511</ele>
        <time>2021-09-28T09:19:57Z</time>
      </trkpt>
      <trkpt lat="50.55871" lon="3.36889">
        <ele>70.021225</ele>
        <time>2021-09-28T09:19:59Z</time>
      </trkpt>
      <trkpt lat="50.55865" lon="3.36899">
        <ele>70.071838</ele>
        <time>2021-09-28T09:20:01Z</time>
      </trkpt>
      <trkpt lat="50.55857" lon="3.36911">
        <ele>70.098755</ele>
        <time>2021-09-28T09:20:03Z</time>
      </trkpt>
      <trkpt lat="50.55849" lon="3.36922">
        <ele>70.131851</ele>
        <time>2021-09-28T09:20:05Z</time>
      </trkpt>
      <trkpt lat="50.55841" lon="3.36931">
        <ele>70.130325</ele>
        <time>2021-09-28T09:20:07Z</time>
      </trkpt>
      <trkpt lat="50.55834" lon="3.36941">
        <ele>70.162109</ele>
        <time>2021-09-28T09:20:09Z</time>
      </trkpt>
      <trkpt lat="50.55825" lon="3.36951">
        <ele>70.131546</ele>
        <time>2021-09-28T09:20:11Z</time>
      </trkpt>
      <trkpt lat="50.55814" lon="3.36962">
        <ele>70.03949</ele>
        <time>2021-09-28T09:20:13Z</time>
      </trkpt>
      <trkpt lat="50.55802" lon="3.36974">
        <ele>69.973221</ele>
        <time>2021-09-28T09:20:15Z</time>
      </trkpt>
      <trkpt lat="50.55788" lon="3.36983">
        <ele>69.864197</ele>
        <time>2021-09-28T09:20:17Z</time>
      </trkpt>
      <trkpt lat="50.55774" lon="3.36988">
        <ele>69.706619</ele>
        <time>2021-09-28T09:20:19Z</time>
      </trkpt>
      <trkpt lat="50.5576" lon="3.3699">
        <ele>69.516968</ele>
        <time>2021-09-28T09:20:21Z</time>
      </trkpt>
      <trkpt lat="50.55747" lon="3.36991">
        <ele>69.323059</ele>
        <time>2021-09-28T09:20:23Z</time>
      </trkpt>
      <trkpt lat="50.55736" lon="3.36991">
        <ele>69.091095</ele>
        <time>2021-09-28T09:20:25Z</time>
      </trkpt>
      <trkpt lat="50.55725" lon="3.36992">
        <ele>68.837456</ele>
        <time>2021-09-28T09:20:27Z</time>
      </trkpt>
      <trkpt lat="50.55715" lon="3.36992">
        <ele>68.549026</ele>
        <time>2021-09-28T09:20:29Z</time>
      </trkpt>
      <trkpt lat="50.55705" lon="3.36993">
        <ele>68.299026</ele>
        <time>2021-09-28T09:20:31Z</time>
      </trkpt>
      <trkpt lat="50.55697" lon="3.36993">
        <ele>68.00486</ele>
        <time>2021-09-28T09:20:33Z</time>
      </trkpt>
      <trkpt lat="50.55688" lon="3.36993">
        <ele>67.828835</ele>
        <time>2021-09-28T09:20:35Z</time>
      </trkpt>
      <trkpt lat="50.55681" lon="3.36992">
        <ele>67.528549</ele>
        <time>2021-09-28T09:20:37Z</time>
      </trkpt>
      <trkpt lat="50.55673" lon="3.36993">
        <ele>67.210663</ele>
        <time>2021-09-28T09:20:39Z</time>
      </trkpt>
      <trkpt lat="50.55665" lon="3.36993">
        <ele>66.914749</ele>
        <time>2021-09-28T09:20:41Z</time>
      </trkpt>
      <trkpt lat="50.55657" lon="3.36993">
        <ele>66.547318</ele>
        <time>2021-09-28T09:20:43Z</time>
      </trkpt>
      <trkpt lat="50.5565" lon="3.36993">
        <ele>66.186996</ele>
        <time>2021-09-28T09:20:45Z</time>
      </trkpt>
      <trkpt lat="50.55641" lon="3.36994">
        <ele>65.871979</ele>
        <time>2021-09-28T09:20:47Z</time>
      </trkpt>
      <trkpt lat="50.55632" lon="3.36994">
        <ele>65.466187</ele>
        <time>2021-09-28T09:20:49Z</time>
      </trkpt>
      <trkpt lat="50.55623" lon="3.36994">
        <ele>65.077538</ele>
        <time>2021-09-28T09:20:51Z</time>
      </trkpt>
      <trkpt lat="50.55612" lon="3.36995">
        <ele>64.717316</ele>
        <time>2021-09-28T09:20:53Z</time>
      </trkpt>
      <trkpt lat="50.556" lon="3.36996">
        <ele>64.35099</ele>
        <time>2021-09-28T09:20:55Z</time>
      </trkpt>
      <trkpt lat="50.55587" lon="3.36997">
        <ele>64.031029</ele>
        <time>2021-09-28T09:20:57Z</time>
      </trkpt>
      <trkpt lat="50.55573" lon="3.36997">
        <ele>63.754547</ele>
        <time>2021-09-28T09:20:59Z</time>
      </trkpt>
      <trkpt lat="50.55558" lon="3.36998">
        <ele>63.257954</ele>
        <time>2021-09-28T09:21:01Z</time>
      </trkpt>
      <trkpt lat="50.55542" lon="3.36999">
        <ele>63.136444</ele>
        <time>2021-09-28T09:21:03Z</time>
      </trkpt>
      <trkpt lat="50.55526" lon="3.37">
        <ele>62.560993</ele>
        <time>2021-09-28T09:21:05Z</time>
      </trkpt>
      <trkpt lat="50.55509" lon="3.37001">
        <ele>62.33952</ele>
        <time>2021-09-28T09:21:07Z</time>
      </trkpt>
      <trkpt lat="50.55491" lon="3.37001">
        <ele>61.940071</ele>
        <time>2021-09-28T09:21:09Z</time>
      </trkpt>
      <trkpt lat="50.55474" lon="3.36996">
        <ele>61.445503</ele>
        <time>2021-09-28T09:21:11Z</time>
      </trkpt>
      <trkpt lat="50.55457" lon="3.36984">
        <ele>60.996162</ele>
        <time>2021-09-28T09:21:13Z</time>
      </trkpt>
      <trkpt lat="50.55441" lon="3.36969">
        <ele>60.51474</ele>
        <time>2021-09-28T09:21:15Z</time>
      </trkpt>
      <trkpt lat="50.55425" lon="3.36953">
        <ele>59.916779</ele>
        <time>2021-09-28T09:21:17Z</time>
      </trkpt>
      <trkpt lat="50.5541" lon="3.36938">
        <ele>59.387287</ele>
        <time>2021-09-28T09:21:19Z</time>
      </trkpt>
      <trkpt lat="50.55399" lon="3.36928">
        <ele>58.820854</ele>
        <time>2021-09-28T09:21:21Z</time>
      </trkpt>
      <trkpt lat="50.5539" lon="3.3692">
        <ele>58.454491</ele>
        <time>2021-09-28T09:21:23Z</time>
      </trkpt>
      <trkpt lat="50.55383" lon="3.36914">
        <ele>57.890472</ele>
        <time>2021-09-28T09:21:25Z</time>
      </trkpt>
      <trkpt lat="50.55377" lon="3.3691">
        <ele>57.648151</ele>
        <time>2021-09-28T09:21:27Z</time>
      </trkpt>
      <trkpt lat="50.55371" lon="3.36907">
        <ele>56.987427</ele>
        <time>2021-09-28T09:21:29Z</time>
      </trkpt>
      <trkpt lat="50.55365" lon="3.36904">
        <ele>56.373028</ele>
        <time>2021-09-28T09:21:31Z</time>
      </trkpt>
      <trkpt lat="50.5536" lon="3.369">
        <ele>55.631184</ele>
        <time>2021-09-28T09:21:33Z</time>
      </trkpt>
      <trkpt lat="50.55353" lon="3.36897">
        <ele>54.927467</ele>
        <time>2021-09-28T09:21:35Z</time>
      </trkpt>
      <trkpt lat="50.55346" lon="3.36892">
        <ele>54.559319</ele>
        <time>2021-09-28T09:21:37Z</time>
      </trkpt>
      <trkpt lat="50.55339" lon="3.36888">
        <ele>53.858482</ele>
        <time>2021-09-28T09:21:39Z</time>
      </trkpt>
      <trkpt lat="50.55332" lon="3.36883">
        <ele>53.150627</ele>
        <time>2021-09-28T09:21:41Z</time>
      </trkpt>
      <trkpt lat="50.55325" lon="3.36878">
        <ele>52.475563</ele>
        <time>2021-09-28T09:21:43Z</time>
      </trkpt>
      <trkpt lat="50.55319" lon="3.36874">
        <ele>51.864677</ele>
        <time>2021-09-28T09:21:45Z</time>
      </trkpt>
      <trkpt lat="50.55312" lon="3.36869">
        <ele>51.275677</ele>
        <time>2021-09-28T09:21:47Z</time>
      </trkpt>
      <trkpt lat="50.55306" lon="3.36864">
        <ele>50.580078</ele>
        <time>2021-09-28T09:21:49Z</time>
      </trkpt>
      <trkpt lat="50.55299" lon="3.36859">
        <ele>49.995995</ele>
        <time>2021-09-28T09:21:51Z</time>
      </trkpt>
      <trkpt lat="50.55293" lon="3.36854">
        <ele>49.718494</ele>
        <time>2021-09-28T09:21:53Z</time>
      </trkpt>
      <trkpt lat="50.55286" lon="3.36849">
        <ele>49.197124</ele>
        <time>2021-09-28T09:21:55Z</time>
      </trkpt>
      <trkpt lat="50.5528" lon="3.36843">
        <ele>48.740414</ele>
        <time>2021-09-28T09:21:57Z</time>
      </trkpt>
      <trkpt lat="50.55273" lon="3.36836">
        <ele>48.203957</ele>
        <time>2021-09-28T09:21:59Z</time>
      </trkpt>
      <trkpt lat="50.55266" lon="3.36828">
        <ele>47.756142</ele>
        <time>2021-09-28T09:22:01Z</time>
      </trkpt>
      <trkpt lat="50.5526" lon="3.36821">
        <ele>47.582912</ele>
        <time>2021-09-28T09:22:03Z</time>
      </trkpt>
      <trkpt lat="50.55253" lon="3.36814">
        <ele>47.189613</ele>
        <time>2021-09-28T09:22:05Z</time>
      </trkpt>
      <trkpt lat="50.55247" lon="3.36806">
        <ele>46.945877</ele>
        <time>2021-09-28T09:22:07Z</time>
      </trkpt>
      <trkpt lat="50.55241" lon="3.36799">
        <ele>46.102402</ele>
        <time>2021-09-28T09:22:09Z</time>
      </trkpt>
      <trkpt lat="50.55236" lon="3.36791">
        <ele>45.911198</ele>
        <time>2021-09-28T09:22:11Z</time>
      </trkpt>
      <trkpt lat="50.5523" lon="3.36784">
        <ele>45.849907</ele>
        <time>2021-09-28T09:22:13Z</time>
      </trkpt>
      <trkpt lat="50.55224" lon="3.36777">
        <ele>45.659771</ele>
        <time>2021-09-28T09:22:15Z</time>
      </trkpt>
      <trkpt lat="50.55219" lon="3.36771">
        <ele>45.576355</ele>
        <time>2021-09-28T09:22:17Z</time>
      </trkpt>
      <trkpt lat="50.55213" lon="3.36764">
        <ele>45.489357</ele>
        <time>2021-09-28T09:22:19Z</time>
      </trkpt>
      <trkpt lat="50.55208" lon="3.36758">
        <ele>45.472824</ele>
        <time>2021-09-28T09:22:21Z</time>
      </trkpt>
      <trkpt lat="50.55202" lon="3.36751">
        <ele>45.456181</ele>
        <time>2021-09-28T09:22:23Z</time>
      </trkpt>
      <trkpt lat="50.55197" lon="3.36744">
        <ele>45.469109</ele>
        <time>2021-09-28T09:22:25Z</time>
      </trkpt>
      <trkpt lat="50.55191" lon="3.36738">
        <ele>45.528297</ele>
        <time>2021-09-28T09:22:27Z</time>
      </trkpt>
      <trkpt lat="50.55185" lon="3.36732">
        <ele>45.553585</ele>
        <time>2021-09-28T09:22:29Z</time>
      </trkpt>
      <trkpt lat="50.55179" lon="3.36725">
        <ele>45.617653</ele>
        <time>2021-09-28T09:22:31Z</time>
      </trkpt>
      <trkpt lat="50.55172" lon="3.3672">
        <ele>45.734779</ele>
        <time>2021-09-28T09:22:33Z</time>
      </trkpt>
      <trkpt lat="50.55166" lon="3.36715">
        <ele>45.863331</ele>
        <time>2021-09-28T09:22:35Z</time>
      </trkpt>
      <trkpt lat="50.5516" lon="3.3671">
        <ele>45.95863</ele>
        <time>2021-09-28T09:22:37Z</time>
      </trkpt>
      <trkpt lat="50.55153" lon="3.36705">
        <ele>46.120564</ele>
        <time>2021-09-28T09:22:39Z</time>
      </trkpt>
      <trkpt lat="50.55146" lon="3.36702">
        <ele>46.194786</ele>
        <time>2021-09-28T09:22:41Z</time>
      </trkpt>
      <trkpt lat="50.5514" lon="3.36698">
        <ele>46.442207</ele>
        <time>2021-09-28T09:22:43Z</time>
      </trkpt>
      <trkpt lat="50.55134" lon="3.36694">
        <ele>46.628582</ele>
        <time>2021-09-28T09:22:45Z</time>
      </trkpt>
      <trkpt lat="50.55129" lon="3.3669">
        <ele>46.807549</ele>
        <time>2021-09-28T09:22:47Z</time>
      </trkpt>
      <trkpt lat="50.55123" lon="3.36686">
        <ele>47.028709</ele>
        <time>2021-09-28T09:22:49Z</time>
      </trkpt>
      <trkpt lat="50.55117" lon="3.36683">
        <ele>47.225857</ele>
        <time>2021-09-28T09:22:51Z</time>
      </trkpt>
      <trkpt lat="50.55111" lon="3.36685">
        <ele>47.865211</ele>
        <time>2021-09-28T09:22:53Z</time>
      </trkpt>
      <trkpt lat="50.55105" lon="3.36691">
        <ele>48.059029</ele>
        <time>2021-09-28T09:22:55Z</time>
      </trkpt>
      <trkpt lat="50.55101" lon="3.367">
        <ele>48.251308</ele>
        <time>2021-09-28T09:22:57Z</time>
      </trkpt>
      <trkpt lat="50.55097" lon="3.36711">
        <ele>48.433205</ele>
        <time>2021-09-28T09:22:59Z</time>
      </trkpt>
      <trkpt lat="50.55093" lon="3.36722">
        <ele>48.608101</ele>
        <time>2021-09-28T09:23:01Z</time>
      </trkpt>
      <trkpt lat="50.55089" lon="3.36732">
        <ele>48.699055</ele>
        <time>2021-09-28T09:23:03Z</time>
      </trkpt>
      <trkpt lat="50.55085" lon="3.36742">
        <ele>48.894207</ele>
        <time>2021-09-28T09:23:05Z</time>
      </trkpt>
      <trkpt lat="50.5508" lon="3.36753">
        <ele>49.071472</ele>
        <time>2021-09-28T09:23:07Z</time>
      </trkpt>
      <trkpt lat="50.55076" lon="3.36764">
        <ele>49.256165</ele>
        <time>2021-09-28T09:23:09Z</time>
      </trkpt>
      <trkpt lat="50.5507" lon="3.36776">
        <ele>49.30032</ele>
        <time>2021-09-28T09:23:11Z</time>
      </trkpt>
      <trkpt lat="50.55065" lon="3.36787">
        <ele>49.385075</ele>
        <time>2021-09-28T09:23:13Z</time>
      </trkpt>
      <trkpt lat="50.55059" lon="3.36798">
        <ele>49.484001</ele>
        <time>2021-09-28T09:23:15Z</time>
      </trkpt>
      <trkpt lat="50.55054" lon="3.3681">
        <ele>49.515678</ele>
        <time>2021-09-28T09:23:17Z</time>
      </trkpt>
      <trkpt lat="50.55049" lon="3.3682">
        <ele>49.588753</ele>
        <time>2021-09-28T09:23:19Z</time>
      </trkpt>
      <trkpt lat="50.55043" lon="3.36831">
        <ele>49.688175</ele>
        <time>2021-09-28T09:23:21Z</time>
      </trkpt>
      <trkpt lat="50.55038" lon="3.36841">
        <ele>49.760525</ele>
        <time>2021-09-28T09:23:23Z</time>
      </trkpt>
      <trkpt lat="50.55032" lon="3.36852">
        <ele>49.830082</ele>
        <time>2021-09-28T09:23:25Z</time>
      </trkpt>
      <trkpt lat="50.55026" lon="3.36862">
        <ele>49.850754</ele>
        <time>2021-09-28T09:23:27Z</time>
      </trkpt>
      <trkpt lat="50.5502" lon="3.36872">
        <ele>49.818256</ele>
        <time>2021-09-28T09:23:29Z</time>
      </trkpt>
      <trkpt lat="50.55015" lon="3.36882">
        <ele>49.805855</ele>
        <time>2021-09-28T09:23:31Z</time>
      </trkpt>
      <trkpt lat="50.5501" lon="3.36893">
        <ele>49.810421</ele>
        <time>2021-09-28T09:23:33Z</time>
      </trkpt>
      <trkpt lat="50.55005" lon="3.36905">
        <ele>49.774315</ele>
        <time>2021-09-28T09:23:35Z</time>
      </trkpt>
      <trkpt lat="50.55" lon="3.36916">
        <ele>49.735043</ele>
        <time>2021-09-28T09:23:37Z</time>
      </trkpt>
      <trkpt lat="50.54995" lon="3.36927">
        <ele>49.146515</ele>
        <time>2021-09-28T09:23:39Z</time>
      </trkpt>
      <trkpt lat="50.5499" lon="3.36938">
        <ele>49.088985</ele>
        <time>2021-09-28T09:23:41Z</time>
      </trkpt>
      <trkpt lat="50.54984" lon="3.36948">
        <ele>49.025532</ele>
        <time>2021-09-28T09:23:43Z</time>
      </trkpt>
      <trkpt lat="50.54979" lon="3.36958">
        <ele>49.00808</ele>
        <time>2021-09-28T09:23:45Z</time>
      </trkpt>
      <trkpt lat="50.54973" lon="3.36969">
        <ele>48.954803</ele>
        <time>2021-09-28T09:23:47Z</time>
      </trkpt>
      <trkpt lat="50.54968" lon="3.36978">
        <ele>48.813969</ele>
        <time>2021-09-28T09:23:49Z</time>
      </trkpt>
      <trkpt lat="50.54962" lon="3.36987">
        <ele>48.706478</ele>
        <time>2021-09-28T09:23:51Z</time>
      </trkpt>
      <trkpt lat="50.54956" lon="3.36995">
        <ele>48.541225</ele>
        <time>2021-09-28T09:23:53Z</time>
      </trkpt>
      <trkpt lat="50.54951" lon="3.37004">
        <ele>48.436584</ele>
        <time>2021-09-28T09:23:55Z</time>
      </trkpt>
      <trkpt lat="50.54945" lon="3.37014">
        <ele>48.381531</ele>
        <time>2021-09-28T09:23:57Z</time>
      </trkpt>
      <trkpt lat="50.54939" lon="3.37024">
        <ele>48.285282</ele>
        <time>2021-09-28T09:23:59Z</time>
      </trkpt>
      <trkpt lat="50.54933" lon="3.37034">
        <ele>48.157352</ele>
        <time>2021-09-28T09:24:01Z</time>
      </trkpt>
      <trkpt lat="50.54927" lon="3.37044">
        <ele>48.033852</ele>
        <time>2021-09-28T09:24:03Z</time>
      </trkpt>
      <trkpt lat="50.54922" lon="3.37051">
        <ele>47.869576</ele>
        <time>2021-09-28T09:24:05Z</time>
      </trkpt>
      <trkpt lat="50.5492" lon="3.37058">
        <ele>47.780586</ele>
        <time>2021-09-28T09:24:07Z</time>
      </trkpt>
      <trkpt lat="50.54921" lon="3.37066">
        <ele>47.625954</ele>
        <time>2021-09-28T09:24:09Z</time>
      </trkpt>
      <trkpt lat="50.54926" lon="3.37074">
        <ele>47.413902</ele>
        <time>2021-09-28T09:24:11Z</time>
      </trkpt>
      <trkpt lat="50.54933" lon="3.37082">
        <ele>47.254765</ele>
        <time>2021-09-28T09:24:13Z</time>
      </trkpt>
      <trkpt lat="50.5494" lon="3.3709">
        <ele>47.041885</ele>
        <time>2021-09-28T09:24:15Z</time>
      </trkpt>
      <trkpt lat="50.54947" lon="3.37099">
        <ele>46.717426</ele>
        <time>2021-09-28T09:24:17Z</time>
      </trkpt>
      <trkpt lat="50.54953" lon="3.37108">
        <ele>46.523785</ele>
        <time>2021-09-28T09:24:19Z</time>
      </trkpt>
      <trkpt lat="50.54961" lon="3.37117">
        <ele>46.466019</ele>
        <time>2021-09-28T09:24:21Z</time>
      </trkpt>
      <trkpt lat="50.54966" lon="3.37128">
        <ele>46.275879</ele>
        <time>2021-09-28T09:24:23Z</time>
      </trkpt>
      <trkpt lat="50.54971" lon="3.37142">
        <ele>46.123886</ele>
        <time>2021-09-28T09:24:25Z</time>
      </trkpt>
      <trkpt lat="50.54976" lon="3.37156">
        <ele>45.900047</ele>
        <time>2021-09-28T09:24:27Z</time>
      </trkpt>
      <trkpt lat="50.54982" lon="3.37171">
        <ele>45.633675</ele>
        <time>2021-09-28T09:24:29Z</time>
      </trkpt>
      <trkpt lat="50.54987" lon="3.37189">
        <ele>45.505245</ele>
        <time>2021-09-28T09:24:31Z</time>
      </trkpt>
      <trkpt lat="50.54991" lon="3.37207">
        <ele>45.2924</ele>
        <time>2021-09-28T09:24:33Z</time>
      </trkpt>
      <trkpt lat="50.54995" lon="3.37226">
        <ele>45.091148</ele>
        <time>2021-09-28T09:24:35Z</time>
      </trkpt>
      <trkpt lat="50.54999" lon="3.37246">
        <ele>44.849373</ele>
        <time>2021-09-28T09:24:37Z</time>
      </trkpt>
      <trkpt lat="50.55004" lon="3.37265">
        <ele>44.653606</ele>
        <time>2021-09-28T09:24:39Z</time>
      </trkpt>
      <trkpt lat="50.55009" lon="3.37283">
        <ele>44.419228</ele>
        <time>2021-09-28T09:24:41Z</time>
      </trkpt>
      <trkpt lat="50.55013" lon="3.37302">
        <ele>44.16003</ele>
        <time>2021-09-28T09:24:43Z</time>
      </trkpt>
      <trkpt lat="50.55018" lon="3.37319">
        <ele>43.797558</ele>
        <time>2021-09-28T09:24:45Z</time>
      </trkpt>
      <trkpt lat="50.55022" lon="3.37336">
        <ele>43.527519</ele>
        <time>2021-09-28T09:24:47Z</time>
      </trkpt>
      <trkpt lat="50.55026" lon="3.37351">
        <ele>43.27187</ele>
        <time>2021-09-28T09:24:49Z</time>
      </trkpt>
      <trkpt lat="50.5503" lon="3.37365">
        <ele>42.986809</ele>
        <time>2021-09-28T09:24:51Z</time>
      </trkpt>
      <trkpt lat="50.55035" lon="3.37378">
        <ele>42.805279</ele>
        <time>2021-09-28T09:24:53Z</time>
      </trkpt>
      <trkpt lat="50.5504" lon="3.37391">
        <ele>42.542053</ele>
        <time>2021-09-28T09:24:55Z</time>
      </trkpt>
      <trkpt lat="50.55044" lon="3.37404">
        <ele>42.244591</ele>
        <time>2021-09-28T09:24:57Z</time>
      </trkpt>
      <trkpt lat="50.55047" lon="3.37417">
        <ele>41.920269</ele>
        <time>2021-09-28T09:24:59Z</time>
      </trkpt>
      <trkpt lat="50.55048" lon="3.37432">
        <ele>41.697186</ele>
        <time>2021-09-28T09:25:01Z</time>
      </trkpt>
      <trkpt lat="50.55045" lon="3.37446">
        <ele>41.368103</ele>
        <time>2021-09-28T09:25:03Z</time>
      </trkpt>
      <trkpt lat="50.55042" lon="3.3746">
        <ele>41.217125</ele>
        <time>2021-09-28T09:25:05Z</time>
      </trkpt>
      <trkpt lat="50.55038" lon="3.37473">
        <ele>40.916801</ele>
        <time>2021-09-28T09:25:07Z</time>
      </trkpt>
      <trkpt lat="50.55034" lon="3.37487">
        <ele>40.530514</ele>
        <time>2021-09-28T09:25:09Z</time>
      </trkpt>
      <trkpt lat="50.5503" lon="3.375">
        <ele>40.208275</ele>
        <time>2021-09-28T09:25:11Z</time>
      </trkpt>
      <trkpt lat="50.55026" lon="3.37514">
        <ele>39.980885</ele>
        <time>2021-09-28T09:25:13Z</time>
      </trkpt>
      <trkpt lat="50.55021" lon="3.37527">
        <ele>39.855068</ele>
        <time>2021-09-28T09:25:15Z</time>
      </trkpt>
      <trkpt lat="50.55016" lon="3.37538">
        <ele>39.573612</ele>
        <time>2021-09-28T09:25:17Z</time>
      </trkpt>
      <trkpt lat="50.5501" lon="3.37549">
        <ele>39.307961</ele>
        <time>2021-09-28T09:25:19Z</time>
      </trkpt>
      <trkpt lat="50.55003" lon="3.3756">
        <ele>39.0606</ele>
        <time>2021-09-28T09:25:21Z</time>
      </trkpt>
      <trkpt lat="50.54998" lon="3.3757">
        <ele>39.01469</ele>
        <time>2021-09-28T09:25:23Z</time>
      </trkpt>
      <trkpt lat="50.54991" lon="3.3758">
        <ele>38.772457</ele>
        <time>2021-09-28T09:25:25Z</time>
      </trkpt>
      <trkpt lat="50.54986" lon="3.37588">
        <ele>38.56443</ele>
        <time>2021-09-28T09:25:27Z</time>
      </trkpt>
      <trkpt lat="50.5498" lon="3.37598">
        <ele>38.472218</ele>
        <time>2021-09-28T09:25:29Z</time>
      </trkpt>
      <trkpt lat="50.54974" lon="3.37607">
        <ele>38.30291</ele>
        <time>2021-09-28T09:25:31Z</time>
      </trkpt>
      <trkpt lat="50.54968" lon="3.37616">
        <ele>38.133213</ele>
        <time>2021-09-28T09:25:33Z</time>
      </trkpt>
      <trkpt lat="50.54963" lon="3.37625">
        <ele>38.054714</ele>
        <time>2021-09-28T09:25:35Z</time>
      </trkpt>
      <trkpt lat="50.54957" lon="3.37633">
        <ele>37.984848</ele>
        <time>2021-09-28T09:25:37Z</time>
      </trkpt>
      <trkpt lat="50.54952" lon="3.37642">
        <ele>37.869621</ele>
        <time>2021-09-28T09:25:39Z</time>
      </trkpt>
      <trkpt lat="50.54949" lon="3.37651">
        <ele>37.837914</ele>
        <time>2021-09-28T09:25:41Z</time>
      </trkpt>
      <trkpt lat="50.54946" lon="3.37661">
        <ele>37.818935</ele>
        <time>2021-09-28T09:25:43Z</time>
      </trkpt>
      <trkpt lat="50.54943" lon="3.37673">
        <ele>37.773506</ele>
        <time>2021-09-28T09:25:45Z</time>
      </trkpt>
      <trkpt lat="50.5494" lon="3.37685">
        <ele>37.757179</ele>
        <time>2021-09-28T09:25:47Z</time>
      </trkpt>
      <trkpt lat="50.5494" lon="3.37697">
        <ele>37.73679</ele>
        <time>2021-09-28T09:25:49Z</time>
      </trkpt>
      <trkpt lat="50.5494" lon="3.37709">
        <ele>37.683876</ele>
        <time>2021-09-28T09:25:51Z</time>
      </trkpt>
      <trkpt lat="50.54941" lon="3.37722">
        <ele>37.706997</ele>
        <time>2021-09-28T09:25:53Z</time>
      </trkpt>
      <trkpt lat="50.54942" lon="3.37734">
        <ele>37.712181</ele>
        <time>2021-09-28T09:25:55Z</time>
      </trkpt>
      <trkpt lat="50.54943" lon="3.37746">
        <ele>37.623562</ele>
        <time>2021-09-28T09:25:57Z</time>
      </trkpt>
      <trkpt lat="50.54942" lon="3.37758">
        <ele>37.619247</ele>
        <time>2021-09-28T09:25:59Z</time>
      </trkpt>
      <trkpt lat="50.5494" lon="3.3777">
        <ele>37.559898</ele>
        <time>2021-09-28T09:26:01Z</time>
      </trkpt>
      <trkpt lat="50.54938" lon="3.37782">
        <ele>37.552818</ele>
        <time>2021-09-28T09:26:03Z</time>
      </trkpt>
      <trkpt lat="50.54935" lon="3.37793">
        <ele>37.531551</ele>
        <time>2021-09-28T09:26:05Z</time>
      </trkpt>
      <trkpt lat="50.54931" lon="3.37803">
        <ele>37.50259</ele>
        <time>2021-09-28T09:26:07Z</time>
      </trkpt>
      <trkpt lat="50.54927" lon="3.37813">
        <ele>37.494289</ele>
        <time>2021-09-28T09:26:09Z</time>
      </trkpt>
      <trkpt lat="50.54924" lon="3.37824">
        <ele>37.486752</ele>
        <time>2021-09-28T09:26:11Z</time>
      </trkpt>
      <trkpt lat="50.5492" lon="3.37834">
        <ele>37.500278</ele>
        <time>2021-09-28T09:26:13Z</time>
      </trkpt>
      <trkpt lat="50.54917" lon="3.37843">
        <ele>37.505173</ele>
        <time>2021-09-28T09:26:15Z</time>
      </trkpt>
      <trkpt lat="50.54913" lon="3.37852">
        <ele>37.530739</ele>
        <time>2021-09-28T09:26:17Z</time>
      </trkpt>
      <trkpt lat="50.5491" lon="3.37863">
        <ele>37.536491</ele>
        <time>2021-09-28T09:26:19Z</time>
      </trkpt>
      <trkpt lat="50.54908" lon="3.37872">
        <ele>37.547268</ele>
        <time>2021-09-28T09:26:21Z</time>
      </trkpt>
      <trkpt lat="50.54904" lon="3.37882">
        <ele>37.56921</ele>
        <time>2021-09-28T09:26:23Z</time>
      </trkpt>
      <trkpt lat="50.54898" lon="3.37889">
        <ele>37.578438</ele>
        <time>2021-09-28T09:26:25Z</time>
      </trkpt>
      <trkpt lat="50.5489" lon="3.37892">
        <ele>37.553703</ele>
        <time>2021-09-28T09:26:27Z</time>
      </trkpt>
      <trkpt lat="50.54881" lon="3.37891">
        <ele>37.59623</ele>
        <time>2021-09-28T09:26:29Z</time>
      </trkpt>
      <trkpt lat="50.54873" lon="3.3789">
        <ele>37.641472</ele>
        <time>2021-09-28T09:26:31Z</time>
      </trkpt>
      <trkpt lat="50.54864" lon="3.37889">
        <ele>37.6852</ele>
        <time>2021-09-28T09:26:33Z</time>
      </trkpt>
      <trkpt lat="50.54855" lon="3.37887">
        <ele>37.730633</ele>
        <time>2021-09-28T09:26:35Z</time>
      </trkpt>
      <trkpt lat="50.54846" lon="3.37886">
        <ele>37.702839</ele>
        <time>2021-09-28T09:26:37Z</time>
      </trkpt>
      <trkpt lat="50.54838" lon="3.37884">
        <ele>37.699715</ele>
        <time>2021-09-28T09:26:39Z</time>
      </trkpt>
      <trkpt lat="50.54829" lon="3.37884">
        <ele>37.7995</ele>
        <time>2021-09-28T09:26:41Z</time>
      </trkpt>
      <trkpt lat="50.54821" lon="3.37883">
        <ele>37.834602</ele>
        <time>2021-09-28T09:26:43Z</time>
      </trkpt>
      <trkpt lat="50.54815" lon="3.37882">
        <ele>37.885025</ele>
        <time>2021-09-28T09:26:45Z</time>
      </trkpt>
      <trkpt lat="50.54808" lon="3.37881">
        <ele>37.911507</ele>
        <time>2021-09-28T09:26:47Z</time>
      </trkpt>
      <trkpt lat="50.54801" lon="3.37879">
        <ele>37.905312</ele>
        <time>2021-09-28T09:26:49Z</time>
      </trkpt>
      <trkpt lat="50.54794" lon="3.37877">
        <ele>37.925037</ele>
        <time>2021-09-28T09:26:51Z</time>
      </trkpt>
      <trkpt lat="50.54789" lon="3.37876">
        <ele>37.93774</ele>
        <time>2021-09-28T09:26:53Z</time>
      </trkpt>
      <trkpt lat="50.54785" lon="3.37876">
        <ele>37.932735</ele>
        <time>2021-09-28T09:26:55Z</time>
      </trkpt>
      <trkpt lat="50.54783" lon="3.37877">
        <ele>37.795116</ele>
        <time>2021-09-28T09:27:01Z</time>
      </trkpt>
      <trkpt lat="50.54779" lon="3.37879">
        <ele>37.740227</ele>
        <time>2021-09-28T09:27:03Z</time>
      </trkpt>
      <trkpt lat="50.54773" lon="3.37879">
        <ele>37.662529</ele>
        <time>2021-09-28T09:27:05Z</time>
      </trkpt>
      <trkpt lat="50.54766" lon="3.37879">
        <ele>37.619164</ele>
        <time>2021-09-28T09:27:07Z</time>
      </trkpt>
      <trkpt lat="50.54759" lon="3.3788">
        <ele>37.549706</ele>
        <time>2021-09-28T09:27:09Z</time>
      </trkpt>
      <trkpt lat="50.54752" lon="3.37882">
        <ele>37.551769</ele>
        <time>2021-09-28T09:27:11Z</time>
      </trkpt>
      <trkpt lat="50.54744" lon="3.37884">
        <ele>37.485943</ele>
        <time>2021-09-28T09:27:13Z</time>
      </trkpt>
      <trkpt lat="50.54737" lon="3.37886">
        <ele>37.386223</ele>
        <time>2021-09-28T09:27:15Z</time>
      </trkpt>
      <trkpt lat="50.5473" lon="3.37888">
        <ele>37.330467</ele>
        <time>2021-09-28T09:27:17Z</time>
      </trkpt>
      <trkpt lat="50.54723" lon="3.37889">
        <ele>37.263508</ele>
        <time>2021-09-28T09:27:19Z</time>
      </trkpt>
      <trkpt lat="50.54715" lon="3.37891">
        <ele>37.196503</ele>
        <time>2021-09-28T09:27:21Z</time>
      </trkpt>
      <trkpt lat="50.54708" lon="3.37893">
        <ele>37.213215</ele>
        <time>2021-09-28T09:27:23Z</time>
      </trkpt>
      <trkpt lat="50.547" lon="3.37895">
        <ele>37.162987</ele>
        <time>2021-09-28T09:27:25Z</time>
      </trkpt>
      <trkpt lat="50.54693" lon="3.37897">
        <ele>37.152664</ele>
        <time>2021-09-28T09:27:27Z</time>
      </trkpt>
      <trkpt lat="50.54685" lon="3.37899">
        <ele>37.104271</ele>
        <time>2021-09-28T09:27:29Z</time>
      </trkpt>
      <trkpt lat="50.54678" lon="3.379">
        <ele>37.117832</ele>
        <time>2021-09-28T09:27:31Z</time>
      </trkpt>
      <trkpt lat="50.54672" lon="3.379">
        <ele>37.126835</ele>
        <time>2021-09-28T09:27:33Z</time>
      </trkpt>
      <trkpt lat="50.54666" lon="3.37902">
        <ele>37.135094</ele>
        <time>2021-09-28T09:27:35Z</time>
      </trkpt>
      <trkpt lat="50.54658" lon="3.37904">
        <ele>37.137287</ele>
        <time>2021-09-28T09:27:37Z</time>
      </trkpt>
      <trkpt lat="50.54651" lon="3.37905">
        <ele>37.148045</ele>
        <time>2021-09-28T09:27:39Z</time>
      </trkpt>
      <trkpt lat="50.54643" lon="3.37907">
        <ele>37.20496</ele>
        <time>2021-09-28T09:27:41Z</time>
      </trkpt>
      <trkpt lat="50.54636" lon="3.37909">
        <ele>37.282063</ele>
        <time>2021-09-28T09:27:42Z</time>
      </trkpt>
      <trkpt lat="50.54628" lon="3.37909">
        <ele>37.379002</ele>
        <time>2021-09-28T09:27:45Z</time>
      </trkpt>
      <trkpt lat="50.54621" lon="3.37909">
        <ele>37.425224</ele>
        <time>2021-09-28T09:27:47Z</time>
      </trkpt>
      <trkpt lat="50.54614" lon="3.37908">
        <ele>37.527115</ele>
        <time>2021-09-28T09:27:49Z</time>
      </trkpt>
      <trkpt lat="50.54606" lon="3.37906">
        <ele>37.679665</ele>
        <time>2021-09-28T09:27:51Z</time>
      </trkpt>
      <trkpt lat="50.54599" lon="3.37904">
        <ele>37.806053</ele>
        <time>2021-09-28T09:27:53Z</time>
      </trkpt>
      <trkpt lat="50.5459" lon="3.37903">
        <ele>37.87627</ele>
        <time>2021-09-28T09:27:55Z</time>
      </trkpt>
      <trkpt lat="50.54582" lon="3.37901">
        <ele>37.994518</ele>
        <time>2021-09-28T09:27:57Z</time>
      </trkpt>
      <trkpt lat="50.54575" lon="3.379">
        <ele>38.130253</ele>
        <time>2021-09-28T09:27:59Z</time>
      </trkpt>
      <trkpt lat="50.54567" lon="3.37898">
        <ele>38.340088</ele>
        <time>2021-09-28T09:28:01Z</time>
      </trkpt>
      <trkpt lat="50.54559" lon="3.37897">
        <ele>38.424911</ele>
        <time>2021-09-28T09:28:03Z</time>
      </trkpt>
      <trkpt lat="50.54551" lon="3.37895">
        <ele>38.610855</ele>
        <time>2021-09-28T09:28:05Z</time>
      </trkpt>
      <trkpt lat="50.54544" lon="3.37893">
        <ele>38.731144</ele>
        <time>2021-09-28T09:28:07Z</time>
      </trkpt>
      <trkpt lat="50.54537" lon="3.37892">
        <ele>38.861061</ele>
        <time>2021-09-28T09:28:09Z</time>
      </trkpt>
      <trkpt lat="50.5453" lon="3.37891">
        <ele>38.924973</ele>
        <time>2021-09-28T09:28:11Z</time>
      </trkpt>
      <trkpt lat="50.54523" lon="3.3789">
        <ele>39.036526</ele>
        <time>2021-09-28T09:28:13Z</time>
      </trkpt>
      <trkpt lat="50.54516" lon="3.37888">
        <ele>39.193386</ele>
        <time>2021-09-28T09:28:15Z</time>
      </trkpt>
      <trkpt lat="50.54508" lon="3.37887">
        <ele>39.250042</ele>
        <time>2021-09-28T09:28:17Z</time>
      </trkpt>
      <trkpt lat="50.54501" lon="3.37885">
        <ele>39.41037</ele>
        <time>2021-09-28T09:28:19Z</time>
      </trkpt>
      <trkpt lat="50.54495" lon="3.37884">
        <ele>39.551067</ele>
        <time>2021-09-28T09:28:21Z</time>
      </trkpt>
      <trkpt lat="50.54487" lon="3.37883">
        <ele>39.661919</ele>
        <time>2021-09-28T09:28:23Z</time>
      </trkpt>
      <trkpt lat="50.5448" lon="3.37882">
        <ele>39.779575</ele>
        <time>2021-09-28T09:28:25Z</time>
      </trkpt>
      <trkpt lat="50.54472" lon="3.37881">
        <ele>39.889809</ele>
        <time>2021-09-28T09:28:27Z</time>
      </trkpt>
      <trkpt lat="50.54463" lon="3.3788">
        <ele>39.936874</ele>
        <time>2021-09-28T09:28:29Z</time>
      </trkpt>
      <trkpt lat="50.54454" lon="3.37878">
        <ele>39.984501</ele>
        <time>2021-09-28T09:28:31Z</time>
      </trkpt>
      <trkpt lat="50.54445" lon="3.37877">
        <ele>40.007217</ele>
        <time>2021-09-28T09:28:33Z</time>
      </trkpt>
      <trkpt lat="50.54437" lon="3.37876">
        <ele>40.072727</ele>
        <time>2021-09-28T09:28:35Z</time>
      </trkpt>
      <trkpt lat="50.5443" lon="3.37875">
        <ele>40.097725</ele>
        <time>2021-09-28T09:28:37Z</time>
      </trkpt>
      <trkpt lat="50.54422" lon="3.37874">
        <ele>40.087399</ele>
        <time>2021-09-28T09:28:39Z</time>
      </trkpt>
      <trkpt lat="50.54414" lon="3.37872">
        <ele>40.0928</ele>
        <time>2021-09-28T09:28:41Z</time>
      </trkpt>
      <trkpt lat="50.54406" lon="3.3787">
        <ele>40.0881</ele>
        <time>2021-09-28T09:28:43Z</time>
      </trkpt>
      <trkpt lat="50.54398" lon="3.37869">
        <ele>40.094864</ele>
        <time>2021-09-28T09:28:45Z</time>
      </trkpt>
      <trkpt lat="50.54389" lon="3.37867">
        <ele>40.060219</ele>
        <time>2021-09-28T09:28:47Z</time>
      </trkpt>
      <trkpt lat="50.5438" lon="3.37866">
        <ele>40.059196</ele>
        <time>2021-09-28T09:28:49Z</time>
      </trkpt>
      <trkpt lat="50.54372" lon="3.37864">
        <ele>40.032341</ele>
        <time>2021-09-28T09:28:51Z</time>
      </trkpt>
      <trkpt lat="50.54364" lon="3.37863">
        <ele>40.072464</ele>
        <time>2021-09-28T09:28:53Z</time>
      </trkpt>
      <trkpt lat="50.54355" lon="3.37862">
        <ele>40.070511</ele>
        <time>2021-09-28T09:28:55Z</time>
      </trkpt>
      <trkpt lat="50.54347" lon="3.3786">
        <ele>40.077652</ele>
        <time>2021-09-28T09:28:57Z</time>
      </trkpt>
      <trkpt lat="50.54338" lon="3.37859">
        <ele>40.090145</ele>
        <time>2021-09-28T09:28:59Z</time>
      </trkpt>
      <trkpt lat="50.5433" lon="3.37858">
        <ele>40.108738</ele>
        <time>2021-09-28T09:29:01Z</time>
      </trkpt>
      <trkpt lat="50.54322" lon="3.37859">
        <ele>40.069656</ele>
        <time>2021-09-28T09:29:03Z</time>
      </trkpt>
      <trkpt lat="50.54314" lon="3.3786">
        <ele>40.034542</ele>
        <time>2021-09-28T09:29:05Z</time>
      </trkpt>
      <trkpt lat="50.54305" lon="3.37862">
        <ele>40.051888</ele>
        <time>2021-09-28T09:29:07Z</time>
      </trkpt>
      <trkpt lat="50.54297" lon="3.37862">
        <ele>40.034973</ele>
        <time>2021-09-28T09:29:09Z</time>
      </trkpt>
      <trkpt lat="50.5429" lon="3.37862">
        <ele>39.990822</ele>
        <time>2021-09-28T09:29:11Z</time>
      </trkpt>
      <trkpt lat="50.54282" lon="3.37862">
        <ele>39.993324</ele>
        <time>2021-09-28T09:29:12Z</time>
      </trkpt>
      <trkpt lat="50.54274" lon="3.37861">
        <ele>39.947887</ele>
        <time>2021-09-28T09:29:15Z</time>
      </trkpt>
      <trkpt lat="50.54265" lon="3.37859">
        <ele>39.964893</ele>
        <time>2021-09-28T09:29:17Z</time>
      </trkpt>
      <trkpt lat="50.54256" lon="3.37857">
        <ele>39.873901</ele>
        <time>2021-09-28T09:29:19Z</time>
      </trkpt>
      <trkpt lat="50.54247" lon="3.37854">
        <ele>39.882843</ele>
        <time>2021-09-28T09:29:21Z</time>
      </trkpt>
      <trkpt lat="50.54238" lon="3.37851">
        <ele>39.93618</ele>
        <time>2021-09-28T09:29:23Z</time>
      </trkpt>
      <trkpt lat="50.54227" lon="3.37849">
        <ele>39.960979</ele>
        <time>2021-09-28T09:29:25Z</time>
      </trkpt>
      <trkpt lat="50.54217" lon="3.37846">
        <ele>39.971306</ele>
        <time>2021-09-28T09:29:27Z</time>
      </trkpt>
      <trkpt lat="50.54207" lon="3.37844">
        <ele>39.888695</ele>
        <time>2021-09-28T09:29:29Z</time>
      </trkpt>
      <trkpt lat="50.54198" lon="3.37841">
        <ele>39.826019</ele>
        <time>2021-09-28T09:29:31Z</time>
      </trkpt>
      <trkpt lat="50.54189" lon="3.37838">
        <ele>39.780712</ele>
        <time>2021-09-28T09:29:33Z</time>
      </trkpt>
      <trkpt lat="50.54179" lon="3.37836">
        <ele>39.731819</ele>
        <time>2021-09-28T09:29:35Z</time>
      </trkpt>
      <trkpt lat="50.5417" lon="3.37833">
        <ele>39.659309</ele>
        <time>2021-09-28T09:29:37Z</time>
      </trkpt>
      <trkpt lat="50.54161" lon="3.3783">
        <ele>39.614189</ele>
        <time>2021-09-28T09:29:39Z</time>
      </trkpt>
      <trkpt lat="50.54151" lon="3.37827">
        <ele>39.540955</ele>
        <time>2021-09-28T09:29:41Z</time>
      </trkpt>
      <trkpt lat="50.54142" lon="3.37825">
        <ele>39.429512</ele>
        <time>2021-09-28T09:29:43Z</time>
      </trkpt>
      <trkpt lat="50.54132" lon="3.37822">
        <ele>39.358143</ele>
        <time>2021-09-28T09:29:45Z</time>
      </trkpt>
      <trkpt lat="50.54123" lon="3.37819">
        <ele>39.325096</ele>
        <time>2021-09-28T09:29:47Z</time>
      </trkpt>
      <trkpt lat="50.54113" lon="3.37817">
        <ele>39.225929</ele>
        <time>2021-09-28T09:29:49Z</time>
      </trkpt>
      <trkpt lat="50.54103" lon="3.37814">
        <ele>39.174206</ele>
        <time>2021-09-28T09:29:51Z</time>
      </trkpt>
      <trkpt lat="50.54094" lon="3.37811">
        <ele>39.020958</ele>
        <time>2021-09-28T09:29:53Z</time>
      </trkpt>
      <trkpt lat="50.54084" lon="3.37808">
        <ele>38.909439</ele>
        <time>2021-09-28T09:29:55Z</time>
      </trkpt>
      <trkpt lat="50.54075" lon="3.37806">
        <ele>38.784588</ele>
        <time>2021-09-28T09:29:57Z</time>
      </trkpt>
      <trkpt lat="50.54065" lon="3.37803">
        <ele>38.684437</ele>
        <time>2021-09-28T09:29:59Z</time>
      </trkpt>
      <trkpt lat="50.54056" lon="3.378">
        <ele>38.577049</ele>
        <time>2021-09-28T09:30:01Z</time>
      </trkpt>
      <trkpt lat="50.54046" lon="3.37797">
        <ele>38.45108</ele>
        <time>2021-09-28T09:30:03Z</time>
      </trkpt>
      <trkpt lat="50.54036" lon="3.37794">
        <ele>38.292061</ele>
        <time>2021-09-28T09:30:05Z</time>
      </trkpt>
      <trkpt lat="50.54026" lon="3.37792">
        <ele>38.218082</ele>
        <time>2021-09-28T09:30:07Z</time>
      </trkpt>
      <trkpt lat="50.54017" lon="3.37789">
        <ele>38.051735</ele>
        <time>2021-09-28T09:30:09Z</time>
      </trkpt>
      <trkpt lat="50.54007" lon="3.37786">
        <ele>37.969986</ele>
        <time>2021-09-28T09:30:11Z</time>
      </trkpt>
      <trkpt lat="50.53998" lon="3.37783">
        <ele>37.887344</ele>
        <time>2021-09-28T09:30:13Z</time>
      </trkpt>
      <trkpt lat="50.53988" lon="3.37781">
        <ele>37.747803</ele>
        <time>2021-09-28T09:30:15Z</time>
      </trkpt>
      <trkpt lat="50.53978" lon="3.37778">
        <ele>37.63913</ele>
        <time>2021-09-28T09:30:17Z</time>
      </trkpt>
      <trkpt lat="50.53969" lon="3.37775">
        <ele>37.513542</ele>
        <time>2021-09-28T09:30:19Z</time>
      </trkpt>
      <trkpt lat="50.53959" lon="3.37771">
        <ele>37.337921</ele>
        <time>2021-09-28T09:30:21Z</time>
      </trkpt>
      <trkpt lat="50.53949" lon="3.37769">
        <ele>37.174797</ele>
        <time>2021-09-28T09:30:23Z</time>
      </trkpt>
      <trkpt lat="50.5394" lon="3.37766">
        <ele>37.017872</ele>
        <time>2021-09-28T09:30:25Z</time>
      </trkpt>
      <trkpt lat="50.5393" lon="3.37764">
        <ele>36.947475</ele>
        <time>2021-09-28T09:30:27Z</time>
      </trkpt>
      <trkpt lat="50.53921" lon="3.3776">
        <ele>36.689339</ele>
        <time>2021-09-28T09:30:29Z</time>
      </trkpt>
      <trkpt lat="50.53912" lon="3.37758">
        <ele>36.561634</ele>
        <time>2021-09-28T09:30:31Z</time>
      </trkpt>
      <trkpt lat="50.53902" lon="3.37755">
        <ele>36.49234</ele>
        <time>2021-09-28T09:30:33Z</time>
      </trkpt>
      <trkpt lat="50.53893" lon="3.37753">
        <ele>36.389717</ele>
        <time>2021-09-28T09:30:35Z</time>
      </trkpt>
      <trkpt lat="50.53884" lon="3.3775">
        <ele>36.199772</ele>
        <time>2021-09-28T09:30:37Z</time>
      </trkpt>
      <trkpt lat="50.53875" lon="3.37748">
        <ele>36.012825</ele>
        <time>2021-09-28T09:30:39Z</time>
      </trkpt>
      <trkpt lat="50.53867" lon="3.37746">
        <ele>35.872967</ele>
        <time>2021-09-28T09:30:41Z</time>
      </trkpt>
      <trkpt lat="50.53858" lon="3.37743">
        <ele>35.740829</ele>
        <time>2021-09-28T09:30:43Z</time>
      </trkpt>
      <trkpt lat="50.5385" lon="3.37742">
        <ele>35.612831</ele>
        <time>2021-09-28T09:30:45Z</time>
      </trkpt>
      <trkpt lat="50.53842" lon="3.3774">
        <ele>35.493084</ele>
        <time>2021-09-28T09:30:47Z</time>
      </trkpt>
      <trkpt lat="50.53833" lon="3.37738">
        <ele>35.3381</ele>
        <time>2021-09-28T09:30:49Z</time>
      </trkpt>
      <trkpt lat="50.53825" lon="3.37735">
        <ele>35.172546</ele>
        <time>2021-09-28T09:30:51Z</time>
      </trkpt>
      <trkpt lat="50.53818" lon="3.37733">
        <ele>35.026424</ele>
        <time>2021-09-28T09:30:53Z</time>
      </trkpt>
      <trkpt lat="50.5381" lon="3.3773">
        <ele>34.898323</ele>
        <time>2021-09-28T09:30:55Z</time>
      </trkpt>
      <trkpt lat="50.53803" lon="3.37728">
        <ele>34.757126</ele>
        <time>2021-09-28T09:30:57Z</time>
      </trkpt>
      <trkpt lat="50.53797" lon="3.37728">
        <ele>34.687958</ele>
        <time>2021-09-28T09:30:59Z</time>
      </trkpt>
      <trkpt lat="50.53791" lon="3.37732">
        <ele>34.448109</ele>
        <time>2021-09-28T09:31:01Z</time>
      </trkpt>
      <trkpt lat="50.53788" lon="3.37741">
        <ele>34.379982</ele>
        <time>2021-09-28T09:31:03Z</time>
      </trkpt>
      <trkpt lat="50.53786" lon="3.37753">
        <ele>34.291275</ele>
        <time>2021-09-28T09:31:05Z</time>
      </trkpt>
      <trkpt lat="50.53784" lon="3.37766">
        <ele>34.232483</ele>
        <time>2021-09-28T09:31:07Z</time>
      </trkpt>
      <trkpt lat="50.53781" lon="3.37778">
        <ele>34.110767</ele>
        <time>2021-09-28T09:31:09Z</time>
      </trkpt>
      <trkpt lat="50.53779" lon="3.3779">
        <ele>34.002647</ele>
        <time>2021-09-28T09:31:11Z</time>
      </trkpt>
      <trkpt lat="50.53775" lon="3.37802">
        <ele>33.907276</ele>
        <time>2021-09-28T09:31:13Z</time>
      </trkpt>
      <trkpt lat="50.53772" lon="3.37815">
        <ele>33.831146</ele>
        <time>2021-09-28T09:31:15Z</time>
      </trkpt>
      <trkpt lat="50.53769" lon="3.37827">
        <ele>33.820824</ele>
        <time>2021-09-28T09:31:17Z</time>
      </trkpt>
      <trkpt lat="50.53767" lon="3.3784">
        <ele>33.835289</ele>
        <time>2021-09-28T09:31:19Z</time>
      </trkpt>
      <trkpt lat="50.53764" lon="3.37853">
        <ele>33.812935</ele>
        <time>2021-09-28T09:31:21Z</time>
      </trkpt>
      <trkpt lat="50.53761" lon="3.37865">
        <ele>33.756874</ele>
        <time>2021-09-28T09:31:23Z</time>
      </trkpt>
      <trkpt lat="50.53757" lon="3.37878">
        <ele>33.7169</ele>
        <time>2021-09-28T09:31:25Z</time>
      </trkpt>
      <trkpt lat="50.53754" lon="3.37891">
        <ele>33.699524</ele>
        <time>2021-09-28T09:31:27Z</time>
      </trkpt>
      <trkpt lat="50.53751" lon="3.37904">
        <ele>33.667038</ele>
        <time>2021-09-28T09:31:29Z</time>
      </trkpt>
      <trkpt lat="50.53748" lon="3.37917">
        <ele>33.677849</ele>
        <time>2021-09-28T09:31:31Z</time>
      </trkpt>
      <trkpt lat="50.53746" lon="3.37931">
        <ele>33.643215</ele>
        <time>2021-09-28T09:31:33Z</time>
      </trkpt>
      <trkpt lat="50.53743" lon="3.37944">
        <ele>33.643658</ele>
        <time>2021-09-28T09:31:35Z</time>
      </trkpt>
      <trkpt lat="50.53741" lon="3.37958">
        <ele>33.603649</ele>
        <time>2021-09-28T09:31:37Z</time>
      </trkpt>
      <trkpt lat="50.53739" lon="3.37971">
        <ele>33.523876</ele>
        <time>2021-09-28T09:31:39Z</time>
      </trkpt>
      <trkpt lat="50.53738" lon="3.37986">
        <ele>33.506355</ele>
        <time>2021-09-28T09:31:41Z</time>
      </trkpt>
      <trkpt lat="50.53736" lon="3.37999">
        <ele>33.531128</ele>
        <time>2021-09-28T09:31:43Z</time>
      </trkpt>
      <trkpt lat="50.53733" lon="3.38013">
        <ele>33.540447</ele>
        <time>2021-09-28T09:31:45Z</time>
      </trkpt>
      <trkpt lat="50.53732" lon="3.38027">
        <ele>33.612186</ele>
        <time>2021-09-28T09:31:47Z</time>
      </trkpt>
      <trkpt lat="50.5373" lon="3.38041">
        <ele>33.589146</ele>
        <time>2021-09-28T09:31:49Z</time>
      </trkpt>
      <trkpt lat="50.53728" lon="3.38055">
        <ele>33.594414</ele>
        <time>2021-09-28T09:31:51Z</time>
      </trkpt>
      <trkpt lat="50.53725" lon="3.38069">
        <ele>33.597313</ele>
        <time>2021-09-28T09:31:53Z</time>
      </trkpt>
      <trkpt lat="50.53724" lon="3.38082">
        <ele>33.589428</ele>
        <time>2021-09-28T09:31:55Z</time>
      </trkpt>
      <trkpt lat="50.53721" lon="3.38096">
        <ele>33.583714</ele>
        <time>2021-09-28T09:31:57Z</time>
      </trkpt>
      <trkpt lat="50.53719" lon="3.3811">
        <ele>33.581459</ele>
        <time>2021-09-28T09:31:59Z</time>
      </trkpt>
      <trkpt lat="50.53717" lon="3.38123">
        <ele>33.575859</ele>
        <time>2021-09-28T09:32:01Z</time>
      </trkpt>
      <trkpt lat="50.53715" lon="3.38137">
        <ele>33.560577</ele>
        <time>2021-09-28T09:32:03Z</time>
      </trkpt>
      <trkpt lat="50.53713" lon="3.3815">
        <ele>33.572079</ele>
        <time>2021-09-28T09:32:05Z</time>
      </trkpt>
      <trkpt lat="50.53711" lon="3.38164">
        <ele>33.572079</ele>
        <time>2021-09-28T09:32:07Z</time>
      </trkpt>
      <trkpt lat="50.53709" lon="3.38178">
        <ele>33.56884</ele>
        <time>2021-09-28T09:32:09Z</time>
      </trkpt>
      <trkpt lat="50.53706" lon="3.38191">
        <ele>33.559391</ele>
        <time>2021-09-28T09:32:11Z</time>
      </trkpt>
      <trkpt lat="50.53704" lon="3.38206">
        <ele>33.518551</ele>
        <time>2021-09-28T09:32:13Z</time>
      </trkpt>
      <trkpt lat="50.53701" lon="3.38219">
        <ele>33.533092</ele>
        <time>2021-09-28T09:32:15Z</time>
      </trkpt>
      <trkpt lat="50.53698" lon="3.38232">
        <ele>33.532631</ele>
        <time>2021-09-28T09:32:17Z</time>
      </trkpt>
      <trkpt lat="50.53694" lon="3.38245">
        <ele>33.563683</ele>
        <time>2021-09-28T09:32:19Z</time>
      </trkpt>
      <trkpt lat="50.5369" lon="3.38258">
        <ele>33.573601</ele>
        <time>2021-09-28T09:32:21Z</time>
      </trkpt>
      <trkpt lat="50.53686" lon="3.3827">
        <ele>33.681877</ele>
        <time>2021-09-28T09:32:23Z</time>
      </trkpt>
      <trkpt lat="50.53682" lon="3.38282">
        <ele>33.722466</ele>
        <time>2021-09-28T09:32:25Z</time>
      </trkpt>
      <trkpt lat="50.53678" lon="3.38294">
        <ele>33.738289</ele>
        <time>2021-09-28T09:32:27Z</time>
      </trkpt>
      <trkpt lat="50.53674" lon="3.38305">
        <ele>33.781639</ele>
        <time>2021-09-28T09:32:29Z</time>
      </trkpt>
      <trkpt lat="50.53671" lon="3.38317">
        <ele>33.754318</ele>
        <time>2021-09-28T09:32:31Z</time>
      </trkpt>
      <trkpt lat="50.53666" lon="3.38329">
        <ele>33.787693</ele>
        <time>2021-09-28T09:32:33Z</time>
      </trkpt>
      <trkpt lat="50.53662" lon="3.38342">
        <ele>33.848885</ele>
        <time>2021-09-28T09:32:35Z</time>
      </trkpt>
      <trkpt lat="50.53658" lon="3.38355">
        <ele>33.848686</ele>
        <time>2021-09-28T09:32:37Z</time>
      </trkpt>
      <trkpt lat="50.53653" lon="3.38368">
        <ele>33.880718</ele>
        <time>2021-09-28T09:32:39Z</time>
      </trkpt>
      <trkpt lat="50.5365" lon="3.38381">
        <ele>33.901897</ele>
        <time>2021-09-28T09:32:41Z</time>
      </trkpt>
      <trkpt lat="50.53646" lon="3.38394">
        <ele>33.925552</ele>
        <time>2021-09-28T09:32:43Z</time>
      </trkpt>
      <trkpt lat="50.53641" lon="3.38407">
        <ele>33.9473</ele>
        <time>2021-09-28T09:32:45Z</time>
      </trkpt>
      <trkpt lat="50.53637" lon="3.3842">
        <ele>33.994957</ele>
        <time>2021-09-28T09:32:47Z</time>
      </trkpt>
      <trkpt lat="50.53634" lon="3.38433">
        <ele>33.999786</ele>
        <time>2021-09-28T09:32:49Z</time>
      </trkpt>
      <trkpt lat="50.53629" lon="3.38446">
        <ele>34.038094</ele>
        <time>2021-09-28T09:32:51Z</time>
      </trkpt>
      <trkpt lat="50.53626" lon="3.38459">
        <ele>34.036594</ele>
        <time>2021-09-28T09:32:53Z</time>
      </trkpt>
      <trkpt lat="50.53622" lon="3.38471">
        <ele>34.065495</ele>
        <time>2021-09-28T09:32:55Z</time>
      </trkpt>
      <trkpt lat="50.53618" lon="3.38484">
        <ele>34.085632</ele>
        <time>2021-09-28T09:32:57Z</time>
      </trkpt>
      <trkpt lat="50.53614" lon="3.38496">
        <ele>34.110443</ele>
        <time>2021-09-28T09:32:59Z</time>
      </trkpt>
      <trkpt lat="50.5361" lon="3.38508">
        <ele>34.089478</ele>
        <time>2021-09-28T09:33:01Z</time>
      </trkpt>
      <trkpt lat="50.53604" lon="3.38519">
        <ele>34.109341</ele>
        <time>2021-09-28T09:33:03Z</time>
      </trkpt>
      <trkpt lat="50.53595" lon="3.38523">
        <ele>34.023838</ele>
        <time>2021-09-28T09:33:05Z</time>
      </trkpt>
      <trkpt lat="50.53587" lon="3.38523">
        <ele>33.980885</ele>
        <time>2021-09-28T09:33:07Z</time>
      </trkpt>
      <trkpt lat="50.53579" lon="3.38526">
        <ele>33.918602</ele>
        <time>2021-09-28T09:33:09Z</time>
      </trkpt>
      <trkpt lat="50.53571" lon="3.38532">
        <ele>33.85836</ele>
        <time>2021-09-28T09:33:11Z</time>
      </trkpt>
      <trkpt lat="50.53564" lon="3.3854">
        <ele>33.811882</ele>
        <time>2021-09-28T09:33:13Z</time>
      </trkpt>
      <trkpt lat="50.53558" lon="3.3855">
        <ele>33.794258</ele>
        <time>2021-09-28T09:33:15Z</time>
      </trkpt>
      <trkpt lat="50.53552" lon="3.38561">
        <ele>33.750908</ele>
        <time>2021-09-28T09:33:17Z</time>
      </trkpt>
      <trkpt lat="50.53547" lon="3.38571">
        <ele>33.626892</ele>
        <time>2021-09-28T09:33:19Z</time>
      </trkpt>
      <trkpt lat="50.53542" lon="3.38582">
        <ele>33.626492</ele>
        <time>2021-09-28T09:33:21Z</time>
      </trkpt>
      <trkpt lat="50.53537" lon="3.38594">
        <ele>33.458454</ele>
        <time>2021-09-28T09:33:23Z</time>
      </trkpt>
      <trkpt lat="50.53532" lon="3.38605">
        <ele>33.358059</ele>
        <time>2021-09-28T09:33:25Z</time>
      </trkpt>
      <trkpt lat="50.53529" lon="3.38617">
        <ele>33.251381</ele>
        <time>2021-09-28T09:33:27Z</time>
      </trkpt>
      <trkpt lat="50.53524" lon="3.38628">
        <ele>33.107018</ele>
        <time>2021-09-28T09:33:29Z</time>
      </trkpt>
      <trkpt lat="50.53521" lon="3.38638">
        <ele>32.999889</ele>
        <time>2021-09-28T09:33:31Z</time>
      </trkpt>
      <trkpt lat="50.53517" lon="3.38646">
        <ele>32.856148</ele>
        <time>2021-09-28T09:33:33Z</time>
      </trkpt>
      <trkpt lat="50.53513" lon="3.38655">
        <ele>32.720161</ele>
        <time>2021-09-28T09:33:35Z</time>
      </trkpt>
      <trkpt lat="50.53509" lon="3.38665">
        <ele>32.642036</ele>
        <time>2021-09-28T09:33:37Z</time>
      </trkpt>
      <trkpt lat="50.53508" lon="3.38677">
        <ele>32.497116</ele>
        <time>2021-09-28T09:33:39Z</time>
      </trkpt>
      <trkpt lat="50.5351" lon="3.3869">
        <ele>32.351635</ele>
        <time>2021-09-28T09:33:41Z</time>
      </trkpt>
      <trkpt lat="50.53511" lon="3.38704">
        <ele>32.20005</ele>
        <time>2021-09-28T09:33:43Z</time>
      </trkpt>
      <trkpt lat="50.53511" lon="3.38718">
        <ele>32.054073</ele>
        <time>2021-09-28T09:33:45Z</time>
      </trkpt>
      <trkpt lat="50.53509" lon="3.38731">
        <ele>31.976757</ele>
        <time>2021-09-28T09:33:47Z</time>
      </trkpt>
      <trkpt lat="50.53505" lon="3.38743">
        <ele>31.876499</ele>
        <time>2021-09-28T09:33:49Z</time>
      </trkpt>
      <trkpt lat="50.53502" lon="3.38755">
        <ele>31.80094</ele>
        <time>2021-09-28T09:33:51Z</time>
      </trkpt>
      <trkpt lat="50.53499" lon="3.38766">
        <ele>31.711323</ele>
        <time>2021-09-28T09:33:53Z</time>
      </trkpt>
      <trkpt lat="50.53495" lon="3.38777">
        <ele>31.657398</ele>
        <time>2021-09-28T09:33:55Z</time>
      </trkpt>
      <trkpt lat="50.53492" lon="3.38788">
        <ele>31.575644</ele>
        <time>2021-09-28T09:33:57Z</time>
      </trkpt>
      <trkpt lat="50.53489" lon="3.38799">
        <ele>31.517767</ele>
        <time>2021-09-28T09:33:59Z</time>
      </trkpt>
      <trkpt lat="50.53486" lon="3.3881">
        <ele>31.483677</ele>
        <time>2021-09-28T09:34:01Z</time>
      </trkpt>
      <trkpt lat="50.53482" lon="3.38821">
        <ele>31.466394</ele>
        <time>2021-09-28T09:34:03Z</time>
      </trkpt>
      <trkpt lat="50.53479" lon="3.38832">
        <ele>31.511194</ele>
        <time>2021-09-28T09:34:05Z</time>
      </trkpt>
      <trkpt lat="50.53476" lon="3.38844">
        <ele>31.561401</ele>
        <time>2021-09-28T09:34:07Z</time>
      </trkpt>
      <trkpt lat="50.53472" lon="3.38855">
        <ele>31.626133</ele>
        <time>2021-09-28T09:34:09Z</time>
      </trkpt>
      <trkpt lat="50.53469" lon="3.38867">
        <ele>31.67919</ele>
        <time>2021-09-28T09:34:11Z</time>
      </trkpt>
      <trkpt lat="50.53465" lon="3.38878">
        <ele>31.803326</ele>
        <time>2021-09-28T09:34:13Z</time>
      </trkpt>
      <trkpt lat="50.53462" lon="3.38889">
        <ele>31.944092</ele>
        <time>2021-09-28T09:34:15Z</time>
      </trkpt>
      <trkpt lat="50.53459" lon="3.38901">
        <ele>32.132553</ele>
        <time>2021-09-28T09:34:17Z</time>
      </trkpt>
      <trkpt lat="50.53456" lon="3.38912">
        <ele>32.192955</ele>
        <time>2021-09-28T09:34:19Z</time>
      </trkpt>
      <trkpt lat="50.53453" lon="3.38924">
        <ele>32.375969</ele>
        <time>2021-09-28T09:34:21Z</time>
      </trkpt>
      <trkpt lat="50.53449" lon="3.38936">
        <ele>32.545788</ele>
        <time>2021-09-28T09:34:23Z</time>
      </trkpt>
      <trkpt lat="50.53445" lon="3.38948">
        <ele>32.743946</ele>
        <time>2021-09-28T09:34:25Z</time>
      </trkpt>
      <trkpt lat="50.53441" lon="3.38959">
        <ele>32.83881</ele>
        <time>2021-09-28T09:34:27Z</time>
      </trkpt>
      <trkpt lat="50.53436" lon="3.3897">
        <ele>33.021141</ele>
        <time>2021-09-28T09:34:29Z</time>
      </trkpt>
      <trkpt lat="50.5343" lon="3.3898">
        <ele>33.213295</ele>
        <time>2021-09-28T09:34:31Z</time>
      </trkpt>
      <trkpt lat="50.53424" lon="3.38989">
        <ele>33.411171</ele>
        <time>2021-09-28T09:34:33Z</time>
      </trkpt>
      <trkpt lat="50.53417" lon="3.38997">
        <ele>33.587597</ele>
        <time>2021-09-28T09:34:35Z</time>
      </trkpt>
      <trkpt lat="50.5341" lon="3.39005">
        <ele>33.790398</ele>
        <time>2021-09-28T09:34:37Z</time>
      </trkpt>
      <trkpt lat="50.53403" lon="3.39012">
        <ele>33.885353</ele>
        <time>2021-09-28T09:34:39Z</time>
      </trkpt>
      <trkpt lat="50.53396" lon="3.3902">
        <ele>34.098236</ele>
        <time>2021-09-28T09:34:41Z</time>
      </trkpt>
      <trkpt lat="50.53389" lon="3.39027">
        <ele>34.307037</ele>
        <time>2021-09-28T09:34:43Z</time>
      </trkpt>
      <trkpt lat="50.53382" lon="3.39035">
        <ele>34.504219</ele>
        <time>2021-09-28T09:34:45Z</time>
      </trkpt>
      <trkpt lat="50.53377" lon="3.39044">
        <ele>34.575172</ele>
        <time>2021-09-28T09:34:47Z</time>
      </trkpt>
      <trkpt lat="50.53374" lon="3.39055">
        <ele>34.736206</ele>
        <time>2021-09-28T09:34:49Z</time>
      </trkpt>
      <trkpt lat="50.53371" lon="3.39068">
        <ele>34.902702</ele>
        <time>2021-09-28T09:34:51Z</time>
      </trkpt>
      <trkpt lat="50.5337" lon="3.39081">
        <ele>35.051773</ele>
        <time>2021-09-28T09:34:53Z</time>
      </trkpt>
      <trkpt lat="50.53368" lon="3.39094">
        <ele>35.208061</ele>
        <time>2021-09-28T09:34:55Z</time>
      </trkpt>
      <trkpt lat="50.53367" lon="3.39108">
        <ele>35.29541</ele>
        <time>2021-09-28T09:34:57Z</time>
      </trkpt>
      <trkpt lat="50.53366" lon="3.39121">
        <ele>35.30986</ele>
        <time>2021-09-28T09:34:59Z</time>
      </trkpt>
      <trkpt lat="50.53365" lon="3.39135">
        <ele>35.360359</ele>
        <time>2021-09-28T09:35:01Z</time>
      </trkpt>
      <trkpt lat="50.53363" lon="3.39149">
        <ele>35.44054</ele>
        <time>2021-09-28T09:35:03Z</time>
      </trkpt>
      <trkpt lat="50.53362" lon="3.39163">
        <ele>35.528236</ele>
        <time>2021-09-28T09:35:05Z</time>
      </trkpt>
      <trkpt lat="50.5336" lon="3.39176">
        <ele>35.571789</ele>
        <time>2021-09-28T09:35:07Z</time>
      </trkpt>
      <trkpt lat="50.53359" lon="3.3919">
        <ele>35.619911</ele>
        <time>2021-09-28T09:35:09Z</time>
      </trkpt>
      <trkpt lat="50.53358" lon="3.39203">
        <ele>35.648323</ele>
        <time>2021-09-28T09:35:11Z</time>
      </trkpt>
      <trkpt lat="50.53357" lon="3.39217">
        <ele>35.726849</ele>
        <time>2021-09-28T09:35:13Z</time>
      </trkpt>
      <trkpt lat="50.53355" lon="3.3923">
        <ele>35.780586</ele>
        <time>2021-09-28T09:35:15Z</time>
      </trkpt>
      <trkpt lat="50.53354" lon="3.39243">
        <ele>35.831604</ele>
        <time>2021-09-28T09:35:17Z</time>
      </trkpt>
      <trkpt lat="50.53353" lon="3.39256">
        <ele>35.866089</ele>
        <time>2021-09-28T09:35:19Z</time>
      </trkpt>
      <trkpt lat="50.53352" lon="3.39268">
        <ele>35.897064</ele>
        <time>2021-09-28T09:35:21Z</time>
      </trkpt>
      <trkpt lat="50.5335" lon="3.3928">
        <ele>35.869865</ele>
        <time>2021-09-28T09:35:23Z</time>
      </trkpt>
      <trkpt lat="50.53349" lon="3.39293">
        <ele>35.854767</ele>
        <time>2021-09-28T09:35:25Z</time>
      </trkpt>
      <trkpt lat="50.53348" lon="3.39306">
        <ele>35.804199</ele>
        <time>2021-09-28T09:35:27Z</time>
      </trkpt>
      <trkpt lat="50.53347" lon="3.39318">
        <ele>35.796162</ele>
        <time>2021-09-28T09:35:29Z</time>
      </trkpt>
      <trkpt lat="50.53346" lon="3.39331">
        <ele>35.746174</ele>
        <time>2021-09-28T09:35:31Z</time>
      </trkpt>
      <trkpt lat="50.53345" lon="3.39344">
        <ele>35.70174</ele>
        <time>2021-09-28T09:35:33Z</time>
      </trkpt>
      <trkpt lat="50.53343" lon="3.39357">
        <ele>35.660236</ele>
        <time>2021-09-28T09:35:35Z</time>
      </trkpt>
      <trkpt lat="50.53342" lon="3.3937">
        <ele>35.587543</ele>
        <time>2021-09-28T09:35:37Z</time>
      </trkpt>
      <trkpt lat="50.53343" lon="3.39383">
        <ele>35.527332</ele>
        <time>2021-09-28T09:35:39Z</time>
      </trkpt>
      <trkpt lat="50.53347" lon="3.39395">
        <ele>35.455658</ele>
        <time>2021-09-28T09:35:41Z</time>
      </trkpt>
      <trkpt lat="50.53353" lon="3.39404">
        <ele>35.410999</ele>
        <time>2021-09-28T09:35:43Z</time>
      </trkpt>
      <trkpt lat="50.5336" lon="3.39412">
        <ele>35.332989</ele>
        <time>2021-09-28T09:35:45Z</time>
      </trkpt>
      <trkpt lat="50.53368" lon="3.3942">
        <ele>35.17144</ele>
        <time>2021-09-28T09:35:47Z</time>
      </trkpt>
      <trkpt lat="50.53376" lon="3.39429">
        <ele>35.040211</ele>
        <time>2021-09-28T09:35:49Z</time>
      </trkpt>
      <trkpt lat="50.53383" lon="3.39438">
        <ele>34.870121</ele>
        <time>2021-09-28T09:35:51Z</time>
      </trkpt>
      <trkpt lat="50.53391" lon="3.39448">
        <ele>34.688206</ele>
        <time>2021-09-28T09:35:53Z</time>
      </trkpt>
      <trkpt lat="50.53398" lon="3.39459">
        <ele>34.626278</ele>
        <time>2021-09-28T09:35:55Z</time>
      </trkpt>
      <trkpt lat="50.53404" lon="3.39471">
        <ele>34.459633</ele>
        <time>2021-09-28T09:35:57Z</time>
      </trkpt>
      <trkpt lat="50.53409" lon="3.39483">
        <ele>34.293419</ele>
        <time>2021-09-28T09:35:59Z</time>
      </trkpt>
      <trkpt lat="50.53414" lon="3.39496">
        <ele>34.127552</ele>
        <time>2021-09-28T09:36:01Z</time>
      </trkpt>
      <trkpt lat="50.53417" lon="3.39509">
        <ele>33.991745</ele>
        <time>2021-09-28T09:36:03Z</time>
      </trkpt>
      <trkpt lat="50.5342" lon="3.39522">
        <ele>33.91518</ele>
        <time>2021-09-28T09:36:05Z</time>
      </trkpt>
      <trkpt lat="50.53423" lon="3.39535">
        <ele>33.739063</ele>
        <time>2021-09-28T09:36:07Z</time>
      </trkpt>
      <trkpt lat="50.53424" lon="3.39549">
        <ele>33.603611</ele>
        <time>2021-09-28T09:36:09Z</time>
      </trkpt>
      <trkpt lat="50.53426" lon="3.39563">
        <ele>33.493004</ele>
        <time>2021-09-28T09:36:11Z</time>
      </trkpt>
      <trkpt lat="50.53426" lon="3.39577">
        <ele>33.360039</ele>
        <time>2021-09-28T09:36:13Z</time>
      </trkpt>
      <trkpt lat="50.53427" lon="3.3959">
        <ele>33.327007</ele>
        <time>2021-09-28T09:36:15Z</time>
      </trkpt>
      <trkpt lat="50.53428" lon="3.39604">
        <ele>33.218399</ele>
        <time>2021-09-28T09:36:17Z</time>
      </trkpt>
      <trkpt lat="50.53429" lon="3.39617">
        <ele>33.110558</ele>
        <time>2021-09-28T09:36:19Z</time>
      </trkpt>
      <trkpt lat="50.53429" lon="3.39631">
        <ele>33.008678</ele>
        <time>2021-09-28T09:36:21Z</time>
      </trkpt>
      <trkpt lat="50.5343" lon="3.39644">
        <ele>32.973183</ele>
        <time>2021-09-28T09:36:23Z</time>
      </trkpt>
      <trkpt lat="50.53431" lon="3.39658">
        <ele>32.882103</ele>
        <time>2021-09-28T09:36:25Z</time>
      </trkpt>
      <trkpt lat="50.53433" lon="3.39672">
        <ele>32.780663</ele>
        <time>2021-09-28T09:36:27Z</time>
      </trkpt>
      <trkpt lat="50.53433" lon="3.39686">
        <ele>32.692257</ele>
        <time>2021-09-28T09:36:29Z</time>
      </trkpt>
      <trkpt lat="50.53434" lon="3.39699">
        <ele>32.677498</ele>
        <time>2021-09-28T09:36:31Z</time>
      </trkpt>
      <trkpt lat="50.53435" lon="3.39713">
        <ele>32.643158</ele>
        <time>2021-09-28T09:36:33Z</time>
      </trkpt>
      <trkpt lat="50.53436" lon="3.39726">
        <ele>32.568512</ele>
        <time>2021-09-28T09:36:35Z</time>
      </trkpt>
      <trkpt lat="50.53436" lon="3.39738">
        <ele>32.564095</ele>
        <time>2021-09-28T09:36:37Z</time>
      </trkpt>
      <trkpt lat="50.53438" lon="3.39751">
        <ele>32.549644</ele>
        <time>2021-09-28T09:36:39Z</time>
      </trkpt>
      <trkpt lat="50.53441" lon="3.39764">
        <ele>32.513359</ele>
        <time>2021-09-28T09:36:41Z</time>
      </trkpt>
      <trkpt lat="50.53445" lon="3.39777">
        <ele>32.505028</ele>
        <time>2021-09-28T09:36:43Z</time>
      </trkpt>
      <trkpt lat="50.53449" lon="3.39789">
        <ele>32.445553</ele>
        <time>2021-09-28T09:36:45Z</time>
      </trkpt>
      <trkpt lat="50.53454" lon="3.398">
        <ele>32.390541</ele>
        <time>2021-09-28T09:36:47Z</time>
      </trkpt>
      <trkpt lat="50.53459" lon="3.39812">
        <ele>32.278442</ele>
        <time>2021-09-28T09:36:49Z</time>
      </trkpt>
      <trkpt lat="50.53464" lon="3.39823">
        <ele>32.278973</ele>
        <time>2021-09-28T09:36:51Z</time>
      </trkpt>
      <trkpt lat="50.53469" lon="3.39833">
        <ele>32.20013</ele>
        <time>2021-09-28T09:36:53Z</time>
      </trkpt>
      <trkpt lat="50.53473" lon="3.39844">
        <ele>32.113464</ele>
        <time>2021-09-28T09:36:55Z</time>
      </trkpt>
      <trkpt lat="50.53478" lon="3.39855">
        <ele>32.006557</ele>
        <time>2021-09-28T09:36:57Z</time>
      </trkpt>
      <trkpt lat="50.53482" lon="3.39866">
        <ele>31.904385</ele>
        <time>2021-09-28T09:36:59Z</time>
      </trkpt>
      <trkpt lat="50.53486" lon="3.39878">
        <ele>31.794785</ele>
        <time>2021-09-28T09:37:01Z</time>
      </trkpt>
      <trkpt lat="50.5349" lon="3.39891">
        <ele>31.72533</ele>
        <time>2021-09-28T09:37:03Z</time>
      </trkpt>
      <trkpt lat="50.53492" lon="3.39905">
        <ele>31.640472</ele>
        <time>2021-09-28T09:37:05Z</time>
      </trkpt>
      <trkpt lat="50.53491" lon="3.39919">
        <ele>31.506704</ele>
        <time>2021-09-28T09:37:07Z</time>
      </trkpt>
      <trkpt lat="50.53487" lon="3.39931">
        <ele>31.441875</ele>
        <time>2021-09-28T09:37:09Z</time>
      </trkpt>
      <trkpt lat="50.53483" lon="3.39943">
        <ele>31.298313</ele>
        <time>2021-09-28T09:37:11Z</time>
      </trkpt>
      <trkpt lat="50.53479" lon="3.39954">
        <ele>31.233526</ele>
        <time>2021-09-28T09:37:13Z</time>
      </trkpt>
      <trkpt lat="50.53475" lon="3.39965">
        <ele>31.132046</ele>
        <time>2021-09-28T09:37:15Z</time>
      </trkpt>
      <trkpt lat="50.53472" lon="3.39975">
        <ele>31.115536</ele>
        <time>2021-09-28T09:37:17Z</time>
      </trkpt>
      <trkpt lat="50.53469" lon="3.39985">
        <ele>31.074406</ele>
        <time>2021-09-28T09:37:19Z</time>
      </trkpt>
      <trkpt lat="50.53468" lon="3.39996">
        <ele>31.052237</ele>
        <time>2021-09-28T09:37:21Z</time>
      </trkpt>
      <trkpt lat="50.53469" lon="3.40008">
        <ele>31.042313</ele>
        <time>2021-09-28T09:37:23Z</time>
      </trkpt>
      <trkpt lat="50.53474" lon="3.40018">
        <ele>31.012461</ele>
        <time>2021-09-28T09:37:25Z</time>
      </trkpt>
      <trkpt lat="50.53481" lon="3.40026">
        <ele>31.000507</ele>
        <time>2021-09-28T09:37:27Z</time>
      </trkpt>
      <trkpt lat="50.53488" lon="3.40033">
        <ele>30.992489</ele>
        <time>2021-09-28T09:37:29Z</time>
      </trkpt>
      <trkpt lat="50.53496" lon="3.4004">
        <ele>30.936514</ele>
        <time>2021-09-28T09:37:31Z</time>
      </trkpt>
      <trkpt lat="50.53504" lon="3.40048">
        <ele>30.881704</ele>
        <time>2021-09-28T09:37:33Z</time>
      </trkpt>
      <trkpt lat="50.53512" lon="3.40056">
        <ele>30.91275</ele>
        <time>2021-09-28T09:37:35Z</time>
      </trkpt>
      <trkpt lat="50.5352" lon="3.40063">
        <ele>30.899054</ele>
        <time>2021-09-28T09:37:37Z</time>
      </trkpt>
      <trkpt lat="50.53529" lon="3.40071">
        <ele>30.847107</ele>
        <time>2021-09-28T09:37:39Z</time>
      </trkpt>
      <trkpt lat="50.53537" lon="3.40079">
        <ele>30.822189</ele>
        <time>2021-09-28T09:37:41Z</time>
      </trkpt>
      <trkpt lat="50.53545" lon="3.40086">
        <ele>30.816082</ele>
        <time>2021-09-28T09:37:43Z</time>
      </trkpt>
      <trkpt lat="50.53555" lon="3.40092">
        <ele>30.785534</ele>
        <time>2021-09-28T09:37:45Z</time>
      </trkpt>
      <trkpt lat="50.53565" lon="3.40097">
        <ele>30.735874</ele>
        <time>2021-09-28T09:37:47Z</time>
      </trkpt>
      <trkpt lat="50.53575" lon="3.40101">
        <ele>30.564856</ele>
        <time>2021-09-28T09:37:49Z</time>
      </trkpt>
      <trkpt lat="50.53585" lon="3.40104">
        <ele>30.570927</ele>
        <time>2021-09-28T09:37:51Z</time>
      </trkpt>
      <trkpt lat="50.53596" lon="3.40108">
        <ele>30.617727</ele>
        <time>2021-09-28T09:37:53Z</time>
      </trkpt>
      <trkpt lat="50.53606" lon="3.4011">
        <ele>30.674725</ele>
        <time>2021-09-28T09:37:55Z</time>
      </trkpt>
      <trkpt lat="50.53617" lon="3.40113">
        <ele>30.51997</ele>
        <time>2021-09-28T09:37:57Z</time>
      </trkpt>
      <trkpt lat="50.53628" lon="3.40116">
        <ele>30.483633</ele>
        <time>2021-09-28T09:37:59Z</time>
      </trkpt>
      <trkpt lat="50.53639" lon="3.40118">
        <ele>30.38526</ele>
        <time>2021-09-28T09:38:01Z</time>
      </trkpt>
      <trkpt lat="50.5365" lon="3.4012">
        <ele>30.333912</ele>
        <time>2021-09-28T09:38:03Z</time>
      </trkpt>
      <trkpt lat="50.53661" lon="3.40123">
        <ele>30.125324</ele>
        <time>2021-09-28T09:38:05Z</time>
      </trkpt>
      <trkpt lat="50.53672" lon="3.40125">
        <ele>29.902378</ele>
        <time>2021-09-28T09:38:07Z</time>
      </trkpt>
      <trkpt lat="50.53684" lon="3.40128">
        <ele>29.813101</ele>
        <time>2021-09-28T09:38:09Z</time>
      </trkpt>
      <trkpt lat="50.53696" lon="3.4013">
        <ele>29.638943</ele>
        <time>2021-09-28T09:38:11Z</time>
      </trkpt>
      <trkpt lat="50.53708" lon="3.40132">
        <ele>29.445019</ele>
        <time>2021-09-28T09:38:13Z</time>
      </trkpt>
      <trkpt lat="50.53719" lon="3.40135">
        <ele>29.285324</ele>
        <time>2021-09-28T09:38:15Z</time>
      </trkpt>
      <trkpt lat="50.5373" lon="3.40137">
        <ele>29.184216</ele>
        <time>2021-09-28T09:38:17Z</time>
      </trkpt>
      <trkpt lat="50.53741" lon="3.4014">
        <ele>29.007778</ele>
        <time>2021-09-28T09:38:19Z</time>
      </trkpt>
      <trkpt lat="50.53753" lon="3.40143">
        <ele>28.787701</ele>
        <time>2021-09-28T09:38:21Z</time>
      </trkpt>
      <trkpt lat="50.53762" lon="3.40149">
        <ele>28.64777</ele>
        <time>2021-09-28T09:38:23Z</time>
      </trkpt>
      <trkpt lat="50.5377" lon="3.40159">
        <ele>28.562359</ele>
        <time>2021-09-28T09:38:25Z</time>
      </trkpt>
      <trkpt lat="50.53775" lon="3.40173">
        <ele>28.397802</ele>
        <time>2021-09-28T09:38:27Z</time>
      </trkpt>
      <trkpt lat="50.53777" lon="3.40188">
        <ele>28.223347</ele>
        <time>2021-09-28T09:38:29Z</time>
      </trkpt>
      <trkpt lat="50.53778" lon="3.40203">
        <ele>28.104757</ele>
        <time>2021-09-28T09:38:31Z</time>
      </trkpt>
      <trkpt lat="50.53779" lon="3.4022">
        <ele>28.043375</ele>
        <time>2021-09-28T09:38:33Z</time>
      </trkpt>
      <trkpt lat="50.5378" lon="3.40237">
        <ele>28.061975</ele>
        <time>2021-09-28T09:38:35Z</time>
      </trkpt>
      <trkpt lat="50.53781" lon="3.40253">
        <ele>27.894924</ele>
        <time>2021-09-28T09:38:37Z</time>
      </trkpt>
      <trkpt lat="50.53782" lon="3.4027">
        <ele>27.708958</ele>
        <time>2021-09-28T09:38:39Z</time>
      </trkpt>
      <trkpt lat="50.53784" lon="3.40286">
        <ele>27.610453</ele>
        <time>2021-09-28T09:38:41Z</time>
      </trkpt>
      <trkpt lat="50.53785" lon="3.40303">
        <ele>27.617071</ele>
        <time>2021-09-28T09:38:43Z</time>
      </trkpt>
      <trkpt lat="50.53786" lon="3.40319">
        <ele>27.505917</ele>
        <time>2021-09-28T09:38:45Z</time>
      </trkpt>
      <trkpt lat="50.53787" lon="3.40335">
        <ele>27.534739</ele>
        <time>2021-09-28T09:38:47Z</time>
      </trkpt>
      <trkpt lat="50.53788" lon="3.4035">
        <ele>27.454884</ele>
        <time>2021-09-28T09:38:49Z</time>
      </trkpt>
      <trkpt lat="50.5379" lon="3.40366">
        <ele>27.487341</ele>
        <time>2021-09-28T09:38:51Z</time>
      </trkpt>
      <trkpt lat="50.53791" lon="3.40382">
        <ele>27.501781</ele>
        <time>2021-09-28T09:38:53Z</time>
      </trkpt>
      <trkpt lat="50.53792" lon="3.40398">
        <ele>27.511683</ele>
        <time>2021-09-28T09:38:55Z</time>
      </trkpt>
      <trkpt lat="50.53793" lon="3.40413">
        <ele>27.501898</ele>
        <time>2021-09-28T09:38:57Z</time>
      </trkpt>
      <trkpt lat="50.53794" lon="3.40428">
        <ele>27.505024</ele>
        <time>2021-09-28T09:38:59Z</time>
      </trkpt>
      <trkpt lat="50.53796" lon="3.40442">
        <ele>27.518366</ele>
        <time>2021-09-28T09:39:01Z</time>
      </trkpt>
      <trkpt lat="50.53796" lon="3.40456">
        <ele>27.546581</ele>
        <time>2021-09-28T09:39:03Z</time>
      </trkpt>
      <trkpt lat="50.53792" lon="3.40468">
        <ele>27.583294</ele>
        <time>2021-09-28T09:39:05Z</time>
      </trkpt>
      <trkpt lat="50.53786" lon="3.40476">
        <ele>27.604477</ele>
        <time>2021-09-28T09:39:07Z</time>
      </trkpt>
      <trkpt lat="50.53779" lon="3.40483">
        <ele>27.696243</ele>
        <time>2021-09-28T09:39:09Z</time>
      </trkpt>
      <trkpt lat="50.53772" lon="3.4049">
        <ele>27.753378</ele>
        <time>2021-09-28T09:39:11Z</time>
      </trkpt>
      <trkpt lat="50.53763" lon="3.40498">
        <ele>27.771442</ele>
        <time>2021-09-28T09:39:13Z</time>
      </trkpt>
      <trkpt lat="50.53754" lon="3.40505">
        <ele>27.812702</ele>
        <time>2021-09-28T09:39:15Z</time>
      </trkpt>
      <trkpt lat="50.53744" lon="3.4051">
        <ele>27.912716</ele>
        <time>2021-09-28T09:39:17Z</time>
      </trkpt>
      <trkpt lat="50.53734" lon="3.40514">
        <ele>27.939215</ele>
        <time>2021-09-28T09:39:19Z</time>
      </trkpt>
      <trkpt lat="50.53725" lon="3.40516">
        <ele>27.951557</ele>
        <time>2021-09-28T09:39:21Z</time>
      </trkpt>
      <trkpt lat="50.53716" lon="3.40519">
        <ele>28.501881</ele>
        <time>2021-09-28T09:39:23Z</time>
      </trkpt>
      <trkpt lat="50.53708" lon="3.40521">
        <ele>28.538563</ele>
        <time>2021-09-28T09:39:25Z</time>
      </trkpt>
      <trkpt lat="50.53698" lon="3.40522">
        <ele>28.560822</ele>
        <time>2021-09-28T09:39:27Z</time>
      </trkpt>
      <trkpt lat="50.53689" lon="3.40522">
        <ele>28.564947</ele>
        <time>2021-09-28T09:39:29Z</time>
      </trkpt>
      <trkpt lat="50.5368" lon="3.40523">
        <ele>28.645489</ele>
        <time>2021-09-28T09:39:31Z</time>
      </trkpt>
      <trkpt lat="50.53671" lon="3.40524">
        <ele>28.715754</ele>
        <time>2021-09-28T09:39:33Z</time>
      </trkpt>
      <trkpt lat="50.53661" lon="3.40525">
        <ele>28.775593</ele>
        <time>2021-09-28T09:39:35Z</time>
      </trkpt>
      <trkpt lat="50.53652" lon="3.40527">
        <ele>29.339911</ele>
        <time>2021-09-28T09:39:37Z</time>
      </trkpt>
      <trkpt lat="50.53642" lon="3.40528">
        <ele>29.41721</ele>
        <time>2021-09-28T09:39:39Z</time>
      </trkpt>
      <trkpt lat="50.53633" lon="3.4053">
        <ele>29.586243</ele>
        <time>2021-09-28T09:39:41Z</time>
      </trkpt>
      <trkpt lat="50.53624" lon="3.40533">
        <ele>29.69068</ele>
        <time>2021-09-28T09:39:43Z</time>
      </trkpt>
      <trkpt lat="50.53615" lon="3.40534">
        <ele>29.742264</ele>
        <time>2021-09-28T09:39:45Z</time>
      </trkpt>
      <trkpt lat="50.53606" lon="3.40534">
        <ele>29.8638</ele>
        <time>2021-09-28T09:39:47Z</time>
      </trkpt>
      <trkpt lat="50.53597" lon="3.40535">
        <ele>29.974445</ele>
        <time>2021-09-28T09:39:49Z</time>
      </trkpt>
      <trkpt lat="50.53589" lon="3.40536">
        <ele>30.083252</ele>
        <time>2021-09-28T09:39:51Z</time>
      </trkpt>
      <trkpt lat="50.5358" lon="3.40537">
        <ele>30.099756</ele>
        <time>2021-09-28T09:39:53Z</time>
      </trkpt>
      <trkpt lat="50.53571" lon="3.40538">
        <ele>30.253881</ele>
        <time>2021-09-28T09:39:55Z</time>
      </trkpt>
      <trkpt lat="50.53562" lon="3.4054">
        <ele>30.390778</ele>
        <time>2021-09-28T09:39:57Z</time>
      </trkpt>
      <trkpt lat="50.53553" lon="3.4054">
        <ele>30.535212</ele>
        <time>2021-09-28T09:39:59Z</time>
      </trkpt>
      <trkpt lat="50.53545" lon="3.40542">
        <ele>30.652256</ele>
        <time>2021-09-28T09:40:01Z</time>
      </trkpt>
      <trkpt lat="50.53536" lon="3.40544">
        <ele>30.685272</ele>
        <time>2021-09-28T09:40:03Z</time>
      </trkpt>
      <trkpt lat="50.53527" lon="3.40544">
        <ele>30.839838</ele>
        <time>2021-09-28T09:40:05Z</time>
      </trkpt>
      <trkpt lat="50.53518" lon="3.40544">
        <ele>30.957455</ele>
        <time>2021-09-28T09:40:07Z</time>
      </trkpt>
      <trkpt lat="50.53509" lon="3.40544">
        <ele>30.566074</ele>
        <time>2021-09-28T09:40:09Z</time>
      </trkpt>
      <trkpt lat="50.535" lon="3.40544">
        <ele>30.65806</ele>
        <time>2021-09-28T09:40:11Z</time>
      </trkpt>
      <trkpt lat="50.53491" lon="3.40544">
        <ele>30.85372</ele>
        <time>2021-09-28T09:40:13Z</time>
      </trkpt>
      <trkpt lat="50.53483" lon="3.40544">
        <ele>31.018579</ele>
        <time>2021-09-28T09:40:15Z</time>
      </trkpt>
      <trkpt lat="50.53474" lon="3.40543">
        <ele>31.175364</ele>
        <time>2021-09-28T09:40:17Z</time>
      </trkpt>
      <trkpt lat="50.53466" lon="3.40543">
        <ele>31.244345</ele>
        <time>2021-09-28T09:40:19Z</time>
      </trkpt>
      <trkpt lat="50.53458" lon="3.40542">
        <ele>31.393902</ele>
        <time>2021-09-28T09:40:21Z</time>
      </trkpt>
      <trkpt lat="50.53449" lon="3.40543">
        <ele>31.090149</ele>
        <time>2021-09-28T09:40:23Z</time>
      </trkpt>
      <trkpt lat="50.53442" lon="3.40546">
        <ele>31.202158</ele>
        <time>2021-09-28T09:40:25Z</time>
      </trkpt>
      <trkpt lat="50.53436" lon="3.40554">
        <ele>31.352942</ele>
        <time>2021-09-28T09:40:27Z</time>
      </trkpt>
      <trkpt lat="50.53432" lon="3.40566">
        <ele>31.418982</ele>
        <time>2021-09-28T09:40:29Z</time>
      </trkpt>
      <trkpt lat="50.5343" lon="3.4058">
        <ele>31.548557</ele>
        <time>2021-09-28T09:40:31Z</time>
      </trkpt>
      <trkpt lat="50.53429" lon="3.40594">
        <ele>31.684155</ele>
        <time>2021-09-28T09:40:33Z</time>
      </trkpt>
      <trkpt lat="50.53428" lon="3.4061">
        <ele>31.717365</ele>
        <time>2021-09-28T09:40:35Z</time>
      </trkpt>
      <trkpt lat="50.53427" lon="3.40625">
        <ele>31.857321</ele>
        <time>2021-09-28T09:40:37Z</time>
      </trkpt>
      <trkpt lat="50.53425" lon="3.40641">
        <ele>31.952982</ele>
        <time>2021-09-28T09:40:39Z</time>
      </trkpt>
      <trkpt lat="50.5342" lon="3.40656">
        <ele>32.002357</ele>
        <time>2021-09-28T09:40:41Z</time>
      </trkpt>
      <trkpt lat="50.53415" lon="3.40668">
        <ele>32.104588</ele>
        <time>2021-09-28T09:40:43Z</time>
      </trkpt>
      <trkpt lat="50.53407" lon="3.40678">
        <ele>32.186981</ele>
        <time>2021-09-28T09:40:45Z</time>
      </trkpt>
      <trkpt lat="50.53399" lon="3.40685">
        <ele>32.246555</ele>
        <time>2021-09-28T09:40:47Z</time>
      </trkpt>
      <trkpt lat="50.5339" lon="3.4069">
        <ele>32.284966</ele>
        <time>2021-09-28T09:40:49Z</time>
      </trkpt>
      <trkpt lat="50.53382" lon="3.40696">
        <ele>32.340858</ele>
        <time>2021-09-28T09:40:51Z</time>
      </trkpt>
      <trkpt lat="50.53374" lon="3.40703">
        <ele>32.456429</ele>
        <time>2021-09-28T09:40:53Z</time>
      </trkpt>
      <trkpt lat="50.53366" lon="3.40709">
        <ele>32.500683</ele>
        <time>2021-09-28T09:40:55Z</time>
      </trkpt>
      <trkpt lat="50.53358" lon="3.40715">
        <ele>32.527958</ele>
        <time>2021-09-28T09:40:57Z</time>
      </trkpt>
      <trkpt lat="50.5335" lon="3.40721">
        <ele>32.576527</ele>
        <time>2021-09-28T09:40:59Z</time>
      </trkpt>
      <trkpt lat="50.53342" lon="3.40727">
        <ele>32.61821</ele>
        <time>2021-09-28T09:41:01Z</time>
      </trkpt>
      <trkpt lat="50.53334" lon="3.40733">
        <ele>32.654331</ele>
        <time>2021-09-28T09:41:03Z</time>
      </trkpt>
      <trkpt lat="50.53326" lon="3.40739">
        <ele>32.700424</ele>
        <time>2021-09-28T09:41:05Z</time>
      </trkpt>
      <trkpt lat="50.53318" lon="3.40744">
        <ele>32.723217</ele>
        <time>2021-09-28T09:41:07Z</time>
      </trkpt>
      <trkpt lat="50.5331" lon="3.4075">
        <ele>32.766563</ele>
        <time>2021-09-28T09:41:09Z</time>
      </trkpt>
      <trkpt lat="50.53302" lon="3.40754">
        <ele>32.772388</ele>
        <time>2021-09-28T09:41:11Z</time>
      </trkpt>
      <trkpt lat="50.53294" lon="3.4076">
        <ele>32.821293</ele>
        <time>2021-09-28T09:41:13Z</time>
      </trkpt>
      <trkpt lat="50.53283" lon="3.40769">
        <ele>32.895153</ele>
        <time>2021-09-28T09:41:16Z</time>
      </trkpt>
      <trkpt lat="50.53275" lon="3.40775">
        <ele>32.983612</ele>
        <time>2021-09-28T09:41:18Z</time>
      </trkpt>
      <trkpt lat="50.53267" lon="3.40781">
        <ele>33.149368</ele>
        <time>2021-09-28T09:41:20Z</time>
      </trkpt>
      <trkpt lat="50.53259" lon="3.40787">
        <ele>33.194294</ele>
        <time>2021-09-28T09:41:22Z</time>
      </trkpt>
      <trkpt lat="50.53251" lon="3.40793">
        <ele>33.327744</ele>
        <time>2021-09-28T09:41:24Z</time>
      </trkpt>
      <trkpt lat="50.53243" lon="3.40799">
        <ele>33.517818</ele>
        <time>2021-09-28T09:41:26Z</time>
      </trkpt>
      <trkpt lat="50.53235" lon="3.40805">
        <ele>33.659531</ele>
        <time>2021-09-28T09:41:28Z</time>
      </trkpt>
      <trkpt lat="50.53227" lon="3.40811">
        <ele>33.823101</ele>
        <time>2021-09-28T09:41:30Z</time>
      </trkpt>
      <trkpt lat="50.53219" lon="3.40817">
        <ele>33.936638</ele>
        <time>2021-09-28T09:41:32Z</time>
      </trkpt>
      <trkpt lat="50.53212" lon="3.40822">
        <ele>34.11581</ele>
        <time>2021-09-28T09:41:34Z</time>
      </trkpt>
      <trkpt lat="50.53204" lon="3.40827">
        <ele>34.317955</ele>
        <time>2021-09-28T09:41:36Z</time>
      </trkpt>
      <trkpt lat="50.53196" lon="3.4083">
        <ele>34.423237</ele>
        <time>2021-09-28T09:41:38Z</time>
      </trkpt>
      <trkpt lat="50.53187" lon="3.40831">
        <ele>34.621422</ele>
        <time>2021-09-28T09:41:40Z</time>
      </trkpt>
      <trkpt lat="50.53178" lon="3.40831">
        <ele>34.792793</ele>
        <time>2021-09-28T09:41:42Z</time>
      </trkpt>
      <trkpt lat="50.5317" lon="3.40831">
        <ele>34.962643</ele>
        <time>2021-09-28T09:41:44Z</time>
      </trkpt>
      <trkpt lat="50.53162" lon="3.40831">
        <ele>35.13504</ele>
        <time>2021-09-28T09:41:46Z</time>
      </trkpt>
      <trkpt lat="50.53153" lon="3.40831">
        <ele>35.236015</ele>
        <time>2021-09-28T09:41:48Z</time>
      </trkpt>
      <trkpt lat="50.53145" lon="3.40832">
        <ele>35.428658</ele>
        <time>2021-09-28T09:41:50Z</time>
      </trkpt>
      <trkpt lat="50.53137" lon="3.40832">
        <ele>35.606209</ele>
        <time>2021-09-28T09:41:52Z</time>
      </trkpt>
      <trkpt lat="50.53129" lon="3.40832">
        <ele>35.798229</ele>
        <time>2021-09-28T09:41:54Z</time>
      </trkpt>
      <trkpt lat="50.53121" lon="3.40832">
        <ele>36.025703</ele>
        <time>2021-09-28T09:41:56Z</time>
      </trkpt>
      <trkpt lat="50.53112" lon="3.40831">
        <ele>36.129887</ele>
        <time>2021-09-28T09:41:58Z</time>
      </trkpt>
      <trkpt lat="50.53104" lon="3.40832">
        <ele>36.305511</ele>
        <time>2021-09-28T09:42:00Z</time>
      </trkpt>
      <trkpt lat="50.53096" lon="3.40832">
        <ele>36.507839</ele>
        <time>2021-09-28T09:42:02Z</time>
      </trkpt>
      <trkpt lat="50.53087" lon="3.40832">
        <ele>36.647682</ele>
        <time>2021-09-28T09:42:04Z</time>
      </trkpt>
      <trkpt lat="50.53077" lon="3.40832">
        <ele>36.711693</ele>
        <time>2021-09-28T09:42:06Z</time>
      </trkpt>
      <trkpt lat="50.53068" lon="3.40832">
        <ele>36.958294</ele>
        <time>2021-09-28T09:42:08Z</time>
      </trkpt>
      <trkpt lat="50.53059" lon="3.40835">
        <ele>37.16893</ele>
        <time>2021-09-28T09:42:10Z</time>
      </trkpt>
      <trkpt lat="50.5305" lon="3.4084">
        <ele>37.361916</ele>
        <time>2021-09-28T09:42:12Z</time>
      </trkpt>
      <trkpt lat="50.53041" lon="3.40848">
        <ele>37.512691</ele>
        <time>2021-09-28T09:42:14Z</time>
      </trkpt>
      <trkpt lat="50.53033" lon="3.40858">
        <ele>37.737118</ele>
        <time>2021-09-28T09:42:16Z</time>
      </trkpt>
      <trkpt lat="50.53025" lon="3.40868">
        <ele>37.938831</ele>
        <time>2021-09-28T09:42:18Z</time>
      </trkpt>
      <trkpt lat="50.53017" lon="3.40878">
        <ele>38.131863</ele>
        <time>2021-09-28T09:42:20Z</time>
      </trkpt>
      <trkpt lat="50.53008" lon="3.40888">
        <ele>38.303349</ele>
        <time>2021-09-28T09:42:22Z</time>
      </trkpt>
      <trkpt lat="50.53" lon="3.40898">
        <ele>38.471966</ele>
        <time>2021-09-28T09:42:24Z</time>
      </trkpt>
      <trkpt lat="50.52992" lon="3.40908">
        <ele>38.666058</ele>
        <time>2021-09-28T09:42:26Z</time>
      </trkpt>
      <trkpt lat="50.52984" lon="3.40917">
        <ele>38.877991</ele>
        <time>2021-09-28T09:42:28Z</time>
      </trkpt>
      <trkpt lat="50.52976" lon="3.40927">
        <ele>38.972481</ele>
        <time>2021-09-28T09:42:30Z</time>
      </trkpt>
      <trkpt lat="50.52969" lon="3.40937">
        <ele>39.158043</ele>
        <time>2021-09-28T09:42:32Z</time>
      </trkpt>
      <trkpt lat="50.52961" lon="3.40946">
        <ele>39.323174</ele>
        <time>2021-09-28T09:42:34Z</time>
      </trkpt>
      <trkpt lat="50.52953" lon="3.40955">
        <ele>39.490608</ele>
        <time>2021-09-28T09:42:36Z</time>
      </trkpt>
      <trkpt lat="50.52945" lon="3.40965">
        <ele>39.615379</ele>
        <time>2021-09-28T09:42:38Z</time>
      </trkpt>
      <trkpt lat="50.52937" lon="3.40975">
        <ele>39.751926</ele>
        <time>2021-09-28T09:42:40Z</time>
      </trkpt>
      <trkpt lat="50.52929" lon="3.40985">
        <ele>39.884708</ele>
        <time>2021-09-28T09:42:42Z</time>
      </trkpt>
      <trkpt lat="50.52921" lon="3.40994">
        <ele>39.985909</ele>
        <time>2021-09-28T09:42:44Z</time>
      </trkpt>
      <trkpt lat="50.52913" lon="3.41004">
        <ele>40.135193</ele>
        <time>2021-09-28T09:42:46Z</time>
      </trkpt>
      <trkpt lat="50.52905" lon="3.41014">
        <ele>40.246475</ele>
        <time>2021-09-28T09:42:48Z</time>
      </trkpt>
      <trkpt lat="50.52897" lon="3.41024">
        <ele>40.273777</ele>
        <time>2021-09-28T09:42:50Z</time>
      </trkpt>
      <trkpt lat="50.5289" lon="3.41033">
        <ele>40.30064</ele>
        <time>2021-09-28T09:42:52Z</time>
      </trkpt>
      <trkpt lat="50.52882" lon="3.41042">
        <ele>40.320004</ele>
        <time>2021-09-28T09:42:54Z</time>
      </trkpt>
      <trkpt lat="50.52875" lon="3.41051">
        <ele>40.293545</ele>
        <time>2021-09-28T09:42:56Z</time>
      </trkpt>
      <trkpt lat="50.52867" lon="3.41061">
        <ele>40.314693</ele>
        <time>2021-09-28T09:42:58Z</time>
      </trkpt>
      <trkpt lat="50.52859" lon="3.41071">
        <ele>40.33065</ele>
        <time>2021-09-28T09:43:00Z</time>
      </trkpt>
      <trkpt lat="50.52851" lon="3.41081">
        <ele>40.353809</ele>
        <time>2021-09-28T09:43:02Z</time>
      </trkpt>
      <trkpt lat="50.52844" lon="3.4109">
        <ele>40.418427</ele>
        <time>2021-09-28T09:43:04Z</time>
      </trkpt>
      <trkpt lat="50.52837" lon="3.41099">
        <ele>40.471836</ele>
        <time>2021-09-28T09:43:06Z</time>
      </trkpt>
      <trkpt lat="50.52829" lon="3.41108">
        <ele>40.525963</ele>
        <time>2021-09-28T09:43:08Z</time>
      </trkpt>
      <trkpt lat="50.52822" lon="3.41117">
        <ele>40.558437</ele>
        <time>2021-09-28T09:43:10Z</time>
      </trkpt>
      <trkpt lat="50.52815" lon="3.41125">
        <ele>40.593235</ele>
        <time>2021-09-28T09:43:12Z</time>
      </trkpt>
      <trkpt lat="50.52808" lon="3.41134">
        <ele>40.616428</ele>
        <time>2021-09-28T09:43:14Z</time>
      </trkpt>
      <trkpt lat="50.52801" lon="3.41142">
        <ele>40.671497</ele>
        <time>2021-09-28T09:43:16Z</time>
      </trkpt>
      <trkpt lat="50.52794" lon="3.41151">
        <ele>40.709324</ele>
        <time>2021-09-28T09:43:18Z</time>
      </trkpt>
      <trkpt lat="50.52787" lon="3.4116">
        <ele>40.770439</ele>
        <time>2021-09-28T09:43:20Z</time>
      </trkpt>
      <trkpt lat="50.5278" lon="3.41169">
        <ele>40.821815</ele>
        <time>2021-09-28T09:43:22Z</time>
      </trkpt>
      <trkpt lat="50.52773" lon="3.41177">
        <ele>40.869316</ele>
        <time>2021-09-28T09:43:24Z</time>
      </trkpt>
      <trkpt lat="50.52766" lon="3.41186">
        <ele>40.95536</ele>
        <time>2021-09-28T09:43:26Z</time>
      </trkpt>
      <trkpt lat="50.52759" lon="3.41194">
        <ele>40.978504</ele>
        <time>2021-09-28T09:43:28Z</time>
      </trkpt>
      <trkpt lat="50.52752" lon="3.41203">
        <ele>41.006229</ele>
        <time>2021-09-28T09:43:30Z</time>
      </trkpt>
      <trkpt lat="50.52745" lon="3.41212">
        <ele>41.053928</ele>
        <time>2021-09-28T09:43:32Z</time>
      </trkpt>
      <trkpt lat="50.52737" lon="3.41221">
        <ele>41.091534</ele>
        <time>2021-09-28T09:43:34Z</time>
      </trkpt>
      <trkpt lat="50.5273" lon="3.41229">
        <ele>41.157631</ele>
        <time>2021-09-28T09:43:36Z</time>
      </trkpt>
      <trkpt lat="50.52722" lon="3.41238">
        <ele>41.177895</ele>
        <time>2021-09-28T09:43:38Z</time>
      </trkpt>
      <trkpt lat="50.52715" lon="3.41247">
        <ele>41.245918</ele>
        <time>2021-09-28T09:43:40Z</time>
      </trkpt>
      <trkpt lat="50.52708" lon="3.41256">
        <ele>41.262444</ele>
        <time>2021-09-28T09:43:42Z</time>
      </trkpt>
      <trkpt lat="50.52701" lon="3.41264">
        <ele>41.270561</ele>
        <time>2021-09-28T09:43:44Z</time>
      </trkpt>
      <trkpt lat="50.52694" lon="3.41271">
        <ele>41.265766</ele>
        <time>2021-09-28T09:43:46Z</time>
      </trkpt>
      <trkpt lat="50.52687" lon="3.4128">
        <ele>41.246655</ele>
        <time>2021-09-28T09:43:48Z</time>
      </trkpt>
      <trkpt lat="50.52679" lon="3.41287">
        <ele>41.253857</ele>
        <time>2021-09-28T09:43:50Z</time>
      </trkpt>
      <trkpt lat="50.52672" lon="3.41295">
        <ele>41.247917</ele>
        <time>2021-09-28T09:43:52Z</time>
      </trkpt>
      <trkpt lat="50.52665" lon="3.41302">
        <ele>41.240589</ele>
        <time>2021-09-28T09:43:54Z</time>
      </trkpt>
      <trkpt lat="50.52658" lon="3.41308">
        <ele>41.250496</ele>
        <time>2021-09-28T09:43:56Z</time>
      </trkpt>
      <trkpt lat="50.52652" lon="3.41312">
        <ele>41.248024</ele>
        <time>2021-09-28T09:43:58Z</time>
      </trkpt>
      <trkpt lat="50.52647" lon="3.41317">
        <ele>41.241623</ele>
        <time>2021-09-28T09:44:00Z</time>
      </trkpt>
      <trkpt lat="50.52642" lon="3.41321">
        <ele>41.22683</ele>
        <time>2021-09-28T09:44:02Z</time>
      </trkpt>
      <trkpt lat="50.52637" lon="3.41325">
        <ele>41.282646</ele>
        <time>2021-09-28T09:44:04Z</time>
      </trkpt>
      <trkpt lat="50.52631" lon="3.41327">
        <ele>41.230633</ele>
        <time>2021-09-28T09:44:06Z</time>
      </trkpt>
      <trkpt lat="50.52626" lon="3.41329">
        <ele>41.103283</ele>
        <time>2021-09-28T09:44:08Z</time>
      </trkpt>
      <trkpt lat="50.5262" lon="3.41333">
        <ele>41.082203</ele>
        <time>2021-09-28T09:44:10Z</time>
      </trkpt>
      <trkpt lat="50.52613" lon="3.41337">
        <ele>41.07394</ele>
        <time>2021-09-28T09:44:12Z</time>
      </trkpt>
      <trkpt lat="50.52607" lon="3.41341">
        <ele>41.071415</ele>
        <time>2021-09-28T09:44:14Z</time>
      </trkpt>
      <trkpt lat="50.52599" lon="3.41344">
        <ele>41.074013</ele>
        <time>2021-09-28T09:44:16Z</time>
      </trkpt>
      <trkpt lat="50.52591" lon="3.41347">
        <ele>41.103493</ele>
        <time>2021-09-28T09:44:18Z</time>
      </trkpt>
      <trkpt lat="50.52583" lon="3.4135">
        <ele>41.103947</ele>
        <time>2021-09-28T09:44:20Z</time>
      </trkpt>
      <trkpt lat="50.52574" lon="3.41353">
        <ele>41.12254</ele>
        <time>2021-09-28T09:44:22Z</time>
      </trkpt>
      <trkpt lat="50.52565" lon="3.41355">
        <ele>41.136131</ele>
        <time>2021-09-28T09:44:24Z</time>
      </trkpt>
      <trkpt lat="50.52556" lon="3.41358">
        <ele>41.182377</ele>
        <time>2021-09-28T09:44:26Z</time>
      </trkpt>
      <trkpt lat="50.52547" lon="3.4136">
        <ele>41.209038</ele>
        <time>2021-09-28T09:44:28Z</time>
      </trkpt>
      <trkpt lat="50.52538" lon="3.41363">
        <ele>41.253693</ele>
        <time>2021-09-28T09:44:30Z</time>
      </trkpt>
      <trkpt lat="50.52528" lon="3.41365">
        <ele>41.294483</ele>
        <time>2021-09-28T09:44:32Z</time>
      </trkpt>
      <trkpt lat="50.52519" lon="3.41368">
        <ele>41.333351</ele>
        <time>2021-09-28T09:44:34Z</time>
      </trkpt>
      <trkpt lat="50.52509" lon="3.4137">
        <ele>41.357479</ele>
        <time>2021-09-28T09:44:36Z</time>
      </trkpt>
      <trkpt lat="50.52499" lon="3.41373">
        <ele>41.42215</ele>
        <time>2021-09-28T09:44:38Z</time>
      </trkpt>
      <trkpt lat="50.5249" lon="3.41376">
        <ele>41.467609</ele>
        <time>2021-09-28T09:44:40Z</time>
      </trkpt>
      <trkpt lat="50.5248" lon="3.41378">
        <ele>41.513851</ele>
        <time>2021-09-28T09:44:42Z</time>
      </trkpt>
      <trkpt lat="50.5247" lon="3.41381">
        <ele>41.537075</ele>
        <time>2021-09-28T09:44:44Z</time>
      </trkpt>
      <trkpt lat="50.5246" lon="3.41384">
        <ele>41.531662</ele>
        <time>2021-09-28T09:44:46Z</time>
      </trkpt>
      <trkpt lat="50.5245" lon="3.41386">
        <ele>41.575047</ele>
        <time>2021-09-28T09:44:48Z</time>
      </trkpt>
      <trkpt lat="50.5244" lon="3.41389">
        <ele>41.585476</ele>
        <time>2021-09-28T09:44:50Z</time>
      </trkpt>
      <trkpt lat="50.5243" lon="3.41391">
        <ele>41.718197</ele>
        <time>2021-09-28T09:44:52Z</time>
      </trkpt>
      <trkpt lat="50.5242" lon="3.41392">
        <ele>41.769836</ele>
        <time>2021-09-28T09:44:54Z</time>
      </trkpt>
      <trkpt lat="50.52411" lon="3.41394">
        <ele>41.796692</ele>
        <time>2021-09-28T09:44:56Z</time>
      </trkpt>
      <trkpt lat="50.52401" lon="3.41394">
        <ele>41.862404</ele>
        <time>2021-09-28T09:44:58Z</time>
      </trkpt>
      <trkpt lat="50.52391" lon="3.41395">
        <ele>41.871582</ele>
        <time>2021-09-28T09:45:00Z</time>
      </trkpt>
      <trkpt lat="50.52382" lon="3.41395">
        <ele>41.890175</ele>
        <time>2021-09-28T09:45:02Z</time>
      </trkpt>
      <trkpt lat="50.52371" lon="3.41395">
        <ele>41.895405</ele>
        <time>2021-09-28T09:45:04Z</time>
      </trkpt>
      <trkpt lat="50.52361" lon="3.41394">
        <ele>41.862419</ele>
        <time>2021-09-28T09:45:06Z</time>
      </trkpt>
      <trkpt lat="50.5235" lon="3.41392">
        <ele>41.83952</ele>
        <time>2021-09-28T09:45:08Z</time>
      </trkpt>
      <trkpt lat="50.52339" lon="3.4139">
        <ele>41.842625</ele>
        <time>2021-09-28T09:45:10Z</time>
      </trkpt>
      <trkpt lat="50.52328" lon="3.41388">
        <ele>41.828136</ele>
        <time>2021-09-28T09:45:12Z</time>
      </trkpt>
      <trkpt lat="50.52317" lon="3.41386">
        <ele>41.783062</ele>
        <time>2021-09-28T09:45:14Z</time>
      </trkpt>
      <trkpt lat="50.52306" lon="3.41383">
        <ele>41.717571</ele>
        <time>2021-09-28T09:45:16Z</time>
      </trkpt>
      <trkpt lat="50.52295" lon="3.41381">
        <ele>41.673321</ele>
        <time>2021-09-28T09:45:18Z</time>
      </trkpt>
      <trkpt lat="50.52284" lon="3.41379">
        <ele>41.61095</ele>
        <time>2021-09-28T09:45:20Z</time>
      </trkpt>
      <trkpt lat="50.52273" lon="3.41377">
        <ele>41.53989</ele>
        <time>2021-09-28T09:45:22Z</time>
      </trkpt>
      <trkpt lat="50.52262" lon="3.41374">
        <ele>41.470665</ele>
        <time>2021-09-28T09:45:24Z</time>
      </trkpt>
      <trkpt lat="50.52251" lon="3.41372">
        <ele>41.326656</ele>
        <time>2021-09-28T09:45:26Z</time>
      </trkpt>
      <trkpt lat="50.52239" lon="3.4137">
        <ele>41.202419</ele>
        <time>2021-09-28T09:45:28Z</time>
      </trkpt>
      <trkpt lat="50.52227" lon="3.41368">
        <ele>41.090427</ele>
        <time>2021-09-28T09:45:30Z</time>
      </trkpt>
      <trkpt lat="50.52216" lon="3.41365">
        <ele>41.02639</ele>
        <time>2021-09-28T09:45:32Z</time>
      </trkpt>
      <trkpt lat="50.52205" lon="3.41362">
        <ele>40.876736</ele>
        <time>2021-09-28T09:45:34Z</time>
      </trkpt>
      <trkpt lat="50.52193" lon="3.4136">
        <ele>40.695999</ele>
        <time>2021-09-28T09:45:36Z</time>
      </trkpt>
      <trkpt lat="50.52182" lon="3.41358">
        <ele>40.541142</ele>
        <time>2021-09-28T09:45:38Z</time>
      </trkpt>
      <trkpt lat="50.52171" lon="3.41356">
        <ele>40.390205</ele>
        <time>2021-09-28T09:45:40Z</time>
      </trkpt>
      <trkpt lat="50.5216" lon="3.41354">
        <ele>40.304234</ele>
        <time>2021-09-28T09:45:42Z</time>
      </trkpt>
      <trkpt lat="50.52148" lon="3.41352">
        <ele>40.155617</ele>
        <time>2021-09-28T09:45:44Z</time>
      </trkpt>
      <trkpt lat="50.52138" lon="3.41349">
        <ele>39.989445</ele>
        <time>2021-09-28T09:45:46Z</time>
      </trkpt>
      <trkpt lat="50.52127" lon="3.41347">
        <ele>39.816849</ele>
        <time>2021-09-28T09:45:48Z</time>
      </trkpt>
      <trkpt lat="50.52116" lon="3.41345">
        <ele>39.700047</ele>
        <time>2021-09-28T09:45:50Z</time>
      </trkpt>
      <trkpt lat="50.52105" lon="3.41343">
        <ele>39.512272</ele>
        <time>2021-09-28T09:45:52Z</time>
      </trkpt>
      <trkpt lat="50.52094" lon="3.41341">
        <ele>39.333626</ele>
        <time>2021-09-28T09:45:54Z</time>
      </trkpt>
      <trkpt lat="50.52083" lon="3.41338">
        <ele>39.186298</ele>
        <time>2021-09-28T09:45:56Z</time>
      </trkpt>
      <trkpt lat="50.52072" lon="3.41336">
        <ele>39.104046</ele>
        <time>2021-09-28T09:45:58Z</time>
      </trkpt>
      <trkpt lat="50.52062" lon="3.41333">
        <ele>38.967739</ele>
        <time>2021-09-28T09:46:00Z</time>
      </trkpt>
      <trkpt lat="50.52051" lon="3.41331">
        <ele>38.819313</ele>
        <time>2021-09-28T09:46:02Z</time>
      </trkpt>
      <trkpt lat="50.5204" lon="3.41329">
        <ele>38.647789</ele>
        <time>2021-09-28T09:46:04Z</time>
      </trkpt>
      <trkpt lat="50.52029" lon="3.41327">
        <ele>38.52158</ele>
        <time>2021-09-28T09:46:06Z</time>
      </trkpt>
      <trkpt lat="50.52019" lon="3.41325">
        <ele>38.446781</ele>
        <time>2021-09-28T09:46:08Z</time>
      </trkpt>
      <trkpt lat="50.52008" lon="3.41323">
        <ele>38.354553</ele>
        <time>2021-09-28T09:46:10Z</time>
      </trkpt>
      <trkpt lat="50.51997" lon="3.41321">
        <ele>38.245098</ele>
        <time>2021-09-28T09:46:12Z</time>
      </trkpt>
      <trkpt lat="50.51986" lon="3.4132">
        <ele>38.145969</ele>
        <time>2021-09-28T09:46:14Z</time>
      </trkpt>
      <trkpt lat="50.51975" lon="3.41319">
        <ele>38.01672</ele>
        <time>2021-09-28T09:46:16Z</time>
      </trkpt>
      <trkpt lat="50.51965" lon="3.41318">
        <ele>37.932701</ele>
        <time>2021-09-28T09:46:18Z</time>
      </trkpt>
      <trkpt lat="50.51954" lon="3.41317">
        <ele>37.874882</ele>
        <time>2021-09-28T09:46:20Z</time>
      </trkpt>
      <trkpt lat="50.51944" lon="3.41316">
        <ele>37.757828</ele>
        <time>2021-09-28T09:46:22Z</time>
      </trkpt>
      <trkpt lat="50.51933" lon="3.41315">
        <ele>37.702221</ele>
        <time>2021-09-28T09:46:24Z</time>
      </trkpt>
      <trkpt lat="50.51922" lon="3.41314">
        <ele>37.532894</ele>
        <time>2021-09-28T09:46:26Z</time>
      </trkpt>
      <trkpt lat="50.5191" lon="3.41315">
        <ele>37.403465</ele>
        <time>2021-09-28T09:46:28Z</time>
      </trkpt>
      <trkpt lat="50.51899" lon="3.41315">
        <ele>37.290184</ele>
        <time>2021-09-28T09:46:30Z</time>
      </trkpt>
      <trkpt lat="50.51888" lon="3.41315">
        <ele>37.155251</ele>
        <time>2021-09-28T09:46:32Z</time>
      </trkpt>
      <trkpt lat="50.51877" lon="3.41315">
        <ele>37.026272</ele>
        <time>2021-09-28T09:46:34Z</time>
      </trkpt>
      <trkpt lat="50.51867" lon="3.41316">
        <ele>36.99699</ele>
        <time>2021-09-28T09:46:36Z</time>
      </trkpt>
      <trkpt lat="50.51856" lon="3.41316">
        <ele>36.877228</ele>
        <time>2021-09-28T09:46:38Z</time>
      </trkpt>
      <trkpt lat="50.51846" lon="3.41317">
        <ele>36.716869</ele>
        <time>2021-09-28T09:46:40Z</time>
      </trkpt>
      <trkpt lat="50.51835" lon="3.41318">
        <ele>36.545132</ele>
        <time>2021-09-28T09:46:42Z</time>
      </trkpt>
      <trkpt lat="50.51825" lon="3.4132">
        <ele>36.387783</ele>
        <time>2021-09-28T09:46:44Z</time>
      </trkpt>
      <trkpt lat="50.51814" lon="3.41323">
        <ele>36.235107</ele>
        <time>2021-09-28T09:46:46Z</time>
      </trkpt>
      <trkpt lat="50.51804" lon="3.41325">
        <ele>36.13393</ele>
        <time>2021-09-28T09:46:48Z</time>
      </trkpt>
      <trkpt lat="50.51793" lon="3.41328">
        <ele>36.008377</ele>
        <time>2021-09-28T09:46:50Z</time>
      </trkpt>
      <trkpt lat="50.51782" lon="3.4133">
        <ele>35.876747</ele>
        <time>2021-09-28T09:46:52Z</time>
      </trkpt>
      <trkpt lat="50.51771" lon="3.41332">
        <ele>35.758236</ele>
        <time>2021-09-28T09:46:54Z</time>
      </trkpt>
      <trkpt lat="50.5176" lon="3.41335">
        <ele>35.628159</ele>
        <time>2021-09-28T09:46:56Z</time>
      </trkpt>
      <trkpt lat="50.51749" lon="3.41337">
        <ele>35.517662</ele>
        <time>2021-09-28T09:46:58Z</time>
      </trkpt>
      <trkpt lat="50.51739" lon="3.4134">
        <ele>35.434433</ele>
        <time>2021-09-28T09:47:00Z</time>
      </trkpt>
      <trkpt lat="50.51728" lon="3.41342">
        <ele>35.347721</ele>
        <time>2021-09-28T09:47:02Z</time>
      </trkpt>
      <trkpt lat="50.51718" lon="3.41344">
        <ele>35.247223</ele>
        <time>2021-09-28T09:47:04Z</time>
      </trkpt>
      <trkpt lat="50.51707" lon="3.41347">
        <ele>35.123341</ele>
        <time>2021-09-28T09:47:06Z</time>
      </trkpt>
      <trkpt lat="50.51696" lon="3.41349">
        <ele>35.070908</ele>
        <time>2021-09-28T09:47:08Z</time>
      </trkpt>
      <trkpt lat="50.51685" lon="3.41351">
        <ele>35.011909</ele>
        <time>2021-09-28T09:47:10Z</time>
      </trkpt>
      <trkpt lat="50.51675" lon="3.41354">
        <ele>34.929123</ele>
        <time>2021-09-28T09:47:12Z</time>
      </trkpt>
      <trkpt lat="50.51664" lon="3.41356">
        <ele>34.869251</ele>
        <time>2021-09-28T09:47:14Z</time>
      </trkpt>
      <trkpt lat="50.51653" lon="3.41358">
        <ele>34.818592</ele>
        <time>2021-09-28T09:47:16Z</time>
      </trkpt>
      <trkpt lat="50.51643" lon="3.41361">
        <ele>34.761803</ele>
        <time>2021-09-28T09:47:18Z</time>
      </trkpt>
      <trkpt lat="50.51632" lon="3.41363">
        <ele>34.734962</ele>
        <time>2021-09-28T09:47:20Z</time>
      </trkpt>
      <trkpt lat="50.51622" lon="3.41365">
        <ele>34.746925</ele>
        <time>2021-09-28T09:47:22Z</time>
      </trkpt>
      <trkpt lat="50.51612" lon="3.41368">
        <ele>34.772667</ele>
        <time>2021-09-28T09:47:24Z</time>
      </trkpt>
      <trkpt lat="50.51603" lon="3.4137">
        <ele>34.765297</ele>
        <time>2021-09-28T09:47:26Z</time>
      </trkpt>
      <trkpt lat="50.51592" lon="3.41372">
        <ele>34.796265</ele>
        <time>2021-09-28T09:47:28Z</time>
      </trkpt>
      <trkpt lat="50.51582" lon="3.41374">
        <ele>34.797112</ele>
        <time>2021-09-28T09:47:30Z</time>
      </trkpt>
      <trkpt lat="50.51571" lon="3.41377">
        <ele>34.825813</ele>
        <time>2021-09-28T09:47:32Z</time>
      </trkpt>
      <trkpt lat="50.51561" lon="3.41379">
        <ele>34.83905</ele>
        <time>2021-09-28T09:47:34Z</time>
      </trkpt>
      <trkpt lat="50.51551" lon="3.41381">
        <ele>34.851879</ele>
        <time>2021-09-28T09:47:36Z</time>
      </trkpt>
      <trkpt lat="50.51541" lon="3.41384">
        <ele>34.877197</ele>
        <time>2021-09-28T09:47:38Z</time>
      </trkpt>
      <trkpt lat="50.51532" lon="3.41387">
        <ele>34.948723</ele>
        <time>2021-09-28T09:47:40Z</time>
      </trkpt>
      <trkpt lat="50.51524" lon="3.41389">
        <ele>34.985882</ele>
        <time>2021-09-28T09:47:42Z</time>
      </trkpt>
      <trkpt lat="50.51515" lon="3.4139">
        <ele>34.967972</ele>
        <time>2021-09-28T09:47:44Z</time>
      </trkpt>
      <trkpt lat="50.51505" lon="3.41391">
        <ele>34.972099</ele>
        <time>2021-09-28T09:47:46Z</time>
      </trkpt>
      <trkpt lat="50.51495" lon="3.41391">
        <ele>35.012405</ele>
        <time>2021-09-28T09:47:48Z</time>
      </trkpt>
      <trkpt lat="50.51486" lon="3.4139">
        <ele>35.025234</ele>
        <time>2021-09-28T09:47:50Z</time>
      </trkpt>
      <trkpt lat="50.51477" lon="3.41387">
        <ele>35.067253</ele>
        <time>2021-09-28T09:47:52Z</time>
      </trkpt>
      <trkpt lat="50.51469" lon="3.41386">
        <ele>35.108559</ele>
        <time>2021-09-28T09:47:54Z</time>
      </trkpt>
      <trkpt lat="50.51462" lon="3.41385">
        <ele>35.127636</ele>
        <time>2021-09-28T09:47:56Z</time>
      </trkpt>
      <trkpt lat="50.51454" lon="3.41383">
        <ele>35.113182</ele>
        <time>2021-09-28T09:47:58Z</time>
      </trkpt>
      <trkpt lat="50.51445" lon="3.41381">
        <ele>35.136246</ele>
        <time>2021-09-28T09:48:00Z</time>
      </trkpt>
      <trkpt lat="50.51436" lon="3.41379">
        <ele>35.155846</ele>
        <time>2021-09-28T09:48:02Z</time>
      </trkpt>
      <trkpt lat="50.51427" lon="3.41376">
        <ele>35.136127</ele>
        <time>2021-09-28T09:48:04Z</time>
      </trkpt>
      <trkpt lat="50.51421" lon="3.41374">
        <ele>35.077354</ele>
        <time>2021-09-28T09:48:06Z</time>
      </trkpt>
      <trkpt lat="50.51415" lon="3.41372">
        <ele>35.043381</ele>
        <time>2021-09-28T09:48:08Z</time>
      </trkpt>
      <trkpt lat="50.51408" lon="3.41373">
        <ele>34.99778</ele>
        <time>2021-09-28T09:48:10Z</time>
      </trkpt>
      <trkpt lat="50.51401" lon="3.41378">
        <ele>34.959892</ele>
        <time>2021-09-28T09:48:12Z</time>
      </trkpt>
      <trkpt lat="50.51394" lon="3.41386">
        <ele>34.917683</ele>
        <time>2021-09-28T09:48:14Z</time>
      </trkpt>
      <trkpt lat="50.51386" lon="3.41393">
        <ele>34.874329</ele>
        <time>2021-09-28T09:48:16Z</time>
      </trkpt>
      <trkpt lat="50.51377" lon="3.41401">
        <ele>34.849365</ele>
        <time>2021-09-28T09:48:18Z</time>
      </trkpt>
      <trkpt lat="50.51368" lon="3.41409">
        <ele>34.787865</ele>
        <time>2021-09-28T09:48:20Z</time>
      </trkpt>
      <trkpt lat="50.5136" lon="3.41417">
        <ele>34.667732</ele>
        <time>2021-09-28T09:48:22Z</time>
      </trkpt>
      <trkpt lat="50.51353" lon="3.41426">
        <ele>34.644604</ele>
        <time>2021-09-28T09:48:24Z</time>
      </trkpt>
      <trkpt lat="50.51346" lon="3.41434">
        <ele>34.632217</ele>
        <time>2021-09-28T09:48:26Z</time>
      </trkpt>
      <trkpt lat="50.51338" lon="3.41442">
        <ele>34.55727</ele>
        <time>2021-09-28T09:48:28Z</time>
      </trkpt>
      <trkpt lat="50.51331" lon="3.41449">
        <ele>34.495979</ele>
        <time>2021-09-28T09:48:30Z</time>
      </trkpt>
      <trkpt lat="50.51323" lon="3.41456">
        <ele>34.374207</ele>
        <time>2021-09-28T09:48:32Z</time>
      </trkpt>
      <trkpt lat="50.51317" lon="3.41463">
        <ele>34.269169</ele>
        <time>2021-09-28T09:48:34Z</time>
      </trkpt>
      <trkpt lat="50.51311" lon="3.41471">
        <ele>34.095058</ele>
        <time>2021-09-28T09:48:37Z</time>
      </trkpt>
      <trkpt lat="50.51309" lon="3.41474">
        <ele>33.955696</ele>
        <time>2021-09-28T09:48:39Z</time>
      </trkpt>
      <trkpt lat="50.51308" lon="3.41478">
        <ele>33.932991</ele>
        <time>2021-09-28T09:48:41Z</time>
      </trkpt>
      <trkpt lat="50.51308" lon="3.41483">
        <ele>33.791214</ele>
        <time>2021-09-28T09:48:43Z</time>
      </trkpt>
      <trkpt lat="50.51309" lon="3.41487">
        <ele>33.618301</ele>
        <time>2021-09-28T09:48:45Z</time>
      </trkpt>
      <trkpt lat="50.5131" lon="3.41491">
        <ele>33.493923</ele>
        <time>2021-09-28T09:48:47Z</time>
      </trkpt>
      <trkpt lat="50.51312" lon="3.41494">
        <ele>31.253992</ele>
        <time>2021-09-28T09:58:29Z</time>
      </trkpt>
      <trkpt lat="50.51309" lon="3.41497">
        <ele>31.238873</ele>
        <time>2021-09-28T09:58:31Z</time>
      </trkpt>
      <trkpt lat="50.51305" lon="3.41503">
        <ele>31.211102</ele>
        <time>2021-09-28T09:58:33Z</time>
      </trkpt>
      <trkpt lat="50.51307" lon="3.41517">
        <ele>31.716766</ele>
        <time>2021-09-28T09:58:53Z</time>
      </trkpt>
      <trkpt lat="50.51314" lon="3.41533">
        <ele>31.844385</ele>
        <time>2021-09-28T09:58:55Z</time>
      </trkpt>
      <trkpt lat="50.51318" lon="3.41543">
        <ele>32.004387</ele>
        <time>2021-09-28T09:58:57Z</time>
      </trkpt>
      <trkpt lat="50.51324" lon="3.41552">
        <ele>32.10759</ele>
        <time>2021-09-28T09:58:59Z</time>
      </trkpt>
      <trkpt lat="50.51328" lon="3.41562">
        <ele>32.299736</ele>
        <time>2021-09-28T09:59:01Z</time>
      </trkpt>
      <trkpt lat="50.51333" lon="3.41572">
        <ele>32.507484</ele>
        <time>2021-09-28T09:59:03Z</time>
      </trkpt>
      <trkpt lat="50.51336" lon="3.41581">
        <ele>32.591846</ele>
        <time>2021-09-28T09:59:05Z</time>
      </trkpt>
      <trkpt lat="50.51341" lon="3.41591">
        <ele>32.812672</ele>
        <time>2021-09-28T09:59:07Z</time>
      </trkpt>
      <trkpt lat="50.51346" lon="3.41601">
        <ele>33.049561</ele>
        <time>2021-09-28T09:59:09Z</time>
      </trkpt>
      <trkpt lat="50.51351" lon="3.41611">
        <ele>33.323437</ele>
        <time>2021-09-28T09:59:11Z</time>
      </trkpt>
      <trkpt lat="50.51355" lon="3.41622">
        <ele>33.446209</ele>
        <time>2021-09-28T09:59:13Z</time>
      </trkpt>
      <trkpt lat="50.51359" lon="3.41633">
        <ele>33.747963</ele>
        <time>2021-09-28T09:59:15Z</time>
      </trkpt>
      <trkpt lat="50.51361" lon="3.4164">
        <ele>34.013794</ele>
        <time>2021-09-28T09:59:17Z</time>
      </trkpt>
      <trkpt lat="50.51364" lon="3.41646">
        <ele>35.840729</ele>
        <time>2021-09-28T09:59:35Z</time>
      </trkpt>
      <trkpt lat="50.51366" lon="3.41653">
        <ele>35.934673</ele>
        <time>2021-09-28T09:59:37Z</time>
      </trkpt>
      <trkpt lat="50.51369" lon="3.41663">
        <ele>36.000847</ele>
        <time>2021-09-28T09:59:39Z</time>
      </trkpt>
      <trkpt lat="50.51371" lon="3.41672">
        <ele>36.002911</ele>
        <time>2021-09-28T09:59:41Z</time>
      </trkpt>
      <trkpt lat="50.51372" lon="3.41681">
        <ele>36.026184</ele>
        <time>2021-09-28T09:59:43Z</time>
      </trkpt>
      <trkpt lat="50.51374" lon="3.41688">
        <ele>36.018913</ele>
        <time>2021-09-28T09:59:45Z</time>
      </trkpt>
      <trkpt lat="50.51374" lon="3.41693">
        <ele>36.023914</ele>
        <time>2021-09-28T09:59:47Z</time>
      </trkpt>
      <trkpt lat="50.51375" lon="3.41697">
        <ele>36.003498</ele>
        <time>2021-09-28T09:59:49Z</time>
      </trkpt>
      <trkpt lat="50.51375" lon="3.41704">
        <ele>36.003502</ele>
        <time>2021-09-28T09:59:51Z</time>
      </trkpt>
      <trkpt lat="50.51376" lon="3.41714">
        <ele>35.971214</ele>
        <time>2021-09-28T09:59:53Z</time>
      </trkpt>
      <trkpt lat="50.51377" lon="3.41725">
        <ele>35.948696</ele>
        <time>2021-09-28T09:59:55Z</time>
      </trkpt>
      <trkpt lat="50.51379" lon="3.41736">
        <ele>35.932518</ele>
        <time>2021-09-28T09:59:57Z</time>
      </trkpt>
      <trkpt lat="50.51382" lon="3.41748">
        <ele>35.890514</ele>
        <time>2021-09-28T09:59:59Z</time>
      </trkpt>
      <trkpt lat="50.51387" lon="3.4176">
        <ele>35.884178</ele>
        <time>2021-09-28T10:00:01Z</time>
      </trkpt>
      <trkpt lat="50.51393" lon="3.41771">
        <ele>35.902763</ele>
        <time>2021-09-28T10:00:03Z</time>
      </trkpt>
      <trkpt lat="50.51399" lon="3.41781">
        <ele>35.864357</ele>
        <time>2021-09-28T10:00:05Z</time>
      </trkpt>
      <trkpt lat="50.51406" lon="3.41792">
        <ele>35.818474</ele>
        <time>2021-09-28T10:00:07Z</time>
      </trkpt>
      <trkpt lat="50.51414" lon="3.41803">
        <ele>35.807121</ele>
        <time>2021-09-28T10:00:09Z</time>
      </trkpt>
      <trkpt lat="50.51421" lon="3.41814">
        <ele>35.726883</ele>
        <time>2021-09-28T10:00:11Z</time>
      </trkpt>
      <trkpt lat="50.51426" lon="3.41823">
        <ele>35.677021</ele>
        <time>2021-09-28T10:00:13Z</time>
      </trkpt>
      <trkpt lat="50.51433" lon="3.41834">
        <ele>35.65686</ele>
        <time>2021-09-28T10:00:15Z</time>
      </trkpt>
      <trkpt lat="50.5144" lon="3.41844">
        <ele>35.640343</ele>
        <time>2021-09-28T10:00:17Z</time>
      </trkpt>
      <trkpt lat="50.51448" lon="3.41857">
        <ele>35.630493</ele>
        <time>2021-09-28T10:00:19Z</time>
      </trkpt>
      <trkpt lat="50.51455" lon="3.41869">
        <ele>35.649765</ele>
        <time>2021-09-28T10:00:21Z</time>
      </trkpt>
      <trkpt lat="50.51461" lon="3.41883">
        <ele>35.623848</ele>
        <time>2021-09-28T10:00:23Z</time>
      </trkpt>
      <trkpt lat="50.51467" lon="3.41897">
        <ele>35.687695</ele>
        <time>2021-09-28T10:00:25Z</time>
      </trkpt>
      <trkpt lat="50.5147" lon="3.4191">
        <ele>35.734516</ele>
        <time>2021-09-28T10:00:27Z</time>
      </trkpt>
      <trkpt lat="50.51473" lon="3.41921">
        <ele>35.825512</ele>
        <time>2021-09-28T10:00:29Z</time>
      </trkpt>
      <trkpt lat="50.51474" lon="3.41931">
        <ele>35.937183</ele>
        <time>2021-09-28T10:00:31Z</time>
      </trkpt>
      <trkpt lat="50.51476" lon="3.41937">
        <ele>36.017216</ele>
        <time>2021-09-28T10:00:33Z</time>
      </trkpt>
      <trkpt lat="50.51477" lon="3.41941">
        <ele>36.107529</ele>
        <time>2021-09-28T10:00:35Z</time>
      </trkpt>
      <trkpt lat="50.51479" lon="3.41946">
        <ele>36.13438</ele>
        <time>2021-09-28T10:00:41Z</time>
      </trkpt>
      <trkpt lat="50.51482" lon="3.41948">
        <ele>36.08971</ele>
        <time>2021-09-28T10:00:43Z</time>
      </trkpt>
      <trkpt lat="50.51486" lon="3.41946">
        <ele>36.038086</ele>
        <time>2021-09-28T10:00:45Z</time>
      </trkpt>
      <trkpt lat="50.5149" lon="3.41941">
        <ele>35.990223</ele>
        <time>2021-09-28T10:00:47Z</time>
      </trkpt>
      <trkpt lat="50.51496" lon="3.41935">
        <ele>35.952179</ele>
        <time>2021-09-28T10:00:49Z</time>
      </trkpt>
      <trkpt lat="50.51503" lon="3.41929">
        <ele>35.90379</ele>
        <time>2021-09-28T10:00:51Z</time>
      </trkpt>
      <trkpt lat="50.51511" lon="3.41926">
        <ele>35.859844</ele>
        <time>2021-09-28T10:00:53Z</time>
      </trkpt>
      <trkpt lat="50.51519" lon="3.41926">
        <ele>35.84304</ele>
        <time>2021-09-28T10:00:55Z</time>
      </trkpt>
      <trkpt lat="50.51527" lon="3.41926">
        <ele>35.796539</ele>
        <time>2021-09-28T10:00:57Z</time>
      </trkpt>
      <trkpt lat="50.51536" lon="3.41927">
        <ele>35.782341</ele>
        <time>2021-09-28T10:00:59Z</time>
      </trkpt>
      <trkpt lat="50.51545" lon="3.41926">
        <ele>35.769539</ele>
        <time>2021-09-28T10:01:01Z</time>
      </trkpt>
      <trkpt lat="50.51552" lon="3.41925">
        <ele>35.773964</ele>
        <time>2021-09-28T10:01:03Z</time>
      </trkpt>
      <trkpt lat="50.51561" lon="3.41925">
        <ele>35.808586</ele>
        <time>2021-09-28T10:01:05Z</time>
      </trkpt>
      <trkpt lat="50.51569" lon="3.41925">
        <ele>35.810249</ele>
        <time>2021-09-28T10:01:07Z</time>
      </trkpt>
      <trkpt lat="50.5158" lon="3.41925">
        <ele>35.841682</ele>
        <time>2021-09-28T10:01:09Z</time>
      </trkpt>
      <trkpt lat="50.5159" lon="3.41925">
        <ele>35.843494</ele>
        <time>2021-09-28T10:01:11Z</time>
      </trkpt>
      <trkpt lat="50.51601" lon="3.41926">
        <ele>35.864983</ele>
        <time>2021-09-28T10:01:13Z</time>
      </trkpt>
      <trkpt lat="50.51613" lon="3.41927">
        <ele>35.898071</ele>
        <time>2021-09-28T10:01:15Z</time>
      </trkpt>
      <trkpt lat="50.51624" lon="3.41927">
        <ele>35.937531</ele>
        <time>2021-09-28T10:01:17Z</time>
      </trkpt>
      <trkpt lat="50.51634" lon="3.41927">
        <ele>35.989647</ele>
        <time>2021-09-28T10:01:19Z</time>
      </trkpt>
      <trkpt lat="50.51645" lon="3.41927">
        <ele>36.02454</ele>
        <time>2021-09-28T10:01:21Z</time>
      </trkpt>
      <trkpt lat="50.51656" lon="3.41927">
        <ele>36.17733</ele>
        <time>2021-09-28T10:01:23Z</time>
      </trkpt>
      <trkpt lat="50.51667" lon="3.41925">
        <ele>36.252205</ele>
        <time>2021-09-28T10:01:25Z</time>
      </trkpt>
      <trkpt lat="50.51678" lon="3.41923">
        <ele>36.402107</ele>
        <time>2021-09-28T10:01:27Z</time>
      </trkpt>
      <trkpt lat="50.51688" lon="3.41922">
        <ele>36.540993</ele>
        <time>2021-09-28T10:01:29Z</time>
      </trkpt>
      <trkpt lat="50.51699" lon="3.41922">
        <ele>36.686127</ele>
        <time>2021-09-28T10:01:31Z</time>
      </trkpt>
      <trkpt lat="50.51711" lon="3.41922">
        <ele>36.834698</ele>
        <time>2021-09-28T10:01:33Z</time>
      </trkpt>
      <trkpt lat="50.51722" lon="3.41923">
        <ele>37.00634</ele>
        <time>2021-09-28T10:01:35Z</time>
      </trkpt>
      <trkpt lat="50.51734" lon="3.41924">
        <ele>37.147129</ele>
        <time>2021-09-28T10:01:37Z</time>
      </trkpt>
      <trkpt lat="50.51746" lon="3.41924">
        <ele>37.225914</ele>
        <time>2021-09-28T10:01:39Z</time>
      </trkpt>
      <trkpt lat="50.51757" lon="3.41923">
        <ele>37.370293</ele>
        <time>2021-09-28T10:01:41Z</time>
      </trkpt>
      <trkpt lat="50.51767" lon="3.41923">
        <ele>37.483036</ele>
        <time>2021-09-28T10:01:43Z</time>
      </trkpt>
      <trkpt lat="50.51777" lon="3.41922">
        <ele>37.606812</ele>
        <time>2021-09-28T10:01:45Z</time>
      </trkpt>
      <trkpt lat="50.51787" lon="3.41921">
        <ele>37.706394</ele>
        <time>2021-09-28T10:01:47Z</time>
      </trkpt>
      <trkpt lat="50.51797" lon="3.4192">
        <ele>37.818165</ele>
        <time>2021-09-28T10:01:49Z</time>
      </trkpt>
      <trkpt lat="50.51808" lon="3.4192">
        <ele>37.855019</ele>
        <time>2021-09-28T10:01:51Z</time>
      </trkpt>
      <trkpt lat="50.51819" lon="3.4192">
        <ele>37.963467</ele>
        <time>2021-09-28T10:01:53Z</time>
      </trkpt>
      <trkpt lat="50.51831" lon="3.41921">
        <ele>37.987068</ele>
        <time>2021-09-28T10:01:55Z</time>
      </trkpt>
      <trkpt lat="50.51843" lon="3.4192">
        <ele>38.039135</ele>
        <time>2021-09-28T10:01:57Z</time>
      </trkpt>
      <trkpt lat="50.51854" lon="3.4192">
        <ele>38.082474</ele>
        <time>2021-09-28T10:01:59Z</time>
      </trkpt>
      <trkpt lat="50.51863" lon="3.41917">
        <ele>38.12331</ele>
        <time>2021-09-28T10:02:01Z</time>
      </trkpt>
      <trkpt lat="50.51873" lon="3.41917">
        <ele>38.209621</ele>
        <time>2021-09-28T10:02:03Z</time>
      </trkpt>
      <trkpt lat="50.51884" lon="3.41915">
        <ele>38.270077</ele>
        <time>2021-09-28T10:02:05Z</time>
      </trkpt>
      <trkpt lat="50.51896" lon="3.41912">
        <ele>38.29784</ele>
        <time>2021-09-28T10:02:07Z</time>
      </trkpt>
      <trkpt lat="50.51907" lon="3.41909">
        <ele>38.328819</ele>
        <time>2021-09-28T10:02:09Z</time>
      </trkpt>
      <trkpt lat="50.51917" lon="3.41907">
        <ele>38.361961</ele>
        <time>2021-09-28T10:02:11Z</time>
      </trkpt>
      <trkpt lat="50.51926" lon="3.41906">
        <ele>38.404472</ele>
        <time>2021-09-28T10:02:13Z</time>
      </trkpt>
      <trkpt lat="50.51936" lon="3.41906">
        <ele>38.427849</ele>
        <time>2021-09-28T10:02:15Z</time>
      </trkpt>
      <trkpt lat="50.51946" lon="3.41905">
        <ele>38.450386</ele>
        <time>2021-09-28T10:02:17Z</time>
      </trkpt>
      <trkpt lat="50.51956" lon="3.41906">
        <ele>38.449764</ele>
        <time>2021-09-28T10:02:19Z</time>
      </trkpt>
      <trkpt lat="50.51966" lon="3.41907">
        <ele>38.397133</ele>
        <time>2021-09-28T10:02:21Z</time>
      </trkpt>
      <trkpt lat="50.51976" lon="3.41908">
        <ele>38.369274</ele>
        <time>2021-09-28T10:02:23Z</time>
      </trkpt>
      <trkpt lat="50.51986" lon="3.41908">
        <ele>38.361824</ele>
        <time>2021-09-28T10:02:25Z</time>
      </trkpt>
      <trkpt lat="50.51996" lon="3.41908">
        <ele>38.340828</ele>
        <time>2021-09-28T10:02:27Z</time>
      </trkpt>
      <trkpt lat="50.52006" lon="3.41909">
        <ele>38.298443</ele>
        <time>2021-09-28T10:02:29Z</time>
      </trkpt>
      <trkpt lat="50.52016" lon="3.41912">
        <ele>38.289776</ele>
        <time>2021-09-28T10:02:31Z</time>
      </trkpt>
      <trkpt lat="50.52026" lon="3.41914">
        <ele>38.227303</ele>
        <time>2021-09-28T10:02:33Z</time>
      </trkpt>
      <trkpt lat="50.52036" lon="3.41917">
        <ele>38.197227</ele>
        <time>2021-09-28T10:02:35Z</time>
      </trkpt>
      <trkpt lat="50.52046" lon="3.41919">
        <ele>38.155922</ele>
        <time>2021-09-28T10:02:37Z</time>
      </trkpt>
      <trkpt lat="50.52056" lon="3.41922">
        <ele>38.11367</ele>
        <time>2021-09-28T10:02:39Z</time>
      </trkpt>
      <trkpt lat="50.52066" lon="3.41925">
        <ele>38.083534</ele>
        <time>2021-09-28T10:02:41Z</time>
      </trkpt>
      <trkpt lat="50.52076" lon="3.41927">
        <ele>37.989582</ele>
        <time>2021-09-28T10:02:43Z</time>
      </trkpt>
      <trkpt lat="50.52086" lon="3.4193">
        <ele>37.940849</ele>
        <time>2021-09-28T10:02:45Z</time>
      </trkpt>
      <trkpt lat="50.52095" lon="3.41933">
        <ele>37.862064</ele>
        <time>2021-09-28T10:02:47Z</time>
      </trkpt>
      <trkpt lat="50.52105" lon="3.41935">
        <ele>37.822536</ele>
        <time>2021-09-28T10:02:49Z</time>
      </trkpt>
      <trkpt lat="50.52115" lon="3.41937">
        <ele>37.738419</ele>
        <time>2021-09-28T10:02:51Z</time>
      </trkpt>
      <trkpt lat="50.52125" lon="3.4194">
        <ele>37.648144</ele>
        <time>2021-09-28T10:02:53Z</time>
      </trkpt>
      <trkpt lat="50.52136" lon="3.41942">
        <ele>37.562695</ele>
        <time>2021-09-28T10:02:55Z</time>
      </trkpt>
      <trkpt lat="50.52145" lon="3.41944">
        <ele>37.507053</ele>
        <time>2021-09-28T10:02:57Z</time>
      </trkpt>
      <trkpt lat="50.52155" lon="3.41947">
        <ele>37.429619</ele>
        <time>2021-09-28T10:02:59Z</time>
      </trkpt>
      <trkpt lat="50.52166" lon="3.41949">
        <ele>37.367214</ele>
        <time>2021-09-28T10:03:01Z</time>
      </trkpt>
      <trkpt lat="50.52176" lon="3.41951">
        <ele>37.323151</ele>
        <time>2021-09-28T10:03:03Z</time>
      </trkpt>
      <trkpt lat="50.52185" lon="3.41953">
        <ele>37.323151</ele>
        <time>2021-09-28T10:03:05Z</time>
      </trkpt>
      <trkpt lat="50.52196" lon="3.41955">
        <ele>37.28141</ele>
        <time>2021-09-28T10:03:07Z</time>
      </trkpt>
      <trkpt lat="50.52206" lon="3.41958">
        <ele>37.243732</ele>
        <time>2021-09-28T10:03:09Z</time>
      </trkpt>
      <trkpt lat="50.52216" lon="3.4196">
        <ele>37.227261</ele>
        <time>2021-09-28T10:03:11Z</time>
      </trkpt>
      <trkpt lat="50.52226" lon="3.41961">
        <ele>37.169159</ele>
        <time>2021-09-28T10:03:13Z</time>
      </trkpt>
      <trkpt lat="50.52236" lon="3.41964">
        <ele>37.151138</ele>
        <time>2021-09-28T10:03:15Z</time>
      </trkpt>
      <trkpt lat="50.52246" lon="3.41965">
        <ele>37.152187</ele>
        <time>2021-09-28T10:03:17Z</time>
      </trkpt>
      <trkpt lat="50.52255" lon="3.41966">
        <ele>37.146053</ele>
        <time>2021-09-28T10:03:19Z</time>
      </trkpt>
      <trkpt lat="50.52265" lon="3.41968">
        <ele>37.167244</ele>
        <time>2021-09-28T10:03:21Z</time>
      </trkpt>
      <trkpt lat="50.52275" lon="3.4197">
        <ele>37.191593</ele>
        <time>2021-09-28T10:03:23Z</time>
      </trkpt>
      <trkpt lat="50.52285" lon="3.41972">
        <ele>37.228127</ele>
        <time>2021-09-28T10:03:25Z</time>
      </trkpt>
      <trkpt lat="50.52295" lon="3.41974">
        <ele>37.292187</ele>
        <time>2021-09-28T10:03:27Z</time>
      </trkpt>
      <trkpt lat="50.52306" lon="3.41976">
        <ele>37.403671</ele>
        <time>2021-09-28T10:03:29Z</time>
      </trkpt>
      <trkpt lat="50.52316" lon="3.41978">
        <ele>37.488342</ele>
        <time>2021-09-28T10:03:31Z</time>
      </trkpt>
      <trkpt lat="50.52326" lon="3.4198">
        <ele>37.612896</ele>
        <time>2021-09-28T10:03:33Z</time>
      </trkpt>
      <trkpt lat="50.52337" lon="3.41982">
        <ele>37.728172</ele>
        <time>2021-09-28T10:03:35Z</time>
      </trkpt>
      <trkpt lat="50.52347" lon="3.41985">
        <ele>37.836937</ele>
        <time>2021-09-28T10:03:37Z</time>
      </trkpt>
      <trkpt lat="50.52358" lon="3.41987">
        <ele>37.941353</ele>
        <time>2021-09-28T10:03:39Z</time>
      </trkpt>
      <trkpt lat="50.52368" lon="3.4199">
        <ele>38.071831</ele>
        <time>2021-09-28T10:03:41Z</time>
      </trkpt>
      <trkpt lat="50.52378" lon="3.41993">
        <ele>38.170021</ele>
        <time>2021-09-28T10:03:43Z</time>
      </trkpt>
      <trkpt lat="50.52388" lon="3.41997">
        <ele>38.289124</ele>
        <time>2021-09-28T10:03:45Z</time>
      </trkpt>
      <trkpt lat="50.52398" lon="3.42002">
        <ele>38.351685</ele>
        <time>2021-09-28T10:03:47Z</time>
      </trkpt>
      <trkpt lat="50.52407" lon="3.42006">
        <ele>38.480057</ele>
        <time>2021-09-28T10:03:49Z</time>
      </trkpt>
      <trkpt lat="50.52416" lon="3.42007">
        <ele>38.626389</ele>
        <time>2021-09-28T10:03:51Z</time>
      </trkpt>
      <trkpt lat="50.52427" lon="3.42008">
        <ele>38.729843</ele>
        <time>2021-09-28T10:03:53Z</time>
      </trkpt>
      <trkpt lat="50.52438" lon="3.42009">
        <ele>38.824638</ele>
        <time>2021-09-28T10:03:55Z</time>
      </trkpt>
      <trkpt lat="50.52448" lon="3.42012">
        <ele>38.931965</ele>
        <time>2021-09-28T10:03:57Z</time>
      </trkpt>
      <trkpt lat="50.52459" lon="3.42014">
        <ele>39.052151</ele>
        <time>2021-09-28T10:03:59Z</time>
      </trkpt>
      <trkpt lat="50.5247" lon="3.42016">
        <ele>39.091995</ele>
        <time>2021-09-28T10:04:01Z</time>
      </trkpt>
      <trkpt lat="50.5248" lon="3.42019">
        <ele>39.175575</ele>
        <time>2021-09-28T10:04:03Z</time>
      </trkpt>
      <trkpt lat="50.52491" lon="3.42021">
        <ele>39.264153</ele>
        <time>2021-09-28T10:04:05Z</time>
      </trkpt>
      <trkpt lat="50.52502" lon="3.42023">
        <ele>39.296608</ele>
        <time>2021-09-28T10:04:07Z</time>
      </trkpt>
      <trkpt lat="50.52513" lon="3.42026">
        <ele>39.37574</ele>
        <time>2021-09-28T10:04:09Z</time>
      </trkpt>
      <trkpt lat="50.52524" lon="3.42028">
        <ele>39.379494</ele>
        <time>2021-09-28T10:04:11Z</time>
      </trkpt>
      <trkpt lat="50.52535" lon="3.4203">
        <ele>39.363075</ele>
        <time>2021-09-28T10:04:13Z</time>
      </trkpt>
      <trkpt lat="50.52546" lon="3.42033">
        <ele>39.362305</ele>
        <time>2021-09-28T10:04:15Z</time>
      </trkpt>
      <trkpt lat="50.52557" lon="3.42035">
        <ele>39.367607</ele>
        <time>2021-09-28T10:04:17Z</time>
      </trkpt>
      <trkpt lat="50.52569" lon="3.42037">
        <ele>39.401478</ele>
        <time>2021-09-28T10:04:19Z</time>
      </trkpt>
      <trkpt lat="50.5258" lon="3.4204">
        <ele>39.394325</ele>
        <time>2021-09-28T10:04:21Z</time>
      </trkpt>
      <trkpt lat="50.52592" lon="3.42042">
        <ele>39.379181</ele>
        <time>2021-09-28T10:04:23Z</time>
      </trkpt>
      <trkpt lat="50.52603" lon="3.42045">
        <ele>39.367958</ele>
        <time>2021-09-28T10:04:25Z</time>
      </trkpt>
      <trkpt lat="50.52614" lon="3.42047">
        <ele>39.37624</ele>
        <time>2021-09-28T10:04:27Z</time>
      </trkpt>
      <trkpt lat="50.52625" lon="3.4205">
        <ele>39.36623</ele>
        <time>2021-09-28T10:04:29Z</time>
      </trkpt>
      <trkpt lat="50.52636" lon="3.42052">
        <ele>39.353477</ele>
        <time>2021-09-28T10:04:31Z</time>
      </trkpt>
      <trkpt lat="50.52647" lon="3.42054">
        <ele>39.367432</ele>
        <time>2021-09-28T10:04:33Z</time>
      </trkpt>
      <trkpt lat="50.52658" lon="3.42056">
        <ele>39.346478</ele>
        <time>2021-09-28T10:04:35Z</time>
      </trkpt>
      <trkpt lat="50.52669" lon="3.42058">
        <ele>39.370171</ele>
        <time>2021-09-28T10:04:37Z</time>
      </trkpt>
      <trkpt lat="50.5268" lon="3.4206">
        <ele>39.397667</ele>
        <time>2021-09-28T10:04:39Z</time>
      </trkpt>
      <trkpt lat="50.52691" lon="3.42062">
        <ele>39.452843</ele>
        <time>2021-09-28T10:04:41Z</time>
      </trkpt>
      <trkpt lat="50.52703" lon="3.42065">
        <ele>39.462837</ele>
        <time>2021-09-28T10:04:43Z</time>
      </trkpt>
      <trkpt lat="50.52714" lon="3.42068">
        <ele>39.482594</ele>
        <time>2021-09-28T10:04:45Z</time>
      </trkpt>
      <trkpt lat="50.52725" lon="3.42071">
        <ele>39.516308</ele>
        <time>2021-09-28T10:04:47Z</time>
      </trkpt>
      <trkpt lat="50.52736" lon="3.42075">
        <ele>39.55423</ele>
        <time>2021-09-28T10:04:49Z</time>
      </trkpt>
      <trkpt lat="50.52745" lon="3.42078">
        <ele>39.548603</ele>
        <time>2021-09-28T10:04:51Z</time>
      </trkpt>
      <trkpt lat="50.52756" lon="3.42081">
        <ele>39.586735</ele>
        <time>2021-09-28T10:04:53Z</time>
      </trkpt>
      <trkpt lat="50.52768" lon="3.42084">
        <ele>39.622658</ele>
        <time>2021-09-28T10:04:55Z</time>
      </trkpt>
      <trkpt lat="50.52784" lon="3.42085">
        <ele>39.645653</ele>
        <time>2021-09-28T10:04:58Z</time>
      </trkpt>
      <trkpt lat="50.52794" lon="3.42086">
        <ele>39.669392</ele>
        <time>2021-09-28T10:05:00Z</time>
      </trkpt>
      <trkpt lat="50.52805" lon="3.42088">
        <ele>39.684044</ele>
        <time>2021-09-28T10:05:02Z</time>
      </trkpt>
      <trkpt lat="50.52816" lon="3.42091">
        <ele>39.747814</ele>
        <time>2021-09-28T10:05:04Z</time>
      </trkpt>
      <trkpt lat="50.52826" lon="3.42094">
        <ele>39.778179</ele>
        <time>2021-09-28T10:05:06Z</time>
      </trkpt>
      <trkpt lat="50.52837" lon="3.42097">
        <ele>39.845531</ele>
        <time>2021-09-28T10:05:08Z</time>
      </trkpt>
      <trkpt lat="50.52848" lon="3.42099">
        <ele>39.903797</ele>
        <time>2021-09-28T10:05:10Z</time>
      </trkpt>
      <trkpt lat="50.5286" lon="3.42101">
        <ele>39.954887</ele>
        <time>2021-09-28T10:05:12Z</time>
      </trkpt>
      <trkpt lat="50.52871" lon="3.42103">
        <ele>40.000099</ele>
        <time>2021-09-28T10:05:14Z</time>
      </trkpt>
      <trkpt lat="50.52882" lon="3.42105">
        <ele>40.047596</ele>
        <time>2021-09-28T10:05:16Z</time>
      </trkpt>
      <trkpt lat="50.52894" lon="3.42107">
        <ele>40.134808</ele>
        <time>2021-09-28T10:05:18Z</time>
      </trkpt>
      <trkpt lat="50.52905" lon="3.4211">
        <ele>40.210457</ele>
        <time>2021-09-28T10:05:20Z</time>
      </trkpt>
      <trkpt lat="50.52917" lon="3.42112">
        <ele>40.263683</ele>
        <time>2021-09-28T10:05:22Z</time>
      </trkpt>
      <trkpt lat="50.52929" lon="3.42114">
        <ele>40.343849</ele>
        <time>2021-09-28T10:05:24Z</time>
      </trkpt>
      <trkpt lat="50.5294" lon="3.42116">
        <ele>40.372761</ele>
        <time>2021-09-28T10:05:26Z</time>
      </trkpt>
      <trkpt lat="50.52951" lon="3.42118">
        <ele>40.469837</ele>
        <time>2021-09-28T10:05:28Z</time>
      </trkpt>
      <trkpt lat="50.52962" lon="3.42121">
        <ele>40.552685</ele>
        <time>2021-09-28T10:05:30Z</time>
      </trkpt>
      <trkpt lat="50.52973" lon="3.42124">
        <ele>40.637589</ele>
        <time>2021-09-28T10:05:32Z</time>
      </trkpt>
      <trkpt lat="50.52985" lon="3.42127">
        <ele>40.724174</ele>
        <time>2021-09-28T10:05:34Z</time>
      </trkpt>
      <trkpt lat="50.52996" lon="3.42129">
        <ele>40.775417</ele>
        <time>2021-09-28T10:05:36Z</time>
      </trkpt>
      <trkpt lat="50.53008" lon="3.42132">
        <ele>40.811802</ele>
        <time>2021-09-28T10:05:38Z</time>
      </trkpt>
      <trkpt lat="50.53019" lon="3.42135">
        <ele>40.853092</ele>
        <time>2021-09-28T10:05:40Z</time>
      </trkpt>
      <trkpt lat="50.53031" lon="3.42138">
        <ele>40.944801</ele>
        <time>2021-09-28T10:05:42Z</time>
      </trkpt>
      <trkpt lat="50.53042" lon="3.4214">
        <ele>40.996605</ele>
        <time>2021-09-28T10:05:44Z</time>
      </trkpt>
      <trkpt lat="50.53054" lon="3.42143">
        <ele>41.041752</ele>
        <time>2021-09-28T10:05:46Z</time>
      </trkpt>
      <trkpt lat="50.53067" lon="3.42146">
        <ele>41.047737</ele>
        <time>2021-09-28T10:05:48Z</time>
      </trkpt>
      <trkpt lat="50.53079" lon="3.42148">
        <ele>41.027084</ele>
        <time>2021-09-28T10:05:50Z</time>
      </trkpt>
      <trkpt lat="50.5309" lon="3.42151">
        <ele>41.016731</ele>
        <time>2021-09-28T10:05:52Z</time>
      </trkpt>
      <trkpt lat="50.53103" lon="3.42153">
        <ele>40.993141</ele>
        <time>2021-09-28T10:05:54Z</time>
      </trkpt>
      <trkpt lat="50.53114" lon="3.42155">
        <ele>40.986931</ele>
        <time>2021-09-28T10:05:56Z</time>
      </trkpt>
      <trkpt lat="50.53127" lon="3.42158">
        <ele>40.947475</ele>
        <time>2021-09-28T10:05:58Z</time>
      </trkpt>
      <trkpt lat="50.53138" lon="3.42161">
        <ele>40.915379</ele>
        <time>2021-09-28T10:06:00Z</time>
      </trkpt>
      <trkpt lat="50.5315" lon="3.42163">
        <ele>40.808712</ele>
        <time>2021-09-28T10:06:02Z</time>
      </trkpt>
      <trkpt lat="50.53162" lon="3.42166">
        <ele>40.722908</ele>
        <time>2021-09-28T10:06:04Z</time>
      </trkpt>
      <trkpt lat="50.53174" lon="3.42169">
        <ele>40.614754</ele>
        <time>2021-09-28T10:06:06Z</time>
      </trkpt>
      <trkpt lat="50.53186" lon="3.42172">
        <ele>40.503208</ele>
        <time>2021-09-28T10:06:08Z</time>
      </trkpt>
      <trkpt lat="50.53198" lon="3.42174">
        <ele>40.46373</ele>
        <time>2021-09-28T10:06:10Z</time>
      </trkpt>
      <trkpt lat="50.53209" lon="3.42177">
        <ele>40.338154</ele>
        <time>2021-09-28T10:06:12Z</time>
      </trkpt>
      <trkpt lat="50.5322" lon="3.4218">
        <ele>40.173805</ele>
        <time>2021-09-28T10:06:14Z</time>
      </trkpt>
      <trkpt lat="50.5323" lon="3.42182">
        <ele>40.019196</ele>
        <time>2021-09-28T10:06:16Z</time>
      </trkpt>
      <trkpt lat="50.53238" lon="3.42184">
        <ele>39.877388</ele>
        <time>2021-09-28T10:06:18Z</time>
      </trkpt>
      <trkpt lat="50.53246" lon="3.42185">
        <ele>39.782803</ele>
        <time>2021-09-28T10:06:20Z</time>
      </trkpt>
      <trkpt lat="50.53253" lon="3.42185">
        <ele>39.630268</ele>
        <time>2021-09-28T10:06:22Z</time>
      </trkpt>
      <trkpt lat="50.53259" lon="3.42187">
        <ele>39.485207</ele>
        <time>2021-09-28T10:06:24Z</time>
      </trkpt>
      <trkpt lat="50.53265" lon="3.42189">
        <ele>39.310249</ele>
        <time>2021-09-28T10:06:26Z</time>
      </trkpt>
      <trkpt lat="50.53272" lon="3.42191">
        <ele>39.146942</ele>
        <time>2021-09-28T10:06:28Z</time>
      </trkpt>
      <trkpt lat="50.53279" lon="3.42194">
        <ele>39.080479</ele>
        <time>2021-09-28T10:06:30Z</time>
      </trkpt>
      <trkpt lat="50.53289" lon="3.42196">
        <ele>38.921131</ele>
        <time>2021-09-28T10:06:32Z</time>
      </trkpt>
      <trkpt lat="50.533" lon="3.42196">
        <ele>38.771366</ele>
        <time>2021-09-28T10:06:34Z</time>
      </trkpt>
      <trkpt lat="50.53311" lon="3.42199">
        <ele>38.593647</ele>
        <time>2021-09-28T10:06:36Z</time>
      </trkpt>
      <trkpt lat="50.53322" lon="3.42201">
        <ele>38.461632</ele>
        <time>2021-09-28T10:06:38Z</time>
      </trkpt>
      <trkpt lat="50.53333" lon="3.42203">
        <ele>38.361935</ele>
        <time>2021-09-28T10:06:40Z</time>
      </trkpt>
      <trkpt lat="50.53344" lon="3.42206">
        <ele>38.20718</ele>
        <time>2021-09-28T10:06:42Z</time>
      </trkpt>
      <trkpt lat="50.53355" lon="3.42208">
        <ele>38.03437</ele>
        <time>2021-09-28T10:06:44Z</time>
      </trkpt>
      <trkpt lat="50.53367" lon="3.42211">
        <ele>37.895058</ele>
        <time>2021-09-28T10:06:46Z</time>
      </trkpt>
      <trkpt lat="50.53378" lon="3.42213">
        <ele>37.730656</ele>
        <time>2021-09-28T10:06:48Z</time>
      </trkpt>
      <trkpt lat="50.53389" lon="3.42216">
        <ele>37.647179</ele>
        <time>2021-09-28T10:06:50Z</time>
      </trkpt>
      <trkpt lat="50.534" lon="3.42219">
        <ele>37.506683</ele>
        <time>2021-09-28T10:06:52Z</time>
      </trkpt>
      <trkpt lat="50.53412" lon="3.42221">
        <ele>37.325844</ele>
        <time>2021-09-28T10:06:54Z</time>
      </trkpt>
      <trkpt lat="50.53423" lon="3.42224">
        <ele>37.171711</ele>
        <time>2021-09-28T10:06:56Z</time>
      </trkpt>
      <trkpt lat="50.53435" lon="3.42226">
        <ele>37.103573</ele>
        <time>2021-09-28T10:06:58Z</time>
      </trkpt>
      <trkpt lat="50.53446" lon="3.42229">
        <ele>36.953087</ele>
        <time>2021-09-28T10:07:00Z</time>
      </trkpt>
      <trkpt lat="50.53458" lon="3.42232">
        <ele>36.758179</ele>
        <time>2021-09-28T10:07:02Z</time>
      </trkpt>
      <trkpt lat="50.5347" lon="3.42234">
        <ele>36.601696</ele>
        <time>2021-09-28T10:07:04Z</time>
      </trkpt>
      <trkpt lat="50.53481" lon="3.42237">
        <ele>36.415035</ele>
        <time>2021-09-28T10:07:06Z</time>
      </trkpt>
      <trkpt lat="50.53493" lon="3.42239">
        <ele>36.330727</ele>
        <time>2021-09-28T10:07:08Z</time>
      </trkpt>
      <trkpt lat="50.53504" lon="3.42242">
        <ele>36.19849</ele>
        <time>2021-09-28T10:07:10Z</time>
      </trkpt>
      <trkpt lat="50.53516" lon="3.42244">
        <ele>36.072937</ele>
        <time>2021-09-28T10:07:12Z</time>
      </trkpt>
      <trkpt lat="50.53527" lon="3.42247">
        <ele>35.936188</ele>
        <time>2021-09-28T10:07:14Z</time>
      </trkpt>
      <trkpt lat="50.53539" lon="3.42249">
        <ele>35.894894</ele>
        <time>2021-09-28T10:07:16Z</time>
      </trkpt>
      <trkpt lat="50.53551" lon="3.42252">
        <ele>35.749607</ele>
        <time>2021-09-28T10:07:18Z</time>
      </trkpt>
      <trkpt lat="50.53562" lon="3.42254">
        <ele>35.624756</ele>
        <time>2021-09-28T10:07:20Z</time>
      </trkpt>
      <trkpt lat="50.53574" lon="3.42257">
        <ele>35.494839</ele>
        <time>2021-09-28T10:07:22Z</time>
      </trkpt>
      <trkpt lat="50.53585" lon="3.4226">
        <ele>35.366684</ele>
        <time>2021-09-28T10:07:24Z</time>
      </trkpt>
      <trkpt lat="50.53597" lon="3.42262">
        <ele>35.31216</ele>
        <time>2021-09-28T10:07:26Z</time>
      </trkpt>
      <trkpt lat="50.53608" lon="3.42265">
        <ele>35.187874</ele>
        <time>2021-09-28T10:07:28Z</time>
      </trkpt>
      <trkpt lat="50.53619" lon="3.42267">
        <ele>35.051582</ele>
        <time>2021-09-28T10:07:30Z</time>
      </trkpt>
      <trkpt lat="50.53631" lon="3.4227">
        <ele>34.914196</ele>
        <time>2021-09-28T10:07:32Z</time>
      </trkpt>
      <trkpt lat="50.53642" lon="3.42272">
        <ele>34.761993</ele>
        <time>2021-09-28T10:07:34Z</time>
      </trkpt>
      <trkpt lat="50.53654" lon="3.42275">
        <ele>34.677361</ele>
        <time>2021-09-28T10:07:36Z</time>
      </trkpt>
      <trkpt lat="50.53666" lon="3.42277">
        <ele>34.551456</ele>
        <time>2021-09-28T10:07:38Z</time>
      </trkpt>
      <trkpt lat="50.53678" lon="3.4228">
        <ele>34.399467</ele>
        <time>2021-09-28T10:07:40Z</time>
      </trkpt>
      <trkpt lat="50.5369" lon="3.42282">
        <ele>34.32666</ele>
        <time>2021-09-28T10:07:42Z</time>
      </trkpt>
      <trkpt lat="50.53701" lon="3.42285">
        <ele>34.17141</ele>
        <time>2021-09-28T10:07:44Z</time>
      </trkpt>
      <trkpt lat="50.53713" lon="3.42288">
        <ele>34.004948</ele>
        <time>2021-09-28T10:07:46Z</time>
      </trkpt>
      <trkpt lat="50.53725" lon="3.42291">
        <ele>33.876595</ele>
        <time>2021-09-28T10:07:48Z</time>
      </trkpt>
      <trkpt lat="50.53737" lon="3.42293">
        <ele>33.794029</ele>
        <time>2021-09-28T10:07:50Z</time>
      </trkpt>
      <trkpt lat="50.53749" lon="3.42296">
        <ele>33.629021</ele>
        <time>2021-09-28T10:07:52Z</time>
      </trkpt>
      <trkpt lat="50.5376" lon="3.42298">
        <ele>33.425346</ele>
        <time>2021-09-28T10:07:54Z</time>
      </trkpt>
      <trkpt lat="50.53772" lon="3.42301">
        <ele>33.242359</ele>
        <time>2021-09-28T10:07:56Z</time>
      </trkpt>
      <trkpt lat="50.53783" lon="3.42303">
        <ele>33.050049</ele>
        <time>2021-09-28T10:07:58Z</time>
      </trkpt>
      <trkpt lat="50.53794" lon="3.42306">
        <ele>32.959248</ele>
        <time>2021-09-28T10:08:00Z</time>
      </trkpt>
      <trkpt lat="50.53805" lon="3.42309">
        <ele>32.743324</ele>
        <time>2021-09-28T10:08:02Z</time>
      </trkpt>
      <trkpt lat="50.53814" lon="3.42311">
        <ele>32.536499</ele>
        <time>2021-09-28T10:08:04Z</time>
      </trkpt>
      <trkpt lat="50.53822" lon="3.42313">
        <ele>32.41679</ele>
        <time>2021-09-28T10:08:06Z</time>
      </trkpt>
      <trkpt lat="50.53828" lon="3.42314">
        <ele>32.160419</ele>
        <time>2021-09-28T10:08:08Z</time>
      </trkpt>
      <trkpt lat="50.53835" lon="3.42316">
        <ele>31.956696</ele>
        <time>2021-09-28T10:08:10Z</time>
      </trkpt>
      <trkpt lat="50.53844" lon="3.42316">
        <ele>31.726843</ele>
        <time>2021-09-28T10:08:12Z</time>
      </trkpt>
      <trkpt lat="50.53853" lon="3.42317">
        <ele>31.641327</ele>
        <time>2021-09-28T10:08:14Z</time>
      </trkpt>
      <trkpt lat="50.53862" lon="3.42319">
        <ele>31.45689</ele>
        <time>2021-09-28T10:08:16Z</time>
      </trkpt>
      <trkpt lat="50.53872" lon="3.42322">
        <ele>31.255987</ele>
        <time>2021-09-28T10:08:18Z</time>
      </trkpt>
      <trkpt lat="50.53883" lon="3.42324">
        <ele>31.165186</ele>
        <time>2021-09-28T10:08:20Z</time>
      </trkpt>
      <trkpt lat="50.53893" lon="3.42326">
        <ele>30.984447</ele>
        <time>2021-09-28T10:08:22Z</time>
      </trkpt>
      <trkpt lat="50.53905" lon="3.42329">
        <ele>30.766125</ele>
        <time>2021-09-28T10:08:24Z</time>
      </trkpt>
      <trkpt lat="50.53915" lon="3.42331">
        <ele>30.554224</ele>
        <time>2021-09-28T10:08:26Z</time>
      </trkpt>
      <trkpt lat="50.53927" lon="3.42334">
        <ele>30.398144</ele>
        <time>2021-09-28T10:08:28Z</time>
      </trkpt>
      <trkpt lat="50.53938" lon="3.42337">
        <ele>30.30254</ele>
        <time>2021-09-28T10:08:30Z</time>
      </trkpt>
      <trkpt lat="50.53947" lon="3.4234">
        <ele>30.094898</ele>
        <time>2021-09-28T10:08:32Z</time>
      </trkpt>
      <trkpt lat="50.53955" lon="3.42343">
        <ele>29.919544</ele>
        <time>2021-09-28T10:08:34Z</time>
      </trkpt>
      <trkpt lat="50.53963" lon="3.42348">
        <ele>29.75528</ele>
        <time>2021-09-28T10:08:36Z</time>
      </trkpt>
      <trkpt lat="50.5397" lon="3.42349">
        <ele>29.699163</ele>
        <time>2021-09-28T10:08:38Z</time>
      </trkpt>
      <trkpt lat="50.53978" lon="3.42349">
        <ele>29.558615</ele>
        <time>2021-09-28T10:08:40Z</time>
      </trkpt>
      <trkpt lat="50.53988" lon="3.4235">
        <ele>29.381821</ele>
        <time>2021-09-28T10:08:42Z</time>
      </trkpt>
      <trkpt lat="50.53999" lon="3.42352">
        <ele>29.313068</ele>
        <time>2021-09-28T10:08:44Z</time>
      </trkpt>
      <trkpt lat="50.54009" lon="3.42353">
        <ele>29.188538</ele>
        <time>2021-09-28T10:08:46Z</time>
      </trkpt>
      <trkpt lat="50.54018" lon="3.42354">
        <ele>29.077902</ele>
        <time>2021-09-28T10:08:48Z</time>
      </trkpt>
      <trkpt lat="50.5403" lon="3.42355">
        <ele>28.97142</ele>
        <time>2021-09-28T10:08:50Z</time>
      </trkpt>
      <trkpt lat="50.5404" lon="3.42357">
        <ele>28.960896</ele>
        <time>2021-09-28T10:08:52Z</time>
      </trkpt>
      <trkpt lat="50.54052" lon="3.4236">
        <ele>28.946301</ele>
        <time>2021-09-28T10:08:54Z</time>
      </trkpt>
      <trkpt lat="50.54063" lon="3.42361">
        <ele>28.938446</ele>
        <time>2021-09-28T10:08:56Z</time>
      </trkpt>
      <trkpt lat="50.54073" lon="3.42363">
        <ele>28.878016</ele>
        <time>2021-09-28T10:08:58Z</time>
      </trkpt>
      <trkpt lat="50.54083" lon="3.42366">
        <ele>28.848766</ele>
        <time>2021-09-28T10:09:00Z</time>
      </trkpt>
      <trkpt lat="50.54093" lon="3.4237">
        <ele>28.81094</ele>
        <time>2021-09-28T10:09:02Z</time>
      </trkpt>
      <trkpt lat="50.54104" lon="3.42374">
        <ele>28.804123</ele>
        <time>2021-09-28T10:09:04Z</time>
      </trkpt>
      <trkpt lat="50.54113" lon="3.42378">
        <ele>28.850723</ele>
        <time>2021-09-28T10:09:06Z</time>
      </trkpt>
      <trkpt lat="50.54125" lon="3.42381">
        <ele>28.857462</ele>
        <time>2021-09-28T10:09:08Z</time>
      </trkpt>
      <trkpt lat="50.54135" lon="3.42385">
        <ele>28.879009</ele>
        <time>2021-09-28T10:09:10Z</time>
      </trkpt>
      <trkpt lat="50.54145" lon="3.42389">
        <ele>28.910437</ele>
        <time>2021-09-28T10:09:12Z</time>
      </trkpt>
      <trkpt lat="50.54155" lon="3.42394">
        <ele>28.898483</ele>
        <time>2021-09-28T10:09:14Z</time>
      </trkpt>
      <trkpt lat="50.54166" lon="3.42397">
        <ele>28.894718</ele>
        <time>2021-09-28T10:09:16Z</time>
      </trkpt>
      <trkpt lat="50.54174" lon="3.424">
        <ele>28.939915</ele>
        <time>2021-09-28T10:09:18Z</time>
      </trkpt>
      <trkpt lat="50.54181" lon="3.42401">
        <ele>28.941401</ele>
        <time>2021-09-28T10:09:20Z</time>
      </trkpt>
      <trkpt lat="50.54187" lon="3.42404">
        <ele>28.938242</ele>
        <time>2021-09-28T10:09:22Z</time>
      </trkpt>
      <trkpt lat="50.54195" lon="3.42407">
        <ele>28.957134</ele>
        <time>2021-09-28T10:09:24Z</time>
      </trkpt>
      <trkpt lat="50.54202" lon="3.42411">
        <ele>28.999441</ele>
        <time>2021-09-28T10:09:26Z</time>
      </trkpt>
      <trkpt lat="50.54208" lon="3.42415">
        <ele>29.067032</ele>
        <time>2021-09-28T10:09:28Z</time>
      </trkpt>
      <trkpt lat="50.54212" lon="3.42417">
        <ele>29.104197</ele>
        <time>2021-09-28T10:09:30Z</time>
      </trkpt>
      <trkpt lat="50.54217" lon="3.4242">
        <ele>29.173527</ele>
        <time>2021-09-28T10:09:32Z</time>
      </trkpt>
      <trkpt lat="50.54222" lon="3.42422">
        <ele>29.250729</ele>
        <time>2021-09-28T10:09:34Z</time>
      </trkpt>
      <trkpt lat="50.54224" lon="3.42423">
        <ele>29.276926</ele>
        <time>2021-09-28T10:09:36Z</time>
      </trkpt>
      <trkpt lat="50.54228" lon="3.42425">
        <ele>29.299931</ele>
        <time>2021-09-28T10:09:42Z</time>
      </trkpt>
      <trkpt lat="50.54232" lon="3.42424">
        <ele>29.358847</ele>
        <time>2021-09-28T10:09:44Z</time>
      </trkpt>
      <trkpt lat="50.54236" lon="3.42427">
        <ele>29.385386</ele>
        <time>2021-09-28T10:09:46Z</time>
      </trkpt>
      <trkpt lat="50.54241" lon="3.42431">
        <ele>29.376713</ele>
        <time>2021-09-28T10:09:48Z</time>
      </trkpt>
      <trkpt lat="50.54247" lon="3.42433">
        <ele>29.334782</ele>
        <time>2021-09-28T10:09:50Z</time>
      </trkpt>
      <trkpt lat="50.54255" lon="3.42437">
        <ele>29.299246</ele>
        <time>2021-09-28T10:09:52Z</time>
      </trkpt>
      <trkpt lat="50.54265" lon="3.42442">
        <ele>29.242239</ele>
        <time>2021-09-28T10:09:54Z</time>
      </trkpt>
      <trkpt lat="50.54274" lon="3.42446">
        <ele>29.168808</ele>
        <time>2021-09-28T10:09:56Z</time>
      </trkpt>
      <trkpt lat="50.54284" lon="3.4245">
        <ele>29.163509</ele>
        <time>2021-09-28T10:09:58Z</time>
      </trkpt>
      <trkpt lat="50.54294" lon="3.42454">
        <ele>29.100834</ele>
        <time>2021-09-28T10:10:00Z</time>
      </trkpt>
      <trkpt lat="50.54305" lon="3.42458">
        <ele>29.065517</ele>
        <time>2021-09-28T10:10:02Z</time>
      </trkpt>
      <trkpt lat="50.54315" lon="3.42463">
        <ele>29.086161</ele>
        <time>2021-09-28T10:10:04Z</time>
      </trkpt>
      <trkpt lat="50.54324" lon="3.42467">
        <ele>29.102133</ele>
        <time>2021-09-28T10:10:06Z</time>
      </trkpt>
      <trkpt lat="50.54335" lon="3.42473">
        <ele>29.170095</ele>
        <time>2021-09-28T10:10:08Z</time>
      </trkpt>
      <trkpt lat="50.54345" lon="3.42477">
        <ele>29.273493</ele>
        <time>2021-09-28T10:10:10Z</time>
      </trkpt>
      <trkpt lat="50.54355" lon="3.42483">
        <ele>29.28381</ele>
        <time>2021-09-28T10:10:12Z</time>
      </trkpt>
      <trkpt lat="50.54366" lon="3.42489">
        <ele>29.359127</ele>
        <time>2021-09-28T10:10:14Z</time>
      </trkpt>
      <trkpt lat="50.54378" lon="3.42496">
        <ele>29.394129</ele>
        <time>2021-09-28T10:10:16Z</time>
      </trkpt>
      <trkpt lat="50.54388" lon="3.42502">
        <ele>29.409103</ele>
        <time>2021-09-28T10:10:18Z</time>
      </trkpt>
      <trkpt lat="50.54399" lon="3.42509">
        <ele>29.43569</ele>
        <time>2021-09-28T10:10:20Z</time>
      </trkpt>
      <trkpt lat="50.54408" lon="3.42512">
        <ele>29.439518</ele>
        <time>2021-09-28T10:10:22Z</time>
      </trkpt>
      <trkpt lat="50.54419" lon="3.42517">
        <ele>29.446671</ele>
        <time>2021-09-28T10:10:24Z</time>
      </trkpt>
      <trkpt lat="50.5443" lon="3.42522">
        <ele>29.439718</ele>
        <time>2021-09-28T10:10:26Z</time>
      </trkpt>
      <trkpt lat="50.54441" lon="3.42526">
        <ele>29.411737</ele>
        <time>2021-09-28T10:10:28Z</time>
      </trkpt>
      <trkpt lat="50.54451" lon="3.42531">
        <ele>29.398849</ele>
        <time>2021-09-28T10:10:30Z</time>
      </trkpt>
      <trkpt lat="50.54462" lon="3.42537">
        <ele>29.386444</ele>
        <time>2021-09-28T10:10:32Z</time>
      </trkpt>
      <trkpt lat="50.54472" lon="3.42542">
        <ele>29.421286</ele>
        <time>2021-09-28T10:10:34Z</time>
      </trkpt>
      <trkpt lat="50.54483" lon="3.42545">
        <ele>29.464315</ele>
        <time>2021-09-28T10:10:36Z</time>
      </trkpt>
      <trkpt lat="50.54491" lon="3.42549">
        <ele>30.037029</ele>
        <time>2021-09-28T10:10:38Z</time>
      </trkpt>
      <trkpt lat="50.54501" lon="3.42553">
        <ele>30.099888</ele>
        <time>2021-09-28T10:10:40Z</time>
      </trkpt>
      <trkpt lat="50.54511" lon="3.42557">
        <ele>30.164785</ele>
        <time>2021-09-28T10:10:42Z</time>
      </trkpt>
      <trkpt lat="50.5452" lon="3.42561">
        <ele>30.204117</ele>
        <time>2021-09-28T10:10:44Z</time>
      </trkpt>
      <trkpt lat="50.54529" lon="3.42564">
        <ele>30.300177</ele>
        <time>2021-09-28T10:10:46Z</time>
      </trkpt>
      <trkpt lat="50.5454" lon="3.42568">
        <ele>30.394817</ele>
        <time>2021-09-28T10:10:48Z</time>
      </trkpt>
      <trkpt lat="50.54552" lon="3.42574">
        <ele>30.434025</ele>
        <time>2021-09-28T10:10:50Z</time>
      </trkpt>
      <trkpt lat="50.54563" lon="3.42579">
        <ele>30.48525</ele>
        <time>2021-09-28T10:10:52Z</time>
      </trkpt>
      <trkpt lat="50.54574" lon="3.42585">
        <ele>30.506826</ele>
        <time>2021-09-28T10:10:54Z</time>
      </trkpt>
      <trkpt lat="50.54585" lon="3.4259">
        <ele>30.469601</ele>
        <time>2021-09-28T10:10:56Z</time>
      </trkpt>
      <trkpt lat="50.54594" lon="3.42595">
        <ele>30.480145</ele>
        <time>2021-09-28T10:10:58Z</time>
      </trkpt>
      <trkpt lat="50.54601" lon="3.426">
        <ele>30.46431</ele>
        <time>2021-09-28T10:11:00Z</time>
      </trkpt>
      <trkpt lat="50.5461" lon="3.42606">
        <ele>30.953106</ele>
        <time>2021-09-28T10:11:02Z</time>
      </trkpt>
      <trkpt lat="50.5462" lon="3.42613">
        <ele>30.937153</ele>
        <time>2021-09-28T10:11:04Z</time>
      </trkpt>
      <trkpt lat="50.54629" lon="3.42619">
        <ele>30.920879</ele>
        <time>2021-09-28T10:11:06Z</time>
      </trkpt>
      <trkpt lat="50.5464" lon="3.42624">
        <ele>30.904568</ele>
        <time>2021-09-28T10:11:08Z</time>
      </trkpt>
      <trkpt lat="50.5465" lon="3.4263">
        <ele>30.906366</ele>
        <time>2021-09-28T10:11:10Z</time>
      </trkpt>
      <trkpt lat="50.5466" lon="3.42636">
        <ele>30.913986</ele>
        <time>2021-09-28T10:11:12Z</time>
      </trkpt>
      <trkpt lat="50.5467" lon="3.42645">
        <ele>30.960058</ele>
        <time>2021-09-28T10:11:14Z</time>
      </trkpt>
      <trkpt lat="50.5468" lon="3.42654">
        <ele>31.004538</ele>
        <time>2021-09-28T10:11:16Z</time>
      </trkpt>
      <trkpt lat="50.54689" lon="3.42663">
        <ele>31.014462</ele>
        <time>2021-09-28T10:11:18Z</time>
      </trkpt>
      <trkpt lat="50.54698" lon="3.42672">
        <ele>30.987675</ele>
        <time>2021-09-28T10:11:20Z</time>
      </trkpt>
      <trkpt lat="50.54709" lon="3.42682">
        <ele>31.004406</ele>
        <time>2021-09-28T10:11:22Z</time>
      </trkpt>
      <trkpt lat="50.54717" lon="3.42691">
        <ele>30.99596</ele>
        <time>2021-09-28T10:11:24Z</time>
      </trkpt>
      <trkpt lat="50.54724" lon="3.42701">
        <ele>29.950802</ele>
        <time>2021-09-28T10:11:26Z</time>
      </trkpt>
      <trkpt lat="50.54731" lon="3.42713">
        <ele>29.940226</ele>
        <time>2021-09-28T10:11:28Z</time>
      </trkpt>
      <trkpt lat="50.54738" lon="3.42726">
        <ele>29.952433</ele>
        <time>2021-09-28T10:11:30Z</time>
      </trkpt>
      <trkpt lat="50.54746" lon="3.42739">
        <ele>29.923447</ele>
        <time>2021-09-28T10:11:32Z</time>
      </trkpt>
      <trkpt lat="50.54754" lon="3.42751">
        <ele>29.862783</ele>
        <time>2021-09-28T10:11:34Z</time>
      </trkpt>
      <trkpt lat="50.54763" lon="3.42762">
        <ele>29.811199</ele>
        <time>2021-09-28T10:11:36Z</time>
      </trkpt>
      <trkpt lat="50.5477" lon="3.42772">
        <ele>29.738733</ele>
        <time>2021-09-28T10:11:38Z</time>
      </trkpt>
      <trkpt lat="50.54778" lon="3.42784">
        <ele>29.645214</ele>
        <time>2021-09-28T10:11:40Z</time>
      </trkpt>
      <trkpt lat="50.54784" lon="3.42795">
        <ele>29.581446</ele>
        <time>2021-09-28T10:11:42Z</time>
      </trkpt>
      <trkpt lat="50.54789" lon="3.42805">
        <ele>29.471539</ele>
        <time>2021-09-28T10:11:44Z</time>
      </trkpt>
      <trkpt lat="50.54794" lon="3.42813">
        <ele>28.876774</ele>
        <time>2021-09-28T10:11:46Z</time>
      </trkpt>
      <trkpt lat="50.54798" lon="3.42819">
        <ele>28.826797</ele>
        <time>2021-09-28T10:11:48Z</time>
      </trkpt>
      <trkpt lat="50.548" lon="3.42822">
        <ele>28.70166</ele>
        <time>2021-09-28T10:11:50Z</time>
      </trkpt>
      <trkpt lat="50.54804" lon="3.4282">
        <ele>28.574167</ele>
        <time>2021-09-28T10:11:52Z</time>
      </trkpt>
      <trkpt lat="50.54808" lon="3.42818">
        <ele>28.52688</ele>
        <time>2021-09-28T10:11:54Z</time>
      </trkpt>
      <trkpt lat="50.54815" lon="3.4282">
        <ele>28.379833</ele>
        <time>2021-09-28T10:11:56Z</time>
      </trkpt>
      <trkpt lat="50.54819" lon="3.42825">
        <ele>28.197046</ele>
        <time>2021-09-28T10:11:58Z</time>
      </trkpt>
      <trkpt lat="50.54824" lon="3.42828">
        <ele>27.991787</ele>
        <time>2021-09-28T10:12:00Z</time>
      </trkpt>
      <trkpt lat="50.54832" lon="3.42827">
        <ele>23.946447</ele>
        <time>2021-09-28T10:12:45Z</time>
      </trkpt>
      <trkpt lat="50.54838" lon="3.42819">
        <ele>23.798864</ele>
        <time>2021-09-28T10:12:47Z</time>
      </trkpt>
      <trkpt lat="50.54842" lon="3.42814">
        <ele>23.713192</ele>
        <time>2021-09-28T10:12:49Z</time>
      </trkpt>
      <trkpt lat="50.54845" lon="3.42809">
        <ele>23.676071</ele>
        <time>2021-09-28T10:12:51Z</time>
      </trkpt>
      <trkpt lat="50.54849" lon="3.42804">
        <ele>23.593922</ele>
        <time>2021-09-28T10:12:53Z</time>
      </trkpt>
      <trkpt lat="50.54853" lon="3.42797">
        <ele>23.592245</ele>
        <time>2021-09-28T10:12:55Z</time>
      </trkpt>
      <trkpt lat="50.54857" lon="3.42791">
        <ele>23.673599</ele>
        <time>2021-09-28T10:12:57Z</time>
      </trkpt>
      <trkpt lat="50.54862" lon="3.42784">
        <ele>23.675343</ele>
        <time>2021-09-28T10:12:59Z</time>
      </trkpt>
      <trkpt lat="50.54867" lon="3.42777">
        <ele>23.719006</ele>
        <time>2021-09-28T10:13:01Z</time>
      </trkpt>
      <trkpt lat="50.54872" lon="3.4277">
        <ele>23.745218</ele>
        <time>2021-09-28T10:13:03Z</time>
      </trkpt>
      <trkpt lat="50.54876" lon="3.42763">
        <ele>23.818958</ele>
        <time>2021-09-28T10:13:05Z</time>
      </trkpt>
      <trkpt lat="50.54881" lon="3.42756">
        <ele>23.964935</ele>
        <time>2021-09-28T10:13:07Z</time>
      </trkpt>
      <trkpt lat="50.54886" lon="3.42749">
        <ele>24.097948</ele>
        <time>2021-09-28T10:13:09Z</time>
      </trkpt>
      <trkpt lat="50.54891" lon="3.42742">
        <ele>24.167271</ele>
        <time>2021-09-28T10:13:11Z</time>
      </trkpt>
      <trkpt lat="50.54896" lon="3.42735">
        <ele>24.300821</ele>
        <time>2021-09-28T10:13:13Z</time>
      </trkpt>
      <trkpt lat="50.54901" lon="3.42729">
        <ele>24.454309</ele>
        <time>2021-09-28T10:13:15Z</time>
      </trkpt>
      <trkpt lat="50.54905" lon="3.42721">
        <ele>24.603081</ele>
        <time>2021-09-28T10:13:17Z</time>
      </trkpt>
      <trkpt lat="50.5491" lon="3.42714">
        <ele>24.773632</ele>
        <time>2021-09-28T10:13:19Z</time>
      </trkpt>
      <trkpt lat="50.54916" lon="3.42709">
        <ele>24.866922</ele>
        <time>2021-09-28T10:13:21Z</time>
      </trkpt>
      <trkpt lat="50.54919" lon="3.42707">
        <ele>25.07276</ele>
        <time>2021-09-28T10:13:23Z</time>
      </trkpt>
      <trkpt lat="50.54921" lon="3.42706">
        <ele>25.281256</ele>
        <time>2021-09-28T10:13:25Z</time>
      </trkpt>
      <trkpt lat="50.54924" lon="3.42703">
        <ele>25.506338</ele>
        <time>2021-09-28T10:13:27Z</time>
      </trkpt>
      <trkpt lat="50.54927" lon="3.427">
        <ele>25.693726</ele>
        <time>2021-09-28T10:13:29Z</time>
      </trkpt>
      <trkpt lat="50.54931" lon="3.42695">
        <ele>25.79479</ele>
        <time>2021-09-28T10:13:31Z</time>
      </trkpt>
      <trkpt lat="50.54936" lon="3.42692">
        <ele>26.061123</ele>
        <time>2021-09-28T10:13:33Z</time>
      </trkpt>
      <trkpt lat="50.5494" lon="3.4269">
        <ele>26.200705</ele>
        <time>2021-09-28T10:13:35Z</time>
      </trkpt>
      <trkpt lat="50.54943" lon="3.42686">
        <ele>26.30979</ele>
        <time>2021-09-28T10:13:37Z</time>
      </trkpt>
      <trkpt lat="50.54947" lon="3.42683">
        <ele>26.519505</ele>
        <time>2021-09-28T10:13:39Z</time>
      </trkpt>
      <trkpt lat="50.54953" lon="3.42678">
        <ele>26.675781</ele>
        <time>2021-09-28T10:13:41Z</time>
      </trkpt>
      <trkpt lat="50.54955" lon="3.42671">
        <ele>26.690655</ele>
        <time>2021-09-28T10:13:43Z</time>
      </trkpt>
      <trkpt lat="50.54961" lon="3.42666">
        <ele>26.914331</ele>
        <time>2021-09-28T10:13:45Z</time>
      </trkpt>
      <trkpt lat="50.54967" lon="3.42661">
        <ele>27.066965</ele>
        <time>2021-09-28T10:13:47Z</time>
      </trkpt>
      <trkpt lat="50.54974" lon="3.42656">
        <ele>27.233814</ele>
        <time>2021-09-28T10:13:49Z</time>
      </trkpt>
      <trkpt lat="50.5498" lon="3.42651">
        <ele>27.375126</ele>
        <time>2021-09-28T10:13:51Z</time>
      </trkpt>
      <trkpt lat="50.54985" lon="3.42647">
        <ele>27.390812</ele>
        <time>2021-09-28T10:13:53Z</time>
      </trkpt>
      <trkpt lat="50.54989" lon="3.42643">
        <ele>27.522449</ele>
        <time>2021-09-28T10:13:55Z</time>
      </trkpt>
      <trkpt lat="50.54993" lon="3.42639">
        <ele>27.713617</ele>
        <time>2021-09-28T10:13:57Z</time>
      </trkpt>
      <trkpt lat="50.54999" lon="3.42635">
        <ele>27.789948</ele>
        <time>2021-09-28T10:13:59Z</time>
      </trkpt>
      <trkpt lat="50.55005" lon="3.42631">
        <ele>27.959009</ele>
        <time>2021-09-28T10:14:01Z</time>
      </trkpt>
      <trkpt lat="50.55011" lon="3.42627">
        <ele>28.052952</ele>
        <time>2021-09-28T10:14:03Z</time>
      </trkpt>
      <trkpt lat="50.55019" lon="3.42622">
        <ele>28.184702</ele>
        <time>2021-09-28T10:14:05Z</time>
      </trkpt>
      <trkpt lat="50.55028" lon="3.42617">
        <ele>28.297443</ele>
        <time>2021-09-28T10:14:07Z</time>
      </trkpt>
      <trkpt lat="50.55032" lon="3.42616">
        <ele>28.429398</ele>
        <time>2021-09-28T10:14:09Z</time>
      </trkpt>
      <trkpt lat="50.55037" lon="3.42613">
        <ele>28.473404</ele>
        <time>2021-09-28T10:14:11Z</time>
      </trkpt>
      <trkpt lat="50.55043" lon="3.42609">
        <ele>28.53772</ele>
        <time>2021-09-28T10:14:13Z</time>
      </trkpt>
      <trkpt lat="50.55048" lon="3.42604">
        <ele>28.658726</ele>
        <time>2021-09-28T10:14:15Z</time>
      </trkpt>
      <trkpt lat="50.55053" lon="3.42599">
        <ele>28.705677</ele>
        <time>2021-09-28T10:14:17Z</time>
      </trkpt>
      <trkpt lat="50.55057" lon="3.42595">
        <ele>28.802235</ele>
        <time>2021-09-28T10:14:19Z</time>
      </trkpt>
      <trkpt lat="50.55061" lon="3.42588">
        <ele>28.83559</ele>
        <time>2021-09-28T10:14:21Z</time>
      </trkpt>
      <trkpt lat="50.55064" lon="3.42585">
        <ele>28.921585</ele>
        <time>2021-09-28T10:14:23Z</time>
      </trkpt>
      <trkpt lat="50.55069" lon="3.42583">
        <ele>28.960384</ele>
        <time>2021-09-28T10:14:25Z</time>
      </trkpt>
      <trkpt lat="50.55072" lon="3.42579">
        <ele>29.082632</ele>
        <time>2021-09-28T10:14:27Z</time>
      </trkpt>
      <trkpt lat="50.55079" lon="3.42575">
        <ele>29.115412</ele>
        <time>2021-09-28T10:14:29Z</time>
      </trkpt>
      <trkpt lat="50.55084" lon="3.42572">
        <ele>29.118387</ele>
        <time>2021-09-28T10:14:31Z</time>
      </trkpt>
      <trkpt lat="50.55089" lon="3.42568">
        <ele>29.20079</ele>
        <time>2021-09-28T10:14:33Z</time>
      </trkpt>
      <trkpt lat="50.55096" lon="3.42565">
        <ele>29.237003</ele>
        <time>2021-09-28T10:14:35Z</time>
      </trkpt>
      <trkpt lat="50.55102" lon="3.42561">
        <ele>29.271551</ele>
        <time>2021-09-28T10:14:37Z</time>
      </trkpt>
      <trkpt lat="50.55109" lon="3.42556">
        <ele>29.278057</ele>
        <time>2021-09-28T10:14:39Z</time>
      </trkpt>
      <trkpt lat="50.55113" lon="3.42553">
        <ele>29.298691</ele>
        <time>2021-09-28T10:14:41Z</time>
      </trkpt>
      <trkpt lat="50.55118" lon="3.4255">
        <ele>29.829266</ele>
        <time>2021-09-28T10:14:43Z</time>
      </trkpt>
      <trkpt lat="50.55123" lon="3.42547">
        <ele>29.837046</ele>
        <time>2021-09-28T10:14:45Z</time>
      </trkpt>
      <trkpt lat="50.55133" lon="3.42539">
        <ele>29.805038</ele>
        <time>2021-09-28T10:14:47Z</time>
      </trkpt>
      <trkpt lat="50.55138" lon="3.42536">
        <ele>29.813702</ele>
        <time>2021-09-28T10:14:49Z</time>
      </trkpt>
      <trkpt lat="50.55143" lon="3.42532">
        <ele>29.817074</ele>
        <time>2021-09-28T10:14:51Z</time>
      </trkpt>
      <trkpt lat="50.5515" lon="3.42527">
        <ele>29.831516</ele>
        <time>2021-09-28T10:14:53Z</time>
      </trkpt>
      <trkpt lat="50.55155" lon="3.42524">
        <ele>29.871326</ele>
        <time>2021-09-28T10:14:55Z</time>
      </trkpt>
      <trkpt lat="50.5516" lon="3.4252">
        <ele>29.892721</ele>
        <time>2021-09-28T10:14:57Z</time>
      </trkpt>
      <trkpt lat="50.55166" lon="3.42513">
        <ele>30.002722</ele>
        <time>2021-09-28T10:14:59Z</time>
      </trkpt>
      <trkpt lat="50.55172" lon="3.42507">
        <ele>30.033182</ele>
        <time>2021-09-28T10:15:01Z</time>
      </trkpt>
      <trkpt lat="50.55179" lon="3.42504">
        <ele>30.112768</ele>
        <time>2021-09-28T10:15:03Z</time>
      </trkpt>
      <trkpt lat="50.55185" lon="3.42498">
        <ele>30.135464</ele>
        <time>2021-09-28T10:15:05Z</time>
      </trkpt>
      <trkpt lat="50.55191" lon="3.42494">
        <ele>30.159466</ele>
        <time>2021-09-28T10:15:07Z</time>
      </trkpt>
      <trkpt lat="50.55197" lon="3.4249">
        <ele>30.197439</ele>
        <time>2021-09-28T10:15:09Z</time>
      </trkpt>
      <trkpt lat="50.55202" lon="3.42487">
        <ele>30.239105</ele>
        <time>2021-09-28T10:15:11Z</time>
      </trkpt>
      <trkpt lat="50.55209" lon="3.42483">
        <ele>30.251883</ele>
        <time>2021-09-28T10:15:13Z</time>
      </trkpt>
      <trkpt lat="50.55216" lon="3.42479">
        <ele>30.180948</ele>
        <time>2021-09-28T10:15:15Z</time>
      </trkpt>
      <trkpt lat="50.55225" lon="3.42474">
        <ele>30.19313</ele>
        <time>2021-09-28T10:15:17Z</time>
      </trkpt>
      <trkpt lat="50.55234" lon="3.42468">
        <ele>30.254908</ele>
        <time>2021-09-28T10:15:19Z</time>
      </trkpt>
      <trkpt lat="50.55241" lon="3.42464">
        <ele>30.282803</ele>
        <time>2021-09-28T10:15:21Z</time>
      </trkpt>
      <trkpt lat="50.55247" lon="3.4246">
        <ele>30.290188</ele>
        <time>2021-09-28T10:15:23Z</time>
      </trkpt>
      <trkpt lat="50.55252" lon="3.42454">
        <ele>30.319479</ele>
        <time>2021-09-28T10:15:25Z</time>
      </trkpt>
      <trkpt lat="50.55259" lon="3.42451">
        <ele>30.897421</ele>
        <time>2021-09-28T10:15:27Z</time>
      </trkpt>
      <trkpt lat="50.55266" lon="3.42447">
        <ele>30.945704</ele>
        <time>2021-09-28T10:15:29Z</time>
      </trkpt>
      <trkpt lat="50.55272" lon="3.42444">
        <ele>30.390133</ele>
        <time>2021-09-28T10:15:31Z</time>
      </trkpt>
      <trkpt lat="50.55278" lon="3.42439">
        <ele>30.419611</ele>
        <time>2021-09-28T10:15:33Z</time>
      </trkpt>
      <trkpt lat="50.55284" lon="3.42434">
        <ele>30.424381</ele>
        <time>2021-09-28T10:15:35Z</time>
      </trkpt>
      <trkpt lat="50.5529" lon="3.42428">
        <ele>30.420803</ele>
        <time>2021-09-28T10:15:37Z</time>
      </trkpt>
      <trkpt lat="50.55297" lon="3.42421">
        <ele>30.473232</ele>
        <time>2021-09-28T10:15:39Z</time>
      </trkpt>
      <trkpt lat="50.55304" lon="3.42415">
        <ele>30.517746</ele>
        <time>2021-09-28T10:15:41Z</time>
      </trkpt>
      <trkpt lat="50.55312" lon="3.4241">
        <ele>30.602161</ele>
        <time>2021-09-28T10:15:43Z</time>
      </trkpt>
      <trkpt lat="50.55319" lon="3.42405">
        <ele>30.574533</ele>
        <time>2021-09-28T10:15:45Z</time>
      </trkpt>
      <trkpt lat="50.55326" lon="3.42401">
        <ele>30.569687</ele>
        <time>2021-09-28T10:15:47Z</time>
      </trkpt>
      <trkpt lat="50.55333" lon="3.42398">
        <ele>30.468723</ele>
        <time>2021-09-28T10:15:49Z</time>
      </trkpt>
      <trkpt lat="50.55339" lon="3.42394">
        <ele>30.451675</ele>
        <time>2021-09-28T10:15:51Z</time>
      </trkpt>
      <trkpt lat="50.55346" lon="3.4239">
        <ele>30.407614</ele>
        <time>2021-09-28T10:15:53Z</time>
      </trkpt>
      <trkpt lat="50.55353" lon="3.42387">
        <ele>30.374607</ele>
        <time>2021-09-28T10:15:55Z</time>
      </trkpt>
      <trkpt lat="50.5536" lon="3.42385">
        <ele>30.295086</ele>
        <time>2021-09-28T10:15:57Z</time>
      </trkpt>
      <trkpt lat="50.55368" lon="3.42387">
        <ele>30.213329</ele>
        <time>2021-09-28T10:15:59Z</time>
      </trkpt>
      <trkpt lat="50.55375" lon="3.42389">
        <ele>30.158991</ele>
        <time>2021-09-28T10:16:01Z</time>
      </trkpt>
      <trkpt lat="50.55381" lon="3.42392">
        <ele>30.095499</ele>
        <time>2021-09-28T10:16:03Z</time>
      </trkpt>
      <trkpt lat="50.5539" lon="3.42396">
        <ele>29.957422</ele>
        <time>2021-09-28T10:16:05Z</time>
      </trkpt>
      <trkpt lat="50.55396" lon="3.424">
        <ele>29.853748</ele>
        <time>2021-09-28T10:16:07Z</time>
      </trkpt>
      <trkpt lat="50.55402" lon="3.42403">
        <ele>29.80629</ele>
        <time>2021-09-28T10:16:09Z</time>
      </trkpt>
      <trkpt lat="50.55409" lon="3.42405">
        <ele>29.725836</ele>
        <time>2021-09-28T10:16:11Z</time>
      </trkpt>
      <trkpt lat="50.55419" lon="3.42411">
        <ele>29.676504</ele>
        <time>2021-09-28T10:16:13Z</time>
      </trkpt>
      <trkpt lat="50.5543" lon="3.42416">
        <ele>29.098248</ele>
        <time>2021-09-28T10:16:15Z</time>
      </trkpt>
      <trkpt lat="50.55439" lon="3.4242">
        <ele>28.982141</ele>
        <time>2021-09-28T10:16:17Z</time>
      </trkpt>
      <trkpt lat="50.55448" lon="3.42425">
        <ele>28.902191</ele>
        <time>2021-09-28T10:16:19Z</time>
      </trkpt>
      <trkpt lat="50.55455" lon="3.42429">
        <ele>28.805222</ele>
        <time>2021-09-28T10:16:21Z</time>
      </trkpt>
      <trkpt lat="50.55463" lon="3.42433">
        <ele>28.652328</ele>
        <time>2021-09-28T10:16:23Z</time>
      </trkpt>
      <trkpt lat="50.55471" lon="3.4243">
        <ele>28.546087</ele>
        <time>2021-09-28T10:16:25Z</time>
      </trkpt>
      <trkpt lat="50.55478" lon="3.42423">
        <ele>28.297939</ele>
        <time>2021-09-28T10:16:27Z</time>
      </trkpt>
      <trkpt lat="50.55482" lon="3.42411">
        <ele>27.981354</ele>
        <time>2021-09-28T10:16:29Z</time>
      </trkpt>
      <trkpt lat="50.55486" lon="3.42399">
        <ele>27.962759</ele>
        <time>2021-09-28T10:16:31Z</time>
      </trkpt>
      <trkpt lat="50.55488" lon="3.42385">
        <ele>27.751789</ele>
        <time>2021-09-28T10:16:33Z</time>
      </trkpt>
      <trkpt lat="50.55491" lon="3.42372">
        <ele>27.549099</ele>
        <time>2021-09-28T10:16:35Z</time>
      </trkpt>
      <trkpt lat="50.55494" lon="3.42358">
        <ele>27.326069</ele>
        <time>2021-09-28T10:16:37Z</time>
      </trkpt>
      <trkpt lat="50.55497" lon="3.42345">
        <ele>27.205185</ele>
        <time>2021-09-28T10:16:39Z</time>
      </trkpt>
      <trkpt lat="50.555" lon="3.42331">
        <ele>27.063934</ele>
        <time>2021-09-28T10:16:41Z</time>
      </trkpt>
      <trkpt lat="50.55503" lon="3.42317">
        <ele>26.932323</ele>
        <time>2021-09-28T10:16:43Z</time>
      </trkpt>
      <trkpt lat="50.55505" lon="3.42304">
        <ele>26.846783</ele>
        <time>2021-09-28T10:16:45Z</time>
      </trkpt>
      <trkpt lat="50.55507" lon="3.4229">
        <ele>26.787815</ele>
        <time>2021-09-28T10:16:47Z</time>
      </trkpt>
      <trkpt lat="50.55508" lon="3.42278">
        <ele>26.700775</ele>
        <time>2021-09-28T10:16:49Z</time>
      </trkpt>
      <trkpt lat="50.55509" lon="3.42264">
        <ele>26.683216</ele>
        <time>2021-09-28T10:16:51Z</time>
      </trkpt>
      <trkpt lat="50.5551" lon="3.42251">
        <ele>26.717737</ele>
        <time>2021-09-28T10:16:53Z</time>
      </trkpt>
      <trkpt lat="50.55511" lon="3.42238">
        <ele>26.752918</ele>
        <time>2021-09-28T10:16:55Z</time>
      </trkpt>
      <trkpt lat="50.55513" lon="3.42224">
        <ele>26.887781</ele>
        <time>2021-09-28T10:16:57Z</time>
      </trkpt>
      <trkpt lat="50.55517" lon="3.42211">
        <ele>27.00831</ele>
        <time>2021-09-28T10:16:59Z</time>
      </trkpt>
      <trkpt lat="50.55521" lon="3.42197">
        <ele>27.192423</ele>
        <time>2021-09-28T10:17:01Z</time>
      </trkpt>
      <trkpt lat="50.55524" lon="3.42183">
        <ele>27.313272</ele>
        <time>2021-09-28T10:17:03Z</time>
      </trkpt>
      <trkpt lat="50.55527" lon="3.42169">
        <ele>27.521954</ele>
        <time>2021-09-28T10:17:05Z</time>
      </trkpt>
      <trkpt lat="50.55529" lon="3.42154">
        <ele>27.749878</ele>
        <time>2021-09-28T10:17:07Z</time>
      </trkpt>
      <trkpt lat="50.55532" lon="3.4214">
        <ele>28.059072</ele>
        <time>2021-09-28T10:17:09Z</time>
      </trkpt>
      <trkpt lat="50.55534" lon="3.42125">
        <ele>28.180674</ele>
        <time>2021-09-28T10:17:11Z</time>
      </trkpt>
      <trkpt lat="50.55537" lon="3.4211">
        <ele>28.476864</ele>
        <time>2021-09-28T10:17:13Z</time>
      </trkpt>
      <trkpt lat="50.55538" lon="3.42095">
        <ele>28.762287</ele>
        <time>2021-09-28T10:17:15Z</time>
      </trkpt>
      <trkpt lat="50.5554" lon="3.4208">
        <ele>29.060308</ele>
        <time>2021-09-28T10:17:17Z</time>
      </trkpt>
      <trkpt lat="50.55541" lon="3.42066">
        <ele>29.213345</ele>
        <time>2021-09-28T10:17:19Z</time>
      </trkpt>
      <trkpt lat="50.55543" lon="3.42052">
        <ele>29.530054</ele>
        <time>2021-09-28T10:17:21Z</time>
      </trkpt>
      <trkpt lat="50.55545" lon="3.42037">
        <ele>29.862722</ele>
        <time>2021-09-28T10:17:23Z</time>
      </trkpt>
      <trkpt lat="50.55546" lon="3.42022">
        <ele>30.212427</ele>
        <time>2021-09-28T10:17:25Z</time>
      </trkpt>
      <trkpt lat="50.55548" lon="3.42007">
        <ele>30.391113</ele>
        <time>2021-09-28T10:17:27Z</time>
      </trkpt>
      <trkpt lat="50.55552" lon="3.41994">
        <ele>30.750736</ele>
        <time>2021-09-28T10:17:29Z</time>
      </trkpt>
      <trkpt lat="50.55554" lon="3.41984">
        <ele>31.108038</ele>
        <time>2021-09-28T10:17:31Z</time>
      </trkpt>
      <trkpt lat="50.55555" lon="3.41972">
        <ele>31.457043</ele>
        <time>2021-09-28T10:17:33Z</time>
      </trkpt>
      <trkpt lat="50.55558" lon="3.41961">
        <ele>31.628265</ele>
        <time>2021-09-28T10:17:35Z</time>
      </trkpt>
      <trkpt lat="50.55559" lon="3.41951">
        <ele>31.953272</ele>
        <time>2021-09-28T10:17:37Z</time>
      </trkpt>
      <trkpt lat="50.55563" lon="3.41942">
        <ele>32.225655</ele>
        <time>2021-09-28T10:17:39Z</time>
      </trkpt>
      <trkpt lat="50.5557" lon="3.41934">
        <ele>32.433113</ele>
        <time>2021-09-28T10:17:41Z</time>
      </trkpt>
      <trkpt lat="50.55579" lon="3.41928">
        <ele>32.590088</ele>
        <time>2021-09-28T10:17:43Z</time>
      </trkpt>
      <trkpt lat="50.55589" lon="3.4192">
        <ele>32.651722</ele>
        <time>2021-09-28T10:17:45Z</time>
      </trkpt>
      <trkpt lat="50.55598" lon="3.41913">
        <ele>32.77523</ele>
        <time>2021-09-28T10:17:47Z</time>
      </trkpt>
      <trkpt lat="50.55607" lon="3.41905">
        <ele>32.928768</ele>
        <time>2021-09-28T10:17:49Z</time>
      </trkpt>
      <trkpt lat="50.55615" lon="3.41897">
        <ele>33.011135</ele>
        <time>2021-09-28T10:17:51Z</time>
      </trkpt>
      <trkpt lat="50.55623" lon="3.41889">
        <ele>33.174133</ele>
        <time>2021-09-28T10:17:53Z</time>
      </trkpt>
      <trkpt lat="50.5563" lon="3.41879">
        <ele>33.33353</ele>
        <time>2021-09-28T10:17:55Z</time>
      </trkpt>
      <trkpt lat="50.55638" lon="3.41872">
        <ele>33.477261</ele>
        <time>2021-09-28T10:17:57Z</time>
      </trkpt>
      <trkpt lat="50.55647" lon="3.41866">
        <ele>33.60331</ele>
        <time>2021-09-28T10:17:59Z</time>
      </trkpt>
      <trkpt lat="50.55656" lon="3.41862">
        <ele>33.733116</ele>
        <time>2021-09-28T10:18:01Z</time>
      </trkpt>
      <trkpt lat="50.55666" lon="3.4186">
        <ele>33.804764</ele>
        <time>2021-09-28T10:18:03Z</time>
      </trkpt>
      <trkpt lat="50.55675" lon="3.41857">
        <ele>33.946789</ele>
        <time>2021-09-28T10:18:05Z</time>
      </trkpt>
      <trkpt lat="50.55684" lon="3.41854">
        <ele>34.081253</ele>
        <time>2021-09-28T10:18:07Z</time>
      </trkpt>
      <trkpt lat="50.55693" lon="3.41852">
        <ele>34.139584</ele>
        <time>2021-09-28T10:18:09Z</time>
      </trkpt>
      <trkpt lat="50.55703" lon="3.41849">
        <ele>34.262428</ele>
        <time>2021-09-28T10:18:11Z</time>
      </trkpt>
      <trkpt lat="50.55712" lon="3.41846">
        <ele>34.314983</ele>
        <time>2021-09-28T10:18:13Z</time>
      </trkpt>
      <trkpt lat="50.55721" lon="3.41844">
        <ele>34.406677</ele>
        <time>2021-09-28T10:18:15Z</time>
      </trkpt>
      <trkpt lat="50.5573" lon="3.41843">
        <ele>34.488728</ele>
        <time>2021-09-28T10:18:17Z</time>
      </trkpt>
      <trkpt lat="50.5574" lon="3.41842">
        <ele>34.53178</ele>
        <time>2021-09-28T10:18:19Z</time>
      </trkpt>
      <trkpt lat="50.55749" lon="3.41841">
        <ele>34.626129</ele>
        <time>2021-09-28T10:18:21Z</time>
      </trkpt>
      <trkpt lat="50.55758" lon="3.4184">
        <ele>34.696106</ele>
        <time>2021-09-28T10:18:23Z</time>
      </trkpt>
      <trkpt lat="50.55768" lon="3.41838">
        <ele>34.728561</ele>
        <time>2021-09-28T10:18:25Z</time>
      </trkpt>
      <trkpt lat="50.55777" lon="3.41836">
        <ele>34.834454</ele>
        <time>2021-09-28T10:18:27Z</time>
      </trkpt>
      <trkpt lat="50.55787" lon="3.41835">
        <ele>34.946182</ele>
        <time>2021-09-28T10:18:29Z</time>
      </trkpt>
      <trkpt lat="50.55796" lon="3.41833">
        <ele>34.998463</ele>
        <time>2021-09-28T10:18:31Z</time>
      </trkpt>
      <trkpt lat="50.55806" lon="3.41832">
        <ele>35.123909</ele>
        <time>2021-09-28T10:18:33Z</time>
      </trkpt>
      <trkpt lat="50.55816" lon="3.4183">
        <ele>35.231087</ele>
        <time>2021-09-28T10:18:35Z</time>
      </trkpt>
      <trkpt lat="50.55826" lon="3.4183">
        <ele>35.299728</ele>
        <time>2021-09-28T10:18:37Z</time>
      </trkpt>
      <trkpt lat="50.55836" lon="3.41831">
        <ele>35.433983</ele>
        <time>2021-09-28T10:18:39Z</time>
      </trkpt>
      <trkpt lat="50.55846" lon="3.41834">
        <ele>35.555557</ele>
        <time>2021-09-28T10:18:41Z</time>
      </trkpt>
      <trkpt lat="50.55855" lon="3.41836">
        <ele>35.615582</ele>
        <time>2021-09-28T10:18:43Z</time>
      </trkpt>
      <trkpt lat="50.55864" lon="3.41837">
        <ele>35.760056</ele>
        <time>2021-09-28T10:18:45Z</time>
      </trkpt>
      <trkpt lat="50.55874" lon="3.41838">
        <ele>35.950748</ele>
        <time>2021-09-28T10:18:47Z</time>
      </trkpt>
      <trkpt lat="50.55883" lon="3.41839">
        <ele>36.017357</ele>
        <time>2021-09-28T10:18:49Z</time>
      </trkpt>
      <trkpt lat="50.55892" lon="3.4184">
        <ele>36.169441</ele>
        <time>2021-09-28T10:18:51Z</time>
      </trkpt>
      <trkpt lat="50.55901" lon="3.41841">
        <ele>36.334187</ele>
        <time>2021-09-28T10:18:53Z</time>
      </trkpt>
      <trkpt lat="50.5591" lon="3.41844">
        <ele>36.415909</ele>
        <time>2021-09-28T10:18:55Z</time>
      </trkpt>
      <trkpt lat="50.55916" lon="3.41854">
        <ele>36.595837</ele>
        <time>2021-09-28T10:18:57Z</time>
      </trkpt>
      <trkpt lat="50.55918" lon="3.41868">
        <ele>36.767845</ele>
        <time>2021-09-28T10:18:59Z</time>
      </trkpt>
      <trkpt lat="50.55919" lon="3.41883">
        <ele>36.957497</ele>
        <time>2021-09-28T10:19:01Z</time>
      </trkpt>
      <trkpt lat="50.55919" lon="3.41898">
        <ele>37.046673</ele>
        <time>2021-09-28T10:19:03Z</time>
      </trkpt>
      <trkpt lat="50.55919" lon="3.41913">
        <ele>37.229485</ele>
        <time>2021-09-28T10:19:05Z</time>
      </trkpt>
      <trkpt lat="50.55919" lon="3.41928">
        <ele>37.393631</ele>
        <time>2021-09-28T10:19:07Z</time>
      </trkpt>
      <trkpt lat="50.55919" lon="3.41942">
        <ele>37.535866</ele>
        <time>2021-09-28T10:19:09Z</time>
      </trkpt>
      <trkpt lat="50.55919" lon="3.41957">
        <ele>37.612473</ele>
        <time>2021-09-28T10:19:11Z</time>
      </trkpt>
      <trkpt lat="50.55918" lon="3.41972">
        <ele>37.713051</ele>
        <time>2021-09-28T10:19:13Z</time>
      </trkpt>
      <trkpt lat="50.55917" lon="3.41987">
        <ele>37.799294</ele>
        <time>2021-09-28T10:19:15Z</time>
      </trkpt>
      <trkpt lat="50.55918" lon="3.42004">
        <ele>37.862061</ele>
        <time>2021-09-28T10:19:17Z</time>
      </trkpt>
      <trkpt lat="50.55917" lon="3.42021">
        <ele>37.910526</ele>
        <time>2021-09-28T10:19:19Z</time>
      </trkpt>
      <trkpt lat="50.55916" lon="3.42038">
        <ele>37.977982</ele>
        <time>2021-09-28T10:19:21Z</time>
      </trkpt>
      <trkpt lat="50.55915" lon="3.42056">
        <ele>38.024422</ele>
        <time>2021-09-28T10:19:23Z</time>
      </trkpt>
      <trkpt lat="50.55913" lon="3.42073">
        <ele>38.045021</ele>
        <time>2021-09-28T10:19:25Z</time>
      </trkpt>
      <trkpt lat="50.55912" lon="3.42091">
        <ele>38.032944</ele>
        <time>2021-09-28T10:19:27Z</time>
      </trkpt>
      <trkpt lat="50.5591" lon="3.42109">
        <ele>38.020363</ele>
        <time>2021-09-28T10:19:29Z</time>
      </trkpt>
      <trkpt lat="50.55909" lon="3.42127">
        <ele>38.003399</ele>
        <time>2021-09-28T10:19:31Z</time>
      </trkpt>
      <trkpt lat="50.55908" lon="3.42144">
        <ele>37.95911</ele>
        <time>2021-09-28T10:19:33Z</time>
      </trkpt>
      <trkpt lat="50.55908" lon="3.42161">
        <ele>37.864391</ele>
        <time>2021-09-28T10:19:35Z</time>
      </trkpt>
      <trkpt lat="50.55909" lon="3.42178">
        <ele>37.794628</ele>
        <time>2021-09-28T10:19:37Z</time>
      </trkpt>
      <trkpt lat="50.55911" lon="3.42195">
        <ele>37.738075</ele>
        <time>2021-09-28T10:19:39Z</time>
      </trkpt>
      <trkpt lat="50.55912" lon="3.42211">
        <ele>37.629539</ele>
        <time>2021-09-28T10:19:41Z</time>
      </trkpt>
      <trkpt lat="50.55913" lon="3.42229">
        <ele>37.494232</ele>
        <time>2021-09-28T10:19:43Z</time>
      </trkpt>
      <trkpt lat="50.55914" lon="3.42246">
        <ele>37.345417</ele>
        <time>2021-09-28T10:19:45Z</time>
      </trkpt>
      <trkpt lat="50.55916" lon="3.42263">
        <ele>37.266247</ele>
        <time>2021-09-28T10:19:47Z</time>
      </trkpt>
      <trkpt lat="50.55917" lon="3.42279">
        <ele>37.100529</ele>
        <time>2021-09-28T10:19:49Z</time>
      </trkpt>
      <trkpt lat="50.55918" lon="3.42296">
        <ele>37.015892</ele>
        <time>2021-09-28T10:19:51Z</time>
      </trkpt>
      <trkpt lat="50.55919" lon="3.42311">
        <ele>36.844166</ele>
        <time>2021-09-28T10:19:53Z</time>
      </trkpt>
      <trkpt lat="50.55921" lon="3.42326">
        <ele>36.673096</ele>
        <time>2021-09-28T10:19:55Z</time>
      </trkpt>
      <trkpt lat="50.55925" lon="3.4234">
        <ele>36.506523</ele>
        <time>2021-09-28T10:19:57Z</time>
      </trkpt>
      <trkpt lat="50.5593" lon="3.42351">
        <ele>36.424252</ele>
        <time>2021-09-28T10:19:59Z</time>
      </trkpt>
      <trkpt lat="50.55936" lon="3.4236">
        <ele>36.26025</ele>
        <time>2021-09-28T10:20:01Z</time>
      </trkpt>
      <trkpt lat="50.55942" lon="3.42369">
        <ele>36.096336</ele>
        <time>2021-09-28T10:20:03Z</time>
      </trkpt>
      <trkpt lat="50.55949" lon="3.42373">
        <ele>35.930584</ele>
        <time>2021-09-28T10:20:05Z</time>
      </trkpt>
      <trkpt lat="50.55956" lon="3.4237">
        <ele>35.765503</ele>
        <time>2021-09-28T10:20:07Z</time>
      </trkpt>
      <trkpt lat="50.55964" lon="3.42363">
        <ele>35.618858</ele>
        <time>2021-09-28T10:20:09Z</time>
      </trkpt>
      <trkpt lat="50.55973" lon="3.42357">
        <ele>35.569309</ele>
        <time>2021-09-28T10:20:11Z</time>
      </trkpt>
      <trkpt lat="50.5598" lon="3.42347">
        <ele>35.491955</ele>
        <time>2021-09-28T10:20:13Z</time>
      </trkpt>
      <trkpt lat="50.55986" lon="3.42336">
        <ele>35.473106</ele>
        <time>2021-09-28T10:20:15Z</time>
      </trkpt>
      <trkpt lat="50.55989" lon="3.42322">
        <ele>35.440823</ele>
        <time>2021-09-28T10:20:17Z</time>
      </trkpt>
      <trkpt lat="50.55992" lon="3.42308">
        <ele>35.419376</ele>
        <time>2021-09-28T10:20:19Z</time>
      </trkpt>
      <trkpt lat="50.55994" lon="3.42293">
        <ele>35.405434</ele>
        <time>2021-09-28T10:20:21Z</time>
      </trkpt>
      <trkpt lat="50.55997" lon="3.42278">
        <ele>35.411343</ele>
        <time>2021-09-28T10:20:23Z</time>
      </trkpt>
      <trkpt lat="50.55999" lon="3.42262">
        <ele>35.448677</ele>
        <time>2021-09-28T10:20:25Z</time>
      </trkpt>
      <trkpt lat="50.56" lon="3.42246">
        <ele>35.485916</ele>
        <time>2021-09-28T10:20:27Z</time>
      </trkpt>
      <trkpt lat="50.56001" lon="3.42231">
        <ele>35.543705</ele>
        <time>2021-09-28T10:20:29Z</time>
      </trkpt>
      <trkpt lat="50.56001" lon="3.42215">
        <ele>35.648567</ele>
        <time>2021-09-28T10:20:31Z</time>
      </trkpt>
      <trkpt lat="50.56002" lon="3.42198">
        <ele>35.745335</ele>
        <time>2021-09-28T10:20:33Z</time>
      </trkpt>
      <trkpt lat="50.56002" lon="3.42182">
        <ele>35.76141</ele>
        <time>2021-09-28T10:20:35Z</time>
      </trkpt>
      <trkpt lat="50.56002" lon="3.42165">
        <ele>35.928928</ele>
        <time>2021-09-28T10:20:37Z</time>
      </trkpt>
      <trkpt lat="50.56002" lon="3.42148">
        <ele>36.119987</ele>
        <time>2021-09-28T10:20:39Z</time>
      </trkpt>
      <trkpt lat="50.56002" lon="3.4213">
        <ele>36.213577</ele>
        <time>2021-09-28T10:20:41Z</time>
      </trkpt>
      <trkpt lat="50.56003" lon="3.42112">
        <ele>36.39539</ele>
        <time>2021-09-28T10:20:43Z</time>
      </trkpt>
      <trkpt lat="50.56003" lon="3.42094">
        <ele>36.61113</ele>
        <time>2021-09-28T10:20:45Z</time>
      </trkpt>
      <trkpt lat="50.56004" lon="3.42078">
        <ele>36.70546</ele>
        <time>2021-09-28T10:20:47Z</time>
      </trkpt>
      <trkpt lat="50.56004" lon="3.42063">
        <ele>36.946205</ele>
        <time>2021-09-28T10:20:49Z</time>
      </trkpt>
      <trkpt lat="50.56005" lon="3.42048">
        <ele>37.177071</ele>
        <time>2021-09-28T10:20:51Z</time>
      </trkpt>
      <trkpt lat="50.56006" lon="3.42033">
        <ele>37.299477</ele>
        <time>2021-09-28T10:20:53Z</time>
      </trkpt>
      <trkpt lat="50.56006" lon="3.42019">
        <ele>37.53907</ele>
        <time>2021-09-28T10:20:55Z</time>
      </trkpt>
      <trkpt lat="50.56007" lon="3.42006">
        <ele>37.776554</ele>
        <time>2021-09-28T10:20:57Z</time>
      </trkpt>
      <trkpt lat="50.56007" lon="3.41993">
        <ele>37.982994</ele>
        <time>2021-09-28T10:20:59Z</time>
      </trkpt>
      <trkpt lat="50.56008" lon="3.4198">
        <ele>38.04908</ele>
        <time>2021-09-28T10:21:01Z</time>
      </trkpt>
      <trkpt lat="50.56008" lon="3.41967">
        <ele>38.249401</ele>
        <time>2021-09-28T10:21:03Z</time>
      </trkpt>
      <trkpt lat="50.56009" lon="3.41954">
        <ele>38.493092</ele>
        <time>2021-09-28T10:21:05Z</time>
      </trkpt>
      <trkpt lat="50.5601" lon="3.41942">
        <ele>38.627331</ele>
        <time>2021-09-28T10:21:07Z</time>
      </trkpt>
      <trkpt lat="50.5601" lon="3.41929">
        <ele>38.862762</ele>
        <time>2021-09-28T10:21:09Z</time>
      </trkpt>
      <trkpt lat="50.56011" lon="3.41917">
        <ele>39.106464</ele>
        <time>2021-09-28T10:21:11Z</time>
      </trkpt>
      <trkpt lat="50.56012" lon="3.41904">
        <ele>39.255165</ele>
        <time>2021-09-28T10:21:13Z</time>
      </trkpt>
      <trkpt lat="50.56012" lon="3.41891">
        <ele>39.505077</ele>
        <time>2021-09-28T10:21:15Z</time>
      </trkpt>
      <trkpt lat="50.56013" lon="3.41878">
        <ele>39.794243</ele>
        <time>2021-09-28T10:21:17Z</time>
      </trkpt>
      <trkpt lat="50.56014" lon="3.41865">
        <ele>39.940899</ele>
        <time>2021-09-28T10:21:19Z</time>
      </trkpt>
      <trkpt lat="50.56014" lon="3.41852">
        <ele>40.240395</ele>
        <time>2021-09-28T10:21:21Z</time>
      </trkpt>
      <trkpt lat="50.56015" lon="3.41839">
        <ele>40.562618</ele>
        <time>2021-09-28T10:21:23Z</time>
      </trkpt>
      <trkpt lat="50.56015" lon="3.41825">
        <ele>40.847694</ele>
        <time>2021-09-28T10:21:25Z</time>
      </trkpt>
      <trkpt lat="50.56017" lon="3.41812">
        <ele>40.973698</ele>
        <time>2021-09-28T10:21:27Z</time>
      </trkpt>
      <trkpt lat="50.56018" lon="3.41798">
        <ele>41.258766</ele>
        <time>2021-09-28T10:21:29Z</time>
      </trkpt>
      <trkpt lat="50.56022" lon="3.41786">
        <ele>41.502541</ele>
        <time>2021-09-28T10:21:31Z</time>
      </trkpt>
      <trkpt lat="50.56026" lon="3.41775">
        <ele>41.630619</ele>
        <time>2021-09-28T10:21:33Z</time>
      </trkpt>
      <trkpt lat="50.56031" lon="3.41766">
        <ele>41.892979</ele>
        <time>2021-09-28T10:21:35Z</time>
      </trkpt>
      <trkpt lat="50.56038" lon="3.41759">
        <ele>42.138821</ele>
        <time>2021-09-28T10:21:37Z</time>
      </trkpt>
      <trkpt lat="50.56044" lon="3.41752">
        <ele>42.430119</ele>
        <time>2021-09-28T10:21:39Z</time>
      </trkpt>
      <trkpt lat="50.56052" lon="3.41747">
        <ele>42.700752</ele>
        <time>2021-09-28T10:21:41Z</time>
      </trkpt>
      <trkpt lat="50.56059" lon="3.41741">
        <ele>42.876373</ele>
        <time>2021-09-28T10:21:43Z</time>
      </trkpt>
      <trkpt lat="50.56067" lon="3.41735">
        <ele>43.161598</ele>
        <time>2021-09-28T10:21:45Z</time>
      </trkpt>
      <trkpt lat="50.56073" lon="3.41729">
        <ele>43.496666</ele>
        <time>2021-09-28T10:21:47Z</time>
      </trkpt>
      <trkpt lat="50.56081" lon="3.41724">
        <ele>43.832027</ele>
        <time>2021-09-28T10:21:49Z</time>
      </trkpt>
      <trkpt lat="50.56088" lon="3.41719">
        <ele>44.121971</ele>
        <time>2021-09-28T10:21:51Z</time>
      </trkpt>
      <trkpt lat="50.56095" lon="3.41713">
        <ele>44.26239</ele>
        <time>2021-09-28T10:21:53Z</time>
      </trkpt>
      <trkpt lat="50.56102" lon="3.41708">
        <ele>44.669487</ele>
        <time>2021-09-28T10:21:55Z</time>
      </trkpt>
      <trkpt lat="50.56109" lon="3.41702">
        <ele>45.033783</ele>
        <time>2021-09-28T10:21:57Z</time>
      </trkpt>
      <trkpt lat="50.56117" lon="3.41696">
        <ele>45.380657</ele>
        <time>2021-09-28T10:21:59Z</time>
      </trkpt>
      <trkpt lat="50.56124" lon="3.41691">
        <ele>45.781593</ele>
        <time>2021-09-28T10:22:01Z</time>
      </trkpt>
      <trkpt lat="50.56131" lon="3.41685">
        <ele>45.957272</ele>
        <time>2021-09-28T10:22:03Z</time>
      </trkpt>
      <trkpt lat="50.56139" lon="3.4168">
        <ele>46.410637</ele>
        <time>2021-09-28T10:22:05Z</time>
      </trkpt>
      <trkpt lat="50.56147" lon="3.41674">
        <ele>46.782696</ele>
        <time>2021-09-28T10:22:07Z</time>
      </trkpt>
      <trkpt lat="50.56154" lon="3.41669">
        <ele>47.214237</ele>
        <time>2021-09-28T10:22:09Z</time>
      </trkpt>
      <trkpt lat="50.56162" lon="3.41665">
        <ele>47.644035</ele>
        <time>2021-09-28T10:22:11Z</time>
      </trkpt>
      <trkpt lat="50.5617" lon="3.41661">
        <ele>48.05941</ele>
        <time>2021-09-28T10:22:13Z</time>
      </trkpt>
      <trkpt lat="50.56178" lon="3.41658">
        <ele>48.295082</ele>
        <time>2021-09-28T10:22:15Z</time>
      </trkpt>
      <trkpt lat="50.56187" lon="3.41656">
        <ele>48.770546</ele>
        <time>2021-09-28T10:22:17Z</time>
      </trkpt>
      <trkpt lat="50.56195" lon="3.41654">
        <ele>49.204994</ele>
        <time>2021-09-28T10:22:19Z</time>
      </trkpt>
      <trkpt lat="50.56203" lon="3.41653">
        <ele>49.664116</ele>
        <time>2021-09-28T10:22:21Z</time>
      </trkpt>
      <trkpt lat="50.56211" lon="3.4165">
        <ele>49.871315</ele>
        <time>2021-09-28T10:22:23Z</time>
      </trkpt>
      <trkpt lat="50.5622" lon="3.41647">
        <ele>50.348511</ele>
        <time>2021-09-28T10:22:25Z</time>
      </trkpt>
      <trkpt lat="50.56227" lon="3.41643">
        <ele>50.746964</ele>
        <time>2021-09-28T10:22:27Z</time>
      </trkpt>
      <trkpt lat="50.56235" lon="3.41638">
        <ele>51.218636</ele>
        <time>2021-09-28T10:22:29Z</time>
      </trkpt>
      <trkpt lat="50.56242" lon="3.41633">
        <ele>51.663868</ele>
        <time>2021-09-28T10:22:31Z</time>
      </trkpt>
      <trkpt lat="50.56249" lon="3.41627">
        <ele>51.848701</ele>
        <time>2021-09-28T10:22:33Z</time>
      </trkpt>
      <trkpt lat="50.56257" lon="3.4162">
        <ele>52.391418</ele>
        <time>2021-09-28T10:22:35Z</time>
      </trkpt>
      <trkpt lat="50.56264" lon="3.41614">
        <ele>52.922783</ele>
        <time>2021-09-28T10:22:37Z</time>
      </trkpt>
      <trkpt lat="50.56271" lon="3.41608">
        <ele>53.328133</ele>
        <time>2021-09-28T10:22:39Z</time>
      </trkpt>
      <trkpt lat="50.56279" lon="3.41603">
        <ele>53.832172</ele>
        <time>2021-09-28T10:22:41Z</time>
      </trkpt>
      <trkpt lat="50.56287" lon="3.41599">
        <ele>54.291626</ele>
        <time>2021-09-28T10:22:43Z</time>
      </trkpt>
      <trkpt lat="50.56295" lon="3.41595">
        <ele>54.718292</ele>
        <time>2021-09-28T10:22:45Z</time>
      </trkpt>
      <trkpt lat="50.56304" lon="3.41593">
        <ele>55.094177</ele>
        <time>2021-09-28T10:22:47Z</time>
      </trkpt>
      <trkpt lat="50.56312" lon="3.4159">
        <ele>55.286552</ele>
        <time>2021-09-28T10:22:49Z</time>
      </trkpt>
      <trkpt lat="50.56321" lon="3.41588">
        <ele>55.675434</ele>
        <time>2021-09-28T10:22:51Z</time>
      </trkpt>
      <trkpt lat="50.56329" lon="3.41586">
        <ele>56.01244</ele>
        <time>2021-09-28T10:22:53Z</time>
      </trkpt>
      <trkpt lat="50.56337" lon="3.41585">
        <ele>56.415363</ele>
        <time>2021-09-28T10:22:55Z</time>
      </trkpt>
      <trkpt lat="50.56345" lon="3.41583">
        <ele>56.816814</ele>
        <time>2021-09-28T10:22:57Z</time>
      </trkpt>
      <trkpt lat="50.56353" lon="3.41583">
        <ele>57.152214</ele>
        <time>2021-09-28T10:22:59Z</time>
      </trkpt>
      <trkpt lat="50.56361" lon="3.41582">
        <ele>57.328743</ele>
        <time>2021-09-28T10:23:01Z</time>
      </trkpt>
      <trkpt lat="50.5637" lon="3.41581">
        <ele>57.73391</ele>
        <time>2021-09-28T10:23:03Z</time>
      </trkpt>
      <trkpt lat="50.56378" lon="3.4158">
        <ele>58.071663</ele>
        <time>2021-09-28T10:23:05Z</time>
      </trkpt>
      <trkpt lat="50.56386" lon="3.4158">
        <ele>58.412182</ele>
        <time>2021-09-28T10:23:07Z</time>
      </trkpt>
      <trkpt lat="50.56395" lon="3.41579">
        <ele>58.812126</ele>
        <time>2021-09-28T10:23:09Z</time>
      </trkpt>
      <trkpt lat="50.56403" lon="3.4158">
        <ele>58.994007</ele>
        <time>2021-09-28T10:23:11Z</time>
      </trkpt>
      <trkpt lat="50.56412" lon="3.4158">
        <ele>59.309303</ele>
        <time>2021-09-28T10:23:13Z</time>
      </trkpt>
      <trkpt lat="50.5642" lon="3.4158">
        <ele>59.635864</ele>
        <time>2021-09-28T10:23:15Z</time>
      </trkpt>
      <trkpt lat="50.56428" lon="3.41582">
        <ele>59.920399</ele>
        <time>2021-09-28T10:23:17Z</time>
      </trkpt>
      <trkpt lat="50.56437" lon="3.41584">
        <ele>60.18808</ele>
        <time>2021-09-28T10:23:19Z</time>
      </trkpt>
      <trkpt lat="50.56445" lon="3.41586">
        <ele>60.316387</ele>
        <time>2021-09-28T10:23:21Z</time>
      </trkpt>
      <trkpt lat="50.56453" lon="3.41589">
        <ele>60.568855</ele>
        <time>2021-09-28T10:23:23Z</time>
      </trkpt>
      <trkpt lat="50.56461" lon="3.41591">
        <ele>60.777931</ele>
        <time>2021-09-28T10:23:25Z</time>
      </trkpt>
      <trkpt lat="50.5647" lon="3.41594">
        <ele>61.018005</ele>
        <time>2021-09-28T10:23:27Z</time>
      </trkpt>
      <trkpt lat="50.56478" lon="3.41597">
        <ele>61.216194</ele>
        <time>2021-09-28T10:23:29Z</time>
      </trkpt>
      <trkpt lat="50.56487" lon="3.41599">
        <ele>61.330254</ele>
        <time>2021-09-28T10:23:31Z</time>
      </trkpt>
      <trkpt lat="50.56495" lon="3.41602">
        <ele>61.508247</ele>
        <time>2021-09-28T10:23:33Z</time>
      </trkpt>
      <trkpt lat="50.56502" lon="3.41604">
        <ele>61.692444</ele>
        <time>2021-09-28T10:23:35Z</time>
      </trkpt>
      <trkpt lat="50.5651" lon="3.41605">
        <ele>61.885601</ele>
        <time>2021-09-28T10:23:37Z</time>
      </trkpt>
      <trkpt lat="50.56518" lon="3.41605">
        <ele>62.051826</ele>
        <time>2021-09-28T10:23:39Z</time>
      </trkpt>
      <trkpt lat="50.56525" lon="3.41604">
        <ele>62.200958</ele>
        <time>2021-09-28T10:23:41Z</time>
      </trkpt>
      <trkpt lat="50.56532" lon="3.41603">
        <ele>62.353645</ele>
        <time>2021-09-28T10:23:43Z</time>
      </trkpt>
      <trkpt lat="50.5654" lon="3.41602">
        <ele>62.494598</ele>
        <time>2021-09-28T10:23:45Z</time>
      </trkpt>
      <trkpt lat="50.56547" lon="3.41597">
        <ele>62.585674</ele>
        <time>2021-09-28T10:23:47Z</time>
      </trkpt>
      <trkpt lat="50.56551" lon="3.41587">
        <ele>62.764801</ele>
        <time>2021-09-28T10:23:49Z</time>
      </trkpt>
      <trkpt lat="50.56549" lon="3.41575">
        <ele>62.889385</ele>
        <time>2021-09-28T10:23:51Z</time>
      </trkpt>
      <trkpt lat="50.56545" lon="3.41563">
        <ele>63.001434</ele>
        <time>2021-09-28T10:23:53Z</time>
      </trkpt>
      <trkpt lat="50.5654" lon="3.4155">
        <ele>63.065857</ele>
        <time>2021-09-28T10:23:55Z</time>
      </trkpt>
      <trkpt lat="50.56535" lon="3.41537">
        <ele>63.213764</ele>
        <time>2021-09-28T10:23:57Z</time>
      </trkpt>
      <trkpt lat="50.5653" lon="3.41524">
        <ele>63.378712</ele>
        <time>2021-09-28T10:23:59Z</time>
      </trkpt>
      <trkpt lat="50.56526" lon="3.41511">
        <ele>63.556969</ele>
        <time>2021-09-28T10:24:01Z</time>
      </trkpt>
      <trkpt lat="50.56522" lon="3.41499">
        <ele>63.647339</ele>
        <time>2021-09-28T10:24:03Z</time>
      </trkpt>
      <trkpt lat="50.56518" lon="3.41487">
        <ele>63.852318</ele>
        <time>2021-09-28T10:24:05Z</time>
      </trkpt>
      <trkpt lat="50.56514" lon="3.41474">
        <ele>64.140114</ele>
        <time>2021-09-28T10:24:07Z</time>
      </trkpt>
      <trkpt lat="50.5651" lon="3.41462">
        <ele>64.262222</ele>
        <time>2021-09-28T10:24:09Z</time>
      </trkpt>
      <trkpt lat="50.56505" lon="3.4145">
        <ele>64.506554</ele>
        <time>2021-09-28T10:24:11Z</time>
      </trkpt>
      <trkpt lat="50.56501" lon="3.41439">
        <ele>64.804726</ele>
        <time>2021-09-28T10:24:13Z</time>
      </trkpt>
      <trkpt lat="50.56497" lon="3.41427">
        <ele>65.083763</ele>
        <time>2021-09-28T10:24:15Z</time>
      </trkpt>
      <trkpt lat="50.56493" lon="3.41415">
        <ele>65.218361</ele>
        <time>2021-09-28T10:24:17Z</time>
      </trkpt>
      <trkpt lat="50.56489" lon="3.41403">
        <ele>65.564171</ele>
        <time>2021-09-28T10:24:19Z</time>
      </trkpt>
      <trkpt lat="50.56485" lon="3.41392">
        <ele>65.903763</ele>
        <time>2021-09-28T10:24:21Z</time>
      </trkpt>
      <trkpt lat="50.56481" lon="3.41382">
        <ele>66.040428</ele>
        <time>2021-09-28T10:24:23Z</time>
      </trkpt>
      <trkpt lat="50.56478" lon="3.41371">
        <ele>66.348976</ele>
        <time>2021-09-28T10:24:25Z</time>
      </trkpt>
      <trkpt lat="50.56474" lon="3.4136">
        <ele>66.673988</ele>
        <time>2021-09-28T10:24:27Z</time>
      </trkpt>
      <trkpt lat="50.5647" lon="3.41348">
        <ele>66.966209</ele>
        <time>2021-09-28T10:24:29Z</time>
      </trkpt>
      <trkpt lat="50.56466" lon="3.41337">
        <ele>67.139282</ele>
        <time>2021-09-28T10:24:31Z</time>
      </trkpt>
      <trkpt lat="50.56463" lon="3.41326">
        <ele>67.443703</ele>
        <time>2021-09-28T10:24:33Z</time>
      </trkpt>
      <trkpt lat="50.56458" lon="3.41315">
        <ele>67.769089</ele>
        <time>2021-09-28T10:24:35Z</time>
      </trkpt>
      <trkpt lat="50.56455" lon="3.41303">
        <ele>67.936829</ele>
        <time>2021-09-28T10:24:37Z</time>
      </trkpt>
      <trkpt lat="50.56451" lon="3.41292">
        <ele>68.317871</ele>
        <time>2021-09-28T10:24:39Z</time>
      </trkpt>
      <trkpt lat="50.56447" lon="3.4128">
        <ele>68.647156</ele>
        <time>2021-09-28T10:24:41Z</time>
      </trkpt>
      <trkpt lat="50.56443" lon="3.41269">
        <ele>68.816971</ele>
        <time>2021-09-28T10:24:43Z</time>
      </trkpt>
      <trkpt lat="50.56439" lon="3.41259">
        <ele>69.113121</ele>
        <time>2021-09-28T10:24:45Z</time>
      </trkpt>
      <trkpt lat="50.56435" lon="3.41248">
        <ele>69.367867</ele>
        <time>2021-09-28T10:24:47Z</time>
      </trkpt>
      <trkpt lat="50.56431" lon="3.41237">
        <ele>69.632965</ele>
        <time>2021-09-28T10:24:49Z</time>
      </trkpt>
      <trkpt lat="50.56427" lon="3.41226">
        <ele>69.717888</ele>
        <time>2021-09-28T10:24:51Z</time>
      </trkpt>
      <trkpt lat="50.56424" lon="3.41214">
        <ele>69.896011</ele>
        <time>2021-09-28T10:24:53Z</time>
      </trkpt>
      <trkpt lat="50.5642" lon="3.41203">
        <ele>70.057571</ele>
        <time>2021-09-28T10:24:55Z</time>
      </trkpt>
      <trkpt lat="50.56416" lon="3.41191">
        <ele>70.134209</ele>
        <time>2021-09-28T10:24:57Z</time>
      </trkpt>
      <trkpt lat="50.56414" lon="3.4118">
        <ele>70.248138</ele>
        <time>2021-09-28T10:24:59Z</time>
      </trkpt>
      <trkpt lat="50.56412" lon="3.4117">
        <ele>70.372421</ele>
        <time>2021-09-28T10:25:01Z</time>
      </trkpt>
      <trkpt lat="50.5641" lon="3.41161">
        <ele>70.415909</ele>
        <time>2021-09-28T10:25:03Z</time>
      </trkpt>
      <trkpt lat="50.56409" lon="3.41152">
        <ele>70.475983</ele>
        <time>2021-09-28T10:25:05Z</time>
      </trkpt>
      <trkpt lat="50.56407" lon="3.41144">
        <ele>70.509125</ele>
        <time>2021-09-28T10:25:07Z</time>
      </trkpt>
      <trkpt lat="50.56405" lon="3.41136">
        <ele>70.51741</ele>
        <time>2021-09-28T10:25:09Z</time>
      </trkpt>
      <trkpt lat="50.56404" lon="3.41127">
        <ele>70.527763</ele>
        <time>2021-09-28T10:25:11Z</time>
      </trkpt>
      <trkpt lat="50.56403" lon="3.41118">
        <ele>70.556755</ele>
        <time>2021-09-28T10:25:13Z</time>
      </trkpt>
      <trkpt lat="50.56401" lon="3.41108">
        <ele>70.54847</ele>
        <time>2021-09-28T10:25:15Z</time>
      </trkpt>
      <trkpt lat="50.56399" lon="3.41099">
        <ele>70.55468</ele>
        <time>2021-09-28T10:25:17Z</time>
      </trkpt>
      <trkpt lat="50.56398" lon="3.4109">
        <ele>70.492546</ele>
        <time>2021-09-28T10:25:19Z</time>
      </trkpt>
      <trkpt lat="50.56396" lon="3.41081">
        <ele>70.473907</ele>
        <time>2021-09-28T10:25:21Z</time>
      </trkpt>
      <trkpt lat="50.56395" lon="3.41074">
        <ele>70.422112</ele>
        <time>2021-09-28T10:25:23Z</time>
      </trkpt>
      <trkpt lat="50.56395" lon="3.41067">
        <ele>70.337189</ele>
        <time>2021-09-28T10:25:25Z</time>
      </trkpt>
      <trkpt lat="50.56392" lon="3.41056">
        <ele>68.19754</ele>
        <time>2021-09-28T10:26:12Z</time>
      </trkpt>
      <trkpt lat="50.5639" lon="3.41043">
        <ele>68.133339</ele>
        <time>2021-09-28T10:26:14Z</time>
      </trkpt>
      <trkpt lat="50.56388" lon="3.41032">
        <ele>68.081558</ele>
        <time>2021-09-28T10:26:16Z</time>
      </trkpt>
      <trkpt lat="50.56386" lon="3.4102">
        <ele>68.035988</ele>
        <time>2021-09-28T10:26:18Z</time>
      </trkpt>
      <trkpt lat="50.56384" lon="3.41007">
        <ele>67.951073</ele>
        <time>2021-09-28T10:26:20Z</time>
      </trkpt>
      <trkpt lat="50.56382" lon="3.40993">
        <ele>67.932434</ele>
        <time>2021-09-28T10:26:22Z</time>
      </trkpt>
      <trkpt lat="50.56379" lon="3.40979">
        <ele>67.901367</ele>
        <time>2021-09-28T10:26:24Z</time>
      </trkpt>
      <trkpt lat="50.56377" lon="3.40964">
        <ele>67.882729</ele>
        <time>2021-09-28T10:26:26Z</time>
      </trkpt>
      <trkpt lat="50.56374" lon="3.40949">
        <ele>67.839241</ele>
        <time>2021-09-28T10:26:28Z</time>
      </trkpt>
      <trkpt lat="50.56372" lon="3.40933">
        <ele>67.793678</ele>
        <time>2021-09-28T10:26:30Z</time>
      </trkpt>
      <trkpt lat="50.56369" lon="3.40917">
        <ele>67.73362</ele>
        <time>2021-09-28T10:26:32Z</time>
      </trkpt>
      <trkpt lat="50.56366" lon="3.40901">
        <ele>67.65078</ele>
        <time>2021-09-28T10:26:34Z</time>
      </trkpt>
      <trkpt lat="50.56364" lon="3.40885">
        <ele>67.526535</ele>
        <time>2021-09-28T10:26:36Z</time>
      </trkpt>
      <trkpt lat="50.56361" lon="3.40869">
        <ele>67.462334</ele>
        <time>2021-09-28T10:26:38Z</time>
      </trkpt>
      <trkpt lat="50.56358" lon="3.40853">
        <ele>67.362938</ele>
        <time>2021-09-28T10:26:40Z</time>
      </trkpt>
      <trkpt lat="50.56356" lon="3.40837">
        <ele>67.253181</ele>
        <time>2021-09-28T10:26:42Z</time>
      </trkpt>
      <trkpt lat="50.56353" lon="3.40821">
        <ele>67.184845</ele>
        <time>2021-09-28T10:26:44Z</time>
      </trkpt>
      <trkpt lat="50.56351" lon="3.40805">
        <ele>67.021255</ele>
        <time>2021-09-28T10:26:46Z</time>
      </trkpt>
      <trkpt lat="50.56348" lon="3.40789">
        <ele>66.826614</ele>
        <time>2021-09-28T10:26:48Z</time>
      </trkpt>
      <trkpt lat="50.56345" lon="3.40771">
        <ele>66.776917</ele>
        <time>2021-09-28T10:26:50Z</time>
      </trkpt>
      <trkpt lat="50.56342" lon="3.40753">
        <ele>66.586411</ele>
        <time>2021-09-28T10:26:52Z</time>
      </trkpt>
      <trkpt lat="50.56339" lon="3.40735">
        <ele>66.387634</ele>
        <time>2021-09-28T10:26:54Z</time>
      </trkpt>
      <trkpt lat="50.56336" lon="3.40717">
        <ele>66.319298</ele>
        <time>2021-09-28T10:26:56Z</time>
      </trkpt>
      <trkpt lat="50.56332" lon="3.40698">
        <ele>66.101891</ele>
        <time>2021-09-28T10:26:58Z</time>
      </trkpt>
      <trkpt lat="50.56329" lon="3.40678">
        <ele>65.876198</ele>
        <time>2021-09-28T10:27:00Z</time>
      </trkpt>
      <trkpt lat="50.56326" lon="3.40658">
        <ele>65.791306</ele>
        <time>2021-09-28T10:27:02Z</time>
      </trkpt>
      <trkpt lat="50.56324" lon="3.40638">
        <ele>65.604958</ele>
        <time>2021-09-28T10:27:04Z</time>
      </trkpt>
      <trkpt lat="50.56321" lon="3.40619">
        <ele>65.300606</ele>
        <time>2021-09-28T10:27:06Z</time>
      </trkpt>
      <trkpt lat="50.56318" lon="3.40602">
        <ele>65.184662</ele>
        <time>2021-09-28T10:27:08Z</time>
      </trkpt>
      <trkpt lat="50.56315" lon="3.40589">
        <ele>64.896881</ele>
        <time>2021-09-28T10:27:10Z</time>
      </trkpt>
      <trkpt lat="50.56308" lon="3.4058">
        <ele>64.714691</ele>
        <time>2021-09-28T10:27:12Z</time>
      </trkpt>
      <trkpt lat="50.563" lon="3.40576">
        <ele>64.375168</ele>
        <time>2021-09-28T10:27:14Z</time>
      </trkpt>
      <trkpt lat="50.56291" lon="3.40577">
        <ele>64.068771</ele>
        <time>2021-09-28T10:27:16Z</time>
      </trkpt>
      <trkpt lat="50.56282" lon="3.4058">
        <ele>63.79549</ele>
        <time>2021-09-28T10:27:18Z</time>
      </trkpt>
      <trkpt lat="50.56273" lon="3.40581">
        <ele>63.516029</ele>
        <time>2021-09-28T10:27:20Z</time>
      </trkpt>
      <trkpt lat="50.56264" lon="3.40584">
        <ele>63.236561</ele>
        <time>2021-09-28T10:27:22Z</time>
      </trkpt>
      <trkpt lat="50.56255" lon="3.40586">
        <ele>62.979877</ele>
        <time>2021-09-28T10:27:24Z</time>
      </trkpt>
      <trkpt lat="50.56246" lon="3.40589">
        <ele>62.683861</ele>
        <time>2021-09-28T10:27:26Z</time>
      </trkpt>
      <trkpt lat="50.56237" lon="3.40592">
        <ele>62.402325</ele>
        <time>2021-09-28T10:27:28Z</time>
      </trkpt>
      <trkpt lat="50.56228" lon="3.40595">
        <ele>62.278126</ele>
        <time>2021-09-28T10:27:30Z</time>
      </trkpt>
      <trkpt lat="50.56218" lon="3.40598">
        <ele>62.046215</ele>
        <time>2021-09-28T10:27:32Z</time>
      </trkpt>
      <trkpt lat="50.56209" lon="3.40601">
        <ele>61.829254</ele>
        <time>2021-09-28T10:27:34Z</time>
      </trkpt>
      <trkpt lat="50.56196" lon="3.40605">
        <ele>61.473774</ele>
        <time>2021-09-28T10:27:37Z</time>
      </trkpt>
      <trkpt lat="50.56187" lon="3.40609">
        <ele>61.272621</ele>
        <time>2021-09-28T10:27:39Z</time>
      </trkpt>
      <trkpt lat="50.56178" lon="3.40611">
        <ele>61.039177</ele>
        <time>2021-09-28T10:27:41Z</time>
      </trkpt>
      <trkpt lat="50.56167" lon="3.40615">
        <ele>60.866539</ele>
        <time>2021-09-28T10:27:43Z</time>
      </trkpt>
      <trkpt lat="50.56156" lon="3.40619">
        <ele>60.651558</ele>
        <time>2021-09-28T10:27:45Z</time>
      </trkpt>
      <trkpt lat="50.56145" lon="3.40624">
        <ele>60.391094</ele>
        <time>2021-09-28T10:27:47Z</time>
      </trkpt>
      <trkpt lat="50.56134" lon="3.40629">
        <ele>60.222565</ele>
        <time>2021-09-28T10:27:49Z</time>
      </trkpt>
      <trkpt lat="50.56123" lon="3.40633">
        <ele>60.113842</ele>
        <time>2021-09-28T10:27:51Z</time>
      </trkpt>
      <trkpt lat="50.56112" lon="3.40638">
        <ele>59.918823</ele>
        <time>2021-09-28T10:27:53Z</time>
      </trkpt>
      <trkpt lat="50.561" lon="3.40643">
        <ele>59.780823</ele>
        <time>2021-09-28T10:27:55Z</time>
      </trkpt>
      <trkpt lat="50.56089" lon="3.40648">
        <ele>59.619972</ele>
        <time>2021-09-28T10:27:57Z</time>
      </trkpt>
      <trkpt lat="50.56077" lon="3.40652">
        <ele>59.411407</ele>
        <time>2021-09-28T10:27:59Z</time>
      </trkpt>
      <trkpt lat="50.56065" lon="3.40656">
        <ele>59.225616</ele>
        <time>2021-09-28T10:28:01Z</time>
      </trkpt>
      <trkpt lat="50.56053" lon="3.4066">
        <ele>59.031578</ele>
        <time>2021-09-28T10:28:03Z</time>
      </trkpt>
      <trkpt lat="50.56041" lon="3.40664">
        <ele>58.834984</ele>
        <time>2021-09-28T10:28:05Z</time>
      </trkpt>
      <trkpt lat="50.5603" lon="3.40668">
        <ele>58.638359</ele>
        <time>2021-09-28T10:28:07Z</time>
      </trkpt>
      <trkpt lat="50.56018" lon="3.40673">
        <ele>58.547924</ele>
        <time>2021-09-28T10:28:09Z</time>
      </trkpt>
      <trkpt lat="50.56007" lon="3.40677">
        <ele>58.325661</ele>
        <time>2021-09-28T10:28:11Z</time>
      </trkpt>
      <trkpt lat="50.55996" lon="3.40682">
        <ele>58.097668</ele>
        <time>2021-09-28T10:28:13Z</time>
      </trkpt>
      <trkpt lat="50.55984" lon="3.40687">
        <ele>57.867413</ele>
        <time>2021-09-28T10:28:15Z</time>
      </trkpt>
      <trkpt lat="50.55973" lon="3.40692">
        <ele>57.636341</ele>
        <time>2021-09-28T10:28:17Z</time>
      </trkpt>
      <trkpt lat="50.55962" lon="3.40697">
        <ele>57.40815</ele>
        <time>2021-09-28T10:28:19Z</time>
      </trkpt>
      <trkpt lat="50.55951" lon="3.40701">
        <ele>57.186188</ele>
        <time>2021-09-28T10:28:21Z</time>
      </trkpt>
      <trkpt lat="50.55941" lon="3.40705">
        <ele>56.970051</ele>
        <time>2021-09-28T10:28:23Z</time>
      </trkpt>
      <trkpt lat="50.55931" lon="3.4071">
        <ele>56.864532</ele>
        <time>2021-09-28T10:28:25Z</time>
      </trkpt>
      <trkpt lat="50.55921" lon="3.40715">
        <ele>56.660107</ele>
        <time>2021-09-28T10:28:27Z</time>
      </trkpt>
      <trkpt lat="50.5591" lon="3.4072">
        <ele>56.468353</ele>
        <time>2021-09-28T10:28:29Z</time>
      </trkpt>
      <trkpt lat="50.55899" lon="3.40725">
        <ele>56.289234</ele>
        <time>2021-09-28T10:28:31Z</time>
      </trkpt>
      <trkpt lat="50.55888" lon="3.40731">
        <ele>56.116119</ele>
        <time>2021-09-28T10:28:33Z</time>
      </trkpt>
      <trkpt lat="50.55877" lon="3.40736">
        <ele>55.939919</ele>
        <time>2021-09-28T10:28:35Z</time>
      </trkpt>
      <trkpt lat="50.55866" lon="3.40741">
        <ele>55.754902</ele>
        <time>2021-09-28T10:28:37Z</time>
      </trkpt>
      <trkpt lat="50.55854" lon="3.40746">
        <ele>55.559673</ele>
        <time>2021-09-28T10:28:39Z</time>
      </trkpt>
      <trkpt lat="50.55842" lon="3.40751">
        <ele>55.35556</ele>
        <time>2021-09-28T10:28:41Z</time>
      </trkpt>
      <trkpt lat="50.55831" lon="3.40755">
        <ele>55.144184</ele>
        <time>2021-09-28T10:28:43Z</time>
      </trkpt>
      <trkpt lat="50.55819" lon="3.40758">
        <ele>55.035015</ele>
        <time>2021-09-28T10:28:45Z</time>
      </trkpt>
      <trkpt lat="50.55809" lon="3.40762">
        <ele>54.810108</ele>
        <time>2021-09-28T10:28:47Z</time>
      </trkpt>
      <trkpt lat="50.55798" lon="3.40766">
        <ele>54.592216</ele>
        <time>2021-09-28T10:28:49Z</time>
      </trkpt>
      <trkpt lat="50.55787" lon="3.4077">
        <ele>54.386547</ele>
        <time>2021-09-28T10:28:51Z</time>
      </trkpt>
      <trkpt lat="50.55777" lon="3.40772">
        <ele>54.18565</ele>
        <time>2021-09-28T10:28:53Z</time>
      </trkpt>
      <trkpt lat="50.55767" lon="3.40775">
        <ele>53.986927</ele>
        <time>2021-09-28T10:28:55Z</time>
      </trkpt>
      <trkpt lat="50.55757" lon="3.40778">
        <ele>53.768822</ele>
        <time>2021-09-28T10:28:57Z</time>
      </trkpt>
      <trkpt lat="50.55746" lon="3.40782">
        <ele>53.520092</ele>
        <time>2021-09-28T10:28:59Z</time>
      </trkpt>
      <trkpt lat="50.55734" lon="3.40786">
        <ele>53.245506</ele>
        <time>2021-09-28T10:29:01Z</time>
      </trkpt>
      <trkpt lat="50.55721" lon="3.4079">
        <ele>53.098824</ele>
        <time>2021-09-28T10:29:03Z</time>
      </trkpt>
      <trkpt lat="50.55708" lon="3.40794">
        <ele>52.791466</ele>
        <time>2021-09-28T10:29:05Z</time>
      </trkpt>
      <trkpt lat="50.55695" lon="3.40798">
        <ele>52.467243</ele>
        <time>2021-09-28T10:29:07Z</time>
      </trkpt>
      <trkpt lat="50.55683" lon="3.40803">
        <ele>52.129189</ele>
        <time>2021-09-28T10:29:09Z</time>
      </trkpt>
      <trkpt lat="50.5567" lon="3.40807">
        <ele>51.779755</ele>
        <time>2021-09-28T10:29:11Z</time>
      </trkpt>
      <trkpt lat="50.55657" lon="3.40811">
        <ele>51.421722</ele>
        <time>2021-09-28T10:29:13Z</time>
      </trkpt>
      <trkpt lat="50.55646" lon="3.40815">
        <ele>51.057869</ele>
        <time>2021-09-28T10:29:15Z</time>
      </trkpt>
      <trkpt lat="50.55634" lon="3.40818">
        <ele>50.687943</ele>
        <time>2021-09-28T10:29:17Z</time>
      </trkpt>
      <trkpt lat="50.55623" lon="3.40822">
        <ele>50.500046</ele>
        <time>2021-09-28T10:29:19Z</time>
      </trkpt>
      <trkpt lat="50.55612" lon="3.40825">
        <ele>50.118309</ele>
        <time>2021-09-28T10:29:21Z</time>
      </trkpt>
      <trkpt lat="50.556" lon="3.40829">
        <ele>49.724174</ele>
        <time>2021-09-28T10:29:23Z</time>
      </trkpt>
      <trkpt lat="50.55589" lon="3.40833">
        <ele>49.32272</ele>
        <time>2021-09-28T10:29:25Z</time>
      </trkpt>
      <trkpt lat="50.55579" lon="3.40836">
        <ele>48.922142</ele>
        <time>2021-09-28T10:29:27Z</time>
      </trkpt>
      <trkpt lat="50.55568" lon="3.4084">
        <ele>48.522842</ele>
        <time>2021-09-28T10:29:29Z</time>
      </trkpt>
      <trkpt lat="50.55557" lon="3.40843">
        <ele>48.107792</ele>
        <time>2021-09-28T10:29:31Z</time>
      </trkpt>
      <trkpt lat="50.55547" lon="3.40847">
        <ele>47.891121</ele>
        <time>2021-09-28T10:29:33Z</time>
      </trkpt>
      <trkpt lat="50.55536" lon="3.4085">
        <ele>47.443764</ele>
        <time>2021-09-28T10:29:35Z</time>
      </trkpt>
      <trkpt lat="50.55525" lon="3.40853">
        <ele>46.981846</ele>
        <time>2021-09-28T10:29:37Z</time>
      </trkpt>
      <trkpt lat="50.55515" lon="3.40856">
        <ele>46.512581</ele>
        <time>2021-09-28T10:29:39Z</time>
      </trkpt>
      <trkpt lat="50.55504" lon="3.40859">
        <ele>46.059643</ele>
        <time>2021-09-28T10:29:41Z</time>
      </trkpt>
      <trkpt lat="50.55494" lon="3.40864">
        <ele>45.61956</ele>
        <time>2021-09-28T10:29:43Z</time>
      </trkpt>
      <trkpt lat="50.55484" lon="3.40864">
        <ele>45.187595</ele>
        <time>2021-09-28T10:29:45Z</time>
      </trkpt>
      <trkpt lat="50.55475" lon="3.40861">
        <ele>44.974449</ele>
        <time>2021-09-28T10:29:47Z</time>
      </trkpt>
      <trkpt lat="50.55467" lon="3.40856">
        <ele>44.552586</ele>
        <time>2021-09-28T10:29:49Z</time>
      </trkpt>
      <trkpt lat="50.55459" lon="3.40845">
        <ele>44.136948</ele>
        <time>2021-09-28T10:29:51Z</time>
      </trkpt>
      <trkpt lat="50.55454" lon="3.40831">
        <ele>43.726654</ele>
        <time>2021-09-28T10:29:53Z</time>
      </trkpt>
      <trkpt lat="50.5545" lon="3.40814">
        <ele>43.52108</ele>
        <time>2021-09-28T10:29:55Z</time>
      </trkpt>
      <trkpt lat="50.55447" lon="3.40798">
        <ele>43.105495</ele>
        <time>2021-09-28T10:29:57Z</time>
      </trkpt>
      <trkpt lat="50.55444" lon="3.40784">
        <ele>42.688473</ele>
        <time>2021-09-28T10:29:59Z</time>
      </trkpt>
      <trkpt lat="50.55441" lon="3.4077">
        <ele>42.481239</ele>
        <time>2021-09-28T10:30:01Z</time>
      </trkpt>
      <trkpt lat="50.55437" lon="3.40756">
        <ele>42.078163</ele>
        <time>2021-09-28T10:30:03Z</time>
      </trkpt>
      <trkpt lat="50.55434" lon="3.40741">
        <ele>41.884815</ele>
        <time>2021-09-28T10:30:05Z</time>
      </trkpt>
      <trkpt lat="50.55431" lon="3.40727">
        <ele>41.519855</ele>
        <time>2021-09-28T10:30:07Z</time>
      </trkpt>
      <trkpt lat="50.55428" lon="3.40712">
        <ele>41.186901</ele>
        <time>2021-09-28T10:30:09Z</time>
      </trkpt>
      <trkpt lat="50.55425" lon="3.40697">
        <ele>41.031628</ele>
        <time>2021-09-28T10:30:11Z</time>
      </trkpt>
      <trkpt lat="50.55423" lon="3.40681">
        <ele>40.743298</ele>
        <time>2021-09-28T10:30:13Z</time>
      </trkpt>
      <trkpt lat="50.55423" lon="3.40664">
        <ele>40.483971</ele>
        <time>2021-09-28T10:30:15Z</time>
      </trkpt>
      <trkpt lat="50.55424" lon="3.40648">
        <ele>40.365692</ele>
        <time>2021-09-28T10:30:17Z</time>
      </trkpt>
      <trkpt lat="50.55425" lon="3.40632">
        <ele>40.150513</ele>
        <time>2021-09-28T10:30:19Z</time>
      </trkpt>
      <trkpt lat="50.55425" lon="3.40617">
        <ele>40.053368</ele>
        <time>2021-09-28T10:30:21Z</time>
      </trkpt>
      <trkpt lat="50.55425" lon="3.40601">
        <ele>39.875988</ele>
        <time>2021-09-28T10:30:23Z</time>
      </trkpt>
      <trkpt lat="50.55426" lon="3.40584">
        <ele>39.796135</ele>
        <time>2021-09-28T10:30:25Z</time>
      </trkpt>
      <trkpt lat="50.55426" lon="3.40568">
        <ele>39.656139</ele>
        <time>2021-09-28T10:30:27Z</time>
      </trkpt>
      <trkpt lat="50.55427" lon="3.40552">
        <ele>39.54734</ele>
        <time>2021-09-28T10:30:29Z</time>
      </trkpt>
      <trkpt lat="50.55428" lon="3.40536">
        <ele>39.50528</ele>
        <time>2021-09-28T10:30:31Z</time>
      </trkpt>
      <trkpt lat="50.5543" lon="3.40519">
        <ele>39.451221</ele>
        <time>2021-09-28T10:30:33Z</time>
      </trkpt>
      <trkpt lat="50.55431" lon="3.40503">
        <ele>39.438507</ele>
        <time>2021-09-28T10:30:35Z</time>
      </trkpt>
      <trkpt lat="50.55435" lon="3.40487">
        <ele>39.436768</ele>
        <time>2021-09-28T10:30:37Z</time>
      </trkpt>
      <trkpt lat="50.55438" lon="3.4047">
        <ele>39.445801</ele>
        <time>2021-09-28T10:30:39Z</time>
      </trkpt>
      <trkpt lat="50.55441" lon="3.40453">
        <ele>39.480049</ele>
        <time>2021-09-28T10:30:41Z</time>
      </trkpt>
      <trkpt lat="50.55444" lon="3.40437">
        <ele>39.527447</ele>
        <time>2021-09-28T10:30:43Z</time>
      </trkpt>
      <trkpt lat="50.55448" lon="3.40421">
        <ele>39.55711</ele>
        <time>2021-09-28T10:30:45Z</time>
      </trkpt>
      <trkpt lat="50.55451" lon="3.40405">
        <ele>39.631264</ele>
        <time>2021-09-28T10:30:47Z</time>
      </trkpt>
      <trkpt lat="50.55454" lon="3.40389">
        <ele>39.676052</ele>
        <time>2021-09-28T10:30:49Z</time>
      </trkpt>
      <trkpt lat="50.55457" lon="3.40374">
        <ele>39.780323</ele>
        <time>2021-09-28T10:30:51Z</time>
      </trkpt>
      <trkpt lat="50.5546" lon="3.40358">
        <ele>39.904728</ele>
        <time>2021-09-28T10:30:53Z</time>
      </trkpt>
      <trkpt lat="50.55463" lon="3.40343">
        <ele>39.973289</ele>
        <time>2021-09-28T10:30:55Z</time>
      </trkpt>
      <trkpt lat="50.55467" lon="3.40327">
        <ele>40.120872</ele>
        <time>2021-09-28T10:30:57Z</time>
      </trkpt>
      <trkpt lat="50.5547" lon="3.40312">
        <ele>40.197498</ele>
        <time>2021-09-28T10:30:59Z</time>
      </trkpt>
      <trkpt lat="50.55474" lon="3.40297">
        <ele>40.352791</ele>
        <time>2021-09-28T10:31:01Z</time>
      </trkpt>
      <trkpt lat="50.55478" lon="3.40281">
        <ele>40.509453</ele>
        <time>2021-09-28T10:31:03Z</time>
      </trkpt>
      <trkpt lat="50.55483" lon="3.40267">
        <ele>40.587067</ele>
        <time>2021-09-28T10:31:05Z</time>
      </trkpt>
      <trkpt lat="50.55488" lon="3.40253">
        <ele>40.741444</ele>
        <time>2021-09-28T10:31:07Z</time>
      </trkpt>
      <trkpt lat="50.55494" lon="3.40239">
        <ele>40.896248</ele>
        <time>2021-09-28T10:31:09Z</time>
      </trkpt>
      <trkpt lat="50.55499" lon="3.40225">
        <ele>40.974255</ele>
        <time>2021-09-28T10:31:11Z</time>
      </trkpt>
      <trkpt lat="50.55504" lon="3.40212">
        <ele>41.134007</ele>
        <time>2021-09-28T10:31:13Z</time>
      </trkpt>
      <trkpt lat="50.55508" lon="3.40199">
        <ele>41.216431</ele>
        <time>2021-09-28T10:31:15Z</time>
      </trkpt>
      <trkpt lat="50.55513" lon="3.40186">
        <ele>41.386971</ele>
        <time>2021-09-28T10:31:17Z</time>
      </trkpt>
      <trkpt lat="50.55518" lon="3.40172">
        <ele>41.561916</ele>
        <time>2021-09-28T10:31:19Z</time>
      </trkpt>
      <trkpt lat="50.55521" lon="3.40156">
        <ele>41.732849</ele>
        <time>2021-09-28T10:31:21Z</time>
      </trkpt>
      <trkpt lat="50.55521" lon="3.40139">
        <ele>41.813457</ele>
        <time>2021-09-28T10:31:23Z</time>
      </trkpt>
      <trkpt lat="50.55516" lon="3.40124">
        <ele>41.967037</ele>
        <time>2021-09-28T10:31:25Z</time>
      </trkpt>
      <trkpt lat="50.55507" lon="3.40112">
        <ele>42.041161</ele>
        <time>2021-09-28T10:31:27Z</time>
      </trkpt>
      <trkpt lat="50.55496" lon="3.40103">
        <ele>42.186115</ele>
        <time>2021-09-28T10:31:29Z</time>
      </trkpt>
      <trkpt lat="50.55486" lon="3.40093">
        <ele>42.337486</ele>
        <time>2021-09-28T10:31:31Z</time>
      </trkpt>
      <trkpt lat="50.55474" lon="3.40084">
        <ele>42.416801</ele>
        <time>2021-09-28T10:31:33Z</time>
      </trkpt>
      <trkpt lat="50.55462" lon="3.40075">
        <ele>42.580162</ele>
        <time>2021-09-28T10:31:35Z</time>
      </trkpt>
      <trkpt lat="50.5545" lon="3.40066">
        <ele>42.747017</ele>
        <time>2021-09-28T10:31:37Z</time>
      </trkpt>
      <trkpt lat="50.55437" lon="3.40056">
        <ele>42.910477</ele>
        <time>2021-09-28T10:31:39Z</time>
      </trkpt>
      <trkpt lat="50.55425" lon="3.40045">
        <ele>43.060562</ele>
        <time>2021-09-28T10:31:41Z</time>
      </trkpt>
      <trkpt lat="50.55411" lon="3.40036">
        <ele>43.129814</ele>
        <time>2021-09-28T10:31:43Z</time>
      </trkpt>
      <trkpt lat="50.55397" lon="3.40038">
        <ele>43.255241</ele>
        <time>2021-09-28T10:31:45Z</time>
      </trkpt>
      <trkpt lat="50.55384" lon="3.40046">
        <ele>43.364182</ele>
        <time>2021-09-28T10:31:47Z</time>
      </trkpt>
      <trkpt lat="50.55371" lon="3.40048">
        <ele>43.452415</ele>
        <time>2021-09-28T10:31:49Z</time>
      </trkpt>
      <trkpt lat="50.55359" lon="3.40041">
        <ele>43.51807</ele>
        <time>2021-09-28T10:31:51Z</time>
      </trkpt>
      <trkpt lat="50.55349" lon="3.40032">
        <ele>43.542362</ele>
        <time>2021-09-28T10:31:53Z</time>
      </trkpt>
      <trkpt lat="50.55339" lon="3.40023">
        <ele>43.577591</ele>
        <time>2021-09-28T10:31:55Z</time>
      </trkpt>
      <trkpt lat="50.55331" lon="3.40015">
        <ele>43.596764</ele>
        <time>2021-09-28T10:31:57Z</time>
      </trkpt>
      <trkpt lat="50.55322" lon="3.40007">
        <ele>43.611393</ele>
        <time>2021-09-28T10:31:59Z</time>
      </trkpt>
      <trkpt lat="50.55313" lon="3.39999">
        <ele>43.625237</ele>
        <time>2021-09-28T10:32:01Z</time>
      </trkpt>
      <trkpt lat="50.55304" lon="3.39991">
        <ele>43.628792</ele>
        <time>2021-09-28T10:32:03Z</time>
      </trkpt>
      <trkpt lat="50.55295" lon="3.39982">
        <ele>43.627682</ele>
        <time>2021-09-28T10:32:05Z</time>
      </trkpt>
      <trkpt lat="50.55286" lon="3.39974">
        <ele>43.618313</ele>
        <time>2021-09-28T10:32:07Z</time>
      </trkpt>
      <trkpt lat="50.55277" lon="3.39965">
        <ele>43.596962</ele>
        <time>2021-09-28T10:32:09Z</time>
      </trkpt>
      <trkpt lat="50.55267" lon="3.39956">
        <ele>43.580765</ele>
        <time>2021-09-28T10:32:11Z</time>
      </trkpt>
      <trkpt lat="50.55257" lon="3.39946">
        <ele>43.539955</ele>
        <time>2021-09-28T10:32:13Z</time>
      </trkpt>
      <trkpt lat="50.55247" lon="3.39936">
        <ele>43.485882</ele>
        <time>2021-09-28T10:32:15Z</time>
      </trkpt>
      <trkpt lat="50.55237" lon="3.39927">
        <ele>43.420322</ele>
        <time>2021-09-28T10:32:17Z</time>
      </trkpt>
      <trkpt lat="50.55227" lon="3.39917">
        <ele>43.351437</ele>
        <time>2021-09-28T10:32:19Z</time>
      </trkpt>
      <trkpt lat="50.55216" lon="3.39908">
        <ele>43.317867</ele>
        <time>2021-09-28T10:32:21Z</time>
      </trkpt>
      <trkpt lat="50.55206" lon="3.39898">
        <ele>43.252892</ele>
        <time>2021-09-28T10:32:23Z</time>
      </trkpt>
      <trkpt lat="50.55196" lon="3.39889">
        <ele>43.197647</ele>
        <time>2021-09-28T10:32:25Z</time>
      </trkpt>
      <trkpt lat="50.55186" lon="3.3988">
        <ele>43.153484</ele>
        <time>2021-09-28T10:32:27Z</time>
      </trkpt>
      <trkpt lat="50.55176" lon="3.3987">
        <ele>43.13681</ele>
        <time>2021-09-28T10:32:29Z</time>
      </trkpt>
      <trkpt lat="50.55166" lon="3.3986">
        <ele>43.116852</ele>
        <time>2021-09-28T10:32:31Z</time>
      </trkpt>
      <trkpt lat="50.55156" lon="3.39852">
        <ele>43.119141</ele>
        <time>2021-09-28T10:32:33Z</time>
      </trkpt>
      <trkpt lat="50.55146" lon="3.39843">
        <ele>43.140087</ele>
        <time>2021-09-28T10:32:35Z</time>
      </trkpt>
      <trkpt lat="50.55136" lon="3.39833">
        <ele>43.179436</ele>
        <time>2021-09-28T10:32:37Z</time>
      </trkpt>
      <trkpt lat="50.55126" lon="3.39824">
        <ele>43.205376</ele>
        <time>2021-09-28T10:32:39Z</time>
      </trkpt>
      <trkpt lat="50.55117" lon="3.39815">
        <ele>43.266685</ele>
        <time>2021-09-28T10:32:41Z</time>
      </trkpt>
      <trkpt lat="50.55107" lon="3.39806">
        <ele>43.33474</ele>
        <time>2021-09-28T10:32:43Z</time>
      </trkpt>
      <trkpt lat="50.55097" lon="3.39797">
        <ele>43.401436</ele>
        <time>2021-09-28T10:32:45Z</time>
      </trkpt>
      <trkpt lat="50.55088" lon="3.39788">
        <ele>43.462826</ele>
        <time>2021-09-28T10:32:47Z</time>
      </trkpt>
      <trkpt lat="50.55078" lon="3.39778">
        <ele>43.492767</ele>
        <time>2021-09-28T10:32:49Z</time>
      </trkpt>
      <trkpt lat="50.55069" lon="3.39769">
        <ele>43.55032</ele>
        <time>2021-09-28T10:32:51Z</time>
      </trkpt>
      <trkpt lat="50.55059" lon="3.3976">
        <ele>43.612377</ele>
        <time>2021-09-28T10:32:53Z</time>
      </trkpt>
      <trkpt lat="50.5505" lon="3.39752">
        <ele>43.683281</ele>
        <time>2021-09-28T10:32:55Z</time>
      </trkpt>
      <trkpt lat="50.55042" lon="3.39744">
        <ele>43.767723</ele>
        <time>2021-09-28T10:32:57Z</time>
      </trkpt>
      <trkpt lat="50.55032" lon="3.39735">
        <ele>43.815086</ele>
        <time>2021-09-28T10:32:59Z</time>
      </trkpt>
      <trkpt lat="50.55024" lon="3.39727">
        <ele>43.918221</ele>
        <time>2021-09-28T10:33:01Z</time>
      </trkpt>
      <trkpt lat="50.55017" lon="3.39719">
        <ele>44.02919</ele>
        <time>2021-09-28T10:33:03Z</time>
      </trkpt>
      <trkpt lat="50.55016" lon="3.39706">
        <ele>44.143242</ele>
        <time>2021-09-28T10:33:05Z</time>
      </trkpt>
      <trkpt lat="50.55019" lon="3.39691">
        <ele>44.205986</ele>
        <time>2021-09-28T10:33:07Z</time>
      </trkpt>
      <trkpt lat="50.55022" lon="3.39678">
        <ele>44.42403</ele>
        <time>2021-09-28T10:33:09Z</time>
      </trkpt>
      <trkpt lat="50.55026" lon="3.39664">
        <ele>44.550415</ele>
        <time>2021-09-28T10:33:11Z</time>
      </trkpt>
      <trkpt lat="50.55031" lon="3.39648">
        <ele>44.616531</ele>
        <time>2021-09-28T10:33:13Z</time>
      </trkpt>
      <trkpt lat="50.55036" lon="3.39634">
        <ele>44.714596</ele>
        <time>2021-09-28T10:33:15Z</time>
      </trkpt>
      <trkpt lat="50.55041" lon="3.3962">
        <ele>44.772465</ele>
        <time>2021-09-28T10:33:17Z</time>
      </trkpt>
      <trkpt lat="50.55048" lon="3.39607">
        <ele>44.829781</ele>
        <time>2021-09-28T10:33:19Z</time>
      </trkpt>
      <trkpt lat="50.55055" lon="3.39594">
        <ele>44.915512</ele>
        <time>2021-09-28T10:33:21Z</time>
      </trkpt>
      <trkpt lat="50.55061" lon="3.3958">
        <ele>44.925026</ele>
        <time>2021-09-28T10:33:23Z</time>
      </trkpt>
      <trkpt lat="50.55069" lon="3.39567">
        <ele>45.048428</ele>
        <time>2021-09-28T10:33:25Z</time>
      </trkpt>
      <trkpt lat="50.55077" lon="3.39554">
        <ele>45.083088</ele>
        <time>2021-09-28T10:33:27Z</time>
      </trkpt>
      <trkpt lat="50.55086" lon="3.39541">
        <ele>45.13702</ele>
        <time>2021-09-28T10:33:29Z</time>
      </trkpt>
      <trkpt lat="50.55094" lon="3.39528">
        <ele>45.161663</ele>
        <time>2021-09-28T10:33:31Z</time>
      </trkpt>
      <trkpt lat="50.55102" lon="3.39515">
        <ele>45.160637</ele>
        <time>2021-09-28T10:33:33Z</time>
      </trkpt>
      <trkpt lat="50.55109" lon="3.39503">
        <ele>45.137077</ele>
        <time>2021-09-28T10:33:35Z</time>
      </trkpt>
      <trkpt lat="50.55117" lon="3.39491">
        <ele>45.114002</ele>
        <time>2021-09-28T10:33:37Z</time>
      </trkpt>
      <trkpt lat="50.55125" lon="3.39478">
        <ele>45.147789</ele>
        <time>2021-09-28T10:33:39Z</time>
      </trkpt>
      <trkpt lat="50.55134" lon="3.39465">
        <ele>45.126965</ele>
        <time>2021-09-28T10:33:41Z</time>
      </trkpt>
      <trkpt lat="50.55142" lon="3.39452">
        <ele>45.102875</ele>
        <time>2021-09-28T10:33:43Z</time>
      </trkpt>
      <trkpt lat="50.5515" lon="3.39439">
        <ele>45.091133</ele>
        <time>2021-09-28T10:33:45Z</time>
      </trkpt>
      <trkpt lat="50.55158" lon="3.39427">
        <ele>45.050987</ele>
        <time>2021-09-28T10:33:47Z</time>
      </trkpt>
      <trkpt lat="50.55165" lon="3.39415">
        <ele>44.948036</ele>
        <time>2021-09-28T10:33:49Z</time>
      </trkpt>
      <trkpt lat="50.55173" lon="3.39403">
        <ele>44.872982</ele>
        <time>2021-09-28T10:33:51Z</time>
      </trkpt>
      <trkpt lat="50.5518" lon="3.39391">
        <ele>44.850399</ele>
        <time>2021-09-28T10:33:53Z</time>
      </trkpt>
      <trkpt lat="50.55188" lon="3.39379">
        <ele>44.830215</ele>
        <time>2021-09-28T10:33:55Z</time>
      </trkpt>
      <trkpt lat="50.55196" lon="3.39366">
        <ele>44.687874</ele>
        <time>2021-09-28T10:33:57Z</time>
      </trkpt>
      <trkpt lat="50.55204" lon="3.39353">
        <ele>44.622639</ele>
        <time>2021-09-28T10:33:59Z</time>
      </trkpt>
      <trkpt lat="50.55212" lon="3.3934">
        <ele>44.582233</ele>
        <time>2021-09-28T10:34:01Z</time>
      </trkpt>
      <trkpt lat="50.5522" lon="3.39328">
        <ele>44.525936</ele>
        <time>2021-09-28T10:34:03Z</time>
      </trkpt>
      <trkpt lat="50.55227" lon="3.39316">
        <ele>44.456673</ele>
        <time>2021-09-28T10:34:05Z</time>
      </trkpt>
      <trkpt lat="50.55235" lon="3.39304">
        <ele>44.442993</ele>
        <time>2021-09-28T10:34:07Z</time>
      </trkpt>
      <trkpt lat="50.55241" lon="3.39291">
        <ele>44.367805</ele>
        <time>2021-09-28T10:34:09Z</time>
      </trkpt>
      <trkpt lat="50.55248" lon="3.39277">
        <ele>44.280731</ele>
        <time>2021-09-28T10:34:11Z</time>
      </trkpt>
      <trkpt lat="50.55253" lon="3.3926">
        <ele>44.245186</ele>
        <time>2021-09-28T10:34:13Z</time>
      </trkpt>
      <trkpt lat="50.55259" lon="3.39245">
        <ele>44.221466</ele>
        <time>2021-09-28T10:34:15Z</time>
      </trkpt>
      <trkpt lat="50.55263" lon="3.39229">
        <ele>44.177437</ele>
        <time>2021-09-28T10:34:17Z</time>
      </trkpt>
      <trkpt lat="50.55267" lon="3.39215">
        <ele>44.183033</ele>
        <time>2021-09-28T10:34:19Z</time>
      </trkpt>
      <trkpt lat="50.55272" lon="3.392">
        <ele>44.230423</ele>
        <time>2021-09-28T10:34:21Z</time>
      </trkpt>
      <trkpt lat="50.55277" lon="3.39186">
        <ele>44.284721</ele>
        <time>2021-09-28T10:34:23Z</time>
      </trkpt>
      <trkpt lat="50.55281" lon="3.39171">
        <ele>44.380482</ele>
        <time>2021-09-28T10:34:25Z</time>
      </trkpt>
      <trkpt lat="50.55286" lon="3.39156">
        <ele>44.393494</ele>
        <time>2021-09-28T10:34:27Z</time>
      </trkpt>
      <trkpt lat="50.55293" lon="3.3914">
        <ele>44.486813</ele>
        <time>2021-09-28T10:34:29Z</time>
      </trkpt>
      <trkpt lat="50.55298" lon="3.39125">
        <ele>44.585365</ele>
        <time>2021-09-28T10:34:31Z</time>
      </trkpt>
      <trkpt lat="50.55302" lon="3.3911">
        <ele>44.665401</ele>
        <time>2021-09-28T10:34:33Z</time>
      </trkpt>
      <trkpt lat="50.55307" lon="3.39095">
        <ele>44.724136</ele>
        <time>2021-09-28T10:34:35Z</time>
      </trkpt>
      <trkpt lat="50.5531" lon="3.39082">
        <ele>44.813515</ele>
        <time>2021-09-28T10:34:37Z</time>
      </trkpt>
      <trkpt lat="50.55315" lon="3.39069">
        <ele>44.93763</ele>
        <time>2021-09-28T10:34:39Z</time>
      </trkpt>
      <trkpt lat="50.55318" lon="3.39056">
        <ele>44.967155</ele>
        <time>2021-09-28T10:34:41Z</time>
      </trkpt>
      <trkpt lat="50.55322" lon="3.39044">
        <ele>44.993439</ele>
        <time>2021-09-28T10:34:43Z</time>
      </trkpt>
      <trkpt lat="50.55327" lon="3.39032">
        <ele>45.006432</ele>
        <time>2021-09-28T10:34:45Z</time>
      </trkpt>
      <trkpt lat="50.55333" lon="3.39025">
        <ele>45.009808</ele>
        <time>2021-09-28T10:34:47Z</time>
      </trkpt>
      <trkpt lat="50.55336" lon="3.39022">
        <ele>45.013168</ele>
        <time>2021-09-28T10:34:49Z</time>
      </trkpt>
    </trkseg>
  </trk>
</gpx>